# Wetter Temperatur Luftdruck Luftfeuchtigkeit Sichtweite Windgeschwindigkeit Windrichtung Zeit
1 Clouds 9 1010 76 10000 7.7 150 02:49 05.04.2020
2 Clouds 10 1011 66 10000 7.7 150 01:47 05.04.2020
3 Clouds 10 1011 66 10000 7.2 150 01:28 05.04.2020
4 Clouds 9 1011 66 10000 7.7 160 00:44 05.04.2020
5 Clouds 9 1011 57 10000 6.7 150 00:21 05.04.2020
6 Clouds 9 1011 61 10000 5.1 170 23:43 04.04.2020
7 Clouds 9 1011 66 10000 6.7 170 23:23 04.04.2020
8 Clouds 10 1011 66 10000 7.7 160 22:59 04.04.2020
9 Clouds 9 1011 66 10000 7.7 160 22:40 04.04.2020
10 Clouds 10 1011 71 10000 6.7 160 22:21 04.04.2020
11 Clouds 10 1011 71 10000 6.7 160 21:58 04.04.2020
12 Clouds 10 1011 71 10000 3.6 140 21:39 04.04.2020
13 Clouds 10 1011 71 10000 4.1 150 21:19 04.04.2020
14 Rain 10 1011 66 10000 5.7 170 20:58 04.04.2020
15 Rain 11 1011 66 10000 5.7 170 20:39 04.04.2020
16 Rain 11 1011 62 10000 6.7 170 20:20 04.04.2020
17 Rain 11 1011 62 10000 6.2 180 19:57 04.04.2020
18 Rain 11 1011 62 10000 7.2 180 19:37 04.04.2020
19 Rain 11 1011 62 10000 7.2 180 19:19 04.04.2020
20 Clouds 11 1011 62 10000 7.2 180 18:55 04.04.2020
21 Clouds 11 1011 62 10000 7.2 180 18:37 04.04.2020
22 Clouds 11 1011 62 10000 5.1 160 18:18 04.04.2020
23 Clouds 11 1012 62 10000 6.7 180 17:41 04.04.2020
24 Clouds 11 1012 54 10000 6.2 160 17:20 04.04.2020
25 Clouds 11 1012 76 10000 3.6 140 16:56 04.04.2020
26 Clouds 11 1012 76 10000 3.6 140 16:38 04.04.2020
27 Clouds 11 1013 66 10000 5.1 150 16:19 04.04.2020
28 Clouds 10 1013 61 10000 6.2 180 15:42 04.04.2020
29 Clouds 10 1013 61 10000 5.1 190 15:24 04.04.2020
30 Clouds 10 1013 61 10000 5.1 190 14:59 04.04.2020
31 Rain 10 1014 66 10000 5.7 210 14:40 04.04.2020
32 Clouds 10 1014 57 10000 5.1 190 14:22 04.04.2020
33 Clouds 10 1014 57 10000 5.1 130 13:56 04.04.2020
34 Clouds 10 1014 57 10000 5.1 130 13:37 04.04.2020
35 Clouds 10 1014 61 10000 4.6 150 13:19 04.04.2020
36 Clouds 10 1014 53 10000 5.1 150 12:44 04.04.2020
37 Clouds 10 1014 61 10000 6.2 170 12:24 04.04.2020
38 Clouds 10 1014 70 10000 5.7 150 11:59 04.04.2020
39 Clouds 9 1014 70 10000 5.7 150 11:38 04.04.2020
40 Clouds 9 1014 70 10000 4.6 150 11:19 04.04.2020
41 Clouds 9 1015 70 10000 4.1 150 10:56 04.04.2020
42 Clouds 9 1015 70 10000 4.1 150 10:37 04.04.2020
43 Clouds 8 1015 70 10000 4.6 180 10:19 04.04.2020
44 Clouds 7 1014 70 10000 3.1 160 09:54 04.04.2020
45 Clouds 7 1014 70 10000 3.1 160 09:36 04.04.2020
46 Clouds 7 1014 75 10000 3.1 180 09:18 04.04.2020
47 Clouds 6 1015 75 10000 3.6 200 08:41 04.04.2020
48 Clouds 6 1014 75 10000 4.6 210 08:20 04.04.2020
49 Clouds 7 1014 81 10000 3.1 200 07:44 04.04.2020
50 Clouds 7 1014 81 10000 3.6 210 07:26 04.04.2020
51 Clouds 7 1015 81 10000 3.6 200 06:51 04.04.2020
52 Clouds 7 1015 81 10000 2.6 220 06:19 04.04.2020
53 Clouds 7 1015 87 10000 3.1 210 05:42 04.04.2020
54 Rain 7 1015 87 10000 3.1 230 05:23 04.04.2020
55 Clouds 8 1015 75 10000 2.6 210 04:30 04.04.2020
56 Clouds 8 1015 81 10000 2.1 200 03:49 04.04.2020
57 Clouds 8 1016 81 10000 2.6 230 02:51 04.04.2020
58 Clouds 8 1016 81 10000 2.1 230 02:32 04.04.2020
59 Clouds 7 1016 87 10000 2.1 250 01:53 04.04.2020
60 Clouds 7 1016 81 10000 2.1 230 01:25 04.04.2020
61 Clouds 7 1016 81 10000 1.5 210 00:48 04.04.2020
62 Clouds 8 1016 75 10000 1 0 00:29 04.04.2020
63 Clouds 8 1016 70 10000 1.5 0 23:39 03.04.2020
64 Rain 8 1016 70 10000 1 0 23:21 03.04.2020
65 Clouds 8 1016 70 10000 0.5 0 22:58 03.04.2020
66 Clouds 8 1016 70 10000 0.5 0 22:39 03.04.2020
67 Clouds 8 1016 66 10000 1.5 0 22:18 03.04.2020
68 Clouds 8 1015 66 10000 3.1 260 21:44 03.04.2020
69 Clouds 9 1015 70 10000 3.1 260 21:24 03.04.2020
70 Clouds 9 1015 70 10000 4.1 260 20:57 03.04.2020
71 Clouds 9 1015 70 10000 4.1 260 20:37 03.04.2020
72 Clouds 10 1015 66 10000 5.1 270 20:19 03.04.2020
73 Clouds 10 1015 62 10000 3.6 240 19:57 03.04.2020
74 Clouds 10 1015 66 10000 5.1 250 19:38 03.04.2020
75 Clouds 10 1015 66 10000 5.1 250 19:20 03.04.2020
76 Clouds 10 1015 71 10000 7.2 280 18:59 03.04.2020
77 Clouds 10 1015 71 10000 7.2 280 18:41 03.04.2020
78 Rain 10 1015 66 10000 3.6 230 18:22 03.04.2020
79 Rain 10 1015 76 10000 3.6 230 17:55 03.04.2020
80 Rain 10 1015 76 10000 3.6 230 17:36 03.04.2020
81 Rain 11 1015 71 10000 4.1 230 17:18 03.04.2020
82 Rain 11 1015 87 10000 3.1 240 16:43 03.04.2020
83 Rain 10 1016 87 10000 3.6 250 16:21 03.04.2020
84 Rain 10 1016 71 10000 4.6 240 15:58 03.04.2020
85 Rain 11 1016 71 10000 4.6 240 15:39 03.04.2020
86 Clouds 11 1016 62 10000 3.1 250 15:20 03.04.2020
87 Clouds 11 1016 62 10000 4.1 250 14:56 03.04.2020
88 Rain 11 1016 81 0 4.92 230 14:37 03.04.2020
89 Clouds 11 1017 71 10000 4.1 260 14:19 03.04.2020
90 Clouds 11 1017 71 10000 4.1 260 13:43 03.04.2020
91 Clouds 11 1017 71 10000 4.1 260 13:25 03.04.2020
92 Clouds 10 1017 61 10000 4.6 270 12:55 03.04.2020
93 Clouds 10 1017 61 10000 4.6 270 12:37 03.04.2020
94 Clouds 10 1017 61 10000 4.6 280 12:18 03.04.2020
95 Clouds 9 1017 70 10000 5.1 270 11:41 03.04.2020
96 Clouds 8 1017 75 10000 5.7 270 11:23 03.04.2020
97 Clouds 8 1016 75 10000 4.6 250 10:59 03.04.2020
98 Clouds 8 1016 75 10000 4.6 250 10:40 03.04.2020
99 Clouds 8 1016 87 10000 4.1 250 10:21 03.04.2020
100 Clouds 7 1016 81 10000 3.6 250 09:59 03.04.2020
101 Clouds 7 1016 81 10000 3.6 250 09:40 03.04.2020
102 Clouds 7 1016 81 10000 3.6 240 09:22 03.04.2020
103 Clouds 6 1016 87 10000 3.1 240 08:57 03.04.2020
104 Clouds 6 1016 87 10000 3.1 240 08:38 03.04.2020
105 Clouds 6 1016 87 10000 3.1 240 08:20 03.04.2020
106 Clouds 6 1016 87 10000 2.6 230 07:48 03.04.2020
107 Clouds 6 1016 93 10000 2.6 240 07:29 03.04.2020
108 Clouds 6 1016 86 10000 3.6 260 06:42 03.04.2020
109 Clouds 6 1016 86 10000 4.1 270 06:23 03.04.2020
110 Clouds 6 1016 86 10000 4.1 270 05:39 03.04.2020
111 Clouds 6 1016 81 10000 4.6 270 03:42 03.04.2020
112 Rain 6 1017 87 10000 3.6 280 02:56 03.04.2020
113 Rain 6 1017 87 10000 3.6 280 02:27 03.04.2020
114 Clouds 5 1017 86 10000 4.6 270 01:22 03.04.2020
115 Clouds 6 1017 80 10000 3.6 290 00:37 03.04.2020
116 Clouds 6 1016 81 10000 5.1 280 00:19 03.04.2020
117 Clouds 7 1016 81 10000 4.6 290 23:42 02.04.2020
118 Clouds 7 1016 70 10000 5.7 290 23:23 02.04.2020
119 Clouds 7 1016 70 10000 5.7 290 22:58 02.04.2020
120 Clouds 7 1016 75 10000 5.7 300 22:38 02.04.2020
121 Clouds 8 1016 75 10000 6.2 290 22:20 02.04.2020
122 Clouds 8 1016 70 10000 6.7 290 21:39 02.04.2020
123 Clouds 8 1016 75 10000 5.7 290 21:20 02.04.2020
124 Clouds 9 1016 75 10000 7.2 290 20:58 02.04.2020
125 Clouds 9 1016 75 10000 7.2 290 20:40 02.04.2020
126 Clouds 9 1016 75 10000 7.2 290 20:40 02.04.2020
127 Clouds 9 1016 76 10000 8.7 310 20:21 02.04.2020
128 Clouds 10 1015 76 10000 6.7 300 19:44 02.04.2020
129 Clouds 10 1015 71 10000 7.7 300 19:21 02.04.2020
130 Clouds 10 1015 71 10000 7.7 310 18:58 02.04.2020
131 Clouds 10 1015 71 10000 7.7 310 18:39 02.04.2020
132 Clouds 10 1015 76 10000 10.8 290 18:39 02.04.2020
133 Clouds 10 1015 76 10000 10.8 290 18:39 02.04.2020
134 Rain 10 1015 76 10000 10.8 290 18:20 02.04.2020
135 Rain 10 1015 76 10000 7.7 300 17:56 02.04.2020
136 Rain 10 1015 76 10000 7.7 300 17:38 02.04.2020
137 Rain 11 1015 76 10000 9.8 300 17:19 02.04.2020
138 Clouds 11 1015 81 10000 9.3 300 16:55 02.04.2020
139 Clouds 11 1015 81 10000 9.3 300 16:37 02.04.2020
140 Rain 10 1015 87 10000 8.2 310 16:18 02.04.2020
141 Rain 10 1015 81 6000 9.3 270 15:44 02.04.2020
142 Rain 11 1015 81 10000 10.3 280 15:21 02.04.2020
143 Rain 11 1015 81 10000 9.3 280 14:59 02.04.2020
144 Rain 11 1015 81 10000 9.3 280 14:40 02.04.2020
145 Rain 11 1015 76 10000 10.3 280 14:19 02.04.2020
146 Drizzle 11 1015 76 10000 10.8 270 13:56 02.04.2020
147 Drizzle 11 1015 76 10000 10.8 270 13:38 02.04.2020
148 Clouds 10 1015 81 10000 11.8 280 13:20 02.04.2020
149 Clouds 10 1015 76 10000 11.3 280 12:55 02.04.2020
150 Clouds 10 1015 76 10000 11.3 280 12:55 02.04.2020
151 Clouds 10 1015 76 10000 11.3 280 12:36 02.04.2020
152 Clouds 9 1016 81 10000 9.8 270 12:18 02.04.2020
153 Clouds 9 1016 81 10000 9.8 270 11:55 02.04.2020
154 Clouds 9 1016 81 10000 9.8 270 11:55 02.04.2020
155 Clouds 9 1016 81 10000 9.8 270 11:36 02.04.2020
156 Clouds 8 1016 87 10000 9.8 270 11:18 02.04.2020
157 Clouds 8 1016 87 10000 7.7 260 10:54 02.04.2020
158 Clouds 8 1017 81 10000 7.7 260 10:36 02.04.2020
159 Clouds 8 1017 81 10000 7.7 260 10:18 02.04.2020
160 Clouds 8 1017 81 10000 7.2 260 09:42 02.04.2020
161 Clouds 8 1017 81 10000 7.7 260 09:24 02.04.2020
162 Clouds 8 1017 81 10000 7.7 260 08:58 02.04.2020
163 Clouds 7 1017 87 10000 7.7 260 08:39 02.04.2020
164 Clouds 7 1017 93 10000 7.7 260 08:19 02.04.2020
165 Clouds 7 1017 93 10000 7.7 270 07:42 02.04.2020
166 Clouds 7 1018 93 10000 5.1 250 07:19 02.04.2020
167 Drizzle 7 1018 93 10000 4.6 250 06:46 02.04.2020
168 Drizzle 7 1018 93 10000 5.7 270 06:20 02.04.2020
169 Clouds 7 1019 93 10000 6.2 270 05:42 02.04.2020
170 Drizzle 7 1021 93 5000 4.6 270 03:24 02.04.2020
171 Clouds 7 1021 87 10000 5.1 270 01:31 02.04.2020
172 Clouds 7 1021 81 10000 5.7 270 00:42 02.04.2020
173 Clouds 7 1022 81 10000 5.1 270 00:24 02.04.2020
174 Clouds 7 1022 81 10000 5.1 270 23:41 01.04.2020
175 Clouds 7 1022 75 10000 4.6 270 23:20 01.04.2020
176 Clouds 7 1022 75 10000 4.1 260 22:58 01.04.2020
177 Clouds 7 1022 75 10000 4.1 260 22:39 01.04.2020
178 Clouds 8 1022 75 10000 5.1 280 22:21 01.04.2020
179 Clouds 8 1022 70 10000 3.6 290 21:42 01.04.2020
180 Clouds 8 1022 70 10000 3.6 290 21:42 01.04.2020
181 Clouds 9 1022 70 10000 5.1 310 21:22 01.04.2020
182 Clouds 9 1022 70 10000 5.1 310 21:22 01.04.2020
183 Clouds 9 1022 70 10000 5.1 310 21:22 01.04.2020
184 Clouds 9 1023 70 10000 6.2 310 20:58 01.04.2020
185 Clouds 9 1023 70 10000 6.2 310 20:40 01.04.2020
186 Clouds 9 1023 61 10000 6.7 310 20:21 01.04.2020
187 Clouds 9 1023 61 10000 7.2 310 20:00 01.04.2020
188 Clouds 9 1023 61 10000 7.2 310 19:41 01.04.2020
189 Clouds 9 1023 61 10000 7.7 320 19:21 01.04.2020
190 Clouds 10 1023 53 10000 6.7 320 18:46 01.04.2020
191 Clouds 10 1023 53 10000 6.2 310 18:26 01.04.2020
192 Clouds 10 1024 53 10000 6.2 320 17:58 01.04.2020
193 Clouds 9 1024 53 10000 6.2 320 17:38 01.04.2020
194 Clouds 9 1024 57 10000 6.7 300 17:20 01.04.2020
195 Clouds 9 1024 57 10000 6.7 300 16:59 01.04.2020
196 Clouds 9 1024 61 10000 5.7 310 16:40 01.04.2020
197 Clouds 9 1025 65 10000 4.6 310 16:22 01.04.2020
198 Clouds 9 1025 61 10000 5.1 310 15:58 01.04.2020
199 Clouds 9 1025 61 10000 5.1 310 15:38 01.04.2020
200 Clouds 9 1025 57 10000 5.7 320 15:20 01.04.2020
201 Clouds 8 1025 65 10000 7.2 300 14:56 01.04.2020
202 Clouds 8 1025 65 10000 7.2 300 14:38 01.04.2020
203 Clouds 8 1026 65 10000 4.6 320 14:19 01.04.2020
204 Clouds 8 1026 65 10000 6.2 310 13:57 01.04.2020
205 Clouds 8 1026 65 10000 6.2 310 13:37 01.04.2020
206 Clouds 8 1026 65 10000 6.2 290 13:18 01.04.2020
207 Clouds 8 1026 65 10000 6.2 310 12:43 01.04.2020
208 Clouds 8 1027 70 10000 6.2 310 12:24 01.04.2020
209 Clouds 7 1027 75 10000 6.2 310 11:59 01.04.2020
210 Clouds 7 1027 75 10000 6.2 310 11:40 01.04.2020
211 Clouds 7 1027 75 10000 5.7 310 11:21 01.04.2020
212 Clouds 6 1027 81 10000 5.1 300 10:56 01.04.2020
213 Clouds 6 1027 81 10000 5.1 300 10:37 01.04.2020
214 Clouds 6 1027 81 10000 4.6 300 10:18 01.04.2020
215 Clouds 5 1027 86 10000 4.6 300 09:40 01.04.2020
216 Clouds 5 1028 86 10000 4.6 290 09:22 01.04.2020
217 Clouds 5 1028 86 10000 3.6 290 08:59 01.04.2020
218 Clouds 5 1028 86 10000 3.6 290 08:40 01.04.2020
219 Clouds 5 1028 86 10000 3.6 290 08:40 01.04.2020
220 Clouds 5 1028 93 10000 4.1 300 08:18 01.04.2020
221 Clouds 5 1028 86 10000 3.1 290 07:42 01.04.2020
222 Clouds 5 1028 80 10000 3.6 300 07:20 01.04.2020
223 Clouds 5 1028 86 10000 4.1 300 06:47 01.04.2020
224 Clouds 5 1029 80 10000 4.1 310 06:22 01.04.2020
225 Clouds 5 1029 80 10000 3.6 310 05:53 01.04.2020
226 Clouds 6 1030 80 10000 4.1 320 04:30 01.04.2020
227 Clouds 6 1030 75 10000 2.6 310 03:27 01.04.2020
228 Clouds 6 1031 70 10000 3.6 340 02:46 01.04.2020
229 Clouds 6 1031 71 10000 4.6 350 01:53 01.04.2020
230 Clouds 7 1031 71 10000 4.6 350 01:29 01.04.2020
231 Clouds 7 1032 71 10000 3.6 360 00:48 01.04.2020
232 Clouds 7 1032 65 10000 3.6 350 00:25 01.04.2020
233 Clouds 7 1032 65 10000 4.1 350 23:59 31.03.2020
234 Clouds 7 1032 65 10000 4.1 350 23:41 31.03.2020
235 Clouds 7 1033 65 10000 4.6 360 23:22 31.03.2020
236 Clouds 7 1033 65 10000 4.6 360 23:22 31.03.2020
237 Clouds 7 1033 75 10000 4.6 10 22:42 31.03.2020
238 Clouds 7 1033 70 10000 4.1 360 22:22 31.03.2020
239 Clouds 7 1033 70 10000 4.1 10 21:59 31.03.2020
240 Clouds 7 1033 70 10000 4.1 10 21:40 31.03.2020
241 Clouds 8 1033 65 10000 3.6 10 21:22 31.03.2020
242 Clouds 8 1033 70 10000 3.6 360 20:58 31.03.2020
243 Clouds 8 1033 65 10000 2.6 60 20:38 31.03.2020
244 Clouds 8 1033 65 10000 2.6 60 20:19 31.03.2020
245 Clouds 8 1033 70 10000 4.1 10 19:57 31.03.2020
246 Clouds 8 1033 70 10000 4.1 10 19:39 31.03.2020
247 Clouds 8 1033 70 10000 3.6 10 19:21 31.03.2020
248 Clouds 8 1033 66 10000 4.6 10 18:46 31.03.2020
249 Clouds 9 1033 66 10000 3.6 10 18:21 31.03.2020
250 Clouds 9 1034 66 10000 4.1 40 17:58 31.03.2020
251 Clouds 9 1034 66 10000 4.1 40 17:40 31.03.2020
252 Clouds 9 1034 76 10000 3.6 70 17:21 31.03.2020
253 Clouds 9 1034 76 10000 3.6 70 17:21 31.03.2020
254 Clouds 9 1034 76 10000 4.1 80 16:57 31.03.2020
255 Clouds 9 1034 76 10000 4.1 80 16:37 31.03.2020
256 Clouds 9 1035 70 10000 4.1 90 16:18 31.03.2020
257 Clouds 9 1035 70 10000 3.6 80 15:56 31.03.2020
258 Clouds 9 1035 70 10000 3.6 80 15:37 31.03.2020
259 Clouds 9 1035 66 10000 3.6 50 15:18 31.03.2020
260 Clouds 9 1036 66 10000 3.6 60 14:43 31.03.2020
261 Clouds 9 1036 70 10000 4.1 60 14:24 31.03.2020
262 Clouds 9 1036 70 10000 3.6 60 13:59 31.03.2020
263 Clouds 9 1036 70 10000 3.6 60 13:41 31.03.2020
264 Clouds 9 1036 70 10000 4.1 40 13:19 31.03.2020
265 Clouds 8 1036 81 10000 4.6 20 12:46 31.03.2020
266 Clouds 7 1037 81 10000 4.1 20 12:21 31.03.2020
267 Clouds 7 1037 81 10000 4.6 20 11:59 31.03.2020
268 Clouds 7 1037 81 10000 4.6 20 11:38 31.03.2020
269 Clouds 6 1037 81 10000 4.6 20 11:19 31.03.2020
270 Clouds 6 1037 87 10000 4.1 10 10:56 31.03.2020
271 Clouds 6 1037 87 10000 4.1 10 10:38 31.03.2020
272 Clouds 5 1037 87 10000 3.6 10 10:20 31.03.2020
273 Clouds 5 1037 93 10000 3.6 360 09:45 31.03.2020
274 Clouds 5 1037 86 10000 3.1 10 09:27 31.03.2020
275 Clouds 4 1037 86 10000 3.6 10 08:59 31.03.2020
276 Clouds 4 1037 86 10000 3.6 10 08:41 31.03.2020
277 Clouds 4 1037 93 10000 3.1 10 08:21 31.03.2020
278 Clouds 4 1036 93 10000 4.1 10 07:59 31.03.2020
279 Clouds 4 1036 93 10000 4.1 10 07:41 31.03.2020
280 Clouds 4 1036 93 10000 3.1 360 07:22 31.03.2020
281 Clouds 4 1037 93 10000 2.6 340 06:55 31.03.2020
282 Clouds 4 1037 93 10000 2.6 340 06:36 31.03.2020
283 Clouds 4 1036 93 10000 1.5 0 05:42 31.03.2020
284 Clouds 4 1036 93 10000 3.1 320 05:20 31.03.2020
285 Clouds 3 1037 93 10000 4.1 340 02:40 31.03.2020
286 Clouds 3 1037 93 10000 3.6 340 01:47 31.03.2020
287 Clouds 3 1037 93 10000 4.6 340 01:19 31.03.2020
288 Clouds 4 1037 86 10000 4.1 350 00:42 31.03.2020
289 Clouds 4 1037 86 10000 4.1 340 00:19 31.03.2020
290 Clouds 5 1038 86 10000 4.1 340 23:39 30.03.2020
291 Clouds 5 1038 86 10000 4.1 350 23:20 30.03.2020
292 Clouds 5 1038 86 10000 4.1 350 22:57 30.03.2020
293 Clouds 6 1038 80 10000 4.6 350 22:38 30.03.2020
294 Clouds 6 1038 80 10000 4.1 350 22:18 30.03.2020
295 Clouds 6 1038 81 10000 3.6 350 21:57 30.03.2020
296 Clouds 7 1038 81 10000 3.6 350 21:37 30.03.2020
297 Clouds 7 1038 75 10000 4.1 360 21:19 30.03.2020
298 Rain 7 1037 75 10000 3.1 10 20:56 30.03.2020
299 Rain 7 1037 75 10000 3.1 10 20:37 30.03.2020
300 Rain 7 1037 75 10000 3.1 20 20:19 30.03.2020
301 Clouds 7 1037 75 10000 3.1 10 19:41 30.03.2020
302 Clouds 7 1037 75 10000 3.1 10 19:41 30.03.2020
303 Rain 8 1038 70 10000 3.6 20 19:22 30.03.2020
304 Rain 8 1038 70 10000 3.6 20 19:22 30.03.2020
305 Rain 8 1038 70 10000 4.1 30 18:57 30.03.2020
306 Rain 8 1038 70 10000 4.1 30 18:39 30.03.2020
307 Rain 8 1038 70 10000 4.1 30 18:39 30.03.2020
308 Clouds 8 1038 70 10000 4.6 40 18:21 30.03.2020
309 Clouds 8 1038 70 10000 4.6 50 17:57 30.03.2020
310 Clouds 8 1038 70 10000 4.6 50 17:38 30.03.2020
311 Clouds 8 1038 70 10000 5.7 20 17:19 30.03.2020
312 Clouds 8 1038 70 10000 5.7 20 16:56 30.03.2020
313 Clouds 8 1038 70 10000 5.7 20 16:56 30.03.2020
314 Clouds 8 1038 70 10000 5.7 20 16:38 30.03.2020
315 Clouds 8 1038 70 10000 5.1 20 16:20 30.03.2020
316 Rain 8 1039 66 10000 4.6 10 15:55 30.03.2020
317 Rain 8 1039 66 10000 4.6 10 15:36 30.03.2020
318 Rain 8 1039 75 10000 6.2 10 15:18 30.03.2020
319 Rain 8 1039 70 10000 5.1 10 14:54 30.03.2020
320 Rain 8 1039 70 10000 5.1 10 14:36 30.03.2020
321 Clouds 8 1040 70 10000 6.2 10 14:18 30.03.2020
322 Clouds 8 1040 70 10000 5.7 20 13:43 30.03.2020
323 Clouds 7 1040 70 10000 7.2 10 13:21 30.03.2020
324 Clouds 7 1040 75 10000 5.1 360 12:57 30.03.2020
325 Clouds 7 1040 75 10000 5.1 360 12:38 30.03.2020
326 Clouds 7 1040 75 10000 5.1 360 12:38 30.03.2020
327 Clouds 7 1040 81 10000 6.7 350 12:19 30.03.2020
328 Clouds 7 1041 81 10000 5.1 350 11:56 30.03.2020
329 Clouds 6 1041 81 10000 5.1 350 11:38 30.03.2020
330 Clouds 6 1041 81 10000 5.1 340 11:20 30.03.2020
331 Clouds 6 1041 81 10000 6.2 340 10:39 30.03.2020
332 Clouds 4 1041 86 10000 4.6 310 10:21 30.03.2020
333 Clouds 3 1041 86 10000 4.1 290 09:55 30.03.2020
334 Clouds 3 1041 86 10000 4.1 290 09:37 30.03.2020
335 Clouds 2 1041 88 10000 4.6 300 09:18 30.03.2020
336 Clouds 1 1042 88 10000 4.6 310 08:40 30.03.2020
337 Clouds 1 1042 88 10000 4.1 270 08:22 30.03.2020
338 Clouds 1 1042 86 10000 4.1 290 07:49 30.03.2020
339 Clouds 1 1042 86 10000 4.1 290 07:26 30.03.2020
340 Clouds 1 1042 86 10000 4.6 310 06:52 30.03.2020
341 Clouds 1 1043 80 10000 4.6 310 06:30 30.03.2020
342 Clouds 1 1043 80 10000 5.1 310 05:52 30.03.2020
343 Clouds 1 1043 80 10000 4.6 320 05:18 30.03.2020
344 Clouds 0 1044 80 10000 5.1 320 04:22 30.03.2020
345 Clouds 0 1044 89 10000 4.6 320 03:34 30.03.2020
346 Clear 1 1045 85 10000 5.1 330 02:37 30.03.2020
347 Clouds 0 1046 84 10000 4.6 350 01:26 30.03.2020
348 Clouds 1 1046 80 10000 3.6 350 00:33 30.03.2020
349 Clouds 1 1046 78 10000 3.6 360 23:59 29.03.2020
350 Clouds 1 1046 78 10000 3.6 360 23:41 29.03.2020
351 Clouds 2 1046 69 10000 3.1 360 23:22 29.03.2020
352 Clouds 2 1046 78 10000 3.6 20 22:56 29.03.2020
353 Clouds 2 1046 78 10000 3.6 20 22:37 29.03.2020
354 Clouds 2 1046 69 10000 3.6 40 22:18 29.03.2020
355 Clouds 2 1046 69 10000 3.6 40 21:40 29.03.2020
356 Clouds 3 1047 64 10000 5.1 40 21:21 29.03.2020
357 Clouds 3 1047 59 10000 5.7 40 20:56 29.03.2020
358 Clouds 4 1047 55 10000 6.7 40 20:37 29.03.2020
359 Clouds 4 1047 55 10000 6.7 40 20:19 29.03.2020
360 Clouds 5 1047 56 10000 7.2 60 19:58 29.03.2020
361 Clouds 5 1047 56 10000 7.2 60 19:40 29.03.2020
362 Clouds 5 1047 56 10000 5.7 50 19:22 29.03.2020
363 Clouds 5 1047 56 10000 7.7 50 18:57 29.03.2020
364 Clouds 5 1047 56 10000 7.7 50 18:38 29.03.2020
365 Clouds 5 1047 52 10000 7.2 40 18:20 29.03.2020
366 Clouds 6 1047 52 10000 8.2 20 17:56 29.03.2020
367 Clouds 5 1047 52 10000 8.2 20 17:38 29.03.2020
368 Clouds 5 1047 52 10000 7.2 40 17:19 29.03.2020
369 Clouds 5 1047 60 10000 7.7 40 16:56 29.03.2020
370 Clouds 5 1047 60 10000 7.7 40 16:38 29.03.2020
371 Clouds 5 1047 56 10000 7.7 40 16:19 29.03.2020
372 Clouds 5 1047 56 10000 8.2 50 15:41 29.03.2020
373 Clouds 5 1047 56 10000 8.2 50 15:41 29.03.2020
374 Clouds 5 1047 56 10000 8.2 40 15:23 29.03.2020
375 Clouds 5 1047 56 10000 8.2 40 14:58 29.03.2020
376 Clouds 5 1047 60 10000 8.2 40 14:40 29.03.2020
377 Clouds 5 1047 56 10000 8.7 60 14:20 29.03.2020
378 Clouds 5 1047 56 10000 8.7 60 13:58 29.03.2020
379 Clouds 5 1047 56 10000 7.7 50 13:39 29.03.2020
380 Clouds 5 1047 56 10000 7.7 50 13:20 29.03.2020
381 Clouds 5 1047 56 10000 8.2 40 12:56 29.03.2020
382 Clouds 5 1047 56 10000 7.7 50 12:37 29.03.2020
383 Clouds 5 1047 56 10000 7.7 50 12:37 29.03.2020
384 Clouds 5 1047 56 10000 7.7 50 12:19 29.03.2020
385 Clouds 5 1047 56 10000 8.2 60 11:55 29.03.2020
386 Clouds 5 1047 56 10000 8.2 60 11:37 29.03.2020
387 Clouds 5 1047 60 10000 7.7 50 11:18 29.03.2020
388 Clouds 4 1047 55 10000 7.7 50 10:38 29.03.2020
389 Clouds 4 1046 51 10000 8.7 60 10:19 29.03.2020
390 Clouds 3 1046 59 10000 7.2 70 09:41 29.03.2020
391 Clouds 4 1046 55 10000 7.2 60 09:22 29.03.2020
392 Clouds 3 1046 55 10000 8.2 60 08:54 29.03.2020
393 Clouds 3 1046 55 10000 8.2 60 08:36 29.03.2020
394 Clouds 3 1045 59 10000 8.7 60 08:18 29.03.2020
395 Clouds 4 1045 55 10000 7.7 60 07:42 29.03.2020
396 Clouds 3 1045 59 10000 8.2 60 07:21 29.03.2020
397 Clouds 3 1044 64 10000 9.3 60 05:50 29.03.2020
398 Clouds 4 1044 69 10000 8.2 60 04:29 29.03.2020
399 Clouds 4 1044 69 10000 8.7 60 03:31 29.03.2020
400 Clouds 4 1043 69 10000 10.3 60 01:51 29.03.2020
401 Clouds 4 1043 60 10000 10.8 60 01:23 29.03.2020
402 Clouds 4 1043 60 10000 8.7 60 00:58 29.03.2020
403 Clouds 4 1042 51 10000 10.8 60 00:33 29.03.2020
404 Clouds 5 1042 52 10000 9.3 60 23:57 28.03.2020
405 Clouds 5 1042 52 10000 9.3 60 23:39 28.03.2020
406 Clouds 5 1042 60 10000 9.8 60 23:19 28.03.2020
407 Clouds 5 1041 60 10000 10.8 60 22:41 28.03.2020
408 Clouds 6 1041 66 10000 11.8 60 22:22 28.03.2020
409 Clouds 6 1040 70 10000 9.3 60 21:56 28.03.2020
410 Clouds 6 1040 70 10000 9.3 60 21:37 28.03.2020
411 Clouds 6 1040 70 10000 7.2 70 21:19 28.03.2020
412 Clouds 6 1039 70 10000 7.7 60 20:42 28.03.2020
413 Clouds 7 1039 70 10000 6.7 60 20:24 28.03.2020
414 Clouds 7 1039 70 10000 6.7 60 20:24 28.03.2020
415 Clouds 7 1039 70 10000 7.7 50 19:58 28.03.2020
416 Clouds 7 1039 70 10000 7.7 50 19:39 28.03.2020
417 Clouds 7 1038 70 10000 8.7 40 19:21 28.03.2020
418 Clouds 8 1038 70 10000 8.2 40 18:59 28.03.2020
419 Clouds 8 1038 70 10000 8.2 40 18:39 28.03.2020
420 Clouds 8 1038 65 10000 7.7 40 18:20 28.03.2020
421 Clouds 8 1038 65 10000 8.7 40 17:40 28.03.2020
422 Clouds 9 1038 61 10000 8.7 40 17:22 28.03.2020
423 Clouds 8 1037 61 10000 9.3 40 16:57 28.03.2020
424 Clouds 8 1037 61 10000 9.3 40 16:37 28.03.2020
425 Clouds 8 1037 66 10000 8.7 50 16:18 28.03.2020
426 Clouds 8 1037 75 10000 8.2 50 15:39 28.03.2020
427 Clouds 8 1037 70 10000 10.3 50 15:19 28.03.2020
428 Clouds 8 1037 70 10000 9.8 50 14:57 28.03.2020
429 Clouds 8 1037 70 10000 9.8 50 14:38 28.03.2020
430 Clouds 8 1037 70 10000 10.8 50 14:20 28.03.2020
431 Clouds 8 1037 70 10000 10.3 50 13:41 28.03.2020
432 Clouds 8 1037 70 10000 10.3 50 13:22 28.03.2020
433 Clouds 8 1037 70 10000 9.8 40 12:40 28.03.2020
434 Clouds 8 1036 70 10000 10.8 40 12:22 28.03.2020
435 Clouds 8 1036 70 10000 10.8 40 12:22 28.03.2020
436 Clouds 8 1036 70 10000 9.8 30 11:43 28.03.2020
437 Clouds 8 1036 66 10000 8.7 40 11:23 28.03.2020
438 Clouds 8 1036 66 10000 8.7 40 11:23 28.03.2020
439 Clouds 8 1036 75 10000 8.7 40 10:58 28.03.2020
440 Clouds 8 1036 75 10000 8.7 40 10:38 28.03.2020
441 Clouds 8 1035 70 10000 9.3 50 10:18 28.03.2020
442 Clouds 7 1035 70 10000 8.7 50 09:42 28.03.2020
443 Clouds 7 1035 70 10000 9.3 50 09:23 28.03.2020
444 Clouds 7 1034 70 10000 8.2 40 08:55 28.03.2020
445 Clouds 6 1034 70 10000 8.2 40 08:37 28.03.2020
446 Clouds 6 1034 81 10000 7.7 40 08:18 28.03.2020
447 Clouds 6 1034 81 10000 7.7 40 07:41 28.03.2020
448 Clouds 7 1033 87 10000 5.7 30 06:58 28.03.2020
449 Clouds 7 1033 87 10000 4.1 40 06:34 28.03.2020
450 Clouds 7 1033 87 10000 4.1 40 05:41 28.03.2020
451 Clouds 7 1033 100 10000 3.6 30 05:21 28.03.2020
452 Clouds 6 1032 100 10000 4.1 40 04:40 28.03.2020
453 Clouds 7 1032 93 10000 6.7 50 03:21 28.03.2020
454 Clouds 7 1031 93 10000 6.7 40 01:49 28.03.2020
455 Clouds 7 1031 87 10000 6.2 40 01:25 28.03.2020
456 Clouds 7 1031 87 10000 7.2 40 00:55 28.03.2020
457 Clouds 7 1031 87 10000 7.2 40 00:35 28.03.2020
458 Clouds 7 1031 87 10000 4.6 40 23:54 27.03.2020
459 Clouds 7 1031 87 10000 4.6 20 23:36 27.03.2020
460 Clouds 7 1031 87 10000 4.6 20 23:18 27.03.2020
461 Clouds 7 1030 93 10000 5.7 20 22:54 27.03.2020
462 Clouds 7 1030 93 10000 5.7 20 22:36 27.03.2020
463 Clouds 7 1030 93 10000 5.1 20 22:18 27.03.2020
464 Clouds 7 1030 93 10000 5.7 20 21:42 27.03.2020
465 Clouds 7 1030 87 10000 4.1 20 21:23 27.03.2020
466 Clouds 7 1029 87 10000 4.1 20 20:58 27.03.2020
467 Clouds 7 1029 87 10000 4.1 20 20:39 27.03.2020
468 Clouds 8 1029 87 10000 5.1 30 20:19 27.03.2020
469 Clouds 8 1029 87 10000 5.7 40 19:56 27.03.2020
470 Clouds 8 1029 87 10000 5.7 40 19:38 27.03.2020
471 Clouds 9 1028 87 10000 6.2 30 19:19 27.03.2020
472 Clouds 9 1028 87 10000 6.2 30 18:43 27.03.2020
473 Clouds 9 1028 87 10000 6.2 50 18:23 27.03.2020
474 Clouds 9 1028 87 10000 5.7 50 17:55 27.03.2020
475 Clouds 9 1028 87 10000 5.7 50 17:55 27.03.2020
476 Clouds 9 1028 87 10000 5.7 50 17:36 27.03.2020
477 Clouds 9 1028 87 10000 5.7 50 17:18 27.03.2020
478 Clouds 9 1028 81 10000 6.2 60 16:43 27.03.2020
479 Clouds 10 1028 81 10000 5.7 50 16:24 27.03.2020
480 Clouds 10 1028 81 10000 5.7 50 15:44 27.03.2020
481 Clouds 9 1028 87 10000 6.2 50 15:26 27.03.2020
482 Clouds 9 1029 87 8000 5.1 40 14:56 27.03.2020
483 Clouds 9 1029 87 8000 5.1 40 14:36 27.03.2020
484 Clouds 9 1029 87 8000 4.6 40 14:18 27.03.2020
485 Clouds 9 1029 87 8000 6.2 40 13:42 27.03.2020
486 Clouds 9 1029 93 8000 5.7 40 13:21 27.03.2020
487 Mist 9 1029 87 5000 5.1 40 12:58 27.03.2020
488 Mist 8 1029 87 5000 5.1 40 12:39 27.03.2020
489 Mist 8 1029 93 5000 5.7 40 12:19 27.03.2020
490 Mist 8 1029 87 4000 5.7 50 11:42 27.03.2020
491 Mist 8 1028 93 4000 6.7 40 11:24 27.03.2020
492 Mist 8 1028 93 4000 6.2 40 10:55 27.03.2020
493 Mist 8 1028 93 4000 6.2 40 10:37 27.03.2020
494 Mist 7 1028 100 3500 6.7 40 10:19 27.03.2020
495 Mist 7 1028 100 3000 6.2 40 09:57 27.03.2020
496 Mist 7 1028 100 3000 6.2 40 09:38 27.03.2020
497 Mist 7 1027 93 2500 5.7 30 09:19 27.03.2020
498 Mist 7 1027 93 3000 6.7 30 08:56 27.03.2020
499 Mist 7 1027 93 5000 6.2 40 08:38 27.03.2020
500 Mist 7 1027 93 5000 6.2 40 08:20 27.03.2020
501 Mist 7 1027 93 3500 5.7 30 07:52 27.03.2020
502 Mist 7 1027 93 3500 6.2 30 07:25 27.03.2020
503 Clouds 6 1026 100 8000 3.6 30 06:54 27.03.2020
504 Clouds 6 1026 100 9000 3.1 20 06:35 27.03.2020
505 Clouds 6 1026 93 10000 4.6 30 05:28 27.03.2020
506 Clouds 6 1026 100 10000 4.1 40 02:46 27.03.2020
507 Clouds 6 1026 93 10000 4.6 40 01:23 27.03.2020
508 Clouds 7 1026 93 10000 4.1 40 00:51 27.03.2020
509 Clouds 6 1026 93 10000 4.1 30 00:31 27.03.2020
510 Clouds 7 1026 93 10000 4.1 40 23:44 26.03.2020
511 Clouds 7 1026 93 10000 4.1 50 23:23 26.03.2020
512 Clouds 7 1026 93 10000 4.1 40 22:59 26.03.2020
513 Clouds 7 1026 93 10000 4.1 40 22:38 26.03.2020
514 Clouds 7 1026 93 10000 5.1 40 22:20 26.03.2020
515 Clouds 7 1026 93 10000 5.1 40 22:20 26.03.2020
516 Clear 7 1026 93 10000 5.7 50 21:57 26.03.2020
517 Clear 7 1026 93 10000 5.7 50 21:38 26.03.2020
518 Clear 7 1026 93 10000 3.1 60 21:20 26.03.2020
519 Clear 8 1025 87 10000 3.6 40 20:57 26.03.2020
520 Clear 8 1025 87 10000 3.6 40 20:38 26.03.2020
521 Clear 8 1025 87 10000 4.6 20 20:20 26.03.2020
522 Clear 9 1025 81 10000 4.6 30 19:54 26.03.2020
523 Clear 9 1025 81 10000 4.6 30 19:36 26.03.2020
524 Clear 10 1025 76 10000 5.1 20 19:18 26.03.2020
525 Clear 10 1025 76 10000 4.6 30 18:41 26.03.2020
526 Clear 11 1025 71 10000 4.1 70 18:23 26.03.2020
527 Clear 11 1025 66 10000 3.6 50 17:56 26.03.2020
528 Clouds 11 1025 71 10000 4.6 50 17:37 26.03.2020
529 Clouds 11 1025 71 10000 4.6 50 17:18 26.03.2020
530 Clouds 12 1025 71 10000 5.1 50 16:40 26.03.2020
531 Clouds 12 1025 71 10000 5.1 40 16:21 26.03.2020
532 Clouds 11 1025 76 10000 5.7 50 15:57 26.03.2020
533 Clouds 11 1025 76 10000 5.7 50 15:57 26.03.2020
534 Clouds 11 1025 76 10000 6.2 50 15:39 26.03.2020
535 Clouds 11 1025 76 10000 6.2 50 15:20 26.03.2020
536 Clouds 11 1026 76 10000 5.7 50 14:57 26.03.2020
537 Clouds 11 1026 76 10000 5.7 50 14:37 26.03.2020
538 Clouds 11 1026 76 10000 5.7 50 14:18 26.03.2020
539 Clouds 10 1026 76 10000 5.7 50 13:41 26.03.2020
540 Clouds 10 1026 76 10000 5.1 50 13:22 26.03.2020
541 Clouds 10 1026 81 10000 5.1 60 12:55 26.03.2020
542 Clouds 10 1026 81 10000 5.1 60 12:37 26.03.2020
543 Clouds 10 1026 81 10000 4.1 50 12:18 26.03.2020
544 Clouds 9 1026 87 10000 4.1 60 11:44 26.03.2020
545 Clouds 8 1026 93 10000 4.1 30 11:20 26.03.2020
546 Clouds 8 1026 93 8000 3.6 40 10:42 26.03.2020
547 Clouds 7 1026 100 7000 3.6 50 10:20 26.03.2020
548 Mist 6 1025 100 5000 3.1 40 09:59 26.03.2020
549 Mist 6 1025 100 5000 3.1 40 09:41 26.03.2020
550 Mist 6 1025 100 5000 3.1 50 09:19 26.03.2020
551 Mist 6 1025 100 3000 3.1 20 08:44 26.03.2020
552 Mist 6 1025 100 1500 3.6 20 08:26 26.03.2020
553 Mist 6 1025 100 1500 3.1 30 07:57 26.03.2020
554 Mist 6 1025 100 1500 3.1 30 07:38 26.03.2020
555 Mist 6 1025 100 2500 3.1 30 07:19 26.03.2020
556 Fog 6 1025 100 900 3.6 30 06:35 26.03.2020
557 Fog 4 1024 100 400 3.6 50 05:51 26.03.2020
558 Fog 4 1024 100 2500 1 0 03:47 26.03.2020
559 Fog 5 1023 93 4000 1.5 320 03:18 26.03.2020
560 Clouds 4 1024 100 6000 1.5 0 02:50 26.03.2020
561 Clouds 5 1023 100 6000 1 0 01:19 26.03.2020
562 Clouds 6 1023 100 8000 1.5 360 00:32 26.03.2020
563 Clouds 7 1023 93 9000 1.5 0 23:44 25.03.2020
564 Clouds 7 1023 100 10000 1.5 300 23:26 25.03.2020
565 Clouds 7 1023 93 10000 2.1 270 22:55 25.03.2020
566 Clouds 7 1023 93 10000 2.1 270 22:37 25.03.2020
567 Clouds 7 1023 100 8000 1.5 260 22:18 25.03.2020
568 Clouds 8 1023 93 10000 1 0 21:43 25.03.2020
569 Clouds 8 1023 93 10000 1 0 21:24 25.03.2020
570 Clouds 8 1023 93 10000 0.5 0 20:59 25.03.2020
571 Clouds 9 1023 93 10000 0.5 0 20:39 25.03.2020
572 Clouds 9 1022 81 10000 1 0 20:19 25.03.2020
573 Clouds 11 1022 87 10000 1 0 19:55 25.03.2020
574 Clouds 11 1022 87 10000 1 0 19:37 25.03.2020
575 Clouds 13 1022 76 10000 2.1 100 19:18 25.03.2020
576 Clouds 13 1022 76 10000 1.5 0 18:43 25.03.2020
577 Clouds 13 1021 71 10000 2.6 90 18:25 25.03.2020
578 Clouds 14 1021 71 10000 2.1 110 17:58 25.03.2020
579 Clouds 14 1021 71 10000 2.1 110 17:40 25.03.2020
580 Clouds 14 1021 71 10000 2.6 100 17:21 25.03.2020
581 Clouds 14 1021 71 10000 3.1 110 16:56 25.03.2020
582 Clouds 14 1021 71 10000 3.1 110 16:38 25.03.2020
583 Clouds 14 1021 71 10000 3.1 90 16:20 25.03.2020
584 Clouds 14 1021 62 10000 2.1 120 15:42 25.03.2020
585 Clouds 14 1021 67 10000 2.1 130 15:20 25.03.2020
586 Clouds 14 1022 62 10000 3.1 140 14:57 25.03.2020
587 Clouds 14 1022 62 10000 3.1 140 14:39 25.03.2020
588 Clouds 14 1022 66 10000 2.6 120 14:19 25.03.2020
589 Clouds 15 1021 58 10000 1 0 13:44 25.03.2020
590 Clouds 15 1021 54 10000 2.1 270 13:24 25.03.2020
591 Clouds 14 1021 62 10000 2.1 220 12:39 25.03.2020
592 Clouds 14 1021 62 10000 2.1 220 12:39 25.03.2020
593 Clouds 14 1021 58 10000 3.1 260 12:21 25.03.2020
594 Clouds 14 1021 66 10000 3.1 260 11:57 25.03.2020
595 Clouds 13 1021 66 10000 3.1 260 11:39 25.03.2020
596 Clouds 13 1021 66 10000 3.1 180 11:20 25.03.2020
597 -273 0 0 0 0 0 11:20 25.03.2020
598 Clouds 13 1021 66 10000 3.1 180 11:20 25.03.2020
599 Clouds 13 1021 62 10000 2.6 160 10:57 25.03.2020
600 Clouds 13 1021 62 10000 2.6 160 10:39 25.03.2020
601 Clouds 12 1021 66 10000 2.6 170 10:18 25.03.2020
602 Clouds 10 1020 66 10000 3.1 160 09:43 25.03.2020
603 Clouds 10 1020 71 10000 2.1 150 09:25 25.03.2020
604 Clouds 9 1020 81 10000 1.5 180 08:58 25.03.2020
605 Clouds 9 1020 81 10000 1.5 180 08:39 25.03.2020
606 Clouds 8 1020 93 10000 1.5 0 08:20 25.03.2020
607 Clouds 7 1020 93 10000 2.1 130 07:47 25.03.2020
608 Clouds 8 1020 80 10000 0.5 360 07:26 25.03.2020
609 Clouds 8 1020 87 10000 1.5 0 06:57 25.03.2020
610 Clouds 8 1020 87 10000 1.5 0 06:37 25.03.2020
611 Clouds 8 1019 81 10000 1 0 06:19 25.03.2020
612 Clouds 8 1019 81 10000 2.1 190 05:42 25.03.2020
613 Clouds 8 1019 75 10000 1.5 0 04:41 25.03.2020
614 Clouds 8 1019 75 10000 3.6 190 03:53 25.03.2020
615 Clouds 8 1019 75 10000 2.1 170 03:29 25.03.2020
616 Clouds 8 1019 70 10000 4.6 200 01:39 25.03.2020
617 Clouds 8 1019 75 10000 5.7 200 00:50 25.03.2020
618 Clouds 8 1019 75 10000 5.1 190 00:26 25.03.2020
619 Clouds 8 1019 75 10000 4.6 190 23:53 24.03.2020
620 Clouds 8 1018 75 10000 4.1 190 23:28 24.03.2020
621 Clouds 8 1018 75 10000 3.6 190 22:58 24.03.2020
622 Clouds 8 1018 75 10000 3.6 190 22:38 24.03.2020
623 Clouds 8 1018 75 10000 4.1 190 22:19 24.03.2020
624 Clouds 8 1018 75 10000 4.1 190 22:19 24.03.2020
625 Clouds 8 1018 75 10000 3.1 190 21:57 24.03.2020
626 Clouds 8 1018 75 10000 3.1 190 21:57 24.03.2020
627 Clouds 8 1018 75 10000 3.1 190 21:38 24.03.2020
628 Clouds 9 1018 70 10000 5.1 200 21:18 24.03.2020
629 Clouds 9 1017 70 10000 5.7 210 20:57 24.03.2020
630 Clouds 9 1017 70 10000 5.7 210 20:39 24.03.2020
631 Clouds 9 1017 70 10000 5.7 220 20:21 24.03.2020
632 Clouds 10 1017 66 10000 4.1 230 19:45 24.03.2020
633 Clouds 11 1017 62 10000 7.7 210 19:20 24.03.2020
634 Clouds 11 1017 62 10000 8.7 220 18:56 24.03.2020
635 Clouds 11 1016 66 10000 8.2 220 18:37 24.03.2020
636 Clouds 11 1016 66 10000 8.2 220 18:19 24.03.2020
637 Clouds 12 1016 66 10000 7.7 220 17:43 24.03.2020
638 Clouds 12 1016 62 10000 7.2 230 17:24 24.03.2020
639 Clouds 13 1016 58 10000 6.7 220 16:59 24.03.2020
640 Clouds 13 1016 58 10000 6.7 220 16:41 24.03.2020
641 Clouds 13 1016 58 10000 7.7 220 16:23 24.03.2020
642 Clouds 13 1017 54 10000 6.2 220 15:59 24.03.2020
643 Clouds 13 1017 54 10000 6.2 220 15:40 24.03.2020
644 Clouds 13 1017 58 10000 4.1 230 15:22 24.03.2020
645 Clouds 13 1017 58 10000 4.1 230 14:43 24.03.2020
646 Clouds 13 1017 58 10000 4.1 230 14:43 24.03.2020
647 Clouds 13 1017 58 10000 4.1 230 14:43 24.03.2020
648 Clouds 14 1017 58 10000 5.7 220 14:22 24.03.2020
649 Clouds 13 1017 58 10000 5.7 220 13:55 24.03.2020
650 Clouds 13 1017 58 10000 5.7 220 13:36 24.03.2020
651 Clouds 13 1017 58 10000 4.1 230 13:18 24.03.2020
652 Clouds 12 1017 62 10000 3.6 220 12:41 24.03.2020
653 Clouds 12 1017 62 10000 4.1 200 12:23 24.03.2020
654 Clouds 12 1017 58 10000 1 0 11:41 24.03.2020
655 Clouds 10 1018 66 10000 2.6 150 11:20 24.03.2020
656 Clouds 10 1018 71 10000 3.6 200 10:57 24.03.2020
657 Clouds 10 1018 71 10000 3.6 200 10:38 24.03.2020
658 Clouds 10 1018 66 10000 3.6 220 10:18 24.03.2020
659 Clouds 9 1018 76 10000 2.6 200 09:43 24.03.2020
660 Clouds 9 1018 76 10000 1.5 0 09:25 24.03.2020
661 Clouds 8 1018 81 10000 2.6 210 08:40 24.03.2020
662 Clouds 8 1018 81 10000 2.6 290 08:21 24.03.2020
663 Clouds 7 1018 75 10000 2.6 150 07:59 24.03.2020
664 Clouds 7 1018 75 10000 2.6 150 07:41 24.03.2020
665 Clouds 7 1018 81 10000 3.1 190 07:21 24.03.2020
666 Clouds 8 1018 75 10000 2.6 210 06:35 24.03.2020
667 Clouds 8 1018 65 10000 3.6 200 05:36 24.03.2020
668 Clouds 8 1018 70 10000 4.6 210 04:50 24.03.2020
669 Clouds 8 1019 66 10000 3.6 180 03:19 24.03.2020
670 Clouds 8 1020 65 10000 3.1 140 02:25 24.03.2020
671 Clouds 8 1020 75 10000 2.6 150 00:53 24.03.2020
672 Clouds 8 1020 70 10000 2.1 110 00:26 24.03.2020
673 Clouds 8 1021 70 10000 1.5 100 23:55 23.03.2020
674 Clouds 8 1021 66 10000 1 160 23:36 23.03.2020
675 Clouds 8 1021 66 10000 1 160 23:18 23.03.2020
676 Clouds 8 1021 70 10000 1 0 22:42 23.03.2020
677 Clouds 8 1020 81 10000 1 0 22:22 23.03.2020
678 Clouds 8 1020 81 10000 1 0 22:22 23.03.2020
679 Clouds 9 1021 70 10000 2.1 170 21:54 23.03.2020
680 Clouds 9 1021 70 10000 2.1 170 21:36 23.03.2020
681 Clouds 9 1021 66 10000 3.1 170 21:18 23.03.2020
682 Clouds 9 1021 66 10000 3.1 170 20:42 23.03.2020
683 Clouds 9 1021 66 10000 4.1 210 20:23 23.03.2020
684 Clouds 10 1021 66 10000 3.6 220 19:55 23.03.2020
685 Clouds 10 1021 66 10000 3.6 220 19:55 23.03.2020
686 Clouds 10 1021 66 10000 3.6 220 19:55 23.03.2020
687 Clouds 10 1021 66 10000 3.6 220 19:37 23.03.2020
688 Clouds 10 1020 66 10000 4.1 190 19:18 23.03.2020
689 Clouds 11 1020 71 10000 3.6 170 18:43 23.03.2020
690 Clouds 11 1020 76 10000 4.1 170 18:24 23.03.2020
691 Clouds 11 1020 71 10000 5.7 150 17:58 23.03.2020
692 Clouds 12 1020 71 10000 5.1 150 17:39 23.03.2020
693 Clouds 12 1020 71 10000 5.1 150 17:19 23.03.2020
694 Clouds 12 1020 71 10000 5.1 150 16:43 23.03.2020
695 Clouds 12 1020 66 10000 4.6 140 16:25 23.03.2020
696 Clouds 13 1021 66 10000 5.1 150 15:44 23.03.2020
697 Clouds 13 1021 62 10000 5.1 140 15:21 23.03.2020
698 Clouds 13 1021 54 10000 4.1 140 14:57 23.03.2020
699 Clouds 13 1021 54 10000 4.1 140 14:37 23.03.2020
700 Clouds 13 1022 62 10000 4.1 140 14:18 23.03.2020
701 Clouds 12 1022 58 10000 4.6 140 13:54 23.03.2020
702 Clouds 12 1022 58 10000 4.6 140 13:54 23.03.2020
703 Clouds 12 1022 62 10000 3.6 150 13:36 23.03.2020
704 Clouds 12 1022 62 10000 3.6 150 13:36 23.03.2020
705 Clouds 12 1022 62 10000 3.6 150 13:18 23.03.2020
706 Clouds 11 1022 62 10000 3.6 140 12:41 23.03.2020
707 Clouds 11 1023 62 10000 3.6 140 12:22 23.03.2020
708 Clouds 11 1023 62 10000 3.6 140 12:22 23.03.2020
709 Clouds 10 1023 66 10000 3.6 150 11:55 23.03.2020
710 Clouds 9 1023 66 10000 3.6 150 11:37 23.03.2020
711 Clouds 9 1023 66 10000 3.6 150 11:18 23.03.2020
712 Clouds 8 1023 70 10000 3.6 150 10:41 23.03.2020
713 Clouds 8 1023 65 10000 4.1 160 10:23 23.03.2020
714 Clouds 7 1023 70 10000 4.1 160 09:59 23.03.2020
715 Clouds 7 1023 70 10000 4.1 160 09:40 23.03.2020
716 Clouds 6 1023 75 10000 4.1 160 09:19 23.03.2020
717 Clouds 5 1022 80 10000 3.6 160 08:38 23.03.2020
718 Clouds 4 1023 80 10000 2.6 160 08:19 23.03.2020
719 Clouds 5 1022 75 10000 2.6 150 07:51 23.03.2020
720 Clouds 5 1023 75 10000 1 0 07:32 23.03.2020
721 Clouds 4 1023 92 10000 2.1 150 06:55 23.03.2020
722 Clouds 4 1023 92 10000 2.6 150 06:32 23.03.2020
723 Clouds 4 1023 75 10000 3.6 140 05:43 23.03.2020
724 Clouds 3 1024 89 10000 2.1 200 03:54 23.03.2020
725 Clouds 3 1024 89 10000 3.6 160 02:43 23.03.2020
726 Clouds 2 1023 69 10000 1.5 0 01:39 23.03.2020
727 Clouds 2 1025 83 10000 0.5 0 00:45 23.03.2020
728 Clouds 1 1025 92 10000 1 260 23:58 22.03.2020
729 Clouds 1 1025 92 10000 1 260 23:40 22.03.2020
730 Clouds 1 1025 73 10000 1 0 23:22 22.03.2020
731 Clouds 1 1025 92 10000 1 240 22:40 22.03.2020
732 Clouds 3 1025 80 10000 3.73 140 22:20 22.03.2020
733 Clouds 4 1025 75 10000 1 0 21:40 22.03.2020
734 Clouds 4 1026 75 10000 1 0 21:21 22.03.2020
735 Clouds 5 1026 75 10000 1 0 20:58 22.03.2020
736 Clouds 5 1026 75 10000 2.6 130 20:40 22.03.2020
737 Clouds 5 1025 75 10000 3.1 140 20:21 22.03.2020
738 Clouds 6 1025 70 10000 4.6 140 19:56 22.03.2020
739 Clouds 6 1025 70 10000 4.6 140 19:37 22.03.2020
740 Clouds 7 1026 69 10000 4.1 140 19:19 22.03.2020
741 Clouds 7 1026 69 10000 5.1 130 18:57 22.03.2020
742 Clouds 8 1026 69 10000 5.1 130 18:38 22.03.2020
743 Clouds 8 1026 69 10000 5.7 140 18:18 22.03.2020
744 Clouds 8 1026 52 10000 6.7 140 17:56 22.03.2020
745 Clouds 8 1026 52 10000 6.7 140 17:37 22.03.2020
746 Clouds 8 1026 63 10000 6.7 140 17:19 22.03.2020
747 Clouds 9 1026 63 10000 5.1 130 16:55 22.03.2020
748 Clouds 9 1026 63 10000 5.1 130 16:36 22.03.2020
749 Clouds 9 1026 63 10000 5.1 140 16:18 22.03.2020
750 Clouds 9 1026 57 10000 5.1 130 15:39 22.03.2020
751 Clouds 9 1026 63 10000 5.7 140 14:55 22.03.2020
752 Clouds 9 1026 63 10000 5.7 140 14:37 22.03.2020
753 Clouds 9 1027 57 10000 4.6 140 14:18 22.03.2020
754 Clouds 9 1027 66 10000 5.1 140 13:41 22.03.2020
755 Clouds 9 1027 61 10000 5.1 140 13:19 22.03.2020
756 Clouds 8 1027 65 10000 5.7 140 12:47 22.03.2020
757 Clouds 8 1027 65 10000 6.2 150 12:23 22.03.2020
758 Clouds 8 1027 70 10000 6.2 150 11:59 22.03.2020
759 Clouds 8 1027 70 10000 5.1 150 11:41 22.03.2020
760 Clouds 7 1027 70 10000 5.1 150 11:23 22.03.2020
761 Clouds 7 1027 75 10000 5.1 140 10:54 22.03.2020
762 Clouds 7 1027 75 10000 5.1 140 10:36 22.03.2020
763 Clouds 6 1027 75 10000 5.1 140 10:18 22.03.2020
764 Clouds 5 1027 86 10000 1.5 0 09:41 22.03.2020
765 Clouds 3 1027 76 10000 0.5 0 09:19 22.03.2020
766 Clouds 3 1026 80 10000 2.1 130 08:43 22.03.2020
767 Clouds 1 1027 91 10000 0.5 0 08:24 22.03.2020
768 Clouds 1 1026 80 10000 1.5 130 07:51 22.03.2020
769 Clouds 1 1026 80 10000 1 150 07:23 22.03.2020
770 Clouds 2 1026 69 10000 2.6 160 06:35 22.03.2020
771 Clouds 3 1026 69 10000 3.1 140 05:34 22.03.2020
772 Clouds 5 1026 56 10000 5.1 140 03:30 22.03.2020
773 Clouds 7 1025 69 10000 5.1 140 01:27 22.03.2020
774 Clouds 7 1025 67 10000 4.1 140 00:47 22.03.2020
775 Clouds 7 1025 56 10000 4.1 140 00:25 22.03.2020
776 Clouds 7 1025 67 10000 4.1 130 23:43 21.03.2020
777 Clouds 7 1024 69 10000 3.6 140 23:19 21.03.2020
778 Clouds 7 1024 52 10000 4.6 140 22:55 21.03.2020
779 Clouds 7 1024 52 10000 5.1 140 22:36 21.03.2020
780 Clouds 7 1024 52 10000 5.1 140 22:18 21.03.2020
781 Clouds 7 1024 61 10000 5.1 130 21:41 21.03.2020
782 Clouds 7 1024 70 10000 3.1 130 21:23 21.03.2020
783 Clouds 7 1024 75 10000 4.1 110 20:56 21.03.2020
784 Clouds 7 1024 75 10000 4.1 110 20:38 21.03.2020
785 Clouds 7 1023 70 10000 4.1 120 20:19 21.03.2020
786 Clouds 7 1023 61 10000 4.1 110 19:43 21.03.2020
787 Clouds 7 1023 75 10000 3.1 90 19:24 21.03.2020
788 Clouds 7 1023 75 10000 3.1 90 19:24 21.03.2020
789 Clouds 7 1023 65 10000 3.6 90 18:55 21.03.2020
790 Clouds 7 1023 65 10000 3.6 90 18:37 21.03.2020
791 Clouds 7 1023 70 10000 3.6 90 18:19 21.03.2020
792 Clouds 7 1023 70 10000 4.1 90 17:55 21.03.2020
793 Clouds 7 1023 70 10000 4.6 90 17:37 21.03.2020
794 Clouds 7 1023 70 10000 4.6 90 17:18 21.03.2020
795 Clouds 7 1023 70 10000 5.1 90 16:40 21.03.2020
796 Clouds 7 1023 56 10000 6.2 100 16:19 21.03.2020
797 Clouds 7 1023 65 10000 7.2 100 15:55 21.03.2020
798 Clouds 7 1023 65 10000 7.2 100 15:36 21.03.2020
799 Clouds 7 1024 65 10000 6.7 100 15:18 21.03.2020
800 Clouds 6 1024 56 10000 7.2 100 14:54 21.03.2020
801 Clouds 6 1024 56 10000 7.2 100 14:36 21.03.2020
802 Clouds 6 1025 60 10000 5.7 110 14:18 21.03.2020
803 Clouds 6 1025 60 10000 6.2 110 13:54 21.03.2020
804 Clouds 6 1025 60 10000 6.2 110 13:36 21.03.2020
805 Clouds 6 1025 56 10000 6.2 120 13:18 21.03.2020
806 Clouds 6 1025 60 10000 5.7 120 12:39 21.03.2020
807 Clouds 6 1025 60 10000 6.2 110 12:19 21.03.2020
808 Clouds 5 1025 70 10000 6.7 110 11:57 21.03.2020
809 Clouds 5 1025 70 10000 6.7 110 11:38 21.03.2020
810 Clouds 5 1026 68 10000 6.7 110 11:19 21.03.2020
811 Clouds 5 1026 75 10000 7.2 110 10:57 21.03.2020
812 Clouds 5 1026 75 10000 7.2 110 10:38 21.03.2020
813 Clouds 5 1026 75 10000 7.2 110 10:20 21.03.2020
814 Clouds 5 1026 75 10000 7.2 100 09:56 21.03.2020
815 Clouds 5 1026 75 10000 7.2 100 09:37 21.03.2020
816 Clouds 5 1026 75 10000 5.7 110 09:19 21.03.2020
817 Clouds 5 1026 75 10000 6.2 100 08:44 21.03.2020
818 Clouds 4 1026 80 10000 5.7 110 08:24 21.03.2020
819 Clouds 4 1026 80 10000 5.7 100 07:47 21.03.2020
820 Clouds 5 1026 79 10000 5.7 100 07:28 21.03.2020
821 Clouds 4 1027 80 10000 6.2 100 06:48 21.03.2020
822 Clouds 4 1027 80 10000 6.2 100 06:28 21.03.2020
823 Clouds 4 1027 80 10000 5.7 100 05:48 21.03.2020
824 Clouds 5 1027 75 10000 6.2 100 04:47 21.03.2020
825 Clouds 4 1028 78 10000 6.7 110 03:26 21.03.2020
826 Clouds 5 1029 78 10000 7.2 100 02:34 21.03.2020
827 Clouds 5 1029 65 10000 9.3 100 01:38 21.03.2020
828 Clouds 5 1030 60 10000 9.8 100 01:18 21.03.2020
829 Clouds 6 1030 60 10000 8.2 110 00:38 21.03.2020
830 Clouds 6 1030 70 10000 9.3 100 23:58 20.03.2020
831 Clouds 6 1030 70 10000 9.3 100 23:40 20.03.2020
832 Clouds 6 1030 70 10000 8.2 100 23:18 20.03.2020
833 Clouds 6 1030 73 10000 9.3 90 22:41 20.03.2020
834 Clouds 6 1031 70 10000 8.7 90 22:22 20.03.2020
835 Clouds 6 1030 73 10000 8.7 90 21:56 20.03.2020
836 Clouds 6 1030 73 10000 8.7 90 21:38 20.03.2020
837 Clouds 6 1030 75 10000 8.2 80 21:18 20.03.2020
838 Clouds 6 1031 70 10000 7.7 70 20:57 20.03.2020
839 Clouds 6 1031 70 10000 7.7 70 20:38 20.03.2020
840 Clouds 6 1031 70 10000 7.2 70 20:18 20.03.2020
841 Clouds 6 1031 70 10000 6.7 70 19:45 20.03.2020
842 Clouds 6 1031 75 10000 7.7 70 19:19 20.03.2020
843 Clouds 6 1031 75 10000 7.7 70 19:19 20.03.2020
844 Clouds 6 1031 70 10000 7.7 60 18:55 20.03.2020
845 Clouds 6 1031 70 10000 7.7 60 18:37 20.03.2020
846 Clouds 6 1031 70 10000 7.2 70 18:19 20.03.2020
847 Clouds 6 1031 70 10000 7.2 70 18:19 20.03.2020
848 Clouds 7 1032 65 10000 7.7 70 17:39 20.03.2020
849 Clouds 7 1032 65 10000 8.2 70 17:21 20.03.2020
850 Clouds 7 1032 65 10000 8.2 70 17:21 20.03.2020
851 Clouds 7 1032 65 10000 8.7 70 16:58 20.03.2020
852 Clouds 7 1032 65 10000 8.7 70 16:58 20.03.2020
853 Clouds 7 1032 65 10000 8.7 70 16:40 20.03.2020
854 Clouds 8 1032 61 10000 9.3 80 16:19 20.03.2020
855 Clouds 8 1032 61 10000 8.2 70 15:43 20.03.2020
856 Clouds 8 1032 61 10000 8.7 70 15:22 20.03.2020
857 Clouds 8 1032 61 10000 8.2 90 14:56 20.03.2020
858 Clouds 8 1032 61 10000 8.2 90 14:38 20.03.2020
859 Clouds 8 1033 65 10000 8.2 80 14:19 20.03.2020
860 Clouds 8 1033 61 10000 7.7 80 13:45 20.03.2020
861 Clouds 8 1033 70 10000 7.7 80 13:19 20.03.2020
862 Clouds 7 1033 81 10000 7.2 70 12:41 20.03.2020
863 Clouds 7 1033 81 10000 6.7 70 12:23 20.03.2020
864 Clouds 7 1033 75 10000 7.7 60 11:59 20.03.2020
865 Clouds 6 1033 81 10000 7.7 50 11:38 20.03.2020
866 Clouds 6 1033 81 10000 7.7 50 11:19 20.03.2020
867 Clouds 6 1033 75 10000 7.2 50 10:42 20.03.2020
868 Clouds 4 1033 80 10000 6.7 40 10:21 20.03.2020
869 Clouds 3 1033 80 10000 4.1 10 10:00 20.03.2020
870 Clouds 3 1033 80 10000 4.1 10 09:41 20.03.2020
871 Clouds 2 1033 74 10000 4.1 10 09:19 20.03.2020
872 Clouds 0 1033 74 10000 4.1 360 08:43 20.03.2020
873 Clouds -1 1033 92 10000 4.1 350 08:22 20.03.2020
874 Clouds -1 1033 86 10000 3.1 350 07:57 20.03.2020
875 Clouds -1 1033 86 10000 3.1 350 07:38 20.03.2020
876 Clouds -1 1032 92 10000 3.1 350 07:19 20.03.2020
877 Clouds -1 1032 92 10000 3.6 350 06:42 20.03.2020
878 Clouds -1 1032 92 10000 3.1 340 04:57 20.03.2020
879 Clouds -1 1032 100 10000 4.1 330 04:26 20.03.2020
880 Clouds 1 1032 91 10000 3.6 340 02:27 20.03.2020
881 Clouds 2 1032 86 10000 3.1 350 01:47 20.03.2020
882 Clouds 3 1032 90 10000 4.1 350 00:33 20.03.2020
883 Clouds 4 1032 90 10000 4.1 350 23:53 19.03.2020
884 Clouds 4 1032 86 10000 3.6 360 23:34 19.03.2020
885 Clouds 4 1032 93 10000 3.1 350 22:58 19.03.2020
886 Clouds 4 1032 93 10000 3.1 360 22:38 19.03.2020
887 Clouds 4 1032 93 10000 3.1 360 22:20 19.03.2020
888 Clouds 4 1031 77 10000 3.1 360 21:56 19.03.2020
889 Clouds 4 1031 77 10000 3.1 360 21:37 19.03.2020
890 Clouds 4 1031 77 10000 3.1 360 21:18 19.03.2020
891 Clouds 5 1030 60 10000 2.1 50 20:42 19.03.2020
892 Clouds 5 1030 60 10000 2.1 50 20:23 19.03.2020
893 Clouds 5 1030 81 10000 3.1 40 19:57 19.03.2020
894 Clouds 6 1030 81 10000 3.1 40 19:38 19.03.2020
895 Clouds 6 1030 70 10000 3.1 50 19:20 19.03.2020
896 Clouds 6 1030 70 10000 3.6 50 18:56 19.03.2020
897 Clouds 6 1030 70 10000 3.6 50 18:56 19.03.2020
898 Clouds 7 1030 70 10000 3.6 50 18:38 19.03.2020
899 Clouds 7 1030 70 10000 3.6 50 18:38 19.03.2020
900 Clouds 7 1030 81 10000 3.1 60 18:19 19.03.2020
901 Clouds 7 1029 65 10000 3.1 70 17:42 19.03.2020
902 Clouds 7 1030 63 10000 3.1 70 17:19 19.03.2020
903 Clouds 8 1029 52 10000 3.6 40 16:45 19.03.2020
904 Clouds 8 1029 52 10000 3.6 40 16:45 19.03.2020
905 Clouds 8 1030 52 10000 3.6 30 16:25 19.03.2020
906 Clouds 8 1030 63 10000 4.1 30 15:55 19.03.2020
907 Clouds 8 1030 63 10000 4.1 30 15:36 19.03.2020
908 Clouds 8 1030 57 10000 4.1 20 15:18 19.03.2020
909 Clouds 8 1030 61 10000 4.6 20 14:43 19.03.2020
910 Clouds 7 1030 70 10000 4.6 20 14:21 19.03.2020
911 Clouds 8 1030 70 10000 4.6 10 13:41 19.03.2020
912 Clouds 7 1030 70 10000 3.1 10 13:20 19.03.2020
913 Clouds 7 1029 70 10000 3.6 360 12:57 19.03.2020
914 Clouds 7 1029 70 10000 3.6 360 12:39 19.03.2020
915 Clouds 7 1029 65 10000 3.6 10 12:21 19.03.2020
916 Clouds 6 1029 75 10000 3.1 340 11:42 19.03.2020
917 Clouds 6 1029 75 10000 3.1 340 11:23 19.03.2020
918 Clouds 5 1029 80 10000 3.6 320 10:57 19.03.2020
919 Clouds 5 1029 80 10000 3.6 320 10:38 19.03.2020
920 Clouds 4 1029 70 10000 4.1 300 10:19 19.03.2020
921 Clouds 3 1029 70 10000 3.1 290 09:45 19.03.2020
922 Clouds 2 1028 70 10000 3.6 290 09:27 19.03.2020
923 Clouds 1 1028 70 10000 3.6 290 08:58 19.03.2020
924 Clouds 1 1028 70 10000 3.6 290 08:40 19.03.2020
925 Clouds 1 1028 92 10000 3.6 290 08:19 19.03.2020
926 Clouds 0 1028 92 10000 3.6 290 07:44 19.03.2020
927 Clouds 0 1028 100 10000 3.6 290 07:23 19.03.2020
928 Clouds 1 1027 86 10000 3.1 300 06:32 19.03.2020
929 Clouds 1 1027 92 10000 3.6 290 05:46 19.03.2020
930 Clouds 1 1027 92 10000 3.6 290 04:51 19.03.2020
931 Clouds 1 1027 92 10000 3.1 280 04:24 19.03.2020
932 Clouds 2 1027 92 10000 3.6 300 02:34 19.03.2020
933 Clouds 3 1027 83 10000 3.1 300 00:55 19.03.2020
934 Clouds 3 1027 83 10000 3.1 300 00:20 19.03.2020
935 Clouds 4 1027 83 10000 2.6 300 23:45 18.03.2020
936 Clouds 4 1027 86 10000 1.5 0 23:26 18.03.2020
937 Clouds 4 1027 86 10000 1.5 0 23:26 18.03.2020
938 Clouds 4 1026 86 10000 2.1 300 22:43 18.03.2020
939 Clouds 4 1026 86 10000 2.6 300 22:24 18.03.2020
940 Clouds 5 1026 80 10000 3.1 290 21:59 18.03.2020
941 Clouds 5 1026 80 10000 3.1 290 21:40 18.03.2020
942 Clouds 5 1026 75 10000 3.6 280 21:21 18.03.2020
943 Clouds 5 1026 75 10000 3.6 280 21:21 18.03.2020
944 Rain 5 1026 75 10000 3.1 280 20:56 18.03.2020
945 Rain 5 1026 75 10000 3.1 280 20:38 18.03.2020
946 Rain 5 1025 75 10000 3.1 270 20:19 18.03.2020
947 Clouds 6 1025 70 10000 3.6 280 19:42 18.03.2020
948 Clouds 6 1025 70 10000 4.1 280 19:21 18.03.2020
949 Clouds 7 1025 75 10000 4.1 280 18:59 18.03.2020
950 Clouds 7 1025 75 10000 4.1 280 18:40 18.03.2020
951 Clouds 7 1024 75 10000 3.6 280 18:19 18.03.2020
952 Clouds 7 1024 75 10000 5.1 280 17:57 18.03.2020
953 Clouds 7 1024 75 10000 5.7 280 17:39 18.03.2020
954 Clouds 7 1024 75 10000 5.7 280 17:39 18.03.2020
955 Clouds 7 1024 66 10000 5.7 280 17:19 18.03.2020
956 Clouds 7 1024 56 10000 5.1 280 16:43 18.03.2020
957 Clouds 7 1024 65 10000 4.6 280 16:22 18.03.2020
958 Clouds 7 1024 65 10000 4.6 280 15:59 18.03.2020
959 Clouds 7 1024 65 10000 4.6 280 15:39 18.03.2020
960 Clouds 7 1024 65 10000 4.1 280 15:20 18.03.2020
961 Clouds 7 1024 65 10000 5.1 290 14:44 18.03.2020
962 Clouds 7 1024 61 10000 5.7 280 14:21 18.03.2020
963 Clouds 7 1024 65 10000 5.1 270 13:42 18.03.2020
964 Clouds 7 1024 70 10000 5.1 280 13:20 18.03.2020
965 Clouds 7 1024 75 10000 5.1 280 12:58 18.03.2020
966 Clouds 8 1024 70 10000 4.6 270 12:39 18.03.2020
967 Clouds 7 1024 70 10000 4.6 270 12:19 18.03.2020
968 Clouds 7 1024 81 10000 3.1 270 11:39 18.03.2020
969 Clouds 6 1023 87 10000 2.6 260 11:19 18.03.2020
970 Clouds 6 1023 87 10000 2.6 260 10:58 18.03.2020
971 Clouds 6 1023 87 10000 2.6 260 10:38 18.03.2020
972 Clouds 6 1023 87 10000 3.1 240 10:19 18.03.2020
973 Clouds 6 1023 87 10000 2.6 240 09:43 18.03.2020
974 Clouds 5 1022 93 10000 2.1 240 09:24 18.03.2020
975 Clouds 5 1022 93 10000 3.1 250 08:56 18.03.2020
976 Clouds 5 1022 93 10000 3.1 250 08:38 18.03.2020
977 Clouds 5 1022 93 10000 3.1 250 08:38 18.03.2020
978 Clouds 5 1022 93 10000 3.1 250 08:38 18.03.2020
979 Clouds 5 1022 93 10000 2.6 250 08:20 18.03.2020
980 Clouds 5 1022 93 10000 2.6 250 07:44 18.03.2020
981 Clouds 5 1022 93 10000 2.1 240 07:25 18.03.2020
982 Clouds 5 1022 93 10000 2.6 250 06:44 18.03.2020
983 Clouds 5 1022 86 10000 2.1 230 06:18 18.03.2020
984 Rain 5 1021 93 10000 4.1 260 05:34 18.03.2020
985 Clouds 5 1021 93 10000 4.1 260 04:24 18.03.2020
986 Clouds 6 1020 87 10000 4.1 270 02:42 18.03.2020
987 Clouds 6 1020 93 10000 4.1 270 01:47 18.03.2020
988 Rain 6 1020 93 10000 4.6 280 01:26 18.03.2020
989 Rain 6 1019 93 10000 4.6 270 00:23 18.03.2020
990 Rain 7 1019 93 10000 3.1 270 23:47 17.03.2020
991 Rain 7 1019 93 10000 2.6 280 23:26 17.03.2020
992 Drizzle 7 1018 93 6000 5.1 310 22:48 17.03.2020
993 Rain 8 1017 93 9000 8.2 320 22:29 17.03.2020
994 Rain 10 1016 93 10000 8.7 270 21:59 17.03.2020
995 Rain 11 1016 93 10000 8.7 270 21:39 17.03.2020
996 Rain 12 1015 93 10000 6.7 230 21:20 17.03.2020
997 Rain 12 1014 93 10000 7.7 230 20:39 17.03.2020
998 Rain 12 1014 93 10000 7.7 230 20:39 17.03.2020
999 Rain 12 1014 87 10000 7.2 230 20:21 17.03.2020
1000 Rain 12 1013 82 10000 7.7 230 19:56 17.03.2020
1001 Rain 13 1013 82 10000 9.8 220 19:38 17.03.2020
1002 Rain 13 1013 82 10000 9.8 220 19:18 17.03.2020
1003 Clouds 13 1013 76 10000 8.2 220 18:54 17.03.2020
1004 Clouds 13 1013 71 10000 9.8 220 18:36 17.03.2020
1005 Clouds 13 1013 71 10000 9.8 220 18:18 17.03.2020
1006 Clouds 14 1013 71 10000 10.3 210 17:40 17.03.2020
1007 Clouds 14 1014 76 10000 9.3 210 17:20 17.03.2020
1008 Clouds 15 1014 72 10000 8.2 210 16:45 17.03.2020
1009 Clouds 14 1015 72 10000 10.8 210 16:20 17.03.2020
1010 Clouds 14 1015 76 10000 10.3 210 15:56 17.03.2020
1011 Clouds 14 1015 76 10000 10.3 210 15:56 17.03.2020
1012 Clouds 14 1015 76 10000 10.3 210 15:38 17.03.2020
1013 Clouds 14 1016 76 10000 7.7 210 15:18 17.03.2020
1014 Clouds 13 1017 76 10000 7.7 210 14:41 17.03.2020
1015 Clouds 12 1017 76 10000 5.1 190 14:18 17.03.2020
1016 Clouds 11 1018 76 10000 6.7 210 13:43 17.03.2020
1017 Clouds 11 1019 66 10000 6.2 210 13:24 17.03.2020
1018 Clouds 11 1019 71 10000 4.1 210 12:48 17.03.2020
1019 Clouds 11 1020 76 10000 4.1 210 12:26 17.03.2020
1020 Clouds 11 1020 76 10000 4.1 220 11:59 17.03.2020
1021 Clouds 11 1020 76 10000 4.1 220 11:40 17.03.2020
1022 Clouds 11 1020 76 10000 4.1 220 11:22 17.03.2020
1023 Clouds 10 1020 81 10000 4.1 210 10:56 17.03.2020
1024 Clouds 10 1020 81 10000 4.1 210 10:37 17.03.2020
1025 Clouds 10 1020 87 10000 3.6 220 10:18 17.03.2020
1026 Clouds 9 1020 87 10000 3.6 220 09:45 17.03.2020
1027 Clouds 9 1020 93 10000 3.1 210 09:20 17.03.2020
1028 Clouds 9 1020 87 10000 2.6 210 08:58 17.03.2020
1029 Clouds 9 1020 87 10000 2.6 210 08:58 17.03.2020
1030 Clouds 9 1020 87 10000 2.6 210 08:40 17.03.2020
1031 Clouds 8 1020 87 10000 3.1 220 08:18 17.03.2020
1032 Clouds 8 1020 93 10000 3.1 220 07:49 17.03.2020
1033 Clouds 8 1020 93 10000 3.1 230 07:20 17.03.2020
1034 Clouds 8 1019 93 10000 2.6 230 06:45 17.03.2020
1035 Clouds 9 1019 87 10000 3.1 220 06:25 17.03.2020
1036 Clouds 9 1019 87 10000 4.1 220 05:20 17.03.2020
1037 Clouds 9 1018 87 10000 4.1 220 03:31 17.03.2020
1038 Clouds 9 1017 87 10000 5.7 220 01:50 17.03.2020
1039 Clouds 9 1017 87 10000 5.7 220 01:31 17.03.2020
1040 Clouds 9 1017 87 10000 5.1 220 00:52 17.03.2020
1041 Rain 9 1017 87 10000 6.2 220 23:53 16.03.2020
1042 Clouds 9 1016 81 10000 5.7 230 23:34 16.03.2020
1043 Clouds 9 1016 87 10000 6.2 210 22:55 16.03.2020
1044 Clouds 9 1016 87 10000 6.2 210 22:37 16.03.2020
1045 Clouds 9 1016 87 10000 6.2 210 22:19 16.03.2020
1046 Clouds 9 1016 81 10000 6.7 210 21:44 16.03.2020
1047 Rain 9 1016 81 10000 8.2 220 21:25 16.03.2020
1048 Clouds 9 1016 81 10000 6.7 220 20:58 16.03.2020
1049 Clouds 9 1016 81 10000 6.7 220 20:38 16.03.2020
1050 Clouds 9 1016 81 10000 6.7 220 20:38 16.03.2020
1051 Clouds 9 1015 81 10000 7.2 210 20:20 16.03.2020
1052 Clouds 9 1015 81 10000 7.2 210 19:44 16.03.2020
1053 Clouds 9 1015 76 10000 7.7 210 19:23 16.03.2020
1054 Clouds 9 1015 76 10000 7.2 210 18:57 16.03.2020
1055 Clouds 9 1015 76 10000 7.2 210 18:38 16.03.2020
1056 Clouds 9 1015 76 10000 7.7 220 18:18 16.03.2020
1057 Clouds 9 1015 71 10000 8.7 220 17:45 16.03.2020
1058 Clouds 10 1015 71 10000 8.7 220 17:24 16.03.2020
1059 Clouds 10 1016 66 10000 7.7 220 16:49 16.03.2020
1060 Clouds 10 1016 66 10000 7.7 220 16:31 16.03.2020
1061 Clouds 10 1016 61 10000 8.2 200 15:58 16.03.2020
1062 Clouds 10 1016 61 10000 8.2 200 15:40 16.03.2020
1063 Clouds 10 1016 61 10000 9.3 210 15:20 16.03.2020
1064 Clouds 9 1017 66 10000 7.2 210 14:44 16.03.2020
1065 Clouds 9 1017 61 10000 7.7 200 14:20 16.03.2020
1066 Clouds 9 1017 61 10000 6.2 210 13:43 16.03.2020
1067 Clouds 8 1017 65 10000 7.2 210 13:25 16.03.2020
1068 Clouds 8 1018 61 10000 6.7 220 12:55 16.03.2020
1069 Clouds 8 1018 61 10000 6.7 220 12:36 16.03.2020
1070 Clouds 8 1018 61 10000 6.7 220 12:18 16.03.2020
1071 Clouds 8 1018 61 10000 6.2 220 11:41 16.03.2020
1072 Clouds 7 1018 79 10000 4.6 210 11:19 16.03.2020
1073 Clouds 7 1018 70 10000 4.6 200 10:43 16.03.2020
1074 Clouds 6 1018 75 10000 4.1 200 10:24 16.03.2020
1075 Clouds 5 1018 80 10000 3.6 200 09:46 16.03.2020
1076 Clouds 4 1018 79 10000 3.1 210 09:28 16.03.2020
1077 Clouds 4 1018 80 10000 3.1 210 08:58 16.03.2020
1078 Clouds 2 1018 86 10000 3.1 190 08:26 16.03.2020
1079 Clouds 0 1018 92 10000 2.6 210 07:54 16.03.2020
1080 Clouds 1 1018 80 10000 3.1 220 07:28 16.03.2020
1081 Clouds 1 1017 80 10000 2.6 240 06:54 16.03.2020
1082 Clouds 1 1017 80 10000 2.6 230 06:27 16.03.2020
1083 Clouds 1 1017 86 10000 2.6 240 05:54 16.03.2020
1084 Clouds 2 1016 94 10000 5.7 290 02:46 16.03.2020
1085 Clouds 3 1016 94 10000 3.6 250 01:20 16.03.2020
1086 Clouds 2 1016 94 10000 3.6 250 00:42 16.03.2020
1087 Clouds 3 1015 94 10000 3.1 250 23:49 15.03.2020
1088 Clouds 3 1014 86 10000 3.6 260 23:21 15.03.2020
1089 Clouds 3 1014 86 10000 4.6 270 22:56 15.03.2020
1090 Clouds 3 1014 86 10000 4.6 270 22:37 15.03.2020
1091 Clouds 3 1014 86 10000 4.1 270 22:19 15.03.2020
1092 Clouds 4 1013 86 10000 6.2 280 21:39 15.03.2020
1093 Clouds 5 1013 86 10000 6.2 290 21:19 15.03.2020
1094 Clouds 5 1012 86 10000 7.7 290 20:43 15.03.2020
1095 Clouds 6 1012 70 10000 6.2 300 20:22 15.03.2020
1096 Clouds 6 1011 70 10000 6.2 310 19:58 15.03.2020
1097 Clouds 6 1011 70 10000 6.2 310 19:40 15.03.2020
1098 Clouds 7 1011 56 10000 7.2 290 19:22 15.03.2020
1099 Clouds 8 1010 75 10000 5.1 300 18:57 15.03.2020
1100 Clouds 8 1010 75 10000 5.1 300 18:38 15.03.2020
1101 Clouds 8 1009 65 10000 7.2 310 18:20 15.03.2020
1102 Clouds 8 1009 65 10000 7.2 320 17:42 15.03.2020
1103 Clouds 9 1008 57 10000 9.8 310 17:22 15.03.2020
1104 Clouds 8 1007 65 10000 8.7 310 16:59 15.03.2020
1105 Clouds 8 1007 65 10000 8.7 310 16:40 15.03.2020
1106 Rain 9 1007 61 10000 8.2 310 16:22 15.03.2020
1107 Clouds 8 1006 65 10000 9.8 310 15:56 15.03.2020
1108 Rain 9 1006 65 10000 9.8 310 15:38 15.03.2020
1109 Clouds 9 1006 70 10000 8.7 300 15:19 15.03.2020
1110 Clouds 8 1005 70 10000 8.2 300 14:40 15.03.2020
1111 Clouds 7 1005 75 10000 9.3 290 14:22 15.03.2020
1112 Clouds 9 1005 70 10000 8.7 300 13:56 15.03.2020
1113 Clouds 9 1005 70 10000 8.7 300 13:37 15.03.2020
1114 Clouds 8 1004 81 10000 7.7 290 13:18 15.03.2020
1115 Rain 8 1004 70 10000 8.7 290 12:40 15.03.2020
1116 Clouds 8 1003 70 10000 8.7 290 12:22 15.03.2020
1117 Clouds 7 1003 81 10000 8.7 280 11:44 15.03.2020
1118 Clouds 7 1002 81 10000 7.7 270 11:25 15.03.2020
1119 Clouds 6 1001 87 10000 8.2 270 10:59 15.03.2020
1120 Clouds 6 1001 87 10000 8.2 270 10:40 15.03.2020
1121 Clouds 6 1001 87 10000 6.7 260 10:22 15.03.2020
1122 Clouds 6 1001 87 10000 6.7 260 09:59 15.03.2020
1123 Clouds 5 1000 86 10000 7.7 270 09:38 15.03.2020
1124 Clouds 5 1000 86 10000 6.2 260 09:19 15.03.2020
1125 Clouds 5 999 86 10000 5.7 250 08:41 15.03.2020
1126 Clouds 5 998 86 10000 6.2 250 08:19 15.03.2020
1127 Clouds 6 998 75 10000 6.7 250 07:48 15.03.2020
1128 Clouds 6 997 81 10000 6.7 230 07:22 15.03.2020
1129 Clouds 6 997 75 10000 6.7 230 06:43 15.03.2020
1130 Clouds 6 996 81 10000 6.7 230 05:48 15.03.2020
1131 Clouds 7 996 75 10000 7.2 220 04:56 15.03.2020
1132 Clouds 7 996 75 10000 7.2 220 04:37 15.03.2020
1133 Clouds 7 997 75 10000 6.2 230 04:18 15.03.2020
1134 Clouds 7 997 75 10000 6.7 220 02:54 15.03.2020
1135 Clouds 7 997 81 10000 6.7 220 02:21 15.03.2020
1136 Clouds 8 997 75 10000 7.2 230 00:57 15.03.2020
1137 Clouds 8 997 75 10000 7.2 230 00:39 15.03.2020
1138 Clouds 8 997 81 10000 6.7 230 00:18 15.03.2020
1139 Clouds 9 997 76 10000 7.2 230 23:38 14.03.2020
1140 Clouds 9 997 81 10000 5.7 240 23:19 14.03.2020
1141 Drizzle 9 997 81 10000 6.7 240 22:55 14.03.2020
1142 Drizzle 10 997 81 10000 6.7 240 22:37 14.03.2020
1143 Clouds 10 997 81 10000 8.2 230 22:19 14.03.2020
1144 Clouds 10 997 87 10000 7.7 220 21:54 14.03.2020
1145 Rain 10 997 87 10000 7.7 220 21:36 14.03.2020
1146 Rain 10 998 87 10000 7.7 230 21:18 14.03.2020
1147 Rain 10 998 93 8000 7.7 240 20:55 14.03.2020
1148 Rain 10 998 93 8000 7.7 240 20:36 14.03.2020
1149 Rain 10 998 93 10000 8.7 220 20:18 14.03.2020
1150 Rain 11 998 81 10000 8.2 220 19:40 14.03.2020
1151 Rain 11 998 81 10000 8.2 220 19:20 14.03.2020
1152 Rain 11 999 81 10000 8.2 210 18:39 14.03.2020
1153 Clouds 11 999 76 10000 8.2 210 18:20 14.03.2020
1154 Clouds 11 1000 76 10000 7.2 210 17:42 14.03.2020
1155 Clouds 11 1000 76 10000 7.7 210 17:21 14.03.2020
1156 Clouds 11 1001 81 10000 7.7 200 16:58 14.03.2020
1157 Clouds 11 1001 81 10000 7.7 200 16:38 14.03.2020
1158 Clouds 11 1002 81 10000 7.7 200 16:18 14.03.2020
1159 Rain 10 1003 87 10000 7.2 200 15:28 14.03.2020
1160 Rain 9 1004 87 7000 3.6 170 14:59 14.03.2020
1161 Rain 9 1004 87 7000 3.6 170 14:59 14.03.2020
1162 Rain 9 1004 87 7000 3.6 170 14:39 14.03.2020
1163 Rain 9 1005 87 7000 4.6 180 14:20 14.03.2020
1164 Rain 8 1005 87 9000 4.6 190 13:56 14.03.2020
1165 Rain 8 1005 87 9000 4.6 190 13:38 14.03.2020
1166 Rain 8 1006 75 10000 5.1 200 13:19 14.03.2020
1167 Clouds 9 1007 70 10000 5.7 210 12:44 14.03.2020
1168 Clouds 9 1007 70 10000 5.1 220 12:25 14.03.2020
1169 Clouds 8 1007 81 10000 4.1 230 11:44 14.03.2020
1170 Clouds 8 1007 81 10000 4.1 230 11:25 14.03.2020
1171 Clouds 7 1008 81 10000 4.6 230 10:48 14.03.2020
1172 Clouds 7 1008 81 10000 4.1 230 10:28 14.03.2020
1173 Clouds 7 1008 81 10000 4.6 250 09:59 14.03.2020
1174 Clouds 7 1008 81 10000 4.6 250 09:40 14.03.2020
1175 Rain 6 1008 87 10000 4.6 250 09:21 14.03.2020
1176 Drizzle 7 1008 87 10000 6.2 250 08:47 14.03.2020
1177 Drizzle 7 1008 93 9000 3.6 230 08:27 14.03.2020
1178 Clouds 7 1007 93 10000 3.6 220 07:45 14.03.2020
1179 Clouds 7 1007 93 10000 3.6 220 07:22 14.03.2020
1180 Clouds 7 1007 87 10000 3.1 220 06:55 14.03.2020
1181 Clouds 7 1007 93 10000 3.6 230 06:36 14.03.2020
1182 Rain 7 1007 93 10000 2.1 210 04:56 14.03.2020
1183 Clouds 6 1008 100 10000 2.1 170 03:37 14.03.2020
1184 Clouds 6 1008 100 9000 3.6 160 02:53 14.03.2020
1185 Drizzle 6 1009 100 9000 5.7 140 01:47 14.03.2020
1186 Drizzle 7 1009 100 6000 7.2 150 00:34 14.03.2020
1187 Drizzle 6 1010 93 7000 6.7 150 23:42 13.03.2020
1188 Clouds 6 1010 93 10000 8.2 150 23:23 13.03.2020
1189 Drizzle 6 1010 93 10000 7.7 150 22:45 13.03.2020
1190 Rain 6 1010 87 10000 7.2 150 22:22 13.03.2020
1191 Rain 6 1011 93 10000 7.2 140 21:41 13.03.2020
1192 Rain 6 1011 87 10000 7.2 140 21:19 13.03.2020
1193 Rain 6 1011 87 10000 7.2 150 20:43 13.03.2020
1194 Rain 6 1011 87 10000 6.2 150 20:23 13.03.2020
1195 Rain 7 1012 81 10000 7.2 150 19:58 13.03.2020
1196 Rain 6 1012 81 10000 7.2 150 19:39 13.03.2020
1197 Rain 7 1012 70 10000 5.7 150 19:19 13.03.2020
1198 Rain 7 1012 70 10000 4.6 140 18:43 13.03.2020
1199 Clouds 8 1012 66 10000 6.7 160 18:23 13.03.2020
1200 Clouds 8 1012 66 10000 6.2 150 17:43 13.03.2020
1201 Clouds 9 1013 70 10000 7.2 150 17:21 13.03.2020
1202 Clouds 9 1013 66 10000 6.7 150 16:57 13.03.2020
1203 Clouds 9 1013 66 10000 6.7 150 16:38 13.03.2020
1204 Clouds 10 1013 61 10000 4.1 140 16:20 13.03.2020
1205 Clouds 10 1014 70 10000 3.6 130 15:45 13.03.2020
1206 Clouds 10 1015 70 10000 4.1 120 15:22 13.03.2020
1207 Clouds 9 1015 76 10000 3.6 110 14:58 13.03.2020
1208 Clouds 9 1015 76 10000 3.6 110 14:40 13.03.2020
1209 Clouds 9 1015 66 10000 1.5 0 14:21 13.03.2020
1210 Clouds 9 1015 75 10000 2.1 250 13:42 13.03.2020
1211 Clouds 9 1015 81 10000 3.1 260 13:24 13.03.2020
1212 Clouds 8 1016 87 10000 3.1 230 12:59 13.03.2020
1213 Clouds 8 1016 87 10000 3.1 230 12:38 13.03.2020
1214 Clouds 7 1016 87 10000 4.6 250 12:19 13.03.2020
1215 Clouds 7 1016 87 10000 3.1 240 11:55 13.03.2020
1216 Clouds 7 1015 87 10000 3.6 230 11:36 13.03.2020
1217 Clouds 6 1015 93 8000 4.1 230 11:18 13.03.2020
1218 Clouds 6 1015 93 8000 4.1 230 10:46 13.03.2020
1219 Drizzle 6 1015 93 3500 4.1 240 10:25 13.03.2020
1220 Drizzle 5 1015 100 2500 3.1 230 09:48 13.03.2020
1221 Drizzle 5 1015 100 3000 3.1 230 09:28 13.03.2020
1222 Drizzle 5 1015 93 4500 2.6 250 08:59 13.03.2020
1223 Drizzle 5 1015 93 4500 2.6 250 08:38 13.03.2020
1224 Drizzle 5 1015 93 4500 2.6 250 08:38 13.03.2020
1225 Drizzle 5 1015 100 8000 2.1 250 08:20 13.03.2020
1226 Drizzle 5 1014 93 9000 4.1 260 07:44 13.03.2020
1227 Drizzle 5 1014 93 7000 4.1 260 07:25 13.03.2020
1228 Drizzle 5 1014 93 7000 5.1 260 06:46 13.03.2020
1229 Rain 5 1013 93 10000 5.1 260 06:21 13.03.2020
1230 Clouds 6 1013 87 10000 4.6 260 05:45 13.03.2020
1231 Rain 5 1013 93 10000 4.6 260 04:57 13.03.2020
1232 Clouds 5 1012 86 10000 5.7 260 04:25 13.03.2020
1233 Rain 5 1011 86 10000 7.7 260 02:42 13.03.2020
1234 Clouds 5 1010 93 10000 7.7 260 01:37 13.03.2020
1235 Clouds 5 1010 93 10000 7.7 260 01:18 13.03.2020
1236 Clouds 5 1010 86 10000 8.2 250 00:39 13.03.2020
1237 Clouds 5 1009 86 10000 8.2 260 00:19 13.03.2020
1238 Clouds 5 1009 86 10000 9.3 260 23:38 12.03.2020
1239 Clouds 5 1009 86 10000 9.3 260 23:19 12.03.2020
1240 Rain 5 1008 86 10000 7.7 260 22:44 12.03.2020
1241 Rain 5 1008 86 10000 9.8 270 22:25 12.03.2020
1242 Rain 5 1007 86 10000 9.3 270 21:56 12.03.2020
1243 Rain 5 1007 86 10000 9.3 270 21:38 12.03.2020
1244 Rain 5 1007 86 10000 7.2 250 21:20 12.03.2020
1245 Rain 5 1007 93 10000 6.2 260 20:42 12.03.2020
1246 Rain 4 1006 86 10000 7.2 270 20:20 12.03.2020
1247 Rain 5 1006 86 10000 10.3 280 19:42 12.03.2020
1248 Rain 6 1005 75 10000 8.2 250 19:22 12.03.2020
1249 Rain 6 1004 75 10000 8.2 250 18:59 12.03.2020
1250 Rain 6 1004 75 10000 8.2 250 18:41 12.03.2020
1251 Clouds 6 1004 75 10000 8.2 260 18:22 12.03.2020
1252 Rain 6 1003 81 10000 7.7 260 17:41 12.03.2020
1253 Rain 6 1003 81 10000 7.7 260 17:22 12.03.2020
1254 Rain 5 1003 86 4000 12.3 280 16:59 12.03.2020
1255 Rain 5 1003 86 4000 12.3 280 16:40 12.03.2020
1256 Clouds 8 1002 61 10000 13.9 260 16:22 12.03.2020
1257 Clouds 8 1001 65 10000 10.8 250 15:48 12.03.2020
1258 Clouds 8 1001 61 10000 9.3 250 15:28 12.03.2020
1259 Clouds 7 1001 75 10000 10.3 250 14:55 12.03.2020
1260 Clouds 7 1001 75 10000 10.3 250 14:37 12.03.2020
1261 Rain 8 1000 70 10000 8.7 240 14:18 12.03.2020
1262 Rain 7 1000 75 10000 8.2 240 13:38 12.03.2020
1263 Rain 6 1000 81 7000 8.7 240 13:20 12.03.2020
1264 Clouds 7 999 70 10000 10.8 240 12:43 12.03.2020
1265 Clouds 7 999 70 10000 11.8 230 12:24 12.03.2020
1266 Rain 6 999 70 10000 11.3 230 11:59 12.03.2020
1267 Rain 6 999 70 10000 11.3 230 11:59 12.03.2020
1268 Rain 6 999 70 10000 11.3 230 11:39 12.03.2020
1269 Clouds 6 999 70 10000 9.3 240 11:21 12.03.2020
1270 Clouds 5 999 75 10000 10.8 240 10:59 12.03.2020
1271 Clouds 5 999 75 10000 10.8 240 10:41 12.03.2020
1272 Clouds 5 999 74 10000 9.8 240 10:23 12.03.2020
1273 Clouds 4 1000 74 10000 8.2 240 09:49 12.03.2020
1274 Clouds 3 1000 74 10000 7.2 230 09:29 12.03.2020
1275 Clouds 3 1000 74 10000 7.7 230 08:55 12.03.2020
1276 Clouds 3 1000 74 10000 7.7 230 08:37 12.03.2020
1277 Clouds 3 1000 80 10000 8.7 230 08:18 12.03.2020
1278 Clouds 2 1000 83 10000 8.2 230 07:47 12.03.2020
1279 Clouds 2 1000 80 10000 6.7 230 07:21 12.03.2020
1280 Rain 2 1000 83 10000 6.7 240 06:18 12.03.2020
1281 Rain 2 1000 83 10000 7.7 240 05:34 12.03.2020
1282 Rain 1 1002 97 8000 6.7 240 03:34 12.03.2020
1283 Clouds 1 1001 86 10000 4.6 240 01:57 12.03.2020
1284 Clouds 1 1001 86 10000 5.1 240 01:21 12.03.2020
1285 Clouds 2 1000 80 10000 6.2 240 00:42 12.03.2020
1286 Rain 2 999 80 10000 8.2 250 23:57 11.03.2020
1287 Rain 2 998 91 10000 8.2 250 23:28 11.03.2020
1288 Rain 3 998 86 10000 5.1 240 22:58 11.03.2020
1289 Rain 3 998 86 10000 5.1 240 22:39 11.03.2020
1290 Clouds 3 997 93 10000 6.7 250 22:21 11.03.2020
1291 Rain 3 996 86 10000 11.8 270 21:56 11.03.2020
1292 Rain 4 995 86 8000 6.7 240 21:37 11.03.2020
1293 Rain 4 995 86 8000 6.7 240 21:19 11.03.2020
1294 Rain 5 995 93 10000 4.6 240 20:55 11.03.2020
1295 Rain 5 995 93 10000 4.6 240 20:55 11.03.2020
1296 Rain 5 995 93 10000 4.6 240 20:55 11.03.2020
1297 Rain 5 995 93 10000 4.6 240 20:36 11.03.2020
1298 Rain 5 995 87 10000 6.2 240 20:18 11.03.2020
1299 Rain 5 995 93 10000 4.6 240 19:42 11.03.2020
1300 Rain 5 995 93 10000 6.2 250 19:23 11.03.2020
1301 Rain 5 996 93 10000 8.2 280 18:56 11.03.2020
1302 Rain 6 996 93 10000 8.2 280 18:36 11.03.2020
1303 Rain 6 995 75 9000 9.8 220 18:18 11.03.2020
1304 Clouds 9 996 76 10000 8.2 220 17:40 11.03.2020
1305 Clouds 9 996 76 10000 8.2 220 17:21 11.03.2020
1306 Rain 9 997 87 10000 6.2 210 16:56 11.03.2020
1307 Rain 9 997 87 10000 6.2 210 16:38 11.03.2020
1308 Rain 9 998 87 10000 6.2 240 16:19 11.03.2020
1309 Rain 9 998 87 5000 5.1 240 15:42 11.03.2020
1310 Rain 10 999 66 10000 7.7 230 15:22 11.03.2020
1311 Rain 9 1000 66 10000 8.2 220 14:44 11.03.2020
1312 Clouds 10 1000 66 10000 5.1 230 14:24 11.03.2020
1313 Clouds 9 1001 76 10000 5.1 230 13:59 11.03.2020
1314 Clouds 9 1001 76 10000 5.1 230 13:39 11.03.2020
1315 Clouds 8 1002 76 10000 5.7 220 13:21 11.03.2020
1316 Rain 8 1002 81 10000 5.7 240 12:41 11.03.2020
1317 Rain 8 1002 81 10000 6.2 240 12:21 11.03.2020
1318 Rain 8 1002 75 10000 7.2 230 11:57 11.03.2020
1319 Rain 7 1002 75 10000 7.2 230 11:39 11.03.2020
1320 Rain 8 1002 70 10000 7.2 230 11:19 11.03.2020
1321 Rain 9 1002 76 10000 6.7 240 10:43 11.03.2020
1322 Clouds 9 1002 76 10000 6.7 240 10:19 11.03.2020
1323 Clouds 8 1002 81 10000 7.2 240 09:44 11.03.2020
1324 Clouds 8 1002 81 10000 7.7 230 09:25 11.03.2020
1325 Clouds 8 1002 75 10000 7.7 230 08:58 11.03.2020
1326 Clouds 8 1002 75 10000 7.7 230 08:40 11.03.2020
1327 Clouds 7 1002 81 10000 8.2 230 08:19 11.03.2020
1328 Clouds 7 1002 81 10000 7.7 230 07:44 11.03.2020
1329 Clouds 7 1002 81 10000 6.2 220 07:19 11.03.2020
1330 Clouds 7 1002 75 10000 7.7 230 06:46 11.03.2020
1331 Clouds 7 1002 75 10000 7.2 230 05:41 11.03.2020
1332 Clouds 6 1003 81 10000 5.7 230 04:50 11.03.2020
1333 Clouds 6 1005 81 10000 4.6 220 02:30 11.03.2020
1334 Clouds 6 1005 81 10000 5.1 220 01:43 11.03.2020
1335 Clouds 5 1005 86 10000 4.1 220 00:49 11.03.2020
1336 Clouds 5 1005 81 10000 2.6 230 00:21 11.03.2020
1337 Clouds 6 1005 81 10000 3.1 230 23:43 10.03.2020
1338 Clouds 6 1005 81 10000 2.6 240 23:22 10.03.2020
1339 Clouds 6 1005 81 10000 3.6 250 22:40 10.03.2020
1340 Clouds 6 1004 81 10000 4.1 250 22:20 10.03.2020
1341 Clouds 6 1004 81 10000 3.6 250 21:57 10.03.2020
1342 Clouds 6 1004 81 10000 3.6 250 21:39 10.03.2020
1343 Clouds 6 1004 81 10000 3.6 250 21:39 10.03.2020
1344 Clouds 6 1004 70 10000 4.6 260 21:20 10.03.2020
1345 Clouds 7 1004 75 10000 6.2 260 20:59 10.03.2020
1346 Clouds 7 1004 75 10000 6.2 260 20:41 10.03.2020
1347 Clouds 7 1003 87 10000 7.7 280 20:18 10.03.2020
1348 Rain 8 1003 75 10000 6.7 270 19:57 10.03.2020
1349 Rain 8 1003 75 10000 6.7 270 19:57 10.03.2020
1350 Rain 8 1003 75 10000 6.7 270 19:38 10.03.2020
1351 Rain 8 1002 70 10000 7.7 260 19:19 10.03.2020
1352 Rain 9 1002 75 10000 6.2 250 18:44 10.03.2020
1353 Clouds 9 1002 70 10000 7.2 270 18:26 10.03.2020
1354 Clouds 9 1001 70 10000 7.7 280 17:57 10.03.2020
1355 Clouds 10 1001 70 10000 7.7 280 17:39 10.03.2020
1356 Clouds 10 1001 66 10000 10.3 280 17:21 10.03.2020
1357 Clouds 10 1001 66 10000 10.8 280 16:39 10.03.2020
1358 Clouds 11 1000 66 10000 9.8 270 16:19 10.03.2020
1359 Clouds 11 999 71 10000 10.3 270 15:56 10.03.2020
1360 Clouds 11 999 71 10000 10.3 270 15:56 10.03.2020
1361 Clouds 11 999 71 10000 10.3 270 15:37 10.03.2020
1362 Clouds 11 999 66 10000 11.3 270 15:19 10.03.2020
1363 Clouds 11 998 76 10000 9.3 250 14:41 10.03.2020
1364 Clouds 11 998 81 10000 10.8 260 14:20 10.03.2020
1365 Clouds 11 998 81 10000 10.8 260 13:57 10.03.2020
1366 Drizzle 11 998 87 6000 9.3 250 13:38 10.03.2020
1367 Rain 11 997 76 10000 9.8 250 13:19 10.03.2020
1368 Rain 11 997 76 10000 9.3 250 12:41 10.03.2020
1369 Rain 10 996 76 10000 10.8 260 12:19 10.03.2020
1370 Rain 10 996 76 10000 9.3 250 11:57 10.03.2020
1371 Rain 10 997 87 10000 6.7 240 11:39 10.03.2020
1372 Rain 10 997 87 10000 6.7 240 11:20 10.03.2020
1373 Rain 9 996 93 10000 9.3 260 10:42 10.03.2020
1374 Drizzle 10 996 93 8000 9.3 260 10:23 10.03.2020
1375 Drizzle 9 996 93 10000 9.8 270 09:57 10.03.2020
1376 Drizzle 10 996 93 10000 8.7 260 09:39 10.03.2020
1377 Drizzle 10 996 93 10000 8.7 260 09:18 10.03.2020
1378 Drizzle 11 995 87 10000 6.7 240 08:46 10.03.2020
1379 Rain 11 995 93 6000 6.7 240 08:28 10.03.2020
1380 Clouds 10 995 93 10000 6.7 240 07:49 10.03.2020
1381 Clouds 10 996 93 10000 5.1 240 07:30 10.03.2020
1382 Rain 10 996 93 10000 7.2 240 06:44 10.03.2020
1383 Rain 11 996 93 10000 7.2 240 06:25 10.03.2020
1384 Clouds 11 996 81 10000 8.2 250 05:41 10.03.2020
1385 Clouds 11 996 87 10000 9.3 250 04:37 10.03.2020
1386 Clouds 11 997 87 10000 8.7 250 03:37 10.03.2020
1387 Rain 12 997 93 10000 7.7 250 02:26 10.03.2020
1388 Rain 11 997 93 4500 6.2 250 01:20 10.03.2020
1389 Rain 11 998 93 10000 7.7 250 00:41 10.03.2020
1390 Rain 12 998 87 10000 7.7 250 00:22 10.03.2020
1391 Rain 12 998 87 10000 7.7 250 23:40 09.03.2020
1392 Rain 12 998 87 10000 7.7 250 23:21 09.03.2020
1393 Clouds 12 998 87 10000 8.2 250 22:41 09.03.2020
1394 Clouds 12 998 87 10000 7.2 250 22:22 09.03.2020
1395 Rain 12 998 87 10000 7.2 250 21:57 09.03.2020
1396 Rain 12 998 87 10000 7.2 250 21:39 09.03.2020
1397 Rain 12 998 93 10000 7.2 250 21:20 09.03.2020
1398 Drizzle 12 998 100 10000 6.2 240 20:56 09.03.2020
1399 Drizzle 11 998 100 10000 6.2 240 20:37 09.03.2020
1400 Drizzle 11 998 100 9000 6.2 240 20:18 09.03.2020
1401 Drizzle 11 998 100 2500 6.7 240 19:44 09.03.2020
1402 Rain 11 998 93 4500 6.7 240 19:21 09.03.2020
1403 Rain 11 998 93 5000 7.2 230 18:57 09.03.2020
1404 Rain 11 998 93 5000 7.2 230 18:38 09.03.2020
1405 Rain 11 998 93 4000 10.8 220 18:19 09.03.2020
1406 Rain 11 999 93 7000 7.2 230 17:57 09.03.2020
1407 Rain 10 999 93 10000 7.2 230 17:38 09.03.2020
1408 Rain 10 999 93 10000 7.2 230 17:20 09.03.2020
1409 Rain 10 999 87 10000 8.2 230 16:57 09.03.2020
1410 Rain 10 999 87 10000 8.2 230 16:39 09.03.2020
1411 Rain 9 1001 87 9000 7.2 200 16:20 09.03.2020
1412 Rain 9 1001 87 9000 7.2 200 15:57 09.03.2020
1413 Rain 9 1002 93 8000 4.6 190 15:38 09.03.2020
1414 Rain 9 1002 93 8000 4.6 190 15:19 09.03.2020
1415 Rain 8 1003 93 8000 5.7 150 14:41 09.03.2020
1416 Rain 7 1004 93 8000 6.2 160 14:23 09.03.2020
1417 Rain 7 1006 93 9000 4.6 150 13:59 09.03.2020
1418 Rain 6 1007 87 10000 5.7 180 13:40 09.03.2020
1419 Rain 6 1007 87 10000 5.7 180 13:22 09.03.2020
1420 Rain 6 1008 87 8000 6.2 190 12:59 09.03.2020
1421 Rain 6 1008 87 8000 6.2 190 12:40 09.03.2020
1422 Rain 6 1009 87 7000 5.7 200 12:19 09.03.2020
1423 Rain 6 1010 81 9000 5.1 220 11:40 09.03.2020
1424 Rain 6 1010 81 9000 5.1 220 11:40 09.03.2020
1425 Rain 6 1010 81 9000 5.1 220 11:20 09.03.2020
1426 Clouds 6 1010 75 10000 5.1 220 10:58 09.03.2020
1427 Clouds 6 1010 75 10000 4.6 220 10:40 09.03.2020
1428 Clouds 6 1010 75 10000 4.6 220 10:19 09.03.2020
1429 Clouds 6 1010 80 10000 3.6 230 09:42 09.03.2020
1430 Clouds 6 1010 80 10000 4.1 230 09:24 09.03.2020
1431 Clouds 6 1009 75 10000 5.7 240 08:47 09.03.2020
1432 Clouds 5 1010 80 10000 4.1 240 08:29 09.03.2020
1433 Clouds 5 1009 86 10000 5.1 250 07:58 09.03.2020
1434 Clouds 5 1009 80 10000 6.2 260 07:37 09.03.2020
1435 Clouds 5 1009 80 10000 6.2 260 07:18 09.03.2020
1436 Clouds 5 1008 86 10000 5.7 260 06:40 09.03.2020
1437 Clouds 5 1008 86 10000 5.7 260 06:21 09.03.2020
1438 Clouds 5 1008 86 10000 7.2 260 05:45 09.03.2020
1439 Clouds 5 1007 86 10000 7.7 260 04:59 09.03.2020
1440 Clouds 5 1007 86 10000 6.7 250 04:39 09.03.2020
1441 Clouds 5 1007 86 10000 6.7 250 04:20 09.03.2020
1442 Clouds 5 1006 80 10000 5.7 250 02:53 09.03.2020
1443 Clouds 5 1004 80 10000 6.7 250 00:44 09.03.2020
1444 Clouds 5 1003 80 10000 6.7 260 00:25 09.03.2020
1445 Clouds 5 1003 80 10000 6.7 250 23:58 08.03.2020
1446 Clouds 5 1002 80 10000 7.2 250 23:38 08.03.2020
1447 Clouds 5 1002 80 10000 7.2 250 23:18 08.03.2020
1448 Clouds 5 1002 86 10000 6.7 250 22:40 08.03.2020
1449 Clouds 5 1001 86 10000 7.2 240 22:22 08.03.2020
1450 Rain 5 1001 81 10000 7.2 240 21:59 08.03.2020
1451 Clouds 5 1001 80 10000 6.2 240 21:40 08.03.2020
1452 Clouds 5 1001 80 10000 6.2 240 21:20 08.03.2020
1453 Clouds 5 1000 80 10000 5.7 240 20:56 08.03.2020
1454 Clouds 5 1000 75 10000 5.7 240 20:37 08.03.2020
1455 Clouds 5 1000 75 10000 5.7 240 20:19 08.03.2020
1456 Clouds 5 1000 75 10000 5.7 240 20:19 08.03.2020
1457 Clouds 6 1000 70 10000 5.1 250 19:40 08.03.2020
1458 Clouds 6 1000 70 10000 5.1 250 19:19 08.03.2020
1459 Clouds 6 1000 86 10000 7.2 280 18:55 08.03.2020
1460 Rain 6 1000 75 10000 7.2 260 18:37 08.03.2020
1461 Rain 7 1000 75 10000 7.2 260 18:18 08.03.2020
1462 Rain 7 999 87 10000 7.7 260 17:39 08.03.2020
1463 Rain 7 999 87 10000 7.7 260 17:20 08.03.2020
1464 Rain 7 999 87 10000 7.7 260 16:57 08.03.2020
1465 Rain 8 998 75 10000 5.7 240 16:39 08.03.2020
1466 Clouds 7 998 81 10000 6.2 240 16:20 08.03.2020
1467 Rain 7 998 81 10000 5.7 230 15:41 08.03.2020
1468 Rain 7 998 81 10000 5.7 230 15:21 08.03.2020
1469 Rain 7 998 81 10000 6.2 250 14:56 08.03.2020
1470 Rain 8 998 81 10000 6.2 250 14:37 08.03.2020
1471 Rain 8 998 81 10000 6.2 250 14:19 08.03.2020
1472 Rain 8 998 81 10000 6.2 250 14:19 08.03.2020
1473 Rain 9 998 66 10000 6.2 240 13:41 08.03.2020
1474 Rain 9 998 66 10000 6.2 240 13:20 08.03.2020
1475 Clouds 9 998 66 10000 5.7 230 12:46 08.03.2020
1476 Clouds 8 998 75 10000 5.7 240 12:28 08.03.2020
1477 Clouds 8 998 75 10000 5.7 240 11:59 08.03.2020
1478 Clouds 8 998 81 10000 5.1 230 11:41 08.03.2020
1479 Clouds 7 998 81 10000 4.6 230 11:21 08.03.2020
1480 Clouds 7 998 81 10000 4.6 230 10:42 08.03.2020
1481 Clouds 6 998 81 10000 4.6 220 10:24 08.03.2020
1482 Clouds 6 998 81 10000 4.6 220 09:59 08.03.2020
1483 Clouds 6 997 81 10000 4.6 230 09:37 08.03.2020
1484 Clouds 6 997 81 10000 4.6 230 09:19 08.03.2020
1485 Clouds 6 997 81 10000 5.7 230 08:42 08.03.2020
1486 Clouds 6 997 81 10000 5.1 230 08:20 08.03.2020
1487 Clouds 6 996 81 10000 6.7 240 07:45 08.03.2020
1488 Clouds 6 996 81 10000 6.7 240 07:25 08.03.2020
1489 Rain 6 995 87 10000 6.7 240 06:43 08.03.2020
1490 Rain 6 995 87 10000 6.7 250 06:24 08.03.2020
1491 Clouds 6 995 87 10000 6.2 250 05:41 08.03.2020
1492 Rain 7 995 81 10000 6.2 250 03:52 08.03.2020
1493 Rain 8 994 87 10000 6.7 240 02:38 08.03.2020
1494 Clouds 9 995 81 10000 5.1 240 01:34 08.03.2020
1495 Rain 9 994 81 10000 6.7 250 00:55 08.03.2020
1496 Rain 10 994 81 10000 8.7 220 00:28 08.03.2020
1497 Rain 11 994 81 10000 8.7 220 23:47 07.03.2020
1498 Rain 11 994 87 10000 8.7 220 23:24 07.03.2020
1499 Rain 11 994 81 10000 8.7 210 22:55 07.03.2020
1500 Drizzle 11 995 81 10000 9.3 200 22:36 07.03.2020
1501 Drizzle 11 995 81 10000 9.3 200 22:18 07.03.2020
1502 Clouds 11 995 87 10000 8.2 200 21:43 07.03.2020
1503 Clouds 11 996 81 10000 8.7 200 21:19 07.03.2020
1504 Clouds 11 996 81 10000 8.7 190 20:40 07.03.2020
1505 Drizzle 11 997 81 10000 9.8 200 20:20 07.03.2020
1506 Drizzle 11 998 81 10000 9.8 200 19:41 07.03.2020
1507 Clouds 11 998 81 10000 9.8 200 19:22 07.03.2020
1508 Clouds 11 999 81 10000 10.3 200 18:47 07.03.2020
1509 Clouds 11 999 81 10000 8.7 200 18:29 07.03.2020
1510 Clouds 11 1000 76 10000 8.7 200 17:59 07.03.2020
1511 Clouds 11 1000 76 10000 8.7 200 17:41 07.03.2020
1512 Clouds 11 1001 76 10000 8.7 200 17:19 07.03.2020
1513 Clouds 11 1001 71 10000 9.8 210 16:56 07.03.2020
1514 Clouds 11 1001 76 10000 10.8 210 16:38 07.03.2020
1515 Clouds 11 1001 76 10000 10.8 210 16:19 07.03.2020
1516 Clouds 12 1003 76 10000 9.8 210 15:41 07.03.2020
1517 Clouds 12 1003 76 10000 9.8 210 15:22 07.03.2020
1518 Clouds 12 1003 76 10000 9.8 220 14:59 07.03.2020
1519 Clouds 12 1003 76 10000 9.8 220 14:41 07.03.2020
1520 Clouds 13 1004 71 10000 8.7 220 14:23 07.03.2020
1521 Clouds 13 1005 71 10000 8.2 220 13:42 07.03.2020
1522 Clouds 13 1005 71 10000 8.2 220 13:21 07.03.2020
1523 Clouds 12 1005 76 10000 8.2 220 12:58 07.03.2020
1524 Clouds 12 1005 76 10000 8.2 220 12:37 07.03.2020
1525 Clouds 12 1005 76 10000 8.2 220 12:18 07.03.2020
1526 Clouds 11 1005 81 10000 8.2 220 11:42 07.03.2020
1527 Clouds 11 1006 81 10000 7.7 220 11:23 07.03.2020
1528 Clouds 11 1006 76 10000 7.7 220 10:57 07.03.2020
1529 Clouds 11 1006 81 10000 8.2 230 10:37 07.03.2020
1530 Clouds 10 1006 81 10000 8.2 230 10:18 07.03.2020
1531 Clouds 10 1007 81 10000 7.7 230 09:40 07.03.2020
1532 Clouds 10 1007 81 10000 7.7 230 09:20 07.03.2020
1533 Clouds 10 1007 81 10000 7.7 230 09:20 07.03.2020
1534 Clouds 10 1007 81 10000 7.2 230 08:57 07.03.2020
1535 Clouds 10 1007 81 10000 6.7 230 08:39 07.03.2020
1536 Clouds 9 1007 81 10000 6.7 230 08:20 07.03.2020
1537 Clouds 9 1007 81 10000 6.7 230 07:44 07.03.2020
1538 Clouds 9 1008 87 10000 6.7 240 07:21 07.03.2020
1539 Clouds 9 1008 80 0 3.58 229 06:39 07.03.2020
1540 Clouds 9 1009 87 10000 4.6 230 05:59 07.03.2020
1541 Clouds 9 1009 87 10000 4.6 230 05:38 07.03.2020
1542 Clouds 8 1010 87 10000 5.1 230 03:35 07.03.2020
1543 Clouds 7 1010 87 10000 4.1 220 02:42 07.03.2020
1544 Clouds 6 1011 87 10000 3.6 220 01:51 07.03.2020
1545 Clouds 6 1012 75 10000 3.1 230 00:43 07.03.2020
1546 Clouds 6 1012 75 10000 3.1 230 00:23 07.03.2020
1547 Clouds 6 1012 75 10000 3.1 230 00:23 07.03.2020
1548 Clouds 6 1012 75 10000 3.1 230 00:23 07.03.2020
1549 Rain 6 1012 75 10000 4.1 230 23:58 06.03.2020
1550 Clouds 6 1012 70 10000 3.6 240 23:38 06.03.2020
1551 Clouds 6 1012 70 10000 3.6 240 23:38 06.03.2020
1552 Clouds 6 1012 70 10000 3.6 240 23:20 06.03.2020
1553 Clouds 6 1012 70 10000 3.1 250 22:44 06.03.2020
1554 Clouds 6 1012 70 10000 3.1 250 22:19 06.03.2020
1555 Clouds 6 1012 70 10000 2.1 230 21:46 06.03.2020
1556 Clouds 6 1012 70 10000 2.6 240 21:20 06.03.2020
1557 Clouds 5 1011 75 10000 3.6 260 20:43 06.03.2020
1558 Clouds 6 1011 70 10000 4.6 260 20:22 06.03.2020
1559 Clouds 6 1011 80 10000 4.1 270 19:55 06.03.2020
1560 Clouds 6 1010 80 10000 5.7 280 19:36 06.03.2020
1561 Clouds 6 1010 80 10000 5.7 280 19:18 06.03.2020
1562 Clouds 7 1010 65 10000 6.7 280 18:42 06.03.2020
1563 Clouds 7 1009 80 10000 7.2 290 18:20 06.03.2020
1564 Clouds 8 1009 80 10000 8.2 280 17:56 06.03.2020
1565 Clouds 8 1008 80 10000 9.8 290 17:38 06.03.2020
1566 Clouds 8 1008 64 10000 9.8 290 17:19 06.03.2020
1567 Clouds 8 1008 61 10000 9.3 280 16:42 06.03.2020
1568 Clouds 8 1008 61 10000 9.3 280 16:21 06.03.2020
1569 Clouds 8 1007 65 10000 9.3 290 15:58 06.03.2020
1570 Clouds 8 1007 70 10000 11.3 290 15:40 06.03.2020
1571 Clouds 8 1007 70 10000 11.3 290 15:20 06.03.2020
1572 Clouds 7 1007 87 10000 7.2 280 14:40 06.03.2020
1573 Clouds 6 1007 87 10000 6.7 270 14:21 06.03.2020
1574 Clouds 6 1007 87 10000 6.7 270 14:21 06.03.2020
1575 Drizzle 5 1007 87 10000 6.7 270 13:44 06.03.2020
1576 Clouds 5 1006 86 10000 5.7 270 13:23 06.03.2020
1577 Clouds 5 1006 93 10000 4.6 280 12:59 06.03.2020
1578 Clouds 5 1005 93 10000 4.6 290 12:39 06.03.2020
1579 Clouds 4 1005 93 10000 4.6 290 12:20 06.03.2020
1580 Clouds 4 1005 93 10000 4.1 290 11:58 06.03.2020
1581 Clouds 4 1004 86 10000 3.6 290 11:40 06.03.2020
1582 Clouds 4 1004 86 10000 3.6 290 11:20 06.03.2020
1583 Rain 4 1003 86 10000 3.1 260 10:40 06.03.2020
1584 Clouds 4 1003 86 10000 3.1 260 10:21 06.03.2020
1585 Clouds 3 1002 93 10000 3.1 270 09:56 06.03.2020
1586 Clouds 3 1001 86 10000 2.6 260 09:37 06.03.2020
1587 Clouds 3 1001 86 10000 2.6 260 09:19 06.03.2020
1588 Clouds 2 1001 93 10000 1.5 250 08:46 06.03.2020
1589 Clouds 1 1000 93 10000 0.5 0 08:27 06.03.2020
1590 Clouds 1 1000 93 10000 2.1 200 07:57 06.03.2020
1591 Clouds 1 999 100 10000 1.5 140 07:39 06.03.2020
1592 Clouds 1 999 93 10000 1.5 150 06:59 06.03.2020
1593 Clouds 1 999 100 10000 1.5 0 06:40 06.03.2020
1594 Clouds 2 998 93 10000 2.1 170 05:46 06.03.2020
1595 Clouds 2 998 93 10000 1.5 180 05:27 06.03.2020
1596 Clouds 2 998 94 10000 1.5 200 04:58 06.03.2020
1597 Clouds 3 998 93 10000 2.6 190 02:55 06.03.2020
1598 Rain 3 997 86 10000 3.1 200 01:40 06.03.2020
1599 Rain 3 997 86 10000 3.1 200 01:22 06.03.2020
1600 Rain 4 997 80 10000 2.1 210 00:33 06.03.2020
1601 Clouds 4 997 80 10000 1.5 0 23:57 05.03.2020
1602 Clouds 4 997 80 10000 2.1 150 23:39 05.03.2020
1603 Clouds 4 997 80 10000 2.1 150 23:19 05.03.2020
1604 Rain 4 997 80 10000 3.1 160 22:40 05.03.2020
1605 Clouds 4 997 80 10000 2.6 150 22:22 05.03.2020
1606 Clouds 3 997 86 10000 3.1 160 21:57 05.03.2020
1607 Clouds 4 998 89 10000 3.1 160 21:38 05.03.2020
1608 Clouds 4 998 89 10000 3.1 160 21:20 05.03.2020
1609 Clouds 4 998 89 10000 2.6 160 20:57 05.03.2020
1610 Clouds 4 998 90 10000 2.1 170 20:39 05.03.2020
1611 Clouds 4 998 82 10000 2.1 170 20:19 05.03.2020
1612 Clouds 5 998 82 10000 2.6 200 19:56 05.03.2020
1613 Clouds 5 998 82 10000 3.6 200 19:38 05.03.2020
1614 Clouds 5 998 82 10000 3.6 200 19:18 05.03.2020
1615 Clouds 6 998 60 10000 2.6 220 18:54 05.03.2020
1616 Clouds 7 998 82 10000 1.5 0 18:36 05.03.2020
1617 Clouds 7 998 82 10000 1.5 0 18:18 05.03.2020
1618 Clouds 7 998 65 10000 2.1 210 17:41 05.03.2020
1619 Clouds 7 998 65 10000 2.6 230 17:22 05.03.2020
1620 Clouds 7 998 65 10000 2.6 240 16:55 05.03.2020
1621 Clouds 7 999 70 10000 3.1 290 16:37 05.03.2020
1622 Clouds 7 999 70 10000 3.1 290 16:19 05.03.2020
1623 Clouds 7 999 70 10000 3.1 270 15:44 05.03.2020
1624 Clouds 7 999 70 10000 3.6 260 15:22 05.03.2020
1625 Clouds 6 1000 81 10000 4.6 280 14:58 05.03.2020
1626 Clouds 7 1000 75 10000 4.1 270 14:39 05.03.2020
1627 Clouds 6 1000 75 10000 4.1 270 14:21 05.03.2020
1628 Clouds 6 1000 75 10000 5.1 270 13:55 05.03.2020
1629 Clouds 5 1001 93 10000 4.6 280 13:36 05.03.2020
1630 Clouds 5 1001 93 10000 4.6 280 13:36 05.03.2020
1631 Clouds 5 1001 93 10000 4.6 280 13:18 05.03.2020
1632 Clouds 4 1001 93 10000 4.6 280 12:40 05.03.2020
1633 Clouds 5 1001 93 10000 4.6 280 12:40 05.03.2020
1634 Clouds 4 1001 93 10000 4.6 280 12:20 05.03.2020
1635 Clouds 4 1001 100 10000 4.1 290 11:57 05.03.2020
1636 Clouds 4 1001 93 10000 2.6 280 11:37 05.03.2020
1637 Clouds 4 1001 93 10000 2.6 280 11:19 05.03.2020
1638 Clouds 3 1001 100 10000 2.1 290 10:57 05.03.2020
1639 Clouds 2 1001 100 10000 1 0 10:39 05.03.2020
1640 Clouds 1 1001 100 10000 1 0 10:20 05.03.2020
1641 Clouds 1 1001 82 10000 2.1 330 09:45 05.03.2020
1642 Clouds 1 1001 100 10000 2.1 340 09:27 05.03.2020
1643 Clouds -1 1001 100 8000 2.6 320 08:48 05.03.2020
1644 Clouds -1 1001 92 6000 3.1 320 08:30 05.03.2020
1645 Clouds -1 1001 92 8000 2.1 300 07:50 05.03.2020
1646 Mist 0 1001 100 2000 2.1 310 07:23 05.03.2020
1647 Fog -1 1001 100 800 2.6 300 06:59 05.03.2020
1648 Fog -1 1001 100 800 2.6 300 06:41 05.03.2020
1649 Clouds -1 1001 100 6000 2.6 320 06:19 05.03.2020
1650 Clouds -1 1001 92 8000 2.6 350 05:32 05.03.2020
1651 Clouds -1 1002 100 10000 2.1 320 04:23 05.03.2020
1652 Clouds -1 1002 92 10000 2.6 320 03:58 05.03.2020
1653 Clouds -1 1003 92 10000 1 340 02:31 05.03.2020
1654 Clouds -1 1004 100 10000 2.1 320 01:26 05.03.2020
1655 Clouds -1 1004 100 10000 0.5 360 00:44 05.03.2020
1656 Clouds 0 1004 100 10000 1.5 0 23:56 04.03.2020
1657 Clouds 0 1004 100 10000 1.5 0 23:56 04.03.2020
1658 Clouds 0 1004 100 10000 1.5 0 23:38 04.03.2020
1659 Clouds 0 1004 100 10000 1.5 0 23:20 04.03.2020
1660 Clear 0 1005 100 10000 1.5 0 22:55 04.03.2020
1661 Clear 0 1005 92 10000 2.1 340 22:36 04.03.2020
1662 Clear 0 1005 92 10000 2.1 340 22:18 04.03.2020
1663 Clear 0 1005 92 10000 2.1 340 22:18 04.03.2020
1664 Clouds 1 1005 92 10000 2.1 360 21:41 04.03.2020
1665 Clouds 1 1005 92 10000 2.1 360 21:21 04.03.2020
1666 Clouds 1 1005 88 10000 1 0 20:58 04.03.2020
1667 Clouds 1 1005 88 10000 1 0 20:58 04.03.2020
1668 Clouds 2 1005 93 10000 2.6 90 20:39 04.03.2020
1669 Clouds 2 1005 93 10000 2.6 90 20:21 04.03.2020
1670 Clouds 4 1005 80 10000 3.1 100 19:43 04.03.2020
1671 Clouds 4 1005 80 10000 3.1 100 19:24 04.03.2020
1672 Clouds 5 1005 80 10000 3.1 70 18:59 04.03.2020
1673 Clouds 5 1005 80 10000 3.1 70 18:41 04.03.2020
1674 Clouds 6 1005 75 10000 2.6 70 18:22 04.03.2020
1675 Clouds 6 1005 75 10000 3.1 70 17:57 04.03.2020
1676 Clouds 7 1004 70 10000 3.6 60 17:38 04.03.2020
1677 Clouds 7 1004 70 10000 3.6 60 17:20 04.03.2020
1678 Clouds 7 1005 70 10000 3.1 70 16:44 04.03.2020
1679 Clouds 7 1005 70 10000 3.1 60 16:26 04.03.2020
1680 Clouds 7 1005 65 10000 2.1 40 15:59 04.03.2020
1681 Clouds 7 1005 65 10000 2.1 40 15:59 04.03.2020
1682 Clouds 8 1005 65 10000 3.1 40 15:41 04.03.2020
1683 Clouds 8 1005 65 10000 3.1 40 15:23 04.03.2020
1684 Clouds 8 1005 70 10000 3.6 70 14:56 04.03.2020
1685 Clouds 8 1006 65 10000 1.5 0 14:38 04.03.2020
1686 Clouds 8 1006 65 10000 1.5 0 14:19 04.03.2020
1687 Clouds 8 1005 61 10000 2.6 50 13:57 04.03.2020
1688 Clouds 8 1005 70 10000 2.1 40 13:38 04.03.2020
1689 Clouds 8 1005 69 10000 2.1 40 13:20 04.03.2020
1690 Clouds 7 1006 65 10000 2.1 50 12:45 04.03.2020
1691 Clouds 7 1006 75 10000 1.5 0 12:27 04.03.2020
1692 Clouds 6 1006 75 10000 2.1 80 11:59 04.03.2020
1693 Clouds 6 1006 75 10000 2.1 80 11:41 04.03.2020
1694 Clouds 6 1006 75 10000 2.1 350 11:22 04.03.2020
1695 Clouds 5 1006 86 10000 1.5 0 10:57 04.03.2020
1696 Clouds 4 1006 93 10000 1.21 273 10:38 04.03.2020
1697 Clouds 3 1006 93 10000 1.21 273 10:18 04.03.2020
1698 Clouds 2 1006 78 10000 0.5 0 09:42 04.03.2020
1699 Clouds 2 1006 78 10000 1.21 273 09:21 04.03.2020
1700 Clouds 2 1006 78 10000 1.21 273 08:46 04.03.2020
1701 Clouds 2 1006 86 10000 0.5 360 08:26 04.03.2020
1702 Clouds 2 1006 81 10000 2.1 350 07:56 04.03.2020
1703 Clouds 2 1006 81 10000 1 0 07:37 04.03.2020
1704 Clouds 2 1006 81 10000 1 0 07:18 04.03.2020
1705 Clouds 2 1006 81 10000 1 160 06:41 04.03.2020
1706 Clouds 2 1006 81 10000 1 160 06:23 04.03.2020
1707 Clouds 2 1006 81 10000 1 0 05:47 04.03.2020
1708 Clouds 2 1006 83 10000 1 170 04:23 04.03.2020
1709 Clouds 2 1007 83 10000 1 0 03:40 04.03.2020
1710 Clouds 3 1007 83 10000 1 0 03:21 04.03.2020
1711 Clouds 2 1007 83 10000 1.5 210 02:53 04.03.2020
1712 Clouds 3 1007 89 10000 2.6 220 02:19 04.03.2020
1713 Clouds 3 1008 89 10000 2.1 180 01:52 04.03.2020
1714 Clouds 3 1008 80 10000 2.6 200 00:49 04.03.2020
1715 Clouds 3 1008 80 10000 2.1 250 00:25 04.03.2020
1716 Clouds 3 1008 80 10000 3.1 250 23:46 03.03.2020
1717 Clouds 3 1008 89 10000 2.1 200 23:27 03.03.2020
1718 Clouds 4 1008 75 10000 2.1 240 22:57 03.03.2020
1719 Clouds 4 1007 86 10000 2.6 240 22:39 03.03.2020
1720 Clouds 4 1007 86 10000 2.6 270 22:19 03.03.2020
1721 Clouds 4 1007 86 10000 2.6 270 21:56 03.03.2020
1722 Clouds 4 1007 86 10000 3.1 270 21:37 03.03.2020
1723 Clouds 4 1007 86 10000 3.1 270 21:18 03.03.2020
1724 Clouds 4 1007 86 10000 4.1 260 20:41 03.03.2020
1725 Clouds 4 1007 80 10000 2.6 270 20:20 03.03.2020
1726 Clouds 4 1007 69 10000 3.1 250 19:59 03.03.2020
1727 Clouds 4 1006 79 10000 4.1 280 19:37 03.03.2020
1728 Clouds 4 1006 80 10000 4.1 280 19:37 03.03.2020
1729 Clouds 4 1006 79 10000 4.1 280 19:19 03.03.2020
1730 Clouds 4 1006 79 10000 4.1 280 19:19 03.03.2020
1731 Clouds 5 1006 79 10000 5.1 280 18:58 03.03.2020
1732 Clouds 6 1006 65 10000 6.7 270 18:40 03.03.2020
1733 Clouds 6 1006 65 10000 6.7 270 18:21 03.03.2020
1734 Clouds 7 1005 52 10000 6.7 270 17:56 03.03.2020
1735 Clouds 7 1005 79 10000 6.2 270 17:37 03.03.2020
1736 Clouds 7 1005 63 10000 6.2 270 17:19 03.03.2020
1737 Rain 7 1004 61 10000 7.7 290 16:56 03.03.2020
1738 Clouds 7 1004 56 10000 7.2 280 16:37 03.03.2020
1739 Rain 7 1004 56 10000 7.2 280 16:18 03.03.2020
1740 Clouds 8 1004 56 10000 8.2 290 15:43 03.03.2020
1741 Clouds 8 1003 52 10000 9.3 290 15:21 03.03.2020
1742 Clouds 7 1003 61 10000 8.7 270 14:56 03.03.2020
1743 Clouds 8 1002 65 10000 9.3 280 14:37 03.03.2020
1744 Clouds 8 1002 65 10000 9.3 280 14:19 03.03.2020
1745 Clouds 8 1002 65 10000 9.8 280 13:55 03.03.2020
1746 Clouds 8 1002 61 10000 10.3 280 13:37 03.03.2020
1747 Clouds 8 1002 61 10000 10.3 280 13:18 03.03.2020
1748 Clouds 7 1000 70 10000 8.2 280 12:42 03.03.2020
1749 Clouds 7 1000 70 10000 8.2 280 12:23 03.03.2020
1750 Clouds 7 1000 70 10000 8.2 280 12:23 03.03.2020
1751 Clouds 6 1000 75 10000 9.8 280 11:55 03.03.2020
1752 Clouds 6 999 80 10000 10.3 270 11:37 03.03.2020
1753 Clouds 6 999 80 10000 10.3 270 11:18 03.03.2020
1754 Clouds 5 999 80 10000 9.8 270 10:54 03.03.2020
1755 Clouds 5 998 80 10000 8.7 270 10:36 03.03.2020
1756 Clouds 4 998 80 10000 8.7 270 10:18 03.03.2020
1757 Clouds 4 998 80 10000 8.7 270 09:41 03.03.2020
1758 Clouds 3 997 86 10000 8.2 260 09:21 03.03.2020
1759 Clouds 3 997 86 10000 7.7 260 08:42 03.03.2020
1760 Clouds 3 996 86 10000 7.2 260 08:22 03.03.2020
1761 Clouds 3 995 86 10000 8.2 270 07:56 03.03.2020
1762 Clouds 3 995 86 10000 8.2 270 07:56 03.03.2020
1763 Clouds 3 995 93 10000 7.2 260 07:38 03.03.2020
1764 Clouds 3 995 93 10000 7.2 260 07:18 03.03.2020
1765 Clouds 4 994 93 10000 7.7 260 06:40 03.03.2020
1766 Clouds 4 994 93 10000 7.7 260 06:21 03.03.2020
1767 Rain 4 993 86 10000 6.2 260 05:43 03.03.2020
1768 Rain 4 993 86 10000 7.2 250 04:54 03.03.2020
1769 Rain 3 992 86 10000 4.6 240 02:38 03.03.2020
1770 Clouds 3 993 86 10000 4.6 240 01:29 03.03.2020
1771 Clouds 3 993 80 10000 5.1 240 00:42 03.03.2020
1772 Clouds 3 992 80 10000 5.1 240 00:23 03.03.2020
1773 Clouds 3 992 80 10000 5.7 230 23:50 02.03.2020
1774 Clouds 3 992 80 10000 5.7 240 23:23 02.03.2020
1775 Clouds 3 992 79 10000 4.6 240 22:57 02.03.2020
1776 Clouds 3 992 79 10000 5.1 240 22:38 02.03.2020
1777 Clouds 3 992 79 10000 5.7 250 22:20 02.03.2020
1778 Clouds 3 992 79 10000 5.7 250 21:56 02.03.2020
1779 Clouds 3 991 80 10000 6.2 250 21:37 02.03.2020
1780 Clouds 3 991 80 10000 6.2 250 21:19 02.03.2020
1781 Clouds 4 991 80 10000 5.7 240 20:54 02.03.2020
1782 Clouds 4 991 80 10000 4.6 240 20:36 02.03.2020
1783 Clouds 4 991 80 10000 4.6 240 20:18 02.03.2020
1784 Clouds 4 991 80 10000 4.6 250 19:40 02.03.2020
1785 Clouds 4 990 80 10000 4.1 240 19:21 02.03.2020
1786 Clouds 4 990 75 10000 5.1 240 18:57 02.03.2020
1787 Clouds 4 990 79 10000 5.7 250 18:38 02.03.2020
1788 Clouds 4 990 79 10000 5.7 250 18:19 02.03.2020
1789 Clouds 5 990 75 10000 5.7 240 17:57 02.03.2020
1790 Clouds 5 990 75 10000 5.7 240 17:39 02.03.2020
1791 Clouds 5 990 65 10000 7.2 250 17:20 02.03.2020
1792 Rain 5 989 70 10000 5.7 250 16:43 02.03.2020
1793 -273 0 0 0 0 0 16:25 02.03.2020
1794 Rain 5 989 60 10000 6.7 260 15:58 02.03.2020
1795 Clouds 6 989 56 10000 7.2 250 15:40 02.03.2020
1796 Clouds 6 989 56 10000 7.2 250 15:18 02.03.2020
1797 Clouds 6 989 65 10000 6.7 250 14:39 02.03.2020
1798 Clouds 6 989 60 10000 6.7 250 14:20 02.03.2020
1799 Clouds 6 989 60 10000 6.7 250 13:57 02.03.2020
1800 Clouds 6 989 60 10000 5.1 240 13:37 02.03.2020
1801 Clouds 6 989 59 10000 5.1 240 13:18 02.03.2020
1802 Clouds 5 989 59 10000 5.1 230 12:43 02.03.2020
1803 Clouds 5 988 75 10000 6.2 250 12:19 02.03.2020
1804 Clouds 4 988 59 10000 5.1 250 11:40 02.03.2020
1805 Clouds 4 988 71 10000 5.1 250 11:21 02.03.2020
1806 Clouds 3 988 71 10000 5.1 240 10:58 02.03.2020
1807 Clouds 3 988 71 10000 5.1 240 10:40 02.03.2020
1808 Clouds 3 987 71 10000 5.1 240 10:40 02.03.2020
1809 Clouds 3 987 71 10000 5.1 240 10:19 02.03.2020
1810 Clouds 2 987 80 10000 4.6 250 09:53 02.03.2020
1811 Clouds 2 987 86 10000 4.6 240 09:32 02.03.2020
1812 Clouds 1 986 86 10000 4.1 240 08:49 02.03.2020
1813 Clouds 1 986 86 10000 4.1 250 08:24 02.03.2020
1814 Clouds 1 985 86 10000 4.1 250 07:54 02.03.2020
1815 Clouds 2 985 80 10000 4.1 240 07:36 02.03.2020
1816 Clouds 1 985 86 10000 3.6 240 06:56 02.03.2020
1817 Clouds 1 985 86 10000 3.6 240 06:28 02.03.2020
1818 Clouds 1 984 80 10000 3.6 240 05:27 02.03.2020
1819 Clouds 1 984 91 10000 2.6 240 03:59 02.03.2020
1820 Clouds 2 984 91 10000 3.1 240 03:19 02.03.2020
1821 Clouds 2 983 91 10000 3.1 220 02:32 02.03.2020
1822 Clouds 2 983 93 10000 3.1 230 01:40 02.03.2020
1823 Clouds 2 983 91 10000 3.1 230 01:22 02.03.2020
1824 Clouds 2 983 91 10000 3.6 230 00:22 02.03.2020
1825 Clouds 2 983 91 10000 3.6 230 23:56 01.03.2020
1826 Clouds 2 983 91 10000 3.1 230 23:37 01.03.2020
1827 Clouds 3 983 85 10000 3.6 240 23:18 01.03.2020
1828 Clouds 3 983 85 10000 3.6 230 22:36 01.03.2020
1829 Clouds 2 983 85 10000 3.6 230 22:18 01.03.2020
1830 Clouds 3 983 85 10000 4.1 230 21:42 01.03.2020
1831 Clouds 3 983 85 10000 4.1 230 21:24 01.03.2020
1832 Clouds 3 982 85 10000 4.1 240 20:58 01.03.2020
1833 Clouds 3 982 85 10000 4.1 240 20:39 01.03.2020
1834 Rain 3 982 78 10000 4.1 250 20:21 01.03.2020
1835 Rain 3 982 74 10000 5.7 250 19:42 01.03.2020
1836 Rain 3 982 78 10000 6.7 240 19:23 01.03.2020
1837 Clouds 4 981 65 10000 5.1 250 18:58 01.03.2020
1838 Clouds 5 981 60 10000 6.2 250 18:39 01.03.2020
1839 Clouds 5 981 60 10000 6.2 250 18:19 01.03.2020
1840 Clouds 5 981 78 10000 5.7 240 17:57 01.03.2020
1841 Clouds 5 982 78 10000 6.2 240 17:38 01.03.2020
1842 Rain 5 982 67 10000 6.2 240 17:19 01.03.2020
1843 Rain 5 982 67 10000 6.2 230 16:55 01.03.2020
1844 Rain 4 982 75 10000 6.7 260 16:36 01.03.2020
1845 Rain 4 982 75 10000 6.7 260 16:36 01.03.2020
1846 Rain 5 982 75 10000 6.7 260 16:18 01.03.2020
1847 Rain 6 982 70 10000 5.7 240 15:55 01.03.2020
1848 Clouds 5 982 70 10000 6.2 240 15:37 01.03.2020
1849 Clouds 5 982 70 10000 6.2 240 15:18 01.03.2020
1850 Clouds 5 982 80 10000 6.2 240 14:55 01.03.2020
1851 Rain 5 982 80 10000 5.7 230 14:36 01.03.2020
1852 Rain 5 982 80 10000 5.7 230 14:18 01.03.2020
1853 Clouds 6 982 75 10000 5.1 230 13:43 01.03.2020
1854 Clouds 6 982 75 10000 6.7 240 13:21 01.03.2020
1855 Clouds 6 981 67 10000 7.2 240 12:59 01.03.2020
1856 Clouds 6 981 67 10000 7.2 240 12:40 01.03.2020
1857 Clouds 5 981 75 10000 7.2 240 12:20 01.03.2020
1858 Clouds 5 981 73 10000 7.7 240 11:41 01.03.2020
1859 Clouds 5 981 71 10000 7.7 240 11:22 01.03.2020
1860 Clouds 4 981 71 10000 7.2 240 10:57 01.03.2020
1861 Clouds 3 981 75 10000 7.2 230 10:37 01.03.2020
1862 Clouds 3 981 71 10000 7.2 230 10:19 01.03.2020
1863 Clouds 3 980 71 10000 6.2 230 09:46 01.03.2020
1864 Clouds 2 980 71 10000 6.7 230 09:27 01.03.2020
1865 Clouds 2 979 75 10000 6.7 230 08:57 01.03.2020
1866 Clouds 2 979 71 10000 7.2 240 08:38 01.03.2020
1867 Clouds 2 979 75 10000 7.2 240 08:18 01.03.2020
1868 Clouds 2 979 75 10000 7.2 240 07:41 01.03.2020
1869 Clouds 3 978 75 10000 7.7 240 07:23 01.03.2020
1870 Clouds 3 978 75 10000 8.2 240 06:47 01.03.2020
1871 Clouds 2 978 75 10000 7.7 240 06:28 01.03.2020
1872 Clouds 3 976 78 10000 9.3 240 03:54 01.03.2020
1873 Clouds 3 975 78 10000 9.3 240 02:23 01.03.2020
1874 Clouds 3 975 78 10000 8.7 240 01:52 01.03.2020
1875 Clouds 3 975 78 10000 8.7 240 01:21 01.03.2020
1876 Clouds 4 975 78 10000 8.2 240 00:42 01.03.2020
1877 Clouds 4 974 78 10000 9.8 240 00:21 01.03.2020
1878 Clouds 4 973 78 10000 10.3 250 23:46 29.02.2020
1879 Clouds 4 973 75 10000 11.3 240 23:28 29.02.2020
1880 Clouds 5 972 75 10000 11.8 250 22:42 29.02.2020
1881 Clouds 5 972 75 10000 11.8 250 22:23 29.02.2020
1882 Clouds 5 972 70 10000 11.8 250 21:42 29.02.2020
1883 Clouds 5 972 70 10000 10.3 250 21:23 29.02.2020
1884 Clouds 6 971 81 10000 10.8 240 20:43 29.02.2020
1885 Rain 6 971 81 10000 10.8 240 20:22 29.02.2020
1886 Rain 5 971 81 10000 10.3 240 19:57 29.02.2020
1887 Rain 5 969 93 10000 8.7 240 19:38 29.02.2020
1888 Rain 5 969 93 10000 8.7 240 19:19 29.02.2020
1889 Rain 3 969 100 6000 8.2 230 18:43 29.02.2020
1890 Rain 3 968 93 10000 9.8 230 18:25 29.02.2020
1891 Rain 3 968 86 8000 10.8 230 17:58 29.02.2020
1892 Rain 3 967 86 8000 13.9 220 17:40 29.02.2020
1893 Rain 3 967 86 8000 13.9 220 17:21 29.02.2020
1894 Rain 3 967 86 9000 11.8 220 16:45 29.02.2020
1895 Rain 3 968 86 8000 11.8 220 16:22 29.02.2020
1896 Rain 3 968 88 10000 11.3 210 15:58 29.02.2020
1897 Rain 4 968 88 10000 11.3 210 15:40 29.02.2020
1898 Rain 5 970 65 10000 11.3 220 15:21 29.02.2020
1899 Rain 6 972 60 10000 9.3 220 14:41 29.02.2020
1900 Rain 6 972 60 10000 9.3 220 14:23 29.02.2020
1901 Clouds 5 972 60 10000 10.3 220 13:56 29.02.2020
1902 Clouds 5 973 60 10000 9.8 220 13:37 29.02.2020
1903 Clouds 5 973 60 10000 9.8 220 13:18 29.02.2020
1904 Clouds 4 974 64 10000 8.7 220 12:41 29.02.2020
1905 Clouds 4 974 64 10000 8.2 220 12:21 29.02.2020
1906 Clouds 4 974 64 10000 8.2 220 11:56 29.02.2020
1907 Clouds 4 975 69 10000 8.7 220 11:38 29.02.2020
1908 Clouds 4 975 69 10000 8.7 220 11:20 29.02.2020
1909 Clouds 3 976 74 10000 7.2 220 10:44 29.02.2020
1910 Clouds 2 976 74 10000 7.2 220 10:26 29.02.2020
1911 Clouds 2 976 74 10000 6.7 220 09:47 29.02.2020
1912 Clouds 2 976 74 10000 6.7 220 09:23 29.02.2020
1913 Clouds 2 977 74 10000 5.7 230 08:42 29.02.2020
1914 Clouds 2 977 80 10000 5.1 230 08:22 29.02.2020
1915 Clouds 2 977 80 10000 6.2 230 07:57 29.02.2020
1916 Clouds 2 977 80 10000 5.7 240 07:39 29.02.2020
1917 Clouds 2 977 80 10000 5.7 240 07:18 29.02.2020
1918 Clouds 3 977 84 10000 5.1 240 06:42 29.02.2020
1919 Clouds 3 977 84 10000 7.2 250 06:22 29.02.2020
1920 Clouds 4 977 84 10000 5.1 240 05:46 29.02.2020
1921 Rain 4 977 80 10000 5.1 240 04:45 29.02.2020
1922 Drizzle 6 976 81 10000 6.7 260 03:40 29.02.2020
1923 Drizzle 6 976 81 10000 6.7 260 03:21 29.02.2020
1924 Rain 6 977 87 10000 4.6 250 02:37 29.02.2020
1925 Rain 6 977 87 10000 4.6 250 02:37 29.02.2020
1926 Rain 10 977 93 10000 4.6 170 00:58 29.02.2020
1927 Rain 10 977 93 10000 4.1 150 00:37 29.02.2020
1928 Rain 10 978 93 10000 4.1 160 23:43 28.02.2020
1929 Rain 10 979 93 10000 6.2 150 23:25 28.02.2020
1930 Rain 11 980 81 10000 7.2 150 22:55 28.02.2020
1931 Rain 11 981 81 10000 4.6 170 22:36 28.02.2020
1932 Clouds 11 981 81 10000 4.6 170 22:18 28.02.2020
1933 Clouds 10 982 76 10000 5.7 190 21:41 28.02.2020
1934 Clouds 11 983 76 10000 3.6 150 21:21 28.02.2020
1935 Clouds 10 985 81 10000 5.1 190 20:41 28.02.2020
1936 Clouds 10 985 81 10000 5.1 190 20:22 28.02.2020
1937 Clouds 10 985 81 10000 5.1 190 20:22 28.02.2020
1938 Clouds 11 985 87 10000 4.1 190 19:59 28.02.2020
1939 Clouds 11 986 76 10000 4.1 220 19:39 28.02.2020
1940 Clouds 11 986 76 10000 4.1 220 19:39 28.02.2020
1941 Clouds 11 986 76 10000 4.1 220 19:21 28.02.2020
1942 Clouds 12 986 76 10000 4.1 230 18:57 28.02.2020
1943 Clouds 12 987 76 10000 3.6 220 18:39 28.02.2020
1944 Clouds 12 987 76 10000 3.6 220 18:20 28.02.2020
1945 Clouds 12 987 76 10000 4.1 240 17:41 28.02.2020
1946 Clouds 12 987 76 10000 5.1 240 17:22 28.02.2020
1947 Clouds 13 987 71 10000 6.2 250 16:47 28.02.2020
1948 Clouds 13 987 71 10000 8.2 250 16:20 28.02.2020
1949 Clouds 12 987 87 10000 7.2 250 15:59 28.02.2020
1950 Drizzle 13 987 87 7000 7.7 240 15:40 28.02.2020
1951 Drizzle 13 987 87 7000 7.7 240 15:20 28.02.2020
1952 Clouds 13 987 82 10000 7.7 230 14:57 28.02.2020
1953 Clouds 13 988 82 10000 7.2 220 14:39 28.02.2020
1954 Clouds 13 988 82 10000 7.2 220 14:18 28.02.2020
1955 Clouds 13 988 82 10000 6.2 220 13:42 28.02.2020
1956 Clouds 12 989 87 10000 7.7 220 13:21 28.02.2020
1957 Rain 12 990 93 10000 6.2 210 12:59 28.02.2020
1958 Rain 11 990 93 6000 6.7 210 12:40 28.02.2020
1959 Rain 11 990 93 6000 6.7 210 12:22 28.02.2020
1960 Rain 10 991 93 10000 4.6 140 11:42 28.02.2020
1961 Rain 9 991 93 10000 4.6 140 11:23 28.02.2020
1962 Rain 8 992 93 6000 6.2 140 10:57 28.02.2020
1963 Drizzle 7 993 93 8000 9.8 150 10:39 28.02.2020
1964 Drizzle 7 993 93 8000 9.8 150 10:19 28.02.2020
1965 Rain 7 994 93 9000 9.3 150 09:44 28.02.2020
1966 Rain 6 995 93 9000 8.7 150 09:21 28.02.2020
1967 Rain 6 996 93 10000 9.3 150 08:55 28.02.2020
1968 Clouds 6 998 93 10000 7.2 150 08:36 28.02.2020
1969 Clouds 6 998 93 10000 7.2 150 08:18 28.02.2020
1970 Rain 5 1001 93 10000 6.7 160 07:39 28.02.2020
1971 Rain 5 1001 93 10000 6.7 160 07:19 28.02.2020
1972 Rain 5 1001 93 10000 3.1 150 06:41 28.02.2020
1973 Rain 5 1004 86 10000 5.1 160 05:37 28.02.2020
1974 Rain 5 1006 75 10000 3.6 140 04:33 28.02.2020
1975 Clouds 5 1007 75 10000 3.1 150 03:39 28.02.2020
1976 Clouds 5 1007 75 10000 3.6 170 02:45 28.02.2020
1977 Clouds 4 1008 80 10000 3.6 190 02:20 28.02.2020
1978 Clouds 4 1010 83 10000 2.6 190 00:36 28.02.2020
1979 Clouds 3 1010 74 10000 2.6 170 23:58 27.02.2020
1980 Clouds 4 1010 69 10000 2.6 200 23:38 27.02.2020
1981 Clouds 4 1010 69 10000 2.6 200 23:18 27.02.2020
1982 Clouds 4 1010 69 10000 2.6 200 22:40 27.02.2020
1983 Clouds 4 1010 69 10000 2.6 200 22:22 27.02.2020
1984 Clouds 3 1010 69 10000 3.1 200 21:55 27.02.2020
1985 Clouds 3 1010 83 10000 3.1 220 21:37 27.02.2020
1986 Clouds 4 1010 83 10000 3.1 220 21:18 27.02.2020
1987 Clouds 4 1010 83 10000 2.6 230 20:42 27.02.2020
1988 Clouds 4 1010 83 10000 2.6 230 20:23 27.02.2020
1989 Clouds 4 1010 65 10000 2.6 250 19:59 27.02.2020
1990 Clouds 5 1009 65 10000 2.6 270 19:41 27.02.2020
1991 Clouds 5 1009 65 10000 2.6 270 19:23 27.02.2020
1992 Clouds 5 1009 60 10000 4.6 270 18:57 27.02.2020
1993 Clouds 6 1009 81 10000 5.7 280 18:39 27.02.2020
1994 Clouds 6 1008 81 10000 7.2 270 18:20 27.02.2020
1995 Clouds 6 1008 81 10000 7.2 270 17:55 27.02.2020
1996 Clouds 7 1008 81 10000 7.2 280 17:36 27.02.2020
1997 Clouds 7 1008 62 10000 7.2 280 17:18 27.02.2020
1998 Clouds 7 1008 62 10000 7.2 280 17:18 27.02.2020
1999 Clouds 8 1008 52 10000 8.7 280 16:41 27.02.2020
2000 Clouds 7 1008 56 10000 10.3 270 16:20 27.02.2020
2001 Clouds 7 1007 65 10000 8.2 290 15:59 27.02.2020
2002 Clouds 7 1007 62 10000 8.7 290 15:38 27.02.2020
2003 Clouds 7 1007 62 10000 8.7 290 15:20 27.02.2020
2004 Clouds 6 1007 62 10000 9.3 290 14:59 27.02.2020
2005 Clouds 6 1007 70 10000 10.3 280 14:39 27.02.2020
2006 Clouds 6 1007 70 10000 10.3 280 14:20 27.02.2020
2007 Clouds 6 1007 70 10000 9.3 280 13:43 27.02.2020
2008 Clouds 6 1006 75 10000 8.2 270 13:22 27.02.2020
2009 Clouds 6 1006 75 10000 8.2 270 12:57 27.02.2020
2010 Clouds 5 1005 75 10000 7.7 270 12:39 27.02.2020
2011 Clouds 5 1005 75 10000 7.7 270 12:19 27.02.2020
2012 Clouds 4 1005 80 10000 6.7 270 11:45 27.02.2020
2013 Clouds 4 1005 86 10000 6.7 270 11:22 27.02.2020
2014 Clouds 3 1004 81 10000 5.7 270 10:45 27.02.2020
2015 Clouds 2 1004 81 10000 5.7 270 10:25 27.02.2020
2016 Clouds 1 1003 81 10000 5.7 270 09:59 27.02.2020
2017 Clouds 1 1002 81 10000 5.1 270 09:40 27.02.2020
2018 Clouds 1 1002 81 10000 5.1 270 09:21 27.02.2020
2019 Clouds 0 1002 81 10000 5.1 270 08:41 27.02.2020
2020 Clouds 0 1001 96 10000 6.2 280 08:22 27.02.2020
2021 Clouds 0 1001 96 10000 6.2 280 07:46 27.02.2020
2022 Clouds 1 1000 96 10000 5.7 290 07:26 27.02.2020
2023 Clouds 1 1000 96 10000 6.2 290 06:48 27.02.2020
2024 Clouds 1 999 100 10000 5.7 300 05:58 27.02.2020
2025 Clouds 2 999 93 10000 4.1 280 04:21 27.02.2020
2026 Clouds 3 999 86 10000 3.6 270 02:35 27.02.2020
2027 Clouds 3 1000 86 10000 2.6 240 00:47 27.02.2020
2028 Clouds 3 1001 86 10000 2.6 240 00:28 27.02.2020
2029 Clouds 3 1001 86 10000 2.6 230 23:40 26.02.2020
2030 Clouds 3 1001 86 10000 3.1 230 23:19 26.02.2020
2031 Clouds 3 1002 86 10000 3.6 220 22:58 26.02.2020
2032 Clouds 3 1002 86 10000 3.1 230 22:39 26.02.2020
2033 Clouds 3 1002 86 10000 3.1 230 22:21 26.02.2020
2034 Clouds 3 1002 86 10000 3.1 230 21:56 26.02.2020
2035 Clouds 3 1003 80 10000 4.1 240 21:38 26.02.2020
2036 Clouds 3 1003 80 10000 4.1 240 21:18 26.02.2020
2037 Clouds 4 1003 80 10000 3.1 230 20:55 26.02.2020
2038 Clouds 4 1004 80 10000 3.1 240 20:37 26.02.2020
2039 Clouds 4 1004 80 10000 3.1 240 20:18 26.02.2020
2040 Rain 4 1004 80 10000 3.6 250 19:46 26.02.2020
2041 Clouds 4 1004 75 10000 4.6 230 19:21 26.02.2020
2042 Clouds 5 1005 83 10000 3.6 230 18:59 26.02.2020
2043 Clouds 5 1005 75 10000 4.6 230 18:41 26.02.2020
2044 Clouds 5 1005 75 10000 4.6 230 18:22 26.02.2020
2045 Clouds 5 1005 83 10000 4.6 250 17:57 26.02.2020
2046 Rain 5 1005 83 10000 5.7 260 17:39 26.02.2020
2047 Rain 5 1005 63 10000 5.7 260 17:18 26.02.2020
2048 Rain 6 1005 56 10000 6.7 250 16:43 26.02.2020
2049 Rain 6 1005 56 10000 4.6 250 16:22 26.02.2020
2050 Clouds 6 1006 52 10000 6.2 250 15:56 26.02.2020
2051 Clouds 6 1006 60 10000 8.2 270 15:38 26.02.2020
2052 Clouds 7 1006 60 10000 8.2 270 15:19 26.02.2020
2053 Clouds 7 1006 56 10000 6.7 260 14:42 26.02.2020
2054 Clouds 6 1007 70 10000 7.2 270 14:22 26.02.2020
2055 Clouds 6 1007 59 10000 8.7 280 13:43 26.02.2020
2056 Clouds 5 1007 75 10000 7.2 270 13:22 26.02.2020
2057 Clouds 4 1007 75 10000 7.7 280 12:42 26.02.2020
2058 Clouds 4 1007 75 10000 7.7 280 12:23 26.02.2020
2059 Clouds 4 1007 80 10000 7.7 270 11:59 26.02.2020
2060 Clouds 3 1007 86 10000 6.7 270 11:41 26.02.2020
2061 Clouds 3 1007 86 10000 6.7 270 11:22 26.02.2020
2062 Clouds 3 1007 86 10000 6.7 270 11:22 26.02.2020
2063 Rain 3 1007 86 10000 7.7 270 10:56 26.02.2020
2064 Clouds 2 1006 71 10000 7.2 270 10:38 26.02.2020
2065 Clouds 2 1006 71 10000 7.2 270 10:20 26.02.2020
2066 Clouds 2 1006 71 10000 7.2 270 10:20 26.02.2020
2067 Clouds 1 1005 71 10000 7.2 270 09:41 26.02.2020
2068 Clouds 1 1005 71 10000 7.2 270 09:21 26.02.2020
2069 Clouds 1 1005 71 10000 7.2 270 09:21 26.02.2020
2070 Clouds 1 1005 71 10000 7.2 270 09:21 26.02.2020
2071 Clouds 1 1004 71 10000 8.2 270 08:54 26.02.2020
2072 Clouds 1 1004 71 10000 8.2 270 08:54 26.02.2020
2073 Clouds 1 1004 71 10000 9.8 280 08:36 26.02.2020
2074 Clouds 1 1004 75 10000 9.8 280 08:18 26.02.2020
2075 Clouds 1 1002 75 10000 9.3 270 07:41 26.02.2020
2076 Clouds 1 1002 75 10000 9.3 270 07:21 26.02.2020
2077 Rain 2 1001 75 10000 6.7 260 06:46 26.02.2020
2078 Rain 1 1001 75 10000 6.7 260 06:23 26.02.2020
2079 Rain 1 1001 75 8000 7.7 260 05:48 26.02.2020
2080 Rain 1 1001 76 8000 8.2 260 05:18 26.02.2020
2081 Rain 2 1000 93 10000 8.2 270 03:27 26.02.2020
2082 Clouds 2 998 81 10000 9.3 270 01:58 26.02.2020
2083 Clouds 2 998 81 10000 7.7 260 01:26 26.02.2020
2084 Clouds 1 997 79 10000 8.2 260 00:44 26.02.2020
2085 Clouds 1 997 79 10000 8.2 260 00:20 26.02.2020
2086 Clouds 1 996 86 10000 6.7 250 23:42 25.02.2020
2087 Clouds 1 996 86 10000 6.7 250 23:24 25.02.2020
2088 Clouds 1 996 86 10000 7.2 250 22:56 25.02.2020
2089 Clouds 1 996 86 10000 7.7 260 22:37 25.02.2020
2090 Clouds 1 996 86 10000 7.7 260 22:18 25.02.2020
2091 Clouds 1 996 86 10000 6.2 260 21:38 25.02.2020
2092 Clouds 1 996 86 10000 6.2 260 21:20 25.02.2020
2093 Clouds 1 996 86 10000 7.2 260 20:57 25.02.2020
2094 Clouds 1 996 80 10000 8.2 260 20:39 25.02.2020
2095 Clouds 2 996 80 10000 8.2 260 20:19 25.02.2020
2096 Rain 2 995 81 10000 6.7 260 19:54 25.02.2020
2097 Rain 2 995 81 10000 6.2 260 19:36 25.02.2020
2098 Rain 2 995 81 10000 7.7 270 19:18 25.02.2020
2099 Clouds 2 995 81 10000 8.2 270 18:40 25.02.2020
2100 Clouds 2 995 81 10000 8.2 270 18:21 25.02.2020
2101 Rain 2 995 81 10000 9.8 270 17:56 25.02.2020
2102 Rain 2 994 81 10000 9.3 270 17:37 25.02.2020
2103 Rain 2 994 81 10000 9.3 270 17:18 25.02.2020
2104 Rain 3 994 81 10000 10.3 270 16:56 25.02.2020
2105 Clouds 4 994 81 10000 10.8 270 16:37 25.02.2020
2106 Clouds 4 994 81 10000 10.8 270 16:19 25.02.2020
2107 Rain 4 995 80 10000 7.7 260 15:45 25.02.2020
2108 Rain 3 995 86 10000 6.7 260 15:20 25.02.2020
2109 Rain 3 995 86 10000 7.2 250 15:20 25.02.2020
2110 Rain 3 995 86 10000 7.2 250 14:59 25.02.2020
2111 Clouds 3 995 86 10000 9.3 270 14:39 25.02.2020
2112 Clouds 3 995 86 10000 9.3 270 14:18 25.02.2020
2113 Clouds 4 995 80 10000 8.2 250 13:58 25.02.2020
2114 Clouds 5 996 75 10000 7.7 250 13:40 25.02.2020
2115 Clouds 5 996 75 10000 7.7 250 13:20 25.02.2020
2116 Clouds 5 996 80 10000 5.7 250 13:20 25.02.2020
2117 Clouds 5 996 80 10000 5.7 250 12:56 25.02.2020
2118 Clouds 4 996 80 10000 5.7 250 12:37 25.02.2020
2119 Clouds 4 996 80 10000 5.7 250 12:19 25.02.2020
2120 Clouds 4 996 86 10000 6.2 240 11:55 25.02.2020
2121 Clouds 4 997 80 10000 6.7 250 11:37 25.02.2020
2122 Clouds 4 997 86 10000 6.2 240 11:18 25.02.2020
2123 Clouds 3 997 86 10000 5.7 240 10:41 25.02.2020
2124 Rain 3 997 86 10000 5.7 240 10:23 25.02.2020
2125 Rain 3 997 86 10000 5.7 240 09:42 25.02.2020
2126 Clouds 3 998 93 10000 6.2 240 09:23 25.02.2020
2127 Clouds 2 998 87 10000 5.7 240 08:58 25.02.2020
2128 Clouds 2 998 93 10000 5.7 230 08:39 25.02.2020
2129 Clouds 2 998 93 10000 5.7 230 08:21 25.02.2020
2130 Clouds 2 999 93 10000 5.7 240 07:48 25.02.2020
2131 Clouds 3 999 93 10000 5.1 240 07:21 25.02.2020
2132 Clouds 3 999 93 10000 5.1 240 06:51 25.02.2020
2133 Clouds 3 999 93 10000 5.1 240 06:51 25.02.2020
2134 Clouds 3 1000 93 10000 4.6 240 05:41 25.02.2020
2135 Rain 3 1001 93 10000 5.7 240 03:54 25.02.2020
2136 Clouds 4 1002 86 10000 5.1 240 02:32 25.02.2020
2137 Clouds 4 1003 80 10000 5.7 240 00:57 25.02.2020
2138 Clouds 4 1003 80 10000 5.1 240 00:30 25.02.2020
2139 Clouds 4 1003 80 10000 5.7 250 23:46 24.02.2020
2140 Clouds 4 1003 80 10000 5.7 250 23:28 24.02.2020
2141 Clouds 4 1004 80 10000 5.7 250 22:43 24.02.2020
2142 Clouds 4 1004 80 10000 5.7 260 22:21 24.02.2020
2143 Clouds 4 1004 80 10000 5.7 260 22:21 24.02.2020
2144 Clouds 4 1004 80 10000 7.2 270 21:58 24.02.2020
2145 Clouds 4 1004 86 10000 7.7 270 21:40 24.02.2020
2146 Clouds 4 1004 86 10000 7.7 270 21:20 24.02.2020
2147 Rain 5 1004 80 10000 9.3 280 20:59 24.02.2020
2148 Clouds 5 1004 75 10000 7.7 270 20:41 24.02.2020
2149 Clouds 5 1004 75 10000 7.7 270 20:20 24.02.2020
2150 Clouds 5 1004 75 10000 7.7 270 20:20 24.02.2020
2151 Clouds 5 1004 80 10000 8.2 280 19:58 24.02.2020
2152 Clouds 5 1004 80 10000 8.2 280 19:40 24.02.2020
2153 Clouds 6 1003 75 10000 9.8 270 19:22 24.02.2020
2154 Clouds 6 1003 75 10000 11.8 280 18:56 24.02.2020
2155 Clouds 6 1003 70 10000 10.3 280 18:38 24.02.2020
2156 Clouds 7 1002 70 10000 10.3 270 18:19 24.02.2020
2157 Clouds 7 1002 75 10000 12.3 280 17:42 24.02.2020
2158 Clouds 7 1002 75 10000 12.3 280 17:42 24.02.2020
2159 Clouds 8 1002 75 10000 12.3 280 17:21 24.02.2020
2160 Rain 8 1001 75 10000 10.8 280 16:59 24.02.2020
2161 Clouds 8 1001 65 10000 13.9 280 16:39 24.02.2020
2162 Clouds 8 1001 65 10000 13.9 280 16:21 24.02.2020
2163 Clouds 7 1001 70 10000 13.4 270 15:59 24.02.2020
2164 Rain 7 1001 70 10000 13.4 270 15:40 24.02.2020
2165 Rain 7 1000 81 10000 12.3 270 15:40 24.02.2020
2166 Rain 7 1000 81 10000 12.3 270 15:21 24.02.2020
2167 Drizzle 7 1000 87 10000 13.9 270 14:58 24.02.2020
2168 Clouds 7 999 75 10000 13.9 270 14:39 24.02.2020
2169 Clouds 8 999 75 10000 13.9 270 14:19 24.02.2020
2170 Rain 8 999 87 10000 9.8 250 13:56 24.02.2020
2171 Clouds 9 998 76 10000 10.8 260 13:36 24.02.2020
2172 Clouds 9 998 76 10000 10.8 260 13:18 24.02.2020
2173 Clouds 10 998 76 10000 9.3 250 12:54 24.02.2020
2174 Clouds 11 997 81 10000 10.3 250 12:36 24.02.2020
2175 Clouds 11 997 81 10000 10.3 250 12:18 24.02.2020
2176 Clouds 11 996 93 10000 9.8 240 11:41 24.02.2020
2177 Clouds 11 996 93 10000 9.8 240 11:23 24.02.2020
2178 Drizzle 11 996 93 8000 9.8 240 10:43 24.02.2020
2179 Drizzle 11 996 93 7000 7.7 240 10:24 24.02.2020
2180 Drizzle 11 996 93 3500 7.7 240 09:41 24.02.2020
2181 Drizzle 11 997 93 5000 8.7 230 09:19 24.02.2020
2182 Drizzle 11 997 93 6000 7.7 230 08:55 24.02.2020
2183 Rain 11 998 93 10000 8.2 230 08:30 24.02.2020
2184 Rain 11 998 93 10000 7.7 230 07:59 24.02.2020
2185 Rain 11 998 93 10000 7.7 230 07:40 24.02.2020
2186 Rain 11 999 93 10000 7.7 230 07:22 24.02.2020
2187 Rain 11 1000 100 8000 10.3 220 06:33 24.02.2020
2188 Rain 8 1002 100 7000 3.1 120 05:47 24.02.2020
2189 Rain 7 1003 93 7000 5.1 120 05:27 24.02.2020
2190 Rain 5 1010 93 6000 6.7 130 03:18 24.02.2020
2191 Rain 5 1011 93 8000 8.2 130 02:45 24.02.2020
2192 Rain 4 1014 93 10000 5.7 140 01:40 24.02.2020
2193 Rain 4 1017 86 10000 4.6 170 00:51 24.02.2020
2194 Rain 4 1018 80 10000 4.1 180 00:21 24.02.2020
2195 Rain 5 1018 80 10000 4.6 160 23:58 23.02.2020
2196 Rain 5 1018 70 10000 2.6 150 23:38 23.02.2020
2197 Rain 5 1018 70 10000 2.6 150 23:18 23.02.2020
2198 Clouds 5 1019 75 10000 2.1 150 22:43 23.02.2020
2199 Clouds 5 1020 75 10000 1.5 180 22:22 23.02.2020
2200 Clouds 5 1020 75 10000 1.5 180 21:58 23.02.2020
2201 Clouds 5 1020 75 10000 2.1 200 21:39 23.02.2020
2202 Clouds 5 1020 75 10000 2.1 200 21:19 23.02.2020
2203 Clouds 5 1021 75 10000 2.1 220 20:55 23.02.2020
2204 Clouds 5 1021 75 10000 2.1 220 20:55 23.02.2020
2205 Clouds 5 1021 75 10000 2.6 230 20:37 23.02.2020
2206 Clouds 5 1021 75 10000 2.6 230 20:18 23.02.2020
2207 Clouds 5 1021 70 10000 2.6 220 19:54 23.02.2020
2208 Clouds 5 1021 79 10000 2.1 250 19:36 23.02.2020
2209 Clouds 5 1021 79 10000 2.1 250 19:18 23.02.2020
2210 Clouds 5 1021 79 10000 2.1 250 19:18 23.02.2020
2211 Clouds 6 1021 79 10000 2.6 260 18:41 23.02.2020
2212 Clouds 6 1020 79 10000 3.6 270 18:21 23.02.2020
2213 Clouds 6 1020 70 10000 4.1 280 17:59 23.02.2020
2214 Clouds 7 1020 79 10000 4.6 270 17:41 23.02.2020
2215 Clouds 7 1020 64 10000 4.6 270 17:21 23.02.2020
2216 Clouds 7 1020 65 10000 4.1 290 16:57 23.02.2020
2217 Clouds 7 1019 65 10000 6.7 280 16:38 23.02.2020
2218 Clouds 7 1019 65 10000 6.7 280 16:20 23.02.2020
2219 Clouds 7 1019 65 10000 7.2 280 15:54 23.02.2020
2220 Clouds 7 1019 64 10000 8.7 280 15:36 23.02.2020
2221 Clouds 7 1019 64 10000 8.7 280 15:18 23.02.2020
2222 Clouds 7 1018 70 10000 6.7 280 14:55 23.02.2020
2223 Clouds 7 1018 65 10000 8.2 280 14:37 23.02.2020
2224 Clouds 7 1018 65 10000 8.2 280 14:18 23.02.2020
2225 Clouds 7 1017 70 10000 8.7 280 13:42 23.02.2020
2226 Clouds 7 1017 70 10000 6.7 290 13:22 23.02.2020
2227 Clouds 7 1016 75 10000 7.2 280 12:59 23.02.2020
2228 Clouds 7 1015 75 10000 8.2 280 12:39 23.02.2020
2229 Clouds 7 1015 75 10000 8.2 280 12:39 23.02.2020
2230 Clouds 6 1015 75 10000 8.2 280 12:20 23.02.2020
2231 Clouds 6 1014 81 10000 8.2 290 11:39 23.02.2020
2232 Clouds 6 1014 81 10000 8.2 290 11:20 23.02.2020
2233 Clouds 5 1014 86 10000 8.7 290 10:57 23.02.2020
2234 Clouds 5 1012 93 10000 6.7 290 10:39 23.02.2020
2235 Clouds 5 1012 93 10000 6.7 290 10:21 23.02.2020
2236 Clouds 5 1012 93 10000 8.7 290 09:56 23.02.2020
2237 Rain 5 1010 86 10000 8.2 290 09:37 23.02.2020
2238 Rain 5 1010 86 10000 8.2 290 09:18 23.02.2020
2239 Drizzle 6 1008 93 5000 7.7 260 08:43 23.02.2020
2240 Drizzle 6 1008 93 10000 7.2 270 08:24 23.02.2020
2241 Rain 6 1006 100 10000 5.1 270 07:43 23.02.2020
2242 Clouds 6 1006 100 10000 5.1 270 07:25 23.02.2020
2243 Rain 6 1005 93 10000 5.1 290 06:20 23.02.2020
2244 Rain 6 1005 93 10000 1 80 04:59 23.02.2020
2245 Rain 6 1006 93 10000 1.5 0 03:53 23.02.2020
2246 Rain 7 1008 87 9000 4.6 220 02:40 23.02.2020
2247 Rain 7 1011 93 10000 4.1 230 01:27 23.02.2020
2248 Rain 7 1012 87 10000 5.1 230 00:59 23.02.2020
2249 Rain 7 1012 93 10000 4.6 230 00:41 23.02.2020
2250 Rain 7 1012 93 10000 4.6 230 00:19 23.02.2020
2251 Rain 6 1013 93 10000 5.1 230 23:42 22.02.2020
2252 Rain 6 1013 93 10000 4.6 230 23:20 22.02.2020
2253 Rain 6 1013 87 10000 6.7 240 22:45 22.02.2020
2254 Rain 6 1014 81 10000 5.7 240 22:20 22.02.2020
2255 Rain 7 1014 81 10000 5.7 240 21:43 22.02.2020
2256 Rain 6 1014 81 10000 5.1 230 21:25 22.02.2020
2257 Rain 6 1014 87 10000 5.1 250 20:58 22.02.2020
2258 Rain 6 1014 81 10000 6.2 250 20:39 22.02.2020
2259 Rain 6 1014 81 10000 6.2 250 20:21 22.02.2020
2260 Rain 6 1014 81 10000 5.1 240 19:42 22.02.2020
2261 Clouds 6 1014 81 10000 5.1 240 19:23 22.02.2020
2262 Rain 6 1014 81 10000 6.2 250 18:55 22.02.2020
2263 Rain 7 1014 81 10000 7.2 260 18:37 22.02.2020
2264 Rain 6 1014 81 10000 6.2 250 18:18 22.02.2020
2265 Rain 7 1014 81 10000 6.2 250 17:44 22.02.2020
2266 Rain 6 1014 81 10000 11.3 260 17:25 22.02.2020
2267 Clouds 7 1014 65 10000 8.7 250 16:59 22.02.2020
2268 Clouds 7 1013 65 10000 6.7 250 16:40 22.02.2020
2269 Clouds 7 1013 65 10000 6.7 250 16:20 22.02.2020
2270 Clouds 8 1013 65 10000 7.2 260 15:46 22.02.2020
2271 Clouds 7 1013 70 10000 9.8 260 15:27 22.02.2020
2272 Clouds 8 1013 65 10000 11.3 260 14:59 22.02.2020
2273 Clouds 7 1013 70 10000 10.3 260 14:40 22.02.2020
2274 Clouds 7 1013 70 10000 10.3 260 14:40 22.02.2020
2275 Clouds 7 1013 70 10000 10.3 260 14:20 22.02.2020
2276 Clouds 7 1012 81 10000 7.7 260 13:43 22.02.2020
2277 Rain 7 1012 86 7000 13.9 270 13:20 22.02.2020
2278 Clouds 7 1011 70 10000 8.7 250 12:58 22.02.2020
2279 Clouds 7 1011 70 10000 8.2 250 12:39 22.02.2020
2280 Clouds 7 1011 70 10000 8.2 250 12:20 22.02.2020
2281 Clouds 7 1011 70 10000 8.7 250 11:42 22.02.2020
2282 Clouds 7 1010 70 10000 8.7 250 11:24 22.02.2020
2283 Clouds 7 1010 70 10000 7.7 240 10:42 22.02.2020
2284 Clouds 7 1010 70 10000 6.7 250 10:21 22.02.2020
2285 Clouds 6 1009 75 10000 7.7 240 09:59 22.02.2020
2286 Clouds 6 1009 75 10000 7.7 240 09:40 22.02.2020
2287 Clouds 6 1009 81 10000 6.2 240 09:22 22.02.2020
2288 Rain 6 1008 75 10000 7.2 250 08:51 22.02.2020
2289 Rain 6 1008 81 10000 7.2 250 08:28 22.02.2020
2290 Clouds 6 1008 81 10000 7.7 250 07:58 22.02.2020
2291 Rain 6 1007 81 10000 8.2 260 07:38 22.02.2020
2292 Rain 7 1007 81 10000 8.2 260 07:18 22.02.2020
2293 Clouds 8 1006 75 10000 7.2 250 06:41 22.02.2020
2294 Rain 8 1005 87 10000 11.8 270 04:44 22.02.2020
2295 Rain 10 1003 81 10000 7.2 250 03:47 22.02.2020
2296 Rain 10 1003 93 10000 8.7 230 02:34 22.02.2020
2297 Drizzle 10 1002 93 6000 8.2 220 01:47 22.02.2020
2298 Drizzle 10 1003 93 5000 7.2 230 01:28 22.02.2020
2299 Rain 10 1004 93 10000 8.7 220 00:46 22.02.2020
2300 Rain 10 1004 93 10000 8.7 220 00:28 22.02.2020
2301 Rain 10 1004 93 10000 9.3 220 23:52 21.02.2020
2302 Rain 10 1004 87 10000 10.3 220 23:25 21.02.2020
2303 Rain 10 1005 93 10000 9.3 220 22:57 21.02.2020
2304 Rain 10 1005 93 10000 8.2 220 22:39 21.02.2020
2305 Rain 10 1005 93 10000 8.2 220 22:21 21.02.2020
2306 Rain 10 1006 87 10000 9.3 220 21:42 21.02.2020
2307 Rain 10 1006 87 10000 9.3 220 21:24 21.02.2020
2308 Rain 10 1006 87 10000 8.7 230 20:56 21.02.2020
2309 Rain 10 1006 87 10000 9.8 230 20:38 21.02.2020
2310 Rain 10 1006 87 10000 9.8 230 20:19 21.02.2020
2311 Rain 10 1006 87 10000 8.7 230 19:39 21.02.2020
2312 Rain 10 1006 87 10000 8.7 230 19:19 21.02.2020
2313 Rain 10 1007 87 10000 8.7 230 18:40 21.02.2020
2314 Rain 10 1007 87 10000 8.7 230 18:22 21.02.2020
2315 Clouds 10 1007 87 10000 9.8 230 17:55 21.02.2020
2316 Clouds 10 1007 87 10000 8.2 230 17:36 21.02.2020
2317 Clouds 10 1007 87 10000 8.2 230 17:18 21.02.2020
2318 Rain 10 1008 87 10000 8.7 230 16:41 21.02.2020
2319 Clouds 10 1008 81 10000 8.7 240 16:21 21.02.2020
2320 Clouds 10 1008 81 10000 8.7 240 15:57 21.02.2020
2321 Rain 11 1008 81 10000 8.2 240 15:38 21.02.2020
2322 Rain 11 1008 81 10000 8.2 240 15:18 21.02.2020
2323 Rain 10 1009 87 10000 9.3 240 14:42 21.02.2020
2324 Rain 10 1009 87 10000 9.3 240 14:20 21.02.2020
2325 Rain 10 1009 81 10000 7.2 230 13:45 21.02.2020
2326 Rain 10 1010 81 10000 8.7 220 13:24 21.02.2020
2327 Rain 10 1010 76 10000 8.7 230 12:56 21.02.2020
2328 Rain 10 1010 76 10000 7.7 230 12:37 21.02.2020
2329 Clouds 10 1010 81 10000 7.7 230 12:19 21.02.2020
2330 Rain 9 1010 76 10000 6.7 230 11:42 21.02.2020
2331 Rain 9 1010 76 10000 6.7 230 11:23 21.02.2020
2332 Rain 9 1010 76 10000 8.2 230 10:57 21.02.2020
2333 Rain 9 1011 81 10000 8.7 230 10:39 21.02.2020
2334 Rain 8 1011 81 10000 8.7 230 10:19 21.02.2020
2335 Clouds 8 1011 81 10000 8.7 220 09:57 21.02.2020
2336 Rain 8 1011 81 10000 9.3 220 09:38 21.02.2020
2337 Rain 8 1011 81 10000 9.3 220 09:19 21.02.2020
2338 Clouds 8 1011 75 10000 7.7 220 08:43 21.02.2020
2339 Clouds 8 1011 75 10000 7.7 230 08:22 21.02.2020
2340 Clouds 8 1011 75 10000 8.7 220 07:59 21.02.2020
2341 Clouds 8 1011 75 10000 8.7 220 07:59 21.02.2020
2342 Rain 7 1011 81 10000 8.2 230 07:41 21.02.2020
2343 Rain 7 1011 81 10000 8.2 230 07:19 21.02.2020
2344 Clouds 7 1012 75 10000 7.7 220 06:52 21.02.2020
2345 Clouds 7 1012 75 10000 7.2 230 06:31 21.02.2020
2346 Clouds 7 1013 75 10000 8.2 220 05:50 21.02.2020
2347 Clouds 6 1014 75 10000 7.7 220 04:38 21.02.2020
2348 Clouds 6 1014 75 10000 7.7 220 04:19 21.02.2020
2349 Clouds 6 1014 75 10000 7.7 220 04:19 21.02.2020
2350 Clouds 6 1014 75 10000 6.7 230 03:42 21.02.2020
2351 Clouds 5 1015 75 10000 6.7 230 02:43 21.02.2020
2352 Clouds 5 1015 80 10000 6.2 230 01:24 21.02.2020
2353 Clouds 4 1016 86 10000 6.7 220 00:45 21.02.2020
2354 Clouds 4 1015 80 10000 5.7 230 00:23 21.02.2020
2355 Clouds 4 1015 80 10000 6.2 230 23:46 20.02.2020
2356 Clouds 4 1015 80 10000 6.2 230 23:46 20.02.2020
2357 Clouds 4 1015 80 10000 6.2 230 23:46 20.02.2020
2358 Clouds 4 1015 80 10000 5.7 220 23:25 20.02.2020
2359 Clouds 4 1014 80 10000 5.7 240 22:57 20.02.2020
2360 Clouds 4 1014 80 10000 6.2 240 22:38 20.02.2020
2361 Clouds 4 1014 80 10000 6.2 240 22:20 20.02.2020
2362 Clouds 4 1014 78 10000 6.7 250 21:56 20.02.2020
2363 Clouds 4 1013 78 10000 6.7 250 21:37 20.02.2020
2364 Clouds 4 1013 78 10000 6.7 250 21:37 20.02.2020
2365 Clouds 4 1013 78 10000 6.7 250 21:19 20.02.2020
2366 Clouds 4 1013 78 10000 5.7 240 20:54 20.02.2020
2367 Clouds 4 1013 79 10000 5.7 250 20:36 20.02.2020
2368 Clouds 4 1013 74 10000 5.7 250 20:18 20.02.2020
2369 Clouds 4 1012 74 10000 4.6 250 19:57 20.02.2020
2370 Clouds 4 1012 74 10000 6.2 250 19:39 20.02.2020
2371 Clouds 4 1012 74 10000 6.2 250 19:20 20.02.2020
2372 Clouds 4 1011 75 10000 8.2 260 18:39 20.02.2020
2373 Clouds 4 1011 75 10000 8.2 260 18:20 20.02.2020
2374 Clouds 4 1010 65 10000 8.7 270 17:54 20.02.2020
2375 Clouds 5 1010 65 10000 8.7 270 17:36 20.02.2020
2376 Rain 5 1009 61 10000 8.7 270 17:18 20.02.2020
2377 Rain 5 1009 61 10000 8.7 270 16:54 20.02.2020
2378 Rain 5 1008 80 10000 9.3 260 16:36 20.02.2020
2379 Rain 4 1008 86 10000 12.3 280 16:18 20.02.2020
2380 Rain 3 1008 86 10000 12.3 280 15:41 20.02.2020
2381 Rain 5 1008 86 10000 12.3 280 15:20 20.02.2020
2382 Rain 6 1007 60 10000 9.8 270 14:55 20.02.2020
2383 Clouds 6 1006 60 10000 11.3 270 14:37 20.02.2020
2384 Clouds 6 1006 60 10000 11.3 270 14:19 20.02.2020
2385 Clouds 5 1006 65 10000 10.8 270 13:44 20.02.2020
2386 Clouds 5 1006 66 10000 12.9 280 13:20 20.02.2020
2387 Clouds 5 1005 70 10000 9.8 270 12:58 20.02.2020
2388 Clouds 5 1004 75 10000 10.3 270 12:38 20.02.2020
2389 Clouds 5 1003 75 10000 10.3 270 12:19 20.02.2020
2390 Clouds 5 1003 75 10000 10.3 270 11:43 20.02.2020
2391 Clouds 5 1003 86 10000 10.8 270 11:23 20.02.2020
2392 Rain 4 1002 86 10000 10.3 270 10:58 20.02.2020
2393 Rain 4 1002 93 10000 9.3 270 10:40 20.02.2020
2394 Rain 4 1002 93 10000 9.3 270 10:21 20.02.2020
2395 Rain 4 1002 93 10000 9.3 270 10:21 20.02.2020
2396 Rain 4 1001 93 10000 8.2 270 09:46 20.02.2020
2397 Rain 4 1001 93 10000 8.7 270 09:25 20.02.2020
2398 Rain 4 1000 93 10000 11.8 280 08:59 20.02.2020
2399 Rain 4 998 93 10000 11.8 300 08:39 20.02.2020
2400 Rain 6 997 93 10000 5.7 250 08:21 20.02.2020
2401 Rain 7 997 93 10000 5.7 250 07:45 20.02.2020
2402 Rain 8 997 93 10000 5.7 240 07:26 20.02.2020
2403 Rain 8 997 87 10000 3.6 240 06:55 20.02.2020
2404 Rain 8 998 87 10000 4.6 250 06:27 20.02.2020
2405 Rain 9 997 93 7000 5.1 240 05:46 20.02.2020
2406 Rain 9 998 93 7000 5.1 220 04:55 20.02.2020
2407 Rain 9 998 93 10000 4.1 220 04:19 20.02.2020
2408 Rain 9 999 93 10000 4.6 210 03:30 20.02.2020
2409 Rain 9 1000 87 10000 5.1 210 02:26 20.02.2020
2410 Rain 10 1001 87 10000 6.2 210 01:18 20.02.2020
2411 Clouds 10 1001 87 10000 8.2 190 00:33 20.02.2020
2412 Rain 10 1002 87 10000 7.2 210 23:52 19.02.2020
2413 Rain 10 1003 87 10000 6.2 220 23:23 19.02.2020
2414 Rain 10 1003 87 10000 6.7 220 22:54 19.02.2020
2415 Rain 10 1003 87 8000 6.7 220 22:36 19.02.2020
2416 Rain 10 1003 87 8000 6.7 220 22:18 19.02.2020
2417 Rain 10 1004 87 8000 7.7 220 21:41 19.02.2020
2418 Rain 10 1004 87 8000 7.7 220 21:19 19.02.2020
2419 Rain 10 1004 87 8000 7.2 220 20:58 19.02.2020
2420 Rain 10 1004 87 8000 7.2 220 20:58 19.02.2020
2421 Rain 10 1004 81 8000 6.7 220 20:40 19.02.2020
2422 Rain 10 1004 81 8000 6.7 220 20:20 19.02.2020
2423 Rain 10 1004 81 8000 6.7 220 20:20 19.02.2020
2424 Rain 10 1004 81 8000 6.7 220 19:59 19.02.2020
2425 Rain 10 1004 81 8000 6.7 220 19:39 19.02.2020
2426 Rain 10 1004 93 8000 7.7 220 19:39 19.02.2020
2427 Rain 10 1004 93 8000 7.7 220 19:21 19.02.2020
2428 Rain 10 1004 87 8000 6.7 220 18:59 19.02.2020
2429 Rain 10 1005 87 8000 6.2 220 18:40 19.02.2020
2430 Rain 10 1005 87 8000 6.2 220 18:22 19.02.2020
2431 Rain 10 1005 93 8000 6.2 220 17:59 19.02.2020
2432 Rain 10 1005 93 6000 6.2 220 17:41 19.02.2020
2433 Rain 9 1005 93 6000 6.2 220 17:19 19.02.2020
2434 Rain 10 1006 87 7000 7.2 220 16:43 19.02.2020
2435 Rain 10 1006 93 10000 7.7 220 16:19 19.02.2020
2436 Rain 10 1006 87 10000 8.2 220 15:57 19.02.2020
2437 Rain 9 1007 87 10000 7.7 220 15:38 19.02.2020
2438 Rain 9 1007 87 10000 7.7 220 15:20 19.02.2020
2439 Rain 9 1007 87 10000 8.2 220 14:41 19.02.2020
2440 Rain 9 1008 87 10000 7.7 220 14:23 19.02.2020
2441 Rain 9 1009 87 10000 6.2 210 13:56 19.02.2020
2442 Rain 8 1010 93 10000 7.2 200 13:37 19.02.2020
2443 Rain 8 1010 93 10000 7.2 200 13:18 19.02.2020
2444 Rain 8 1011 87 10000 6.7 210 12:39 19.02.2020
2445 Rain 8 1011 87 10000 6.7 210 12:19 19.02.2020
2446 Rain 8 1011 87 10000 6.7 210 12:19 19.02.2020
2447 Rain 8 1012 87 10000 5.7 200 11:55 19.02.2020
2448 Rain 7 1013 87 10000 5.1 190 11:37 19.02.2020
2449 Rain 7 1013 87 10000 5.1 190 11:18 19.02.2020
2450 Rain 6 1013 87 10000 3.6 170 10:55 19.02.2020
2451 Rain 6 1014 93 10000 4.1 190 10:36 19.02.2020
2452 Rain 5 1015 93 9000 3.6 200 10:18 19.02.2020
2453 Rain 4 1015 93 9000 3.6 200 09:41 19.02.2020
2454 Rain 4 1015 93 10000 3.6 200 09:20 19.02.2020
2455 Rain 4 1015 93 10000 4.6 200 08:55 19.02.2020
2456 Rain 4 1016 93 10000 4.1 210 08:37 19.02.2020
2457 Rain 4 1016 93 10000 4.1 210 08:37 19.02.2020
2458 Rain 4 1016 93 10000 4.1 210 08:18 19.02.2020
2459 Clouds 4 1016 80 10000 3.6 200 07:40 19.02.2020
2460 Clouds 4 1016 80 10000 3.6 200 07:20 19.02.2020
2461 Clouds 4 1017 86 10000 4.1 220 06:46 19.02.2020
2462 Clouds 3 1017 88 10000 3.6 230 05:32 19.02.2020
2463 Clouds 3 1017 85 10000 3.6 240 03:53 19.02.2020
2464 Clouds 3 1017 85 10000 4.1 250 02:36 19.02.2020
2465 Clouds 3 1017 85 10000 6.2 260 01:44 19.02.2020
2466 Clouds 3 1017 85 10000 6.2 250 01:23 19.02.2020
2467 Clouds 3 1016 84 10000 5.7 250 00:41 19.02.2020
2468 Clouds 3 1016 84 10000 5.7 250 00:41 19.02.2020
2469 Clouds 3 1016 84 10000 6.2 250 00:19 19.02.2020
2470 Clouds 2 1016 84 10000 6.2 250 23:40 18.02.2020
2471 Clouds 2 1016 81 10000 6.2 250 23:20 18.02.2020
2472 Clouds 3 1015 81 10000 5.7 250 22:55 18.02.2020
2473 Clouds 3 1015 81 10000 6.2 250 22:37 18.02.2020
2474 Clouds 3 1015 81 10000 6.2 250 22:19 18.02.2020
2475 Clouds 3 1015 81 10000 6.2 250 22:19 18.02.2020
2476 Clouds 3 1015 81 10000 5.7 250 21:54 18.02.2020
2477 Clouds 3 1014 86 10000 6.7 250 21:36 18.02.2020
2478 Clouds 3 1014 86 10000 6.7 250 21:18 18.02.2020
2479 Clouds 3 1013 81 10000 6.7 260 20:54 18.02.2020
2480 Clouds 3 1013 83 10000 7.7 270 20:36 18.02.2020
2481 Clouds 3 1013 82 10000 7.7 270 20:18 18.02.2020
2482 Clouds 4 1012 86 10000 6.7 260 19:42 18.02.2020
2483 Clouds 4 1012 86 10000 6.7 260 19:19 18.02.2020
2484 Clouds 4 1011 80 10000 8.2 270 18:56 18.02.2020
2485 Clouds 4 1011 80 10000 8.7 270 18:38 18.02.2020
2486 Clouds 4 1011 80 10000 8.7 270 18:18 18.02.2020
2487 Clouds 4 1011 80 10000 8.7 270 18:18 18.02.2020
2488 Clouds 5 1011 86 10000 8.2 260 17:41 18.02.2020
2489 Rain 5 1010 80 10000 9.3 270 17:19 18.02.2020
2490 Clouds 6 1010 75 10000 6.7 250 16:40 18.02.2020
2491 Clouds 5 1010 75 10000 6.7 250 16:22 18.02.2020
2492 Clouds 5 1010 75 10000 6.7 250 16:22 18.02.2020
2493 Rain 5 1010 75 10000 8.2 260 15:56 18.02.2020
2494 Rain 6 1010 75 10000 7.7 250 15:37 18.02.2020
2495 Rain 6 1010 75 10000 7.7 250 15:18 18.02.2020
2496 Rain 7 1010 75 10000 8.2 260 14:55 18.02.2020
2497 Clouds 7 1010 75 10000 7.7 250 14:37 18.02.2020
2498 Clouds 7 1010 75 10000 7.7 250 14:19 18.02.2020
2499 Rain 7 1009 87 10000 8.7 230 13:41 18.02.2020
2500 Rain 7 1009 87 10000 8.7 230 13:41 18.02.2020
2501 Rain 7 1009 87 10000 8.7 230 13:21 18.02.2020
2502 Rain 7 1010 87 10000 7.2 240 12:50 18.02.2020
2503 Rain 7 1010 87 10000 7.7 240 12:31 18.02.2020
2504 Rain 6 1010 87 8000 7.2 230 11:59 18.02.2020
2505 Rain 6 1010 87 8000 7.2 230 11:59 18.02.2020
2506 Rain 6 1010 87 10000 6.7 230 11:41 18.02.2020
2507 Rain 6 1010 87 10000 6.7 230 11:23 18.02.2020
2508 Rain 6 1011 86 10000 5.7 230 10:46 18.02.2020
2509 Rain 6 1011 86 10000 5.7 230 10:24 18.02.2020
2510 Rain 6 1011 86 10000 5.7 230 10:24 18.02.2020
2511 Rain 5 1011 93 10000 4.6 230 09:58 18.02.2020
2512 Rain 5 1011 93 10000 4.6 230 09:58 18.02.2020
2513 Rain 5 1011 93 10000 4.6 240 09:39 18.02.2020
2514 Rain 5 1011 93 10000 4.6 240 09:20 18.02.2020
2515 Rain 4 1011 86 10000 7.2 240 08:58 18.02.2020
2516 Rain 4 1011 86 10000 7.2 240 08:40 18.02.2020
2517 Rain 4 1011 86 10000 5.7 230 08:19 18.02.2020
2518 Rain 4 1012 93 7000 9.3 270 07:52 18.02.2020
2519 Rain 5 1011 93 9000 6.7 230 07:29 18.02.2020
2520 Rain 5 1012 86 9000 5.1 240 06:55 18.02.2020
2521 Rain 4 1012 93 9000 5.7 230 06:29 18.02.2020
2522 Rain 4 1012 86 10000 6.2 230 05:53 18.02.2020
2523 Clouds 4 1012 80 10000 5.1 230 05:22 18.02.2020
2524 Clouds 4 1013 86 10000 5.1 230 03:55 18.02.2020
2525 Clouds 3 1013 86 10000 5.1 240 02:58 18.02.2020
2526 Clouds 3 1012 86 10000 5.7 230 01:27 18.02.2020
2527 Clouds 3 1012 86 10000 5.7 240 00:44 18.02.2020
2528 Clouds 3 1012 86 10000 5.1 240 00:19 18.02.2020
2529 Clouds 3 1011 83 10000 5.7 240 23:44 17.02.2020
2530 Rain 3 1011 72 10000 5.7 240 23:24 17.02.2020
2531 Rain 3 1011 72 10000 5.7 240 22:58 17.02.2020
2532 Rain 3 1011 72 10000 6.7 250 22:40 17.02.2020
2533 Clouds 3 1011 72 10000 6.7 250 22:20 17.02.2020
2534 Clouds 3 1010 72 10000 6.2 250 21:39 17.02.2020
2535 Clouds 3 1010 72 10000 6.2 250 21:39 17.02.2020
2536 Clouds 3 1010 72 10000 6.2 250 21:19 17.02.2020
2537 Clouds 4 1010 72 10000 6.2 250 20:57 17.02.2020
2538 Clouds 3 1009 69 10000 7.2 250 20:38 17.02.2020
2539 Clouds 4 1009 69 10000 7.2 250 20:19 17.02.2020
2540 Clouds 4 1009 69 10000 6.7 250 19:43 17.02.2020
2541 Clouds 4 1008 60 10000 8.7 260 19:22 17.02.2020
2542 Clouds 5 1007 65 10000 7.2 250 18:59 17.02.2020
2543 -273 0 0 0 0 0 18:37 17.02.2020
2544 Rain 5 1007 65 10000 8.2 260 18:19 17.02.2020
2545 Rain 5 1006 56 10000 9.8 260 17:54 17.02.2020
2546 Rain 5 1006 60 10000 10.8 260 17:36 17.02.2020
2547 Clouds 6 1006 60 10000 10.8 260 17:18 17.02.2020
2548 Clouds 6 1006 60 10000 10.8 260 17:18 17.02.2020
2549 Clouds 6 1006 70 10000 9.3 260 16:42 17.02.2020
2550 Clouds 6 1005 67 10000 7.7 260 16:22 17.02.2020
2551 Clouds 6 1005 67 10000 8.7 250 15:56 17.02.2020
2552 Clouds 6 1005 67 10000 8.7 250 15:56 17.02.2020
2553 Clouds 6 1004 75 10000 9.3 270 15:37 17.02.2020
2554 Clouds 6 1004 75 10000 9.3 270 15:37 17.02.2020
2555 Clouds 6 1004 75 10000 9.3 270 15:19 17.02.2020
2556 Rain 6 1004 65 10000 10.3 260 14:42 17.02.2020
2557 Rain 6 1004 65 10000 10.3 260 14:42 17.02.2020
2558 Clouds 8 1003 61 10000 9.3 250 14:24 17.02.2020
2559 Clouds 8 1003 65 10000 9.8 250 13:58 17.02.2020
2560 Clouds 7 1002 70 10000 10.3 250 13:39 17.02.2020
2561 Clouds 7 1002 70 10000 10.3 250 13:19 17.02.2020
2562 Clouds 7 1002 75 10000 8.7 250 12:44 17.02.2020
2563 Clouds 7 1002 75 10000 8.2 250 12:25 17.02.2020
2564 Clouds 6 1001 81 10000 7.7 240 11:59 17.02.2020
2565 Clouds 6 1000 81 10000 8.2 240 11:39 17.02.2020
2566 Clouds 6 1000 81 10000 8.2 240 11:21 17.02.2020
2567 Clouds 6 1000 81 10000 8.2 240 10:55 17.02.2020
2568 Clouds 6 999 86 10000 7.7 230 10:37 17.02.2020
2569 Clouds 6 999 86 10000 7.7 230 10:18 17.02.2020
2570 Clouds 6 999 86 10000 7.7 230 10:18 17.02.2020
2571 Clouds 5 997 86 10000 8.2 240 09:41 17.02.2020
2572 Clouds 5 997 86 10000 8.2 240 09:21 17.02.2020
2573 Clouds 5 996 86 10000 8.7 240 08:58 17.02.2020
2574 Clouds 5 996 86 10000 8.2 230 08:40 17.02.2020
2575 Clouds 5 996 86 10000 8.2 230 08:20 17.02.2020
2576 Clouds 5 994 80 10000 10.3 230 07:45 17.02.2020
2577 Clouds 5 994 80 10000 10.3 230 07:24 17.02.2020
2578 Clouds 5 994 80 10000 10.3 230 06:52 17.02.2020
2579 Rain 5 994 80 10000 8.7 230 06:32 17.02.2020
2580 Rain 5 994 80 10000 9.3 220 05:58 17.02.2020
2581 Rain 5 993 75 10000 9.8 220 05:38 17.02.2020
2582 Clouds 5 992 87 10000 10.3 220 03:22 17.02.2020
2583 Clouds 4 991 73 10000 12.3 220 01:58 17.02.2020
2584 Clouds 4 990 74 10000 10.8 220 00:48 17.02.2020
2585 Clouds 4 990 74 10000 10.8 220 00:22 17.02.2020
2586 Clouds 4 990 74 10000 10.8 220 00:21 17.02.2020
2587 Clouds 4 989 69 10000 10.8 220 23:53 16.02.2020
2588 Rain 4 989 69 10000 11.3 220 23:30 16.02.2020
2589 Clouds 4 989 75 10000 10.3 220 22:57 16.02.2020
2590 Clouds 4 989 75 10000 10.3 220 22:39 16.02.2020
2591 Clouds 4 989 75 10000 10.3 220 22:20 16.02.2020
2592 Clouds 4 988 80 10000 8.7 220 21:57 16.02.2020
2593 Rain 4 988 86 10000 9.8 220 21:39 16.02.2020
2594 Rain 4 988 86 10000 9.8 220 21:20 16.02.2020
2595 Rain 4 987 80 10000 9.3 220 20:57 16.02.2020
2596 Clouds 4 987 80 10000 9.8 220 20:38 16.02.2020
2597 Clouds 4 987 80 10000 9.8 220 20:20 16.02.2020
2598 Clouds 4 986 80 10000 9.8 220 19:57 16.02.2020
2599 Clouds 4 986 93 10000 8.7 220 19:37 16.02.2020
2600 Clouds 3 986 93 10000 8.7 220 19:18 16.02.2020
2601 Clouds 3 986 93 10000 8.7 220 19:18 16.02.2020
2602 Rain 3 985 93 10000 8.7 220 18:42 16.02.2020
2603 Rain 4 985 93 5000 8.7 230 18:23 16.02.2020
2604 Rain 4 985 86 7000 7.2 240 17:55 16.02.2020
2605 Rain 5 984 75 10000 8.7 230 17:36 16.02.2020
2606 Rain 5 984 75 10000 8.7 230 17:18 16.02.2020
2607 Rain 5 983 75 10000 8.2 230 16:54 16.02.2020
2608 Rain 5 983 80 10000 8.2 240 16:36 16.02.2020
2609 Rain 5 983 80 10000 8.2 240 16:18 16.02.2020
2610 Rain 7 982 65 9000 8.2 230 15:40 16.02.2020
2611 Rain 7 982 65 9000 8.2 230 15:21 16.02.2020
2612 Rain 7 982 65 10000 8.2 220 14:41 16.02.2020
2613 Rain 7 981 65 10000 10.8 220 14:23 16.02.2020
2614 Rain 7 981 65 10000 9.8 220 13:49 16.02.2020
2615 Clouds 7 981 65 10000 10.8 220 13:25 16.02.2020
2616 Clouds 7 981 65 10000 10.8 220 13:25 16.02.2020
2617 Rain 7 982 65 10000 7.7 230 12:58 16.02.2020
2618 Rain 7 981 65 5000 9.8 220 12:39 16.02.2020
2619 Rain 7 981 65 5000 9.8 220 12:19 16.02.2020
2620 Clouds 6 981 62 10000 7.7 220 11:40 16.02.2020
2621 Clouds 6 981 71 10000 7.7 220 11:19 16.02.2020
2622 Clouds 6 981 71 10000 7.7 220 11:19 16.02.2020
2623 Clouds 6 981 71 10000 6.2 220 10:58 16.02.2020
2624 Rain 5 981 71 10000 7.7 220 10:40 16.02.2020
2625 Rain 5 981 71 10000 7.7 220 10:21 16.02.2020
2626 Rain 5 981 71 10000 7.7 220 10:21 16.02.2020
2627 Rain 5 981 71 10000 7.7 220 09:58 16.02.2020
2628 Clouds 5 981 71 10000 7.2 220 09:37 16.02.2020
2629 Clouds 5 981 71 10000 7.2 220 09:37 16.02.2020
2630 Clouds 5 981 71 10000 7.2 220 09:19 16.02.2020
2631 Clouds 5 981 71 10000 7.2 220 08:49 16.02.2020
2632 Clouds 5 980 75 10000 7.2 220 08:22 16.02.2020
2633 Clouds 5 980 75 10000 7.2 220 08:22 16.02.2020
2634 Clouds 5 981 75 10000 8.2 220 07:56 16.02.2020
2635 Clouds 5 980 75 10000 5.7 230 07:38 16.02.2020
2636 Rain 5 979 80 10000 5.7 230 06:39 16.02.2020
2637 Rain 4 979 93 10000 10.8 260 05:37 16.02.2020
2638 Rain 6 977 93 10000 5.7 240 04:30 16.02.2020
2639 Rain 7 977 93 10000 10.8 250 02:37 16.02.2020
2640 Rain 9 976 71 10000 7.7 220 01:57 16.02.2020
2641 Rain 9 976 71 10000 11.3 220 01:37 16.02.2020
2642 Rain 9 976 71 10000 11.3 220 01:19 16.02.2020
2643 Rain 9 977 81 10000 9.8 220 00:41 16.02.2020
2644 Rain 9 977 87 10000 9.8 200 00:21 16.02.2020
2645 Clouds 9 979 70 10000 9.3 200 23:42 15.02.2020
2646 Clouds 9 979 70 10000 9.3 200 23:24 15.02.2020
2647 Clouds 9 980 76 10000 7.2 200 22:56 15.02.2020
2648 Clouds 9 981 76 10000 7.2 210 22:38 15.02.2020
2649 Clouds 9 981 76 10000 7.2 210 22:19 15.02.2020
2650 Clouds 9 982 81 10000 7.2 210 21:43 15.02.2020
2651 Clouds 8 982 76 10000 5.7 220 21:24 15.02.2020
2652 Clouds 8 982 81 10000 6.2 210 20:56 15.02.2020
2653 Clouds 7 982 81 10000 6.2 220 20:37 15.02.2020
2654 Clouds 7 982 81 10000 6.2 220 20:37 15.02.2020
2655 Rain 8 982 81 10000 6.2 220 20:19 15.02.2020
2656 Rain 8 981 81 10000 5.1 240 19:41 15.02.2020
2657 Rain 8 981 81 10000 5.1 240 19:22 15.02.2020
2658 Rain 8 980 81 10000 7.2 230 18:41 15.02.2020
2659 Rain 9 980 81 10000 7.2 230 18:21 15.02.2020
2660 Rain 9 979 87 10000 8.7 230 17:55 15.02.2020
2661 Rain 8 979 93 7000 6.7 220 17:37 15.02.2020
2662 Rain 8 979 93 7000 6.7 220 17:18 15.02.2020
2663 Rain 8 979 93 4000 6.7 250 16:41 15.02.2020
2664 Rain 9 979 93 4000 6.7 250 16:21 15.02.2020
2665 Rain 9 979 93 3500 8.2 250 15:50 15.02.2020
2666 Rain 11 979 87 8000 11.8 200 15:31 15.02.2020
2667 Rain 11 979 81 10000 13.4 200 14:57 15.02.2020
2668 Rain 11 979 81 10000 13.4 200 14:39 15.02.2020
2669 Rain 11 981 87 10000 12.3 200 14:18 15.02.2020
2670 Rain 11 981 87 10000 12.3 200 14:18 15.02.2020
2671 Rain 11 983 81 10000 13.9 200 13:42 15.02.2020
2672 Rain 11 983 81 10000 13.9 200 13:22 15.02.2020
2673 Clouds 11 984 76 10000 12.9 200 12:57 15.02.2020
2674 Clouds 11 985 76 10000 12.3 200 12:38 15.02.2020
2675 Clouds 10 985 76 10000 12.3 200 12:19 15.02.2020
2676 Rain 10 986 81 10000 11.8 200 11:45 15.02.2020
2677 Rain 10 987 81 10000 10.8 200 11:26 15.02.2020
2678 Rain 10 988 71 10000 8.7 190 10:49 15.02.2020
2679 Rain 11 989 76 10000 8.2 190 10:29 15.02.2020
2680 Rain 10 990 81 10000 9.3 190 09:56 15.02.2020
2681 Clouds 10 991 76 10000 6.2 150 09:37 15.02.2020
2682 Clouds 10 991 76 10000 6.2 150 09:19 15.02.2020
2683 Clouds 10 993 71 10000 8.2 170 08:41 15.02.2020
2684 Clouds 9 993 71 10000 8.2 170 08:23 15.02.2020
2685 Clouds 9 994 70 10000 7.7 180 07:45 15.02.2020
2686 Clouds 9 996 87 10000 7.2 170 07:27 15.02.2020
2687 Clouds 9 996 81 10000 6.2 170 06:45 15.02.2020
2688 Clouds 8 998 81 10000 7.2 160 06:26 15.02.2020
2689 Clouds 8 1000 81 10000 6.7 170 05:30 15.02.2020
2690 Clouds 8 1001 75 10000 5.7 180 04:44 15.02.2020
2691 Clouds 7 1004 75 10000 4.6 170 03:21 15.02.2020
2692 Clouds 6 1005 80 10000 3.6 170 02:41 15.02.2020
2693 Clouds 6 1005 80 10000 3.6 170 02:19 15.02.2020
2694 Clouds 6 1006 75 10000 4.6 180 01:38 15.02.2020
2695 Clouds 6 1008 75 10000 3.1 190 00:36 15.02.2020
2696 Clouds 6 1008 75 10000 3.1 190 00:18 15.02.2020
2697 Clouds 6 1008 75 10000 4.1 200 23:39 14.02.2020
2698 Clouds 6 1008 75 10000 4.1 200 23:18 14.02.2020
2699 Clouds 7 1008 70 10000 4.1 200 22:43 14.02.2020
2700 Clouds 7 1009 70 10000 3.6 200 22:22 14.02.2020
2701 Clouds 7 1009 75 10000 3.1 200 21:50 14.02.2020
2702 Clouds 7 1009 70 10000 2.6 220 21:31 14.02.2020
2703 Clouds 8 1008 70 10000 3.6 240 20:58 14.02.2020
2704 Clouds 8 1008 70 10000 3.6 210 20:39 14.02.2020
2705 Clouds 8 1008 70 10000 3.6 210 20:19 14.02.2020
2706 Clouds 8 1008 70 10000 1.5 0 19:42 14.02.2020
2707 Clouds 8 1008 70 10000 1.5 0 19:24 14.02.2020
2708 Clouds 8 1007 61 10000 2.6 240 18:59 14.02.2020
2709 Clouds 8 1007 61 10000 3.6 220 18:40 14.02.2020
2710 Clouds 8 1007 61 10000 3.6 220 18:21 14.02.2020
2711 Rain 9 1007 57 10000 7.2 250 17:56 14.02.2020
2712 Rain 9 1006 70 10000 10.8 250 17:38 14.02.2020
2713 Rain 10 1006 62 10000 5.1 240 17:18 14.02.2020
2714 Rain 10 1005 71 10000 4.6 250 16:42 14.02.2020
2715 Rain 10 1005 71 10000 4.6 250 16:23 14.02.2020
2716 Rain 10 1005 70 10000 7.2 260 15:57 14.02.2020
2717 Rain 11 1005 66 10000 10.3 240 15:39 14.02.2020
2718 Rain 11 1005 66 10000 10.3 240 15:20 14.02.2020
2719 Rain 11 1004 62 10000 7.7 240 14:59 14.02.2020
2720 Clouds 11 1004 62 10000 8.7 240 14:40 14.02.2020
2721 Clouds 11 1004 62 10000 8.7 240 14:22 14.02.2020
2722 Clouds 11 1004 66 10000 8.7 250 13:56 14.02.2020
2723 Clouds 11 1003 71 10000 8.2 230 13:38 14.02.2020
2724 Clouds 11 1003 71 10000 8.2 230 13:19 14.02.2020
2725 Rain 11 1003 81 10000 7.2 230 12:56 14.02.2020
2726 Rain 11 1003 81 10000 6.7 220 12:38 14.02.2020
2727 Rain 11 1003 81 10000 6.7 220 12:19 14.02.2020
2728 Rain 10 1002 81 10000 9.3 220 11:55 14.02.2020
2729 Rain 10 1002 93 10000 7.7 210 11:36 14.02.2020
2730 Rain 10 1002 93 10000 7.7 210 11:18 14.02.2020
2731 Clouds 10 1003 76 10000 7.7 180 10:41 14.02.2020
2732 Clouds 10 1003 76 10000 7.7 180 10:22 14.02.2020
2733 Clouds 10 1003 81 10000 5.7 150 09:45 14.02.2020
2734 Clouds 10 1003 81 10000 7.2 160 09:23 14.02.2020
2735 Clouds 9 1004 81 10000 7.7 160 08:57 14.02.2020
2736 Clouds 9 1004 81 10000 7.7 170 08:39 14.02.2020
2737 Clouds 9 1004 81 10000 7.7 170 08:20 14.02.2020
2738 Clouds 8 1005 81 10000 7.7 180 07:49 14.02.2020
2739 Clouds 8 1005 75 10000 8.7 190 07:29 14.02.2020
2740 Clouds 7 1006 70 10000 3.1 140 06:39 14.02.2020
2741 Clouds 7 1006 70 10000 3.1 140 06:18 14.02.2020
2742 Clouds 5 1007 91 10000 2.6 150 05:28 14.02.2020
2743 Clouds 4 1009 86 10000 2.1 150 03:46 14.02.2020
2744 Clouds 4 1010 80 10000 4.1 160 02:56 14.02.2020
2745 Clouds 4 1010 80 10000 4.1 160 02:56 14.02.2020
2746 Clouds 3 1010 86 10000 3.1 180 01:56 14.02.2020
2747 Clouds 4 1010 93 10000 2.6 190 00:45 14.02.2020
2748 Clouds 4 1010 93 10000 2.6 190 00:45 14.02.2020
2749 Clouds 3 1010 93 10000 1.5 0 00:26 14.02.2020
2750 Clouds 3 1010 93 10000 1.5 180 23:56 13.02.2020
2751 Clouds 3 1009 93 10000 1 0 23:37 13.02.2020
2752 Clouds 3 1009 93 10000 1 0 23:18 13.02.2020
2753 Clouds 4 1009 86 10000 3.6 280 22:38 13.02.2020
2754 Clouds 4 1009 86 10000 3.6 280 22:19 13.02.2020
2755 Clouds 5 1009 86 10000 2.6 270 21:55 13.02.2020
2756 Clouds 5 1009 86 10000 2.6 290 21:37 13.02.2020
2757 Clouds 5 1009 86 10000 2.6 290 21:19 13.02.2020
2758 Clouds 5 1008 86 10000 4.1 280 20:42 13.02.2020
2759 Clouds 5 1008 80 10000 4.6 280 20:22 13.02.2020
2760 Clouds 5 1008 80 10000 4.6 280 20:22 13.02.2020
2761 Clouds 5 1007 86 10000 4.1 270 19:57 13.02.2020
2762 Clouds 5 1006 80 10000 3.1 270 19:38 13.02.2020
2763 Clouds 5 1006 80 10000 3.1 270 19:20 13.02.2020
2764 Clouds 5 1005 80 10000 4.6 320 18:56 13.02.2020
2765 Clouds 5 1003 80 10000 5.7 310 18:37 13.02.2020
2766 Clouds 5 1003 80 10000 5.7 310 18:19 13.02.2020
2767 Clouds 5 1003 80 10000 5.1 310 17:57 13.02.2020
2768 Clouds 6 1002 75 10000 5.1 320 17:37 13.02.2020
2769 Clouds 6 1002 75 10000 5.1 320 17:18 13.02.2020
2770 Clouds 6 1000 80 10000 7.2 330 16:42 13.02.2020
2771 Clouds 6 1000 80 10000 7.2 330 16:20 13.02.2020
2772 Clouds 6 999 75 10000 7.2 330 15:57 13.02.2020
2773 Clouds 6 998 75 10000 7.2 330 15:39 13.02.2020
2774 Clouds 6 998 75 10000 7.2 330 15:19 13.02.2020
2775 Clouds 7 997 75 10000 7.2 320 14:58 13.02.2020
2776 Clouds 7 995 81 10000 7.7 310 14:39 13.02.2020
2777 Clouds 6 995 81 10000 7.7 310 14:21 13.02.2020
2778 Clouds 6 994 81 10000 7.7 310 13:48 13.02.2020
2779 Clouds 6 994 81 10000 7.7 310 13:48 13.02.2020
2780 Clouds 6 994 87 10000 7.2 310 13:19 13.02.2020
2781 Clouds 6 993 87 10000 6.7 300 12:56 13.02.2020
2782 Clouds 6 993 87 10000 6.7 300 12:56 13.02.2020
2783 Clouds 6 992 93 10000 7.7 300 12:38 13.02.2020
2784 Clouds 6 992 93 10000 7.7 300 12:19 13.02.2020
2785 Clouds 6 990 93 10000 8.2 290 11:47 13.02.2020
2786 Clouds 5 989 93 10000 6.7 280 11:21 13.02.2020
2787 Clouds 5 988 86 10000 6.2 280 10:56 13.02.2020
2788 Clouds 5 987 86 10000 4.1 270 10:38 13.02.2020
2789 Clouds 5 987 86 10000 4.1 270 10:38 13.02.2020
2790 Clouds 5 987 86 10000 4.1 270 10:20 13.02.2020
2791 Clouds 4 985 86 10000 3.6 260 09:41 13.02.2020
2792 Clouds 4 985 86 10000 3.6 260 09:22 13.02.2020
2793 Clouds 4 984 86 10000 3.1 250 08:44 13.02.2020
2794 Clouds 4 984 93 10000 2.6 240 08:19 13.02.2020
2795 Rain 4 984 86 10000 1.5 250 07:41 13.02.2020
2796 Rain 4 984 93 10000 1.5 190 07:22 13.02.2020
2797 Rain 4 984 93 10000 1.5 190 07:22 13.02.2020
2798 Clouds 4 983 86 10000 1 0 06:49 13.02.2020
2799 Clouds 4 984 86 10000 2.1 160 06:31 13.02.2020
2800 Clouds 4 984 86 10000 3.1 190 05:38 13.02.2020
2801 Clouds 5 985 86 10000 3.1 190 04:28 13.02.2020
2802 Rain 5 986 93 10000 4.6 150 03:57 13.02.2020
2803 Rain 5 987 93 10000 9.8 160 03:29 13.02.2020
2804 Rain 5 987 93 10000 11.3 160 02:55 13.02.2020
2805 Rain 5 988 87 10000 12.9 150 02:19 13.02.2020
2806 Rain 6 990 87 10000 11.8 150 01:36 13.02.2020
2807 Rain 6 992 87 10000 10.3 150 00:43 13.02.2020
2808 Rain 6 994 87 10000 10.3 150 00:22 13.02.2020
2809 Rain 6 996 87 10000 9.8 150 23:42 12.02.2020
2810 Rain 6 998 87 10000 7.2 160 23:22 12.02.2020
2811 Rain 6 999 87 10000 8.2 150 22:54 12.02.2020
2812 Rain 5 1000 86 10000 5.1 140 22:36 12.02.2020
2813 Rain 5 1000 86 10000 5.1 140 22:18 12.02.2020
2814 Clouds 5 1003 80 10000 5.7 150 21:40 12.02.2020
2815 Clouds 5 1003 80 10000 5.7 150 21:20 12.02.2020
2816 Clouds 5 1003 80 10000 5.7 150 21:20 12.02.2020
2817 Clouds 5 1004 80 10000 4.6 150 20:59 12.02.2020
2818 Clouds 5 1004 80 10000 4.6 150 20:41 12.02.2020
2819 Clouds 5 1005 75 10000 5.1 150 20:41 12.02.2020
2820 Clouds 5 1005 75 10000 5.1 150 20:22 12.02.2020
2821 Clouds 5 1006 79 10000 4.1 150 19:56 12.02.2020
2822 Clouds 4 1007 79 10000 3.6 160 19:37 12.02.2020
2823 Clouds 4 1007 77 10000 3.6 160 19:19 12.02.2020
2824 Clouds 5 1008 75 10000 3.6 180 18:47 12.02.2020
2825 Clouds 5 1008 75 10000 3.6 180 18:19 12.02.2020
2826 Clouds 5 1009 70 10000 4.1 200 17:56 12.02.2020
2827 Clouds 5 1009 70 10000 3.1 200 17:37 12.02.2020
2828 Clouds 5 1009 70 10000 3.1 200 17:18 12.02.2020
2829 Clouds 6 1010 70 10000 4.1 220 16:40 12.02.2020
2830 Clouds 6 1010 70 10000 4.1 220 16:20 12.02.2020
2831 Clouds 6 1011 70 10000 3.6 240 15:43 12.02.2020
2832 Clouds 6 1011 75 10000 4.1 230 15:24 12.02.2020
2833 Clouds 6 1011 75 10000 5.1 240 14:59 12.02.2020
2834 Clouds 6 1011 75 10000 5.1 250 14:41 12.02.2020
2835 Clouds 6 1011 75 10000 5.1 250 14:21 12.02.2020
2836 Clouds 5 1011 75 10000 6.2 250 13:57 12.02.2020
2837 Clouds 5 1011 75 10000 5.7 250 13:39 12.02.2020
2838 Clouds 5 1011 75 10000 5.7 250 13:20 12.02.2020
2839 Clouds 5 1011 75 10000 5.7 250 13:20 12.02.2020
2840 Rain 5 1011 80 10000 5.7 250 12:57 12.02.2020
2841 Clouds 4 1011 80 10000 6.2 240 12:38 12.02.2020
2842 Clouds 4 1011 80 10000 6.2 240 12:18 12.02.2020
2843 Clouds 4 1011 86 10000 5.7 250 11:57 12.02.2020
2844 Rain 3 1011 66 10000 5.7 240 11:39 12.02.2020
2845 Rain 3 1011 80 10000 5.7 240 11:20 12.02.2020
2846 Rain 3 1011 80 10000 5.1 240 10:55 12.02.2020
2847 Rain 3 1011 80 10000 5.1 240 10:36 12.02.2020
2848 Rain 2 1011 80 10000 5.1 240 10:18 12.02.2020
2849 Clouds 2 1011 86 10000 4.1 240 09:42 12.02.2020
2850 Clouds 2 1011 86 10000 4.6 240 09:42 12.02.2020
2851 Clouds 2 1011 86 10000 4.1 240 09:42 12.02.2020
2852 Clouds 1 1011 86 10000 4.1 240 09:23 12.02.2020
2853 Clouds 1 1011 86 10000 4.6 240 08:58 12.02.2020
2854 Clouds 1 1011 86 10000 4.6 240 08:58 12.02.2020
2855 Clouds 1 1010 80 10000 5.7 250 08:38 12.02.2020
2856 Clouds 1 1010 80 10000 5.7 250 08:38 12.02.2020
2857 Clouds 1 1010 81 10000 5.7 250 08:19 12.02.2020
2858 Clouds 1 1010 81 10000 5.7 250 08:19 12.02.2020
2859 Clouds 1 1010 82 10000 5.1 250 07:44 12.02.2020
2860 Rain 1 1010 82 10000 5.1 240 07:23 12.02.2020
2861 Rain 1 1010 82 10000 5.7 250 06:57 12.02.2020
2862 Rain 1 1010 82 10000 5.7 250 06:57 12.02.2020
2863 Rain 1 1010 82 10000 5.7 240 06:24 12.02.2020
2864 Rain 1 1010 82 10000 6.2 240 05:39 12.02.2020
2865 Rain 1 1009 76 10000 6.7 250 04:59 12.02.2020
2866 Rain 1 1009 76 10000 6.7 250 04:40 12.02.2020
2867 Clouds 1 1009 76 10000 6.7 250 03:37 12.02.2020
2868 Clouds 1 1009 76 10000 6.7 250 03:19 12.02.2020
2869 Clouds 1 1009 76 10000 6.7 240 02:30 12.02.2020
2870 Rain 1 1009 86 10000 6.2 240 01:59 12.02.2020
2871 Clouds 1 1008 86 10000 6.2 240 00:46 12.02.2020
2872 Rain 2 1009 80 10000 5.1 250 00:26 12.02.2020
2873 Rain 2 1008 80 10000 5.1 250 23:58 11.02.2020
2874 Rain 2 1008 80 10000 5.1 250 23:40 11.02.2020
2875 Clouds 1 1008 86 10000 4.6 240 23:22 11.02.2020
2876 Rain 2 1008 70 10000 4.6 250 22:55 11.02.2020
2877 Rain 1 1008 70 10000 5.7 250 22:37 11.02.2020
2878 Rain 1 1008 70 10000 5.7 250 22:19 11.02.2020
2879 Rain 2 1008 70 10000 6.7 250 21:56 11.02.2020
2880 Rain 2 1007 70 10000 7.2 250 21:37 11.02.2020
2881 Rain 2 1007 70 10000 7.2 250 21:18 11.02.2020
2882 Rain 2 1007 70 10000 6.2 250 20:54 11.02.2020
2883 Rain 2 1007 70 10000 5.1 250 20:36 11.02.2020
2884 Rain 2 1007 74 10000 5.1 250 20:18 11.02.2020
2885 Rain 2 1007 74 10000 6.7 250 19:42 11.02.2020
2886 Rain 2 1007 74 10000 6.7 250 19:24 11.02.2020
2887 Rain 2 1007 93 10000 6.7 250 18:56 11.02.2020
2888 Rain 2 1007 74 7000 10.3 270 18:37 11.02.2020
2889 Rain 2 1007 74 7000 10.3 270 18:19 11.02.2020
2890 Clouds 2 1006 74 10000 9.3 270 17:55 11.02.2020
2891 Rain 2 1006 74 10000 9.3 270 17:36 11.02.2020
2892 Rain 2 1006 66 10000 9.3 270 17:18 11.02.2020
2893 Rain 2 1006 66 10000 6.7 250 16:55 11.02.2020
2894 Rain 2 1006 66 6000 11.8 270 16:37 11.02.2020
2895 Rain 2 1006 66 6000 11.8 270 16:19 11.02.2020
2896 Clouds 3 1005 66 10000 8.2 250 15:43 11.02.2020
2897 Clouds 3 1005 69 10000 8.7 260 15:24 11.02.2020
2898 Clouds 3 1005 66 10000 8.2 260 14:54 11.02.2020
2899 Rain 3 1005 66 10000 7.2 240 14:36 11.02.2020
2900 Rain 2 1005 63 10000 7.2 240 14:18 11.02.2020
2901 Rain 2 1005 62 10000 9.3 250 13:41 11.02.2020
2902 Rain 2 1005 63 10000 9.3 250 13:21 11.02.2020
2903 Clouds 3 1004 74 10000 8.7 250 12:58 11.02.2020
2904 Clouds 3 1003 62 10000 8.2 250 12:39 11.02.2020
2905 Clouds 3 1003 62 10000 8.2 250 12:20 11.02.2020
2906 Rain 2 1003 62 10000 7.2 250 11:41 11.02.2020
2907 Rain 2 1003 69 10000 7.2 250 11:21 11.02.2020
2908 Rain 2 1003 86 9000 7.2 250 10:57 11.02.2020
2909 Rain 1 1002 69 10000 5.7 240 10:38 11.02.2020
2910 Rain 1 1002 69 10000 5.7 240 10:20 11.02.2020
2911 Snow 1 1002 69 9000 6.2 260 09:55 11.02.2020
2912 Rain 1 1002 69 8000 6.2 260 09:37 11.02.2020
2913 Snow 1 1002 69 8000 6.2 260 09:19 11.02.2020
2914 Clouds 1 1001 86 10000 6.2 250 08:44 11.02.2020
2915 Clouds 1 1001 69 10000 5.7 250 08:23 11.02.2020
2916 Snow 1 1001 86 9000 8.2 260 07:48 11.02.2020
2917 Snow 1 1001 80 9000 6.7 250 07:26 11.02.2020
2918 Clouds 2 999 80 10000 5.7 240 06:44 11.02.2020
2919 Clouds 2 999 80 10000 5.7 240 06:22 11.02.2020
2920 Clouds 2 1000 80 10000 8.7 260 05:56 11.02.2020
2921 Clouds 2 999 74 10000 9.8 250 05:24 11.02.2020
2922 Clouds 2 999 74 10000 7.2 250 04:40 11.02.2020
2923 Clouds 2 998 69 10000 8.2 250 03:21 11.02.2020
2924 Clouds 2 997 69 10000 8.2 250 02:32 11.02.2020
2925 Rain 2 996 80 10000 8.7 250 01:38 11.02.2020
2926 Rain 2 996 69 10000 8.7 250 00:41 11.02.2020
2927 Clouds 3 995 74 10000 9.8 250 23:59 10.02.2020
2928 Clouds 3 994 74 10000 9.3 250 23:38 10.02.2020
2929 Clouds 3 994 74 10000 9.3 250 23:20 10.02.2020
2930 Rain 2 994 74 10000 8.2 250 22:41 10.02.2020
2931 Rain 2 994 74 10000 9.8 250 22:20 10.02.2020
2932 Clouds 2 993 74 10000 10.3 250 21:54 10.02.2020
2933 Clouds 3 993 74 10000 9.3 250 21:36 10.02.2020
2934 Clouds 3 993 74 10000 9.3 250 21:18 10.02.2020
2935 Clouds 3 992 74 10000 8.7 250 20:54 10.02.2020
2936 Clouds 3 992 74 10000 8.2 250 20:36 10.02.2020
2937 Clouds 3 992 74 10000 8.2 250 20:18 10.02.2020
2938 Clouds 2 992 74 10000 8.2 240 19:54 10.02.2020
2939 Clouds 2 991 74 10000 8.2 250 19:36 10.02.2020
2940 Clouds 2 991 74 10000 8.2 250 19:18 10.02.2020
2941 Clouds 2 991 74 10000 6.2 240 18:41 10.02.2020
2942 Clouds 2 991 74 10000 6.2 240 18:21 10.02.2020
2943 Clouds 3 991 74 10000 9.3 260 17:58 10.02.2020
2944 Rain 3 991 74 10000 6.7 250 17:38 10.02.2020
2945 Rain 3 991 70 10000 6.7 250 17:20 10.02.2020
2946 Rain 3 991 93 10000 7.7 250 16:59 10.02.2020
2947 Clouds 3 991 93 10000 5.7 240 16:40 10.02.2020
2948 Rain 2 991 70 10000 6.2 260 16:20 10.02.2020
2949 Rain 3 991 93 10000 5.7 240 16:20 10.02.2020
2950 Rain 2 991 70 10000 6.2 260 15:56 10.02.2020
2951 Rain 3 991 70 5000 10.8 260 15:38 10.02.2020
2952 Rain 3 991 70 5000 10.8 260 15:20 10.02.2020
2953 Clouds 4 990 70 10000 7.2 230 14:56 10.02.2020
2954 Rain 3 990 80 10000 6.7 230 14:37 10.02.2020
2955 Rain 4 990 80 10000 6.7 230 14:18 10.02.2020
2956 Rain 3 991 86 9000 7.2 230 13:43 10.02.2020
2957 Snow 3 991 86 9000 7.2 230 13:24 10.02.2020
2958 Clouds 3 991 91 10000 7.2 220 12:54 10.02.2020
2959 Clouds 3 991 91 10000 7.7 230 12:36 10.02.2020
2960 Clouds 3 991 91 10000 7.7 230 12:18 10.02.2020
2961 Clouds 3 991 65 10000 8.7 230 11:43 10.02.2020
2962 Clouds 3 991 65 10000 8.7 230 11:20 10.02.2020
2963 Clouds 3 991 65 10000 8.7 230 11:20 10.02.2020
2964 Clouds 4 991 60 10000 7.2 240 10:47 10.02.2020
2965 Clouds 3 991 69 10000 8.2 230 10:28 10.02.2020
2966 Clouds 4 992 69 10000 5.7 230 09:48 10.02.2020
2967 Clouds 4 992 69 10000 6.2 230 09:27 10.02.2020
2968 Clouds 3 992 69 10000 6.2 230 08:58 10.02.2020
2969 Clouds 3 992 69 10000 6.7 240 08:38 10.02.2020
2970 Clouds 3 992 79 10000 6.7 240 08:19 10.02.2020
2971 Rain 3 992 79 10000 7.7 240 07:51 10.02.2020
2972 Rain 2 992 79 10000 6.7 240 07:31 10.02.2020
2973 Clouds 3 992 79 10000 6.7 240 06:23 10.02.2020
2974 Clouds 3 990 86 10000 10.3 240 04:46 10.02.2020
2975 Clouds 3 989 78 10000 7.2 250 03:45 10.02.2020
2976 Clouds 4 988 80 10000 7.7 260 02:55 10.02.2020
2977 Rain 4 986 86 10000 9.3 260 01:59 10.02.2020
2978 Clouds 5 984 75 10000 9.3 260 00:55 10.02.2020
2979 Rain 5 984 80 10000 8.2 250 00:36 10.02.2020
2980 Rain 5 983 80 10000 8.7 260 23:58 09.02.2020
2981 Rain 5 983 75 10000 10.3 270 23:39 09.02.2020
2982 Rain 5 983 75 10000 10.3 270 23:21 09.02.2020
2983 Rain 6 982 87 10000 6.7 250 22:41 09.02.2020
2984 Rain 6 982 87 10000 6.7 250 22:21 09.02.2020
2985 Rain 6 981 86 10000 6.2 250 21:45 09.02.2020
2986 Rain 6 980 87 10000 9.3 260 21:25 09.02.2020
2987 Rain 7 980 81 10000 7.7 250 20:58 09.02.2020
2988 Clouds 7 980 81 10000 7.7 250 20:40 09.02.2020
2989 Clouds 7 979 81 10000 8.7 250 20:18 09.02.2020
2990 Rain 7 978 87 10000 6.7 240 19:40 09.02.2020
2991 Rain 7 978 87 10000 6.7 240 19:21 09.02.2020
2992 Rain 7 977 81 10000 9.3 250 18:57 09.02.2020
2993 Rain 7 977 87 8000 9.8 250 18:39 09.02.2020
2994 Rain 7 977 87 8000 9.8 250 18:21 09.02.2020
2995 Rain 8 976 75 10000 9.3 250 17:43 09.02.2020
2996 Rain 8 976 76 10000 9.8 250 17:23 09.02.2020
2997 Rain 8 975 76 10000 8.2 250 16:56 09.02.2020
2998 Rain 8 975 87 10000 7.7 250 16:38 09.02.2020
2999 Rain 8 975 87 10000 7.7 250 16:18 09.02.2020
3000 Rain 8 975 87 7000 11.8 270 15:56 09.02.2020
3001 Rain 8 975 87 10000 14.4 280 15:38 09.02.2020
3002 Rain 10 975 87 10000 14.4 280 15:19 09.02.2020
3003 Clouds 11 973 66 10000 8.7 250 14:42 09.02.2020
3004 Rain 10 973 66 10000 9.3 240 14:23 09.02.2020
3005 Rain 10 974 71 10000 8.2 240 13:47 09.02.2020
3006 Rain 10 974 71 10000 8.2 240 13:29 09.02.2020
3007 Rain 10 974 76 10000 11.3 250 12:58 09.02.2020
3008 Rain 10 974 76 10000 11.3 250 12:40 09.02.2020
3009 Rain 10 974 76 7000 7.2 250 12:20 09.02.2020
3010 Clouds 11 973 71 10000 9.3 240 11:56 09.02.2020
3011 Rain 11 974 66 10000 9.8 240 11:36 09.02.2020
3012 Rain 11 974 66 10000 9.8 240 11:18 09.02.2020
3013 Rain 10 973 76 10000 6.7 230 10:42 09.02.2020
3014 Rain 9 974 87 9000 10.3 260 10:23 09.02.2020
3015 Rain 10 974 93 3000 9.8 260 09:56 09.02.2020
3016 Rain 10 974 93 2500 11.8 270 09:37 09.02.2020
3017 Rain 11 974 93 2500 11.8 270 09:18 09.02.2020
3018 Rain 11 974 93 8000 9.8 220 08:39 09.02.2020
3019 Rain 11 974 93 10000 10.3 210 08:20 09.02.2020
3020 Rain 11 976 93 10000 9.3 210 07:49 09.02.2020
3021 Rain 11 978 93 9000 9.3 210 06:54 09.02.2020
3022 Rain 11 979 93 10000 8.7 210 06:36 09.02.2020
3023 Rain 11 980 87 10000 8.2 200 05:49 09.02.2020
3024 Rain 11 982 93 10000 9.3 210 05:31 09.02.2020
3025 Rain 11 985 93 10000 8.2 220 03:58 09.02.2020
3026 Rain 11 986 93 10000 8.7 230 02:47 09.02.2020
3027 Rain 11 986 87 10000 10.3 220 02:27 09.02.2020
3028 Clouds 11 986 87 10000 10.8 210 01:35 09.02.2020
3029 Clouds 11 987 87 10000 10.3 220 00:52 09.02.2020
3030 Clouds 10 988 87 10000 12.3 210 00:28 09.02.2020
3031 Rain 10 989 87 10000 11.8 210 23:45 08.02.2020
3032 Rain 10 990 87 10000 11.8 200 23:23 08.02.2020
3033 Rain 10 991 87 10000 11.3 200 22:55 08.02.2020
3034 Rain 9 992 87 10000 11.3 190 22:37 08.02.2020
3035 Rain 9 992 87 10000 11.3 190 22:37 08.02.2020
3036 Rain 9 992 87 10000 11.3 190 22:19 08.02.2020
3037 Rain 9 993 87 10000 11.3 200 21:42 08.02.2020
3038 Rain 9 994 87 10000 10.8 200 21:24 08.02.2020
3039 Rain 9 995 81 10000 9.3 200 20:58 08.02.2020
3040 Rain 9 996 81 10000 11.8 210 20:39 08.02.2020
3041 Rain 8 996 81 10000 11.8 210 20:19 08.02.2020
3042 Rain 8 996 81 10000 11.3 210 19:56 08.02.2020
3043 Rain 9 996 81 10000 11.3 210 19:38 08.02.2020
3044 Rain 9 996 81 10000 11.3 210 19:19 08.02.2020
3045 Rain 9 997 81 10000 10.3 210 18:43 08.02.2020
3046 Rain 9 997 76 10000 11.8 210 18:24 08.02.2020
3047 Rain 9 997 76 10000 12.3 210 17:56 08.02.2020
3048 Rain 9 998 70 10000 12.3 210 17:37 08.02.2020
3049 Rain 9 998 70 10000 12.3 210 17:18 08.02.2020
3050 Rain 9 1000 70 10000 11.3 200 16:40 08.02.2020
3051 Rain 9 1000 70 10000 11.3 200 16:22 08.02.2020
3052 Rain 9 1000 70 10000 11.8 210 15:56 08.02.2020
3053 Rain 9 1000 61 10000 12.3 210 15:38 08.02.2020
3054 Rain 9 1000 61 10000 12.3 210 15:38 08.02.2020
3055 Rain 9 1000 61 10000 12.3 210 15:18 08.02.2020
3056 Rain 9 1000 61 10000 12.3 210 15:18 08.02.2020
3057 Clouds 9 1002 66 10000 10.8 210 14:41 08.02.2020
3058 Clouds 9 1002 66 10000 10.8 210 14:19 08.02.2020
3059 Clouds 9 1002 66 10000 10.8 210 14:19 08.02.2020
3060 Clouds 9 1003 66 10000 11.8 200 13:55 08.02.2020
3061 Clouds 8 1004 70 10000 9.3 200 13:37 08.02.2020
3062 Clouds 8 1004 70 10000 9.3 200 13:18 08.02.2020
3063 Clouds 8 1005 70 10000 7.2 200 12:39 08.02.2020
3064 Clouds 8 1005 70 10000 7.2 200 12:19 08.02.2020
3065 Clouds 7 1006 70 10000 7.7 200 11:43 08.02.2020
3066 Clouds 7 1006 70 10000 7.7 200 11:22 08.02.2020
3067 Clouds 6 1007 70 10000 6.7 200 10:57 08.02.2020
3068 Clouds 6 1007 70 10000 6.7 200 10:39 08.02.2020
3069 Clouds 6 1007 75 10000 5.7 210 10:20 08.02.2020
3070 Clouds 5 1007 81 10000 5.7 200 09:50 08.02.2020
3071 Clouds 4 1007 81 10000 5.7 200 09:24 08.02.2020
3072 Clouds 4 1006 81 10000 5.7 200 08:47 08.02.2020
3073 Clouds 4 1006 81 10000 5.7 200 08:27 08.02.2020
3074 Clouds 4 1006 83 10000 4.1 190 07:53 08.02.2020
3075 Clouds 4 1006 83 10000 5.7 210 07:34 08.02.2020
3076 Clouds 4 1005 83 10000 6.2 220 06:55 08.02.2020
3077 Clouds 4 1005 83 10000 5.1 230 06:22 08.02.2020
3078 Clouds 4 1005 80 10000 5.7 220 05:34 08.02.2020
3079 Clouds 4 1005 80 10000 6.2 220 04:55 08.02.2020
3080 Clouds 4 1005 86 10000 6.2 220 04:24 08.02.2020
3081 Rain 4 1004 86 10000 6.2 240 03:38 08.02.2020
3082 Clouds 5 1002 75 10000 5.7 250 02:29 08.02.2020
3083 Clouds 5 1002 75 10000 5.7 250 02:29 08.02.2020
3084 Rain 6 999 75 10000 8.2 220 01:34 08.02.2020
3085 Rain 7 999 70 10000 10.3 210 00:54 08.02.2020
3086 Clouds 8 999 70 10000 8.7 210 00:25 08.02.2020
3087 Clouds 8 998 66 10000 7.7 210 23:58 07.02.2020
3088 Clouds 8 998 66 10000 7.7 210 23:39 07.02.2020
3089 Clouds 8 998 81 10000 7.2 200 23:20 07.02.2020
3090 Clouds 9 998 76 10000 7.2 200 22:42 07.02.2020
3091 Rain 10 998 81 10000 3.6 160 22:20 07.02.2020
3092 Rain 10 998 87 10000 5.1 160 21:59 07.02.2020
3093 Rain 10 999 81 10000 6.7 160 21:40 07.02.2020
3094 Rain 10 999 81 10000 6.7 160 21:20 07.02.2020
3095 Rain 10 1000 81 10000 5.7 160 20:39 07.02.2020
3096 Rain 9 1000 93 10000 6.7 160 20:20 07.02.2020
3097 Rain 9 1000 93 10000 6.7 160 19:55 07.02.2020
3098 Rain 9 1000 87 10000 7.2 170 19:37 07.02.2020
3099 Rain 9 1000 87 10000 7.2 170 19:18 07.02.2020
3100 Rain 9 1001 87 10000 8.2 160 18:44 07.02.2020
3101 Rain 9 1001 87 10000 8.2 160 18:25 07.02.2020
3102 Clouds 9 1002 87 10000 7.2 160 17:55 07.02.2020
3103 Clouds 9 1002 87 10000 7.2 160 17:37 07.02.2020
3104 Clouds 9 1002 87 10000 7.2 160 17:19 07.02.2020
3105 Drizzle 9 1003 93 10000 7.2 160 16:45 07.02.2020
3106 Drizzle 8 1003 87 7000 7.7 150 16:23 07.02.2020
3107 Drizzle 8 1004 87 10000 7.7 170 15:55 07.02.2020
3108 Clouds 8 1005 87 10000 7.2 160 15:28 07.02.2020
3109 Clouds 8 1006 81 10000 6.2 150 14:56 07.02.2020
3110 Clouds 8 1007 87 10000 6.2 150 14:38 07.02.2020
3111 Clouds 8 1007 87 10000 6.2 150 14:38 07.02.2020
3112 Clouds 7 1007 81 10000 8.7 160 14:19 07.02.2020
3113 Clouds 7 1007 81 10000 8.7 160 13:56 07.02.2020
3114 Clouds 7 1007 81 10000 8.7 160 13:56 07.02.2020
3115 Clouds 8 1008 75 10000 12.9 150 13:38 07.02.2020
3116 Clouds 8 1008 75 10000 12.9 150 13:19 07.02.2020
3117 Clouds 7 1009 81 10000 9.8 160 12:41 07.02.2020
3118 Clouds 7 1009 70 10000 9.3 170 12:23 07.02.2020
3119 Clouds 7 1010 75 10000 9.3 170 11:45 07.02.2020
3120 Clouds 7 1010 75 10000 8.7 160 11:23 07.02.2020
3121 Clouds 7 1011 75 10000 10.3 160 10:58 07.02.2020
3122 Clouds 7 1011 81 10000 9.3 150 10:38 07.02.2020
3123 Clouds 6 1011 81 10000 9.3 150 10:19 07.02.2020
3124 Clouds 6 1013 81 10000 6.7 150 09:41 07.02.2020
3125 Clouds 6 1013 81 10000 6.7 150 09:23 07.02.2020
3126 Clouds 6 1013 81 10000 6.2 150 08:50 07.02.2020
3127 Clouds 6 1014 81 10000 5.1 160 08:24 07.02.2020
3128 Clouds 6 1014 81 10000 5.7 160 07:55 07.02.2020
3129 Clouds 6 1015 81 10000 7.2 160 07:33 07.02.2020
3130 Clouds 6 1015 81 10000 6.2 150 06:59 07.02.2020
3131 Clouds 6 1016 81 10000 5.1 140 06:40 07.02.2020
3132 Clouds 6 1016 81 10000 5.1 140 06:19 07.02.2020
3133 Clouds 5 1017 86 10000 5.1 150 05:38 07.02.2020
3134 Clouds 5 1019 81 10000 5.7 160 03:54 07.02.2020
3135 Clouds 5 1020 81 10000 6.7 150 02:23 07.02.2020
3136 Clouds 6 1021 81 10000 6.2 150 01:21 07.02.2020
3137 Clouds 6 1022 81 10000 6.7 140 00:29 07.02.2020
3138 Clouds 6 1023 81 10000 4.1 150 23:39 06.02.2020
3139 Clouds 6 1023 81 10000 4.1 150 23:20 06.02.2020
3140 Clouds 5 1024 81 10000 5.1 140 22:56 06.02.2020
3141 Clouds 5 1024 81 10000 5.7 150 22:38 06.02.2020
3142 Clouds 5 1024 81 10000 5.7 150 22:19 06.02.2020
3143 Clouds 5 1024 81 10000 5.7 150 21:37 06.02.2020
3144 Clouds 5 1024 81 10000 5.7 150 21:19 06.02.2020
3145 Clouds 6 1024 75 10000 7.2 150 20:56 06.02.2020
3146 Clouds 6 1025 75 10000 7.7 160 20:37 06.02.2020
3147 Clouds 6 1025 75 10000 7.7 160 20:18 06.02.2020
3148 Clouds 6 1025 81 10000 6.2 150 19:57 06.02.2020
3149 Clouds 6 1025 75 10000 6.2 150 19:37 06.02.2020
3150 Clouds 6 1025 75 10000 6.2 150 19:19 06.02.2020
3151 Clouds 6 1025 70 10000 4.1 150 18:42 06.02.2020
3152 Clouds 6 1025 70 10000 4.1 150 18:24 06.02.2020
3153 Clouds 7 1025 70 10000 5.7 140 17:58 06.02.2020
3154 Clouds 7 1025 70 10000 5.7 140 17:58 06.02.2020
3155 Clouds 7 1025 70 10000 5.7 140 17:40 06.02.2020
3156 Clouds 7 1026 70 10000 5.1 140 17:20 06.02.2020
3157 Clouds 8 1026 70 10000 4.6 150 16:43 06.02.2020
3158 Clouds 8 1026 70 10000 4.6 140 16:25 06.02.2020
3159 Clouds 8 1026 66 10000 4.1 150 15:44 06.02.2020
3160 Clouds 8 1027 70 10000 4.1 150 15:24 06.02.2020
3161 Clouds 8 1028 66 10000 1.5 0 14:59 06.02.2020
3162 Clouds 8 1028 66 10000 1 0 14:41 06.02.2020
3163 Clouds 8 1028 66 10000 1 0 14:22 06.02.2020
3164 Rain 8 1028 66 10000 1 0 13:43 06.02.2020
3165 Rain 8 1028 66 10000 1 0 13:25 06.02.2020
3166 Rain 8 1029 61 10000 1.5 0 12:45 06.02.2020
3167 Rain 8 1029 61 10000 1.5 0 12:45 06.02.2020
3168 Clouds 7 1029 81 10000 0.5 0 12:20 06.02.2020
3169 Clouds 6 1029 87 10000 1 0 11:59 06.02.2020
3170 Clouds 5 1029 100 10000 1 0 11:40 06.02.2020
3171 Clouds 4 1029 100 10000 1 0 11:21 06.02.2020
3172 Clouds 3 1029 93 10000 1 0 10:58 06.02.2020
3173 Clouds 3 1029 100 10000 1.55 198 10:40 06.02.2020
3174 Clouds 2 1029 100 10000 1.55 198 10:21 06.02.2020
3175 Clouds 1 1029 100 10000 1 0 09:57 06.02.2020
3176 Clouds 1 1029 92 10000 1 0 09:38 06.02.2020
3177 Clouds 1 1029 92 10000 1 0 09:19 06.02.2020
3178 Clouds 1 1029 100 10000 1.5 280 08:43 06.02.2020
3179 Clouds 1 1029 100 10000 1.5 280 08:23 06.02.2020
3180 Clouds 0 1029 92 10000 2.1 290 07:54 06.02.2020
3181 Clouds 0 1029 92 10000 2.1 290 07:29 06.02.2020
3182 Clouds 1 1029 100 10000 1 0 06:47 06.02.2020
3183 Clouds 1 1030 87 10000 1.5 130 06:18 06.02.2020
3184 Clouds 0 1030 92 10000 1 0 05:24 06.02.2020
3185 Clouds 2 1030 86 10000 1 0 03:47 06.02.2020
3186 Clouds 3 1031 80 10000 2.6 210 02:58 06.02.2020
3187 Clouds 3 1032 93 10000 3.1 210 01:45 06.02.2020
3188 Clouds 3 1032 93 10000 2.1 210 00:59 06.02.2020
3189 Clouds 3 1032 86 10000 2.6 210 00:28 06.02.2020
3190 Clouds 3 1032 93 10000 2.6 210 23:55 05.02.2020
3191 Clouds 3 1032 93 10000 2.6 210 23:55 05.02.2020
3192 Clouds 3 1033 93 10000 3.1 220 23:36 05.02.2020
3193 Clouds 3 1033 93 10000 3.1 220 23:18 05.02.2020
3194 Clouds 3 1033 86 10000 2.1 210 22:40 05.02.2020
3195 Clouds 4 1033 86 10000 2.1 210 22:22 05.02.2020
3196 Clouds 4 1033 86 10000 2.1 200 21:57 05.02.2020
3197 Clouds 3 1033 86 10000 2.6 210 21:39 05.02.2020
3198 Clouds 4 1033 86 10000 2.6 210 21:19 05.02.2020
3199 Clouds 4 1033 86 10000 2.1 220 20:39 05.02.2020
3200 Clouds 4 1033 86 10000 2.1 220 20:20 05.02.2020
3201 Clouds 5 1033 81 10000 2.6 210 19:59 05.02.2020
3202 Clouds 5 1033 81 10000 2.6 210 19:40 05.02.2020
3203 Clouds 6 1033 81 10000 3.1 210 19:19 05.02.2020
3204 Clouds 6 1033 75 10000 2.1 220 18:56 05.02.2020
3205 Clouds 6 1033 75 10000 2.1 250 18:38 05.02.2020
3206 Clouds 6 1033 75 10000 2.1 250 18:18 05.02.2020
3207 Clouds 7 1033 70 10000 2.6 240 17:38 05.02.2020
3208 Clouds 8 1033 66 10000 3.6 240 17:20 05.02.2020
3209 Clouds 8 1033 66 10000 3.6 240 16:57 05.02.2020
3210 Clouds 8 1034 66 10000 3.1 240 16:39 05.02.2020
3211 Clouds 8 1034 66 10000 3.1 240 16:20 05.02.2020
3212 Clouds 8 1034 70 10000 3.1 240 15:46 05.02.2020
3213 Clouds 9 1034 66 10000 3.1 220 15:20 05.02.2020
3214 Clouds 9 1035 61 10000 4.1 210 14:58 05.02.2020
3215 Clouds 9 1035 61 10000 4.1 220 14:39 05.02.2020
3216 Clouds 9 1035 61 10000 4.1 220 14:21 05.02.2020
3217 Clouds 9 1036 65 10000 3.1 200 13:43 05.02.2020
3218 Clouds 8 1036 65 10000 3.1 200 13:22 05.02.2020
3219 Clouds 8 1036 70 10000 3.1 190 12:57 05.02.2020
3220 Clouds 7 1037 70 10000 3.1 200 12:36 05.02.2020
3221 Clouds 6 1037 70 10000 3.1 200 12:18 05.02.2020
3222 Clouds 3 1037 86 10000 2.1 210 11:41 05.02.2020
3223 Clouds 3 1037 86 10000 2.1 210 11:22 05.02.2020
3224 Clouds 1 1037 88 10000 2.1 220 10:44 05.02.2020
3225 Clouds 2 1037 88 10000 2.1 220 10:26 05.02.2020
3226 Clouds 1 1037 88 10000 2.6 250 09:59 05.02.2020
3227 Clouds 1 1037 88 10000 3.6 260 09:39 05.02.2020
3228 Clouds 1 1037 88 10000 3.6 260 09:39 05.02.2020
3229 Clouds 1 1037 88 10000 3.6 260 09:21 05.02.2020
3230 Clouds 1 1036 88 10000 2.1 260 08:46 05.02.2020
3231 Clouds 0 1036 89 10000 3.6 280 08:25 05.02.2020
3232 Clouds 1 1036 86 10000 2.1 280 07:57 05.02.2020
3233 Clouds 1 1036 86 10000 2.1 280 07:57 05.02.2020
3234 Clouds 1 1036 86 10000 1.5 0 07:37 05.02.2020
3235 Clouds 1 1035 91 10000 1.5 0 06:58 05.02.2020
3236 Clouds 1 1036 91 10000 2.1 260 06:39 05.02.2020
3237 Clouds 1 1036 91 10000 2.1 260 06:19 05.02.2020
3238 Clouds 1 1036 93 10000 2.6 250 05:20 05.02.2020
3239 Clouds 1 1037 93 10000 3.1 250 04:54 05.02.2020
3240 Clouds 1 1037 93 10000 2.1 240 03:58 05.02.2020
3241 Clouds 2 1037 86 10000 3.1 260 02:39 05.02.2020
3242 Clouds 2 1037 86 10000 3.1 260 02:19 05.02.2020
3243 Clouds 2 1036 86 10000 3.1 250 00:54 05.02.2020
3244 Clouds 3 1036 86 10000 3.1 260 00:21 05.02.2020
3245 Clouds 2 1036 86 10000 2.1 240 23:40 04.02.2020
3246 Clouds 3 1036 86 10000 2.1 240 23:19 04.02.2020
3247 Clouds 3 1036 86 10000 2.1 240 23:19 04.02.2020
3248 Clouds 3 1035 93 10000 3.1 270 22:57 04.02.2020
3249 Clouds 3 1035 92 10000 4.1 270 22:39 04.02.2020
3250 Clouds 3 1035 92 10000 4.1 270 22:20 04.02.2020
3251 Clouds 3 1035 92 10000 4.1 290 21:54 04.02.2020
3252 Clouds 3 1035 86 10000 3.6 280 21:36 04.02.2020
3253 Clouds 3 1035 86 10000 3.6 280 21:18 04.02.2020
3254 Clouds 4 1034 80 10000 5.1 280 20:42 04.02.2020
3255 Clouds 4 1034 80 10000 5.1 280 20:21 04.02.2020
3256 Clouds 5 1034 75 10000 3.6 280 19:59 04.02.2020
3257 Clouds 5 1033 80 10000 4.1 290 19:40 04.02.2020
3258 Clouds 4 1033 80 10000 4.1 290 19:22 04.02.2020
3259 Clouds 6 1033 75 10000 4.6 290 18:56 04.02.2020
3260 Clouds 6 1033 75 10000 5.1 300 18:37 04.02.2020
3261 Clouds 6 1033 75 10000 5.1 300 18:19 04.02.2020
3262 Clouds 8 1032 70 10000 4.1 300 17:43 04.02.2020
3263 Clouds 8 1032 70 10000 4.1 300 17:43 04.02.2020
3264 Clouds 8 1032 70 10000 4.1 300 17:21 04.02.2020
3265 Clouds 8 1031 65 10000 6.7 310 16:56 04.02.2020
3266 Clouds 8 1031 70 10000 8.2 310 16:37 04.02.2020
3267 Clouds 8 1031 70 10000 8.2 310 16:19 04.02.2020
3268 Clouds 8 1030 66 10000 7.2 310 15:56 04.02.2020
3269 Clouds 8 1030 66 10000 9.3 310 15:37 04.02.2020
3270 Clouds 8 1030 66 10000 9.3 310 15:18 04.02.2020
3271 Clouds 8 1029 70 10000 7.2 300 14:42 04.02.2020
3272 Clouds 8 1029 70 10000 7.2 300 14:23 04.02.2020
3273 Clouds 8 1029 75 10000 8.2 300 13:57 04.02.2020
3274 Clouds 8 1028 81 10000 8.2 290 13:39 04.02.2020
3275 Clouds 7 1028 81 10000 8.2 290 13:19 04.02.2020
3276 Clouds 7 1028 75 10000 5.7 270 12:44 04.02.2020
3277 Clouds 7 1028 75 10000 5.7 270 12:25 04.02.2020
3278 Clouds 6 1027 81 10000 7.2 270 11:58 04.02.2020
3279 Clouds 6 1026 80 10000 3.6 240 11:39 04.02.2020
3280 Clouds 5 1026 80 10000 3.6 240 11:20 04.02.2020
3281 Clouds 5 1025 86 10000 9.3 280 10:50 04.02.2020
3282 Clouds 4 1024 86 10000 8.7 280 10:30 04.02.2020
3283 Clouds 4 1024 86 10000 8.7 280 10:30 04.02.2020
3284 Clouds 4 1022 80 10000 10.8 280 09:58 04.02.2020
3285 Clouds 4 1022 80 10000 10.8 280 09:40 04.02.2020
3286 Clouds 4 1022 80 10000 10.8 280 09:21 04.02.2020
3287 Clouds 4 1021 80 10000 8.7 270 08:50 04.02.2020
3288 Clouds 4 1021 80 10000 8.7 270 08:50 04.02.2020
3289 Clouds 4 1021 80 10000 6.7 260 08:28 04.02.2020
3290 Clouds 3 1020 86 10000 9.8 270 07:57 04.02.2020
3291 Clouds 3 1019 86 10000 10.3 270 07:38 04.02.2020
3292 Clouds 3 1019 86 10000 10.3 270 07:19 04.02.2020
3293 Rain 3 1019 86 10000 10.8 280 06:42 04.02.2020
3294 Rain 3 1018 86 10000 7.7 270 05:37 04.02.2020
3295 Clouds 3 1017 86 10000 9.3 270 04:55 04.02.2020
3296 Clouds 3 1016 80 10000 9.8 270 03:49 04.02.2020
3297 Clouds 4 1015 80 10000 9.3 270 03:31 04.02.2020
3298 Clouds 4 1015 86 10000 9.3 270 02:51 04.02.2020
3299 Rain 4 1015 86 10000 9.8 260 02:28 04.02.2020
3300 Clouds 4 1015 86 10000 9.8 260 01:48 04.02.2020
3301 Rain 4 1014 80 10000 9.3 260 01:21 04.02.2020
3302 Rain 4 1013 80 10000 7.7 260 00:25 04.02.2020
3303 Rain 4 1013 80 10000 7.7 260 00:25 04.02.2020
3304 Clouds 3 1013 86 10000 7.7 260 23:56 03.02.2020
3305 Clouds 3 1013 86 10000 7.2 260 23:38 03.02.2020
3306 Clouds 3 1013 86 10000 7.2 260 23:18 03.02.2020
3307 Clouds 3 1013 86 10000 6.2 250 22:39 03.02.2020
3308 Clouds 4 1013 86 10000 6.2 250 22:20 03.02.2020
3309 Clouds 4 1013 80 10000 8.2 260 21:43 03.02.2020
3310 Clouds 4 1013 80 10000 6.7 260 21:20 03.02.2020
3311 Clouds 4 1013 80 10000 6.7 260 20:57 03.02.2020
3312 Clouds 4 1013 80 10000 6.7 260 20:57 03.02.2020
3313 Clouds 4 1013 80 10000 8.2 270 20:39 03.02.2020
3314 Clouds 4 1013 80 10000 8.2 270 20:18 03.02.2020
3315 Clouds 4 1012 86 10000 6.7 260 19:56 03.02.2020
3316 Clouds 4 1012 86 10000 7.7 260 19:37 03.02.2020
3317 Clouds 4 1012 86 10000 7.7 260 19:37 03.02.2020
3318 Clouds 4 1012 86 10000 7.7 260 19:18 03.02.2020
3319 Rain 5 1012 80 10000 7.7 280 18:42 03.02.2020
3320 Rain 5 1012 80 10000 7.7 280 18:22 03.02.2020
3321 Rain 5 1012 70 10000 6.7 270 17:58 03.02.2020
3322 Clouds 5 1012 77 10000 9.8 270 17:39 03.02.2020
3323 Clouds 6 1012 66 10000 9.8 270 17:20 03.02.2020
3324 Clouds 6 1011 65 10000 9.8 270 16:40 03.02.2020
3325 Clouds 7 1011 65 10000 10.3 270 16:22 03.02.2020
3326 Clouds 7 1011 65 10000 10.8 270 15:59 03.02.2020
3327 Clouds 7 1011 65 10000 8.7 260 15:39 03.02.2020
3328 Clouds 7 1011 65 10000 8.7 260 15:20 03.02.2020
3329 Clouds 7 1011 65 10000 9.8 270 14:58 03.02.2020
3330 Clouds 7 1011 65 10000 9.8 270 14:58 03.02.2020
3331 Clouds 7 1011 65 10000 9.8 270 14:58 03.02.2020
3332 Clouds 7 1011 70 10000 6.7 260 14:39 03.02.2020
3333 Clouds 7 1011 70 10000 6.7 260 14:21 03.02.2020
3334 Clouds 6 1012 75 10000 5.7 250 13:43 03.02.2020
3335 Clouds 6 1012 75 10000 5.7 250 13:21 03.02.2020
3336 Clouds 6 1012 75 10000 5.1 250 12:59 03.02.2020
3337 Clouds 6 1012 75 10000 5.1 250 12:40 03.02.2020
3338 Clouds 6 1012 75 10000 6.2 250 12:21 03.02.2020
3339 Clouds 6 1011 75 10000 7.7 260 11:56 03.02.2020
3340 Clouds 5 1010 75 10000 8.7 260 11:37 03.02.2020
3341 Clouds 5 1010 75 10000 8.7 260 11:18 03.02.2020
3342 Clouds 5 1010 75 10000 8.7 260 10:40 03.02.2020
3343 Clouds 5 1010 75 10000 8.7 260 10:22 03.02.2020
3344 Clouds 5 1010 75 10000 7.7 260 09:48 03.02.2020
3345 Clouds 5 1010 75 10000 6.7 250 09:24 03.02.2020
3346 Clouds 5 1010 80 10000 6.7 250 08:56 03.02.2020
3347 Clouds 5 1010 80 10000 6.7 250 08:56 03.02.2020
3348 Clouds 5 1009 80 10000 6.2 250 08:37 03.02.2020
3349 Clouds 5 1009 80 10000 6.2 250 08:19 03.02.2020
3350 Clouds 6 1009 75 10000 6.7 250 07:40 03.02.2020
3351 Clouds 6 1009 75 10000 6.7 250 07:21 03.02.2020
3352 Clouds 6 1008 81 10000 7.7 260 06:51 03.02.2020
3353 Clouds 6 1008 75 10000 7.2 250 06:28 03.02.2020
3354 Clouds 7 1008 81 10000 6.7 250 05:37 03.02.2020
3355 Clouds 7 1008 81 10000 6.7 250 05:18 03.02.2020
3356 Clouds 7 1006 75 10000 7.7 250 03:42 03.02.2020
3357 Clouds 8 1005 81 10000 8.2 250 02:35 03.02.2020
3358 Clouds 8 1004 87 10000 8.2 250 01:42 03.02.2020
3359 Rain 9 1003 81 10000 8.2 250 00:47 03.02.2020
3360 Rain 8 1002 81 10000 8.2 250 00:24 03.02.2020
3361 Rain 8 1001 87 10000 7.7 240 23:39 02.02.2020
3362 Rain 8 1001 87 10000 6.7 240 23:21 02.02.2020
3363 Clouds 8 1001 81 10000 6.7 240 22:57 02.02.2020
3364 Clouds 9 1000 76 10000 7.2 240 22:38 02.02.2020
3365 Clouds 9 1000 76 10000 7.2 240 22:19 02.02.2020
3366 Clouds 9 1000 87 10000 7.2 240 21:54 02.02.2020
3367 Rain 9 1000 76 10000 7.2 230 21:36 02.02.2020
3368 Rain 9 1000 76 10000 7.2 230 21:18 02.02.2020
3369 Clouds 9 1000 76 10000 7.2 230 20:55 02.02.2020
3370 Clouds 9 1000 87 10000 7.2 220 20:36 02.02.2020
3371 Clouds 9 1000 87 10000 7.2 220 20:18 02.02.2020
3372 Rain 8 1000 87 10000 5.7 220 19:42 02.02.2020
3373 Rain 8 1000 87 10000 5.1 230 19:24 02.02.2020
3374 Rain 8 1001 87 10000 5.7 250 18:59 02.02.2020
3375 Rain 8 1001 87 10000 5.7 250 18:39 02.02.2020
3376 Rain 9 1000 81 5000 6.2 240 18:20 02.02.2020
3377 Rain 9 1000 81 10000 5.1 230 17:58 02.02.2020
3378 Rain 9 1000 87 10000 6.7 260 17:38 02.02.2020
3379 Rain 9 1000 87 10000 6.7 260 17:19 02.02.2020
3380 Rain 9 1000 81 5000 6.2 250 16:58 02.02.2020
3381 Rain 10 1000 66 10000 6.2 240 16:39 02.02.2020
3382 Rain 10 1000 66 10000 6.2 240 16:19 02.02.2020
3383 Rain 10 1000 66 10000 6.2 240 15:57 02.02.2020
3384 Rain 10 1000 71 10000 5.7 230 15:39 02.02.2020
3385 Rain 10 1000 71 10000 5.7 230 15:19 02.02.2020
3386 Rain 11 1000 71 10000 6.7 230 14:54 02.02.2020
3387 Clouds 10 1000 71 10000 7.7 230 14:36 02.02.2020
3388 Clouds 10 1000 71 10000 7.7 230 14:18 02.02.2020
3389 Clouds 11 1000 71 10000 7.7 230 13:54 02.02.2020
3390 Clouds 11 1000 71 10000 7.2 230 13:36 02.02.2020
3391 Clouds 11 1000 71 10000 7.2 230 13:36 02.02.2020
3392 Clouds 11 1000 71 10000 7.2 230 13:18 02.02.2020
3393 Clouds 10 1000 81 10000 6.2 230 12:40 02.02.2020
3394 Clouds 10 1000 81 10000 6.2 230 12:22 02.02.2020
3395 Clouds 10 1000 76 10000 6.2 230 11:55 02.02.2020
3396 Clouds 9 1000 87 10000 5.1 230 11:36 02.02.2020
3397 Clouds 9 1000 87 10000 5.1 230 11:18 02.02.2020
3398 Clouds 9 1000 87 10000 5.7 240 10:54 02.02.2020
3399 Clouds 8 999 87 10000 6.2 240 10:36 02.02.2020
3400 Clouds 8 999 87 10000 6.2 240 10:36 02.02.2020
3401 Clouds 8 999 87 10000 6.2 240 10:18 02.02.2020
3402 Clouds 8 999 87 10000 4.6 230 09:40 02.02.2020
3403 Clouds 8 999 87 10000 4.6 230 09:21 02.02.2020
3404 Clouds 7 999 93 10000 2.6 220 08:56 02.02.2020
3405 Clouds 7 999 93 10000 1.5 0 08:37 02.02.2020
3406 Clouds 7 999 93 10000 1.5 0 08:37 02.02.2020
3407 Clouds 6 999 93 10000 4.1 160 08:18 02.02.2020
3408 Clouds 6 999 93 10000 4.1 160 07:42 02.02.2020
3409 Clouds 6 999 93 10000 4.1 160 07:42 02.02.2020
3410 Clouds 5 999 93 10000 5.1 150 07:24 02.02.2020
3411 Drizzle 5 999 100 10000 3.1 150 06:38 02.02.2020
3412 Drizzle 5 999 100 10000 3.1 150 06:18 02.02.2020
3413 Rain 5 1000 93 7000 3.1 160 05:20 02.02.2020
3414 Rain 5 1001 93 10000 2.6 160 04:21 02.02.2020
3415 Rain 5 1001 87 10000 3.1 170 03:23 02.02.2020
3416 Rain 6 1003 93 10000 2.1 150 02:22 02.02.2020
3417 Rain 6 1003 93 10000 1.5 0 01:50 02.02.2020
3418 Clouds 7 1004 87 10000 1 0 00:51 02.02.2020
3419 Clouds 6 1004 93 10000 1.5 160 00:29 02.02.2020
3420 Clouds 7 1005 93 10000 2.1 200 23:58 01.02.2020
3421 Clouds 7 1005 93 10000 2.1 210 23:39 01.02.2020
3422 Clouds 7 1005 93 10000 2.1 210 23:21 01.02.2020
3423 Clouds 6 1005 93 10000 2.6 210 22:43 01.02.2020
3424 Clouds 6 1005 93 10000 2.6 200 22:19 01.02.2020
3425 Clouds 7 1006 87 10000 2.6 230 21:42 01.02.2020
3426 Clouds 7 1006 87 10000 2.6 230 21:19 01.02.2020
3427 Clouds 7 1005 87 10000 2.6 220 20:56 01.02.2020
3428 Clouds 7 1006 87 10000 2.6 230 20:37 01.02.2020
3429 Clouds 7 1006 87 10000 2.6 230 20:18 01.02.2020
3430 Clouds 7 1005 81 10000 4.1 260 19:55 01.02.2020
3431 Clouds 7 1004 81 10000 6.7 280 19:37 01.02.2020
3432 Clouds 7 1004 81 10000 6.7 280 19:37 01.02.2020
3433 Clouds 7 1004 81 10000 6.7 280 19:18 01.02.2020
3434 Clouds 7 1004 87 10000 6.7 270 18:55 01.02.2020
3435 Clouds 8 1003 81 10000 7.7 280 18:37 01.02.2020
3436 Clouds 8 1003 81 10000 7.7 280 18:18 01.02.2020
3437 Clouds 8 1003 81 10000 8.7 280 17:54 01.02.2020
3438 Clouds 9 1002 76 10000 9.8 280 17:36 01.02.2020
3439 Clouds 9 1002 76 10000 9.8 280 17:18 01.02.2020
3440 Clouds 9 1002 76 10000 9.8 280 17:18 01.02.2020
3441 Rain 9 1001 81 10000 10.8 270 16:39 01.02.2020
3442 Rain 9 1001 81 10000 10.8 270 16:39 01.02.2020
3443 Rain 9 1001 81 10000 10.8 270 16:21 01.02.2020
3444 Rain 9 1001 81 10000 10.8 270 16:21 01.02.2020
3445 Clouds 10 999 76 10000 9.8 270 15:47 01.02.2020
3446 Drizzle 9 999 87 10000 8.2 260 15:29 01.02.2020
3447 Drizzle 9 998 81 10000 8.7 260 14:58 01.02.2020
3448 Drizzle 9 998 87 10000 8.7 250 14:39 01.02.2020
3449 Drizzle 8 998 87 10000 8.7 250 14:20 01.02.2020
3450 Rain 8 997 75 10000 7.7 240 13:45 01.02.2020
3451 Rain 8 997 75 10000 7.7 240 13:22 01.02.2020
3452 Rain 8 997 75 10000 7.7 240 13:22 01.02.2020
3453 Clouds 8 997 70 10000 7.7 240 12:46 01.02.2020
3454 Clouds 8 996 70 10000 8.2 240 12:28 01.02.2020
3455 Clouds 8 996 70 10000 8.2 240 11:58 01.02.2020
3456 Clouds 8 996 70 10000 8.7 240 11:38 01.02.2020
3457 Clouds 8 996 70 10000 8.7 240 11:19 01.02.2020
3458 Clouds 7 996 75 10000 7.2 240 10:56 01.02.2020
3459 Clouds 7 995 75 10000 7.7 240 10:38 01.02.2020
3460 Clouds 7 995 75 10000 7.7 240 10:20 01.02.2020
3461 Rain 7 995 70 10000 8.2 240 09:54 01.02.2020
3462 Clouds 7 995 75 10000 7.7 240 09:36 01.02.2020
3463 Clouds 7 995 75 10000 7.7 240 09:18 01.02.2020
3464 Clouds 7 994 70 10000 7.7 250 08:40 01.02.2020
3465 Clouds 7 994 70 10000 8.2 240 07:48 01.02.2020
3466 Clouds 7 994 75 10000 7.7 240 07:25 01.02.2020
3467 Clouds 7 994 75 10000 7.7 240 07:25 01.02.2020
3468 Clouds 8 993 70 10000 8.7 240 06:54 01.02.2020
3469 Clouds 8 993 70 10000 8.7 240 06:54 01.02.2020
3470 Clouds 8 993 75 10000 7.7 240 06:31 01.02.2020
3471 Clouds 8 993 75 10000 6.7 240 05:51 01.02.2020
3472 Clouds 8 993 70 10000 7.2 240 03:43 01.02.2020
3473 Clouds 8 993 66 10000 7.2 240 03:20 01.02.2020
3474 Clouds 9 993 70 10000 7.7 240 02:43 01.02.2020
3475 Clouds 9 992 70 10000 8.2 240 02:24 01.02.2020
3476 Clouds 9 992 66 10000 7.7 230 01:49 01.02.2020
3477 Clouds 9 992 61 10000 6.7 240 01:30 01.02.2020
3478 Clouds 10 992 66 10000 9.3 230 00:27 01.02.2020
3479 Clouds 10 992 71 10000 7.7 230 23:43 31.01.2020
3480 Clouds 10 992 71 10000 8.2 240 23:19 31.01.2020
3481 Clouds 10 992 66 10000 9.8 240 22:58 31.01.2020
3482 Clouds 10 992 66 10000 7.7 240 22:40 31.01.2020
3483 Clouds 10 992 66 10000 7.7 240 22:21 31.01.2020
3484 Clouds 11 992 71 10000 6.7 240 21:55 31.01.2020
3485 Clouds 11 992 76 10000 7.7 230 21:37 31.01.2020
3486 Clouds 11 992 76 10000 7.7 230 21:19 31.01.2020
3487 Clouds 11 992 76 10000 7.7 230 20:56 31.01.2020
3488 Clouds 11 993 76 10000 7.2 230 20:37 31.01.2020
3489 Clouds 11 993 76 10000 6.7 230 20:18 31.01.2020
3490 Clouds 11 993 76 10000 6.7 230 19:55 31.01.2020
3491 Clouds 11 993 76 10000 7.7 240 19:36 31.01.2020
3492 Clouds 12 993 76 10000 7.7 240 19:18 31.01.2020
3493 Clouds 12 993 76 10000 6.7 240 18:39 31.01.2020
3494 Clouds 12 993 76 10000 6.7 240 18:21 31.01.2020
3495 Clouds 12 993 76 10000 7.2 230 17:46 31.01.2020
3496 Clouds 12 993 71 10000 6.7 230 17:28 31.01.2020
3497 Clouds 13 994 71 10000 6.7 230 16:58 31.01.2020
3498 Clouds 13 994 66 10000 6.7 220 16:39 31.01.2020
3499 Clouds 13 994 66 10000 6.7 220 16:39 31.01.2020
3500 Clouds 13 994 66 10000 6.7 220 16:19 31.01.2020
3501 Clouds 13 994 71 10000 4.6 210 15:58 31.01.2020
3502 Clouds 13 994 71 10000 4.6 210 15:40 31.01.2020
3503 Clouds 13 995 76 10000 4.6 180 15:20 31.01.2020
3504 Clouds 13 995 82 10000 6.2 210 14:44 31.01.2020
3505 Clouds 13 995 76 10000 5.7 210 14:24 31.01.2020
3506 Clouds 13 996 82 10000 6.7 210 13:56 31.01.2020
3507 Clouds 12 996 87 10000 6.2 220 13:38 31.01.2020
3508 Clouds 12 996 87 10000 6.2 220 13:20 31.01.2020
3509 Clouds 12 996 87 10000 7.2 220 12:44 31.01.2020
3510 Clouds 12 996 87 10000 5.7 220 12:24 31.01.2020
3511 Clouds 11 996 87 10000 7.7 220 11:55 31.01.2020
3512 Clouds 11 996 87 10000 6.2 210 11:37 31.01.2020
3513 Clouds 11 996 87 10000 6.2 210 11:18 31.01.2020
3514 Clouds 11 997 87 10000 5.1 210 10:43 31.01.2020
3515 Clouds 11 997 87 10000 5.1 210 10:22 31.01.2020
3516 Clouds 11 997 87 10000 7.2 220 09:57 31.01.2020
3517 Drizzle 11 997 93 10000 5.7 220 09:39 31.01.2020
3518 Drizzle 11 997 93 10000 5.7 220 09:19 31.01.2020
3519 Drizzle 11 996 93 10000 6.2 210 08:52 31.01.2020
3520 Rain 11 997 93 10000 4.6 210 08:27 31.01.2020
3521 Rain 11 997 93 10000 3.1 200 07:53 31.01.2020
3522 Rain 11 997 93 10000 5.1 210 07:25 31.01.2020
3523 Rain 11 997 81 10000 6.2 220 06:49 31.01.2020
3524 Clouds 11 997 87 10000 5.1 220 06:20 31.01.2020
3525 Clouds 12 997 87 10000 4.6 230 05:48 31.01.2020
3526 Clouds 12 997 87 10000 6.2 220 04:56 31.01.2020
3527 Clouds 11 999 81 10000 5.1 220 02:58 31.01.2020
3528 Clouds 10 1000 81 10000 5.7 220 01:39 31.01.2020
3529 Clouds 8 1000 81 10000 5.7 220 00:46 31.01.2020
3530 Clouds 8 1001 81 10000 4.6 220 00:27 31.01.2020
3531 Clouds 8 1001 75 10000 4.1 220 23:57 30.01.2020
3532 Clouds 8 1001 75 10000 3.6 210 23:26 30.01.2020
3533 Clouds 8 1001 75 10000 5.7 250 22:57 30.01.2020
3534 Clouds 8 1001 75 10000 4.6 250 22:37 30.01.2020
3535 Clouds 8 1001 75 10000 4.6 250 22:18 30.01.2020
3536 Clouds 8 1001 70 10000 4.6 240 22:18 30.01.2020
3537 Clouds 8 1001 70 10000 4.6 240 21:57 30.01.2020
3538 Clouds 8 1000 70 10000 4.6 250 21:38 30.01.2020
3539 Clouds 8 1000 70 10000 4.6 250 21:38 30.01.2020
3540 Clouds 9 1000 70 10000 4.6 250 21:18 30.01.2020
3541 Clouds 9 1000 70 10000 5.1 250 20:41 30.01.2020
3542 Clouds 9 1000 70 10000 5.1 250 20:22 30.01.2020
3543 Clouds 9 1000 70 10000 5.1 250 20:22 30.01.2020
3544 Clouds 9 1000 70 10000 5.1 250 20:22 30.01.2020
3545 Clouds 9 999 70 10000 6.2 260 19:57 30.01.2020
3546 Clouds 9 999 76 10000 7.2 260 19:39 30.01.2020
3547 Clouds 9 999 76 10000 7.2 260 19:18 30.01.2020
3548 Clouds 10 997 71 10000 9.3 260 18:41 30.01.2020
3549 Clouds 10 997 71 10000 9.3 260 18:21 30.01.2020
3550 Clouds 10 996 71 10000 12.9 270 17:57 30.01.2020
3551 Clouds 10 996 71 10000 11.8 270 17:37 30.01.2020
3552 Clouds 10 996 71 10000 11.8 270 17:19 30.01.2020
3553 Clouds 10 995 76 10000 9.3 260 16:56 30.01.2020
3554 Clouds 11 995 76 10000 9.8 250 16:38 30.01.2020
3555 Clouds 11 995 76 10000 9.8 250 16:19 30.01.2020
3556 Clouds 12 994 71 10000 10.3 260 15:43 30.01.2020
3557 Clouds 12 994 76 10000 9.8 260 15:20 30.01.2020
3558 Clouds 12 994 81 10000 8.2 250 14:50 30.01.2020
3559 Clouds 12 994 81 10000 8.2 250 14:50 30.01.2020
3560 Clouds 12 994 81 10000 6.7 240 14:27 30.01.2020
3561 Clouds 12 994 81 10000 6.2 240 13:57 30.01.2020
3562 Clouds 12 995 87 10000 9.8 230 13:37 30.01.2020
3563 Clouds 12 995 87 10000 9.8 230 13:19 30.01.2020
3564 Clouds 12 995 87 10000 6.7 230 12:43 30.01.2020
3565 Clouds 11 995 87 10000 6.7 230 12:24 30.01.2020
3566 Clouds 11 995 87 10000 5.7 220 11:58 30.01.2020
3567 Clouds 11 995 81 10000 6.7 220 11:39 30.01.2020
3568 Clouds 11 995 81 10000 6.7 220 11:21 30.01.2020
3569 Clouds 10 995 87 10000 6.7 210 10:42 30.01.2020
3570 Clouds 10 995 87 10000 7.2 210 10:24 30.01.2020
3571 Clouds 10 996 87 10000 7.2 210 09:49 30.01.2020
3572 Clouds 10 997 87 10000 5.7 220 09:30 30.01.2020
3573 Clouds 9 997 93 10000 6.2 220 08:59 30.01.2020
3574 Clouds 9 997 87 10000 4.6 220 08:41 30.01.2020
3575 Clouds 9 997 87 10000 4.6 220 08:20 30.01.2020
3576 Clouds 9 997 87 10000 5.1 210 07:49 30.01.2020
3577 Clouds 9 998 87 10000 5.1 220 07:29 30.01.2020
3578 Clouds 9 999 81 10000 5.1 210 06:47 30.01.2020
3579 Clouds 8 999 87 10000 4.6 220 06:29 30.01.2020
3580 Clouds 8 999 81 10000 5.1 210 05:44 30.01.2020
3581 Clouds 8 1000 81 10000 5.1 210 05:22 30.01.2020
3582 Clouds 6 1002 75 10000 4.6 210 03:55 30.01.2020
3583 Clouds 7 1002 81 10000 4.1 210 03:36 30.01.2020
3584 Clouds 7 1003 81 10000 5.1 220 02:42 30.01.2020
3585 Clouds 8 1004 81 10000 6.2 240 00:43 30.01.2020
3586 Clouds 8 1004 81 10000 5.1 230 00:21 30.01.2020
3587 Clouds 8 1004 81 10000 5.1 230 23:46 29.01.2020
3588 Clouds 8 1004 81 10000 5.1 240 23:22 29.01.2020
3589 Clouds 8 1004 81 10000 4.6 240 22:57 29.01.2020
3590 Drizzle 8 1004 87 10000 5.1 230 22:39 29.01.2020
3591 Drizzle 8 1004 87 10000 5.1 230 22:19 29.01.2020
3592 Clouds 8 1004 87 10000 5.1 230 21:58 29.01.2020
3593 Drizzle 8 1004 87 10000 5.1 230 21:38 29.01.2020
3594 Drizzle 8 1004 87 10000 5.1 230 21:19 29.01.2020
3595 Drizzle 8 1004 87 10000 5.1 230 21:19 29.01.2020
3596 Drizzle 8 1004 87 10000 4.6 230 20:58 29.01.2020
3597 Drizzle 8 1004 87 10000 4.6 230 20:58 29.01.2020
3598 Drizzle 8 1004 93 10000 5.7 240 20:38 29.01.2020
3599 Drizzle 8 1004 93 10000 5.7 240 20:38 29.01.2020
3600 Drizzle 8 1004 93 10000 5.7 240 20:19 29.01.2020
3601 Drizzle 8 1003 87 10000 5.7 240 19:56 29.01.2020
3602 Clouds 8 1003 87 10000 5.7 240 19:37 29.01.2020
3603 Clouds 8 1003 87 10000 5.7 240 19:18 29.01.2020
3604 Drizzle 8 1003 93 10000 6.2 240 18:46 29.01.2020
3605 Drizzle 8 1003 93 10000 6.2 240 18:19 29.01.2020
3606 Drizzle 8 1003 93 10000 6.7 240 17:57 29.01.2020
3607 Drizzle 8 1003 87 8000 5.7 250 17:38 29.01.2020
3608 Drizzle 8 1003 87 8000 5.7 250 17:20 29.01.2020
3609 Drizzle 9 1003 87 5000 6.7 240 16:41 29.01.2020
3610 Drizzle 9 1003 87 5000 6.7 240 16:23 29.01.2020
3611 Clouds 9 1003 76 10000 7.2 240 15:55 29.01.2020
3612 Clouds 9 1003 76 10000 7.2 240 15:36 29.01.2020
3613 Clouds 9 1003 76 10000 7.2 240 15:18 29.01.2020
3614 Clouds 9 1004 75 10000 7.2 230 14:41 29.01.2020
3615 Clouds 9 1004 75 10000 7.2 230 14:20 29.01.2020
3616 Clouds 8 1004 81 10000 7.2 230 13:41 29.01.2020
3617 -273 0 0 0 0 0 13:23 29.01.2020
3618 Clouds 8 1005 81 10000 6.2 230 12:59 29.01.2020
3619 Clouds 7 1004 75 10000 5.7 230 12:39 29.01.2020
3620 Clouds 7 1004 75 10000 5.7 230 12:21 29.01.2020
3621 Clouds 6 1004 81 10000 6.7 230 11:58 29.01.2020
3622 Clouds 6 1004 81 10000 6.2 240 11:40 29.01.2020
3623 Clouds 6 1004 81 10000 6.2 240 11:20 29.01.2020
3624 Clouds 6 1004 80 10000 6.2 240 10:46 29.01.2020
3625 Clouds 5 1004 80 10000 6.2 240 10:22 29.01.2020
3626 Clouds 4 1004 80 10000 6.2 250 09:57 29.01.2020
3627 Clouds 4 1004 80 10000 6.2 250 09:39 29.01.2020
3628 Clouds 4 1004 80 10000 6.2 250 09:18 29.01.2020
3629 Clouds 4 1004 80 10000 5.7 240 08:41 29.01.2020
3630 Clouds 3 1004 86 10000 5.1 240 08:22 29.01.2020
3631 Clouds 4 1004 86 10000 5.1 240 07:45 29.01.2020
3632 Clouds 3 1003 86 10000 5.1 240 07:26 29.01.2020
3633 Clouds 3 1004 91 10000 5.1 240 06:56 29.01.2020
3634 Clouds 3 1003 93 10000 4.6 240 06:37 29.01.2020
3635 Clouds 3 1003 93 10000 4.6 240 06:19 29.01.2020
3636 Clouds 3 1003 93 10000 5.1 250 05:49 29.01.2020
3637 Clouds 3 1003 91 10000 5.7 250 05:30 29.01.2020
3638 Clouds 3 1002 88 10000 4.6 250 04:38 29.01.2020
3639 Clouds 3 1002 88 10000 5.1 240 03:58 29.01.2020
3640 Clouds 2 1001 88 10000 6.2 250 02:33 29.01.2020
3641 Clouds 2 1000 86 10000 5.7 240 00:57 29.01.2020
3642 Clouds 3 1000 86 10000 5.1 250 00:36 29.01.2020
3643 Clouds 3 1000 86 10000 5.1 250 00:18 29.01.2020
3644 Clouds 3 999 86 10000 6.2 250 23:38 28.01.2020
3645 Clouds 3 999 85 10000 6.2 250 23:19 28.01.2020
3646 Clouds 3 999 85 10000 6.7 250 22:46 28.01.2020
3647 Clouds 3 999 85 10000 7.2 250 22:27 28.01.2020
3648 Clouds 3 998 86 10000 7.2 250 21:54 28.01.2020
3649 Clouds 3 998 86 10000 7.2 250 21:36 28.01.2020
3650 Clouds 3 998 86 10000 7.2 250 21:18 28.01.2020
3651 Clouds 3 998 86 10000 7.2 260 20:45 28.01.2020
3652 Clouds 3 998 86 10000 6.7 250 20:25 28.01.2020
3653 Clouds 4 997 80 10000 8.2 260 19:55 28.01.2020
3654 Clouds 4 997 80 10000 8.7 260 19:37 28.01.2020
3655 Clouds 4 997 80 10000 8.7 260 19:18 28.01.2020
3656 Clouds 4 997 80 10000 8.7 260 19:18 28.01.2020
3657 Clouds 4 996 80 10000 9.3 260 18:41 28.01.2020
3658 Clouds 4 996 80 10000 8.2 260 18:23 28.01.2020
3659 Clouds 4 995 75 10000 4.6 250 17:59 28.01.2020
3660 Clouds 4 995 75 10000 5.1 250 17:39 28.01.2020
3661 Clouds 4 995 75 10000 5.1 250 17:21 28.01.2020
3662 Clouds 4 994 75 10000 7.2 270 16:56 28.01.2020
3663 Rain 5 994 75 10000 7.7 260 16:37 28.01.2020
3664 Rain 5 994 75 10000 7.7 260 16:19 28.01.2020
3665 Clouds 5 993 75 10000 7.7 260 15:44 28.01.2020
3666 Clouds 5 993 75 10000 7.7 260 15:19 28.01.2020
3667 Clouds 5 993 70 10000 7.2 260 14:57 28.01.2020
3668 Clouds 5 992 80 10000 6.2 260 14:38 28.01.2020
3669 Clouds 5 993 70 10000 7.2 260 14:38 28.01.2020
3670 Clouds 5 992 80 10000 6.2 260 14:38 28.01.2020
3671 Clouds 5 992 80 10000 6.2 260 14:18 28.01.2020
3672 Clouds 4 991 80 10000 8.2 250 13:40 28.01.2020
3673 Clouds 4 991 80 10000 8.2 250 13:22 28.01.2020
3674 Clouds 4 991 80 10000 7.2 250 12:43 28.01.2020
3675 Rain 4 991 86 9000 7.2 250 12:24 28.01.2020
3676 Clouds 3 990 86 10000 6.2 250 11:55 28.01.2020
3677 Clouds 3 990 91 10000 8.2 240 11:37 28.01.2020
3678 Clouds 3 990 91 10000 8.2 240 11:19 28.01.2020
3679 Clouds 2 989 91 10000 7.2 240 10:41 28.01.2020
3680 Clouds 2 989 91 10000 7.2 240 10:22 28.01.2020
3681 Clouds 2 989 91 10000 6.2 240 09:55 28.01.2020
3682 Clouds 2 989 80 10000 6.7 240 09:37 28.01.2020
3683 Clouds 2 989 80 10000 6.7 240 09:18 28.01.2020
3684 Rain 2 989 80 10000 7.2 240 08:41 28.01.2020
3685 Clouds 2 989 80 10000 6.2 240 08:20 28.01.2020
3686 Clouds 2 989 86 10000 5.7 240 07:38 28.01.2020
3687 Clouds 2 989 85 10000 5.7 250 06:51 28.01.2020
3688 Clouds 1 989 86 10000 6.2 240 06:28 28.01.2020
3689 Clouds 1 989 86 10000 6.2 240 06:28 28.01.2020
3690 Clouds 1 989 86 10000 6.2 240 05:55 28.01.2020
3691 Clouds 1 989 86 10000 5.7 240 05:33 28.01.2020
3692 Clouds 1 988 86 10000 6.2 250 04:38 28.01.2020
3693 Clouds 1 988 86 10000 6.2 250 03:33 28.01.2020
3694 Clouds 1 987 86 10000 7.2 260 02:25 28.01.2020
3695 Clouds 1 987 86 10000 7.2 260 02:25 28.01.2020
3696 Clouds 1 987 86 10000 7.2 260 02:25 28.01.2020
3697 Clouds 1 987 86 10000 7.2 250 01:57 28.01.2020
3698 Clouds 2 986 88 10000 7.2 260 01:32 28.01.2020
3699 Clouds 2 986 88 10000 7.7 260 00:51 28.01.2020
3700 Clouds 2 986 88 10000 7.2 260 00:29 28.01.2020
3701 Clouds 3 986 88 10000 8.2 270 23:51 27.01.2020
3702 Clouds 3 985 88 10000 8.2 260 23:30 27.01.2020
3703 Clouds 3 985 96 10000 6.2 250 22:59 27.01.2020
3704 Clouds 3 986 96 10000 4.6 240 22:40 27.01.2020
3705 Clouds 3 986 96 10000 4.6 240 22:19 27.01.2020
3706 Clouds 3 986 80 10000 4.6 230 21:55 27.01.2020
3707 Clouds 3 986 80 10000 4.6 240 21:37 27.01.2020
3708 Clouds 3 986 80 10000 4.6 240 21:18 27.01.2020
3709 Clouds 4 986 75 10000 5.1 210 20:43 27.01.2020
3710 Clouds 4 986 75 10000 5.1 210 20:22 27.01.2020
3711 Clouds 4 986 75 10000 4.6 210 19:59 27.01.2020
3712 Clouds 4 986 80 10000 5.1 210 19:40 27.01.2020
3713 Clouds 4 986 80 10000 5.1 210 19:22 27.01.2020
3714 Clouds 4 987 75 10000 5.7 200 18:56 27.01.2020
3715 Clouds 4 987 75 10000 4.1 190 18:37 27.01.2020
3716 Clouds 4 987 75 10000 4.1 190 18:37 27.01.2020
3717 Clouds 4 987 75 10000 4.1 190 18:19 27.01.2020
3718 Clouds 5 989 70 10000 4.6 200 17:39 27.01.2020
3719 Clouds 5 989 70 10000 4.6 200 17:39 27.01.2020
3720 Clouds 5 989 70 10000 4.6 200 17:20 27.01.2020
3721 -273 0 0 0 0 0 16:59 27.01.2020
3722 Clouds 6 990 70 10000 5.7 210 16:40 27.01.2020
3723 Clouds 6 990 70 10000 5.7 210 16:22 27.01.2020
3724 Clouds 6 990 74 10000 4.6 200 15:55 27.01.2020
3725 Clouds 6 991 56 10000 4.6 190 15:36 27.01.2020
3726 Clouds 6 991 60 10000 5.1 200 15:18 27.01.2020
3727 Clouds 6 992 60 10000 5.1 210 14:41 27.01.2020
3728 Clouds 6 992 60 10000 5.1 210 14:22 27.01.2020
3729 Clouds 6 992 60 10000 5.1 220 13:55 27.01.2020
3730 Clouds 6 993 60 10000 4.6 220 13:37 27.01.2020
3731 Clouds 6 993 65 10000 5.1 220 13:18 27.01.2020
3732 Clouds 5 993 65 10000 5.1 230 12:43 27.01.2020
3733 Clouds 5 993 65 10000 5.1 230 12:23 27.01.2020
3734 Clouds 5 994 65 10000 5.1 220 11:58 27.01.2020
3735 Clouds 4 994 69 10000 5.1 230 11:40 27.01.2020
3736 Clouds 4 994 69 10000 5.1 220 11:19 27.01.2020
3737 Clouds 3 994 74 10000 5.1 220 10:42 27.01.2020
3738 Clouds 3 994 74 10000 5.1 220 10:24 27.01.2020
3739 Clouds 3 995 64 10000 5.1 220 09:40 27.01.2020
3740 Clouds 4 995 64 10000 5.1 220 09:19 27.01.2020
3741 Clouds 3 995 69 10000 5.7 220 08:59 27.01.2020
3742 Clouds 3 995 74 10000 5.1 220 08:40 27.01.2020
3743 Clouds 3 995 74 10000 5.1 220 08:19 27.01.2020
3744 Clouds 3 995 74 10000 5.7 220 07:52 27.01.2020
3745 Clouds 3 995 74 10000 5.1 230 07:33 27.01.2020
3746 Clouds 3 995 85 10000 4.6 230 06:49 27.01.2020
3747 Clouds 3 995 85 10000 6.2 230 05:59 27.01.2020
3748 Clouds 4 995 87 10000 5.7 240 05:18 27.01.2020
3749 Clouds 5 995 80 10000 7.2 230 03:37 27.01.2020
3750 Clouds 5 996 80 10000 6.7 220 02:27 27.01.2020
3751 Clouds 5 996 80 10000 5.7 220 01:29 27.01.2020
3752 Clouds 4 996 86 10000 5.1 210 00:42 27.01.2020
3753 Clouds 4 996 86 10000 5.1 210 00:22 27.01.2020
3754 Clouds 5 997 80 10000 5.7 220 23:58 26.01.2020
3755 Clouds 5 997 80 10000 5.7 220 23:39 26.01.2020
3756 Clouds 5 998 75 10000 5.1 190 23:18 26.01.2020
3757 Clouds 5 998 65 10000 6.7 150 22:39 26.01.2020
3758 Clouds 5 998 65 10000 6.7 150 22:20 26.01.2020
3759 Clouds 5 998 65 10000 6.7 180 21:58 26.01.2020
3760 Clouds 5 999 69 10000 3.6 170 21:40 26.01.2020
3761 Clouds 4 999 69 10000 3.6 170 21:21 26.01.2020
3762 Clouds 4 1000 69 10000 3.6 170 20:58 26.01.2020
3763 Clouds 4 1000 69 10000 3.6 170 20:39 26.01.2020
3764 Clouds 3 1000 74 10000 3.1 170 20:19 26.01.2020
3765 Clouds 3 1000 74 10000 2.6 130 19:59 26.01.2020
3766 Clouds 3 1000 74 10000 2.6 130 19:59 26.01.2020
3767 Clouds 3 1000 74 10000 2.6 130 19:59 26.01.2020
3768 Clouds 3 1001 86 10000 3.6 170 19:39 26.01.2020
3769 Clouds 3 1001 86 10000 3.6 170 19:21 26.01.2020
3770 Clouds 3 1001 86 10000 2.6 190 18:56 26.01.2020
3771 Clouds 3 1002 86 10000 2.1 200 18:38 26.01.2020
3772 Clouds 3 1002 86 10000 2.1 200 18:20 26.01.2020
3773 Clouds 4 1002 69 10000 2.1 240 17:55 26.01.2020
3774 Clouds 5 1002 86 10000 3.6 240 17:37 26.01.2020
3775 Clouds 5 1002 75 10000 3.6 240 17:18 26.01.2020
3776 Clouds 5 1002 75 10000 3.6 240 16:56 26.01.2020
3777 Clouds 5 1002 70 10000 3.6 250 16:38 26.01.2020
3778 Clouds 6 1002 70 10000 3.6 250 16:18 26.01.2020
3779 Clouds 6 1003 85 0 3.06 241 15:43 26.01.2020
3780 Clouds 6 1004 85 0 0.89 280 15:21 26.01.2020
3781 Clouds 5 1003 79 0 0.89 277 14:58 26.01.2020
3782 Clouds 5 1004 86 0 0.45 276 14:38 26.01.2020
3783 Rain 5 1004 78 0 0.45 280 14:19 26.01.2020
3784 Rain 5 1004 76 0 1.79 176 13:40 26.01.2020
3785 Rain 6 1004 88 0 0.45 181 13:19 26.01.2020
3786 Clouds 6 1003 72 0 2.68 286 12:56 26.01.2020
3787 Clouds 7 1003 81 0 2.24 219 12:36 26.01.2020
3788 Clouds 7 1003 84 0 0.45 269 12:18 26.01.2020
3789 Clouds 7 1003 80 0 0.89 318 11:56 26.01.2020
3790 Clouds 7 1003 87 0 0.45 249 11:36 26.01.2020
3791 Clouds 7 1001 87 10000 4.1 250 11:18 26.01.2020
3792 Clouds 6 1001 87 10000 4.1 250 10:39 26.01.2020
3793 Clouds 6 1001 87 10000 4.1 250 10:21 26.01.2020
3794 Clouds 6 1000 87 10000 5.7 270 09:59 26.01.2020
3795 Rain 6 1000 87 10000 8.2 270 09:41 26.01.2020
3796 Rain 6 1000 87 10000 8.2 270 09:23 26.01.2020
3797 Rain 8 1000 87 10000 4.1 240 08:57 26.01.2020
3798 Rain 8 1000 87 10000 4.1 240 08:57 26.01.2020
3799 Rain 8 999 93 9000 7.2 240 08:38 26.01.2020
3800 Rain 8 999 93 9000 7.2 240 08:20 26.01.2020
3801 Rain 9 999 87 10000 4.6 200 07:45 26.01.2020
3802 Rain 9 999 87 10000 3.6 200 07:22 26.01.2020
3803 Rain 9 1000 87 10000 6.7 200 06:34 26.01.2020
3804 Clouds 9 1001 81 10000 4.6 200 05:52 26.01.2020
3805 Clouds 9 1001 81 10000 6.7 190 05:22 26.01.2020
3806 Clouds 9 1003 70 10000 5.1 160 03:23 26.01.2020
3807 Clouds 8 1004 75 10000 4.6 180 02:23 26.01.2020
3808 Clouds 8 1005 75 10000 5.7 170 01:40 26.01.2020
3809 Clouds 8 1005 75 10000 5.7 170 01:20 26.01.2020
3810 Clouds 8 1005 70 10000 5.7 170 00:40 26.01.2020
3811 Clouds 8 1005 70 10000 5.7 170 00:20 26.01.2020
3812 Clouds 8 1007 71 0 1.79 173 23:38 25.01.2020
3813 Clouds 8 1007 70 0 2.24 165 23:20 25.01.2020
3814 Clouds 8 1008 67 0 1.79 176 22:43 25.01.2020
3815 Clouds 8 1008 67 0 1.34 203 22:20 25.01.2020
3816 Clouds 8 1008 67 0 0.45 103 21:59 25.01.2020
3817 Clouds 8 1008 70 0 5.36 180 21:41 25.01.2020
3818 Clouds 7 1007 82 0 5.08 186 21:22 25.01.2020
3819 Clouds 8 1009 69 0 0.45 249 20:54 25.01.2020
3820 Clouds 7 1009 70 0 0.89 134 20:36 25.01.2020
3821 Clouds 7 1009 82 0 4.43 185 20:18 25.01.2020
3822 Clouds 7 1010 82 0 0.45 98 19:41 25.01.2020
3823 Clouds 8 1010 80 0 1.34 97 19:19 25.01.2020
3824 Clouds 8 1010 74 0 4.43 185 18:56 25.01.2020
3825 Clouds 7 1010 82 0 0.45 98 18:37 25.01.2020
3826 Clouds 7 1010 82 0 4.43 185 18:19 25.01.2020
3827 Clouds 8 1010 79 0 0.45 87 17:39 25.01.2020
3828 Clouds 8 1010 79 0 0.89 108 17:19 25.01.2020
3829 Clouds 8 1010 71 0 1.34 172 16:56 25.01.2020
3830 Clouds 8 1010 78 0 0.89 169 16:38 25.01.2020
3831 Clouds 8 1011 77 0 0.89 177 16:19 25.01.2020
3832 Clouds 8 1011 70 0 1.79 197 15:46 25.01.2020
3833 Clouds 8 1011 70 0 2.68 204 15:25 25.01.2020
3834 Clouds 8 1012 70 0 2.24 181 14:57 25.01.2020
3835 Clouds 8 1012 69 0 1.34 128 14:39 25.01.2020
3836 Clouds 8 1013 77 0 0.45 195 14:18 25.01.2020
3837 Clouds 8 1013 77 0 0.89 231 13:40 25.01.2020
3838 Clouds 8 1014 79 0 0.89 208 13:22 25.01.2020
3839 Clouds 8 1013 81 10000 5.1 200 12:43 25.01.2020
3840 Clouds 8 1013 81 10000 5.1 200 12:43 25.01.2020
3841 Clouds 8 1013 81 10000 5.1 200 12:22 25.01.2020
3842 Clouds 8 1013 81 10000 5.1 200 11:45 25.01.2020
3843 Clouds 8 1013 81 10000 5.1 200 11:45 25.01.2020
3844 Clouds 7 1014 87 10000 4.6 200 11:21 25.01.2020
3845 Clouds 7 1014 81 10000 3.1 200 10:58 25.01.2020
3846 Clouds 7 1014 81 10000 1.5 0 10:40 25.01.2020
3847 Clouds 7 1014 81 10000 1.5 0 10:20 25.01.2020
3848 Clouds 7 1014 81 10000 1.5 0 10:20 25.01.2020
3849 Clouds 6 1014 87 10000 3.1 190 09:41 25.01.2020
3850 Clouds 6 1014 87 10000 4.6 210 09:22 25.01.2020
3851 Clouds 7 1014 81 10000 4.1 200 08:44 25.01.2020
3852 Clouds 7 1014 87 10000 4.6 210 08:21 25.01.2020
3853 Clouds 7 1014 87 10000 3.6 220 07:43 25.01.2020
3854 Clouds 7 1015 81 10000 3.6 220 06:51 25.01.2020
3855 Clouds 7 1015 81 10000 4.1 220 06:27 25.01.2020
3856 Clouds 6 1015 81 10000 4.1 210 05:45 25.01.2020
3857 Clouds 6 1015 87 10000 3.6 200 04:43 25.01.2020
3858 Clouds 5 1017 93 10000 3.6 200 03:51 25.01.2020
3859 Clouds 5 1017 93 10000 4.6 220 02:54 25.01.2020
3860 Clouds 5 1018 86 10000 3.6 230 01:59 25.01.2020
3861 Drizzle 5 1018 93 10000 3.1 210 01:37 25.01.2020
3862 Clouds 5 1019 87 10000 2.6 200 00:43 25.01.2020
3863 Clouds 5 1019 87 10000 2.1 210 00:24 25.01.2020
3864 Clouds 5 1019 87 10000 2.6 220 23:57 24.01.2020
3865 Clouds 5 1019 87 10000 2.6 220 23:38 24.01.2020
3866 Clouds 5 1019 87 10000 2.6 220 23:20 24.01.2020
3867 Clouds 5 1019 87 10000 2.1 230 22:42 24.01.2020
3868 Clouds 5 1019 87 10000 2.1 220 22:24 24.01.2020
3869 Clouds 6 1020 87 10000 3.1 210 21:43 24.01.2020
3870 Clouds 6 1020 87 10000 3.1 210 21:20 24.01.2020
3871 Clouds 6 1020 87 10000 3.1 210 20:57 24.01.2020
3872 Clouds 6 1020 87 10000 3.6 200 20:38 24.01.2020
3873 Clouds 6 1020 87 10000 3.6 200 20:20 24.01.2020
3874 Clouds 6 1020 87 10000 3.1 210 19:56 24.01.2020
3875 Clouds 6 1020 87 10000 3.1 230 19:38 24.01.2020
3876 Clouds 6 1020 87 10000 3.1 230 19:20 24.01.2020
3877 Clouds 6 1020 87 10000 3.6 200 18:43 24.01.2020
3878 Clouds 6 1020 87 10000 3.6 200 18:23 24.01.2020
3879 Clouds 6 1020 93 10000 3.6 220 17:46 24.01.2020
3880 Clouds 6 1020 93 10000 2.6 230 17:23 24.01.2020
3881 Clouds 6 1020 93 10000 3.1 240 16:59 24.01.2020
3882 Clouds 6 1021 93 10000 3.1 240 16:39 24.01.2020
3883 Clouds 6 1021 93 10000 3.1 240 16:20 24.01.2020
3884 Clouds 7 1021 93 10000 3.1 250 15:43 24.01.2020
3885 Clouds 6 1021 93 10000 3.6 240 15:22 24.01.2020
3886 Clouds 6 1021 93 10000 3.6 240 15:22 24.01.2020
3887 Clouds 7 1022 87 10000 3.6 250 14:57 24.01.2020
3888 Clouds 6 1022 93 10000 4.1 260 14:38 24.01.2020
3889 Clouds 6 1022 93 10000 4.1 260 14:20 24.01.2020
3890 Clouds 7 1022 87 10000 4.6 260 13:42 24.01.2020
3891 Clouds 6 1023 93 10000 5.7 270 13:23 24.01.2020
3892 Clouds 6 1023 93 10000 5.1 270 12:44 24.01.2020
3893 Clouds 6 1023 93 10000 4.6 270 12:22 24.01.2020
3894 Clouds 6 1023 93 10000 4.1 250 11:45 24.01.2020
3895 Clouds 6 1023 93 10000 3.6 260 11:20 24.01.2020
3896 Clouds 6 1023 93 10000 5.1 270 10:59 24.01.2020
3897 Rain 6 1023 93 9000 3.1 260 10:41 24.01.2020
3898 Rain 6 1023 93 9000 3.1 260 10:19 24.01.2020
3899 Clouds 5 1023 93 10000 3.6 260 09:42 24.01.2020
3900 Clouds 5 1023 93 10000 3.6 260 09:42 24.01.2020
3901 Clouds 5 1023 93 10000 3.6 260 09:24 24.01.2020
3902 Clouds 5 1023 100 10000 6.2 280 08:59 24.01.2020
3903 Drizzle 5 1023 100 10000 4.6 270 08:36 24.01.2020
3904 Drizzle 5 1023 100 10000 4.6 270 08:18 24.01.2020
3905 Clouds 5 1023 93 7000 3.1 250 07:42 24.01.2020
3906 Clouds 5 1023 93 7000 3.1 250 07:21 24.01.2020
3907 Clouds 5 1023 93 6000 3.6 250 06:43 24.01.2020
3908 Clouds 5 1023 93 6000 3.6 250 06:43 24.01.2020
3909 Clouds 5 1023 93 6000 3.6 250 06:23 24.01.2020
3910 Mist 6 1023 100 4500 3.1 230 05:21 24.01.2020
3911 Mist 6 1025 100 1800 2.1 250 03:29 24.01.2020
3912 Mist 6 1026 100 1700 2.6 260 02:39 24.01.2020
3913 Mist 6 1026 100 1700 2.6 260 02:19 24.01.2020
3914 Mist 6 1026 93 1300 2.6 250 01:38 24.01.2020
3915 Mist 6 1027 100 1500 1.5 0 00:40 24.01.2020
3916 Mist 6 1027 100 1500 1.5 0 00:18 24.01.2020
3917 Drizzle 7 1027 100 2200 2.6 270 23:41 23.01.2020
3918 Drizzle 7 1027 100 2200 2.6 270 23:21 23.01.2020
3919 Mist 7 1027 100 2800 2.6 270 22:58 23.01.2020
3920 Mist 7 1027 100 2800 1.5 0 22:36 23.01.2020
3921 Mist 7 1027 100 2800 1.5 0 22:18 23.01.2020
3922 Mist 7 1027 100 2800 2.1 280 21:55 23.01.2020
3923 Mist 7 1028 100 3500 2.6 300 21:37 23.01.2020
3924 Mist 7 1028 100 3500 2.6 300 21:18 23.01.2020
3925 Mist 7 1028 100 4000 3.1 320 20:41 23.01.2020
3926 Mist 7 1028 100 4500 2.1 340 20:22 23.01.2020
3927 Mist 7 1027 100 4500 1.5 170 19:57 23.01.2020
3928 Mist 7 1028 100 4500 1.5 0 19:39 23.01.2020
3929 Mist 8 1028 100 4500 1.5 0 19:21 23.01.2020
3930 Mist 8 1028 100 4500 2.1 180 18:56 23.01.2020
3931 Mist 8 1028 93 4500 1.5 160 18:37 23.01.2020
3932 Clouds 8 1029 93 6000 1.5 130 18:19 23.01.2020
3933 Mist 8 1028 93 4500 1.5 160 18:19 23.01.2020
3934 Clouds 8 1029 93 6000 1.5 130 17:44 23.01.2020
3935 Clouds 8 1029 93 6000 2.1 120 17:21 23.01.2020
3936 Clouds 9 1029 87 10000 1.5 0 16:58 23.01.2020
3937 Clouds 8 1029 93 10000 2.6 340 16:38 23.01.2020
3938 Clouds 8 1029 93 10000 2.6 340 16:19 23.01.2020
3939 Clouds 9 1029 87 10000 1.5 0 15:57 23.01.2020
3940 Clouds 9 1030 93 10000 0.5 0 15:38 23.01.2020
3941 Clouds 9 1030 93 10000 0.5 0 15:38 23.01.2020
3942 Clouds 9 1030 93 10000 0.5 0 15:19 23.01.2020
3943 Clouds 9 1030 93 10000 2.1 320 14:57 23.01.2020
3944 Clouds 9 1031 100 9000 3.1 330 14:39 23.01.2020
3945 Clouds 9 1031 100 9000 3.1 330 14:21 23.01.2020
3946 Clouds 9 1031 100 8000 2.6 310 13:46 23.01.2020
3947 Mist 8 1031 100 4500 2.6 290 13:21 23.01.2020
3948 Mist 8 1032 100 3500 2.1 270 12:56 23.01.2020
3949 Mist 8 1032 100 3500 2.1 270 12:56 23.01.2020
3950 Mist 8 1032 100 3500 2.1 270 12:56 23.01.2020
3951 Mist 8 1032 100 3000 2.1 270 12:38 23.01.2020
3952 Mist 8 1032 100 3000 2.1 270 12:20 23.01.2020
3953 Mist 7 1032 100 2500 1.5 0 11:43 23.01.2020
3954 Fog 7 1033 100 800 1.5 0 11:25 23.01.2020
3955 Fog 6 1033 100 400 3.6 280 10:59 23.01.2020
3956 Fog 6 1033 100 300 4.6 280 10:40 23.01.2020
3957 Fog 6 1033 100 300 4.6 280 10:19 23.01.2020
3958 Fog 6 1033 100 400 2.6 270 09:41 23.01.2020
3959 Fog 6 1033 100 400 2.6 270 09:22 23.01.2020
3960 Fog 6 1033 100 400 3.6 270 08:56 23.01.2020
3961 Fog 6 1033 100 500 2.6 270 08:38 23.01.2020
3962 Fog 6 1033 100 500 2.6 270 08:19 23.01.2020
3963 Fog 6 1033 100 600 3.6 280 07:39 23.01.2020
3964 Fog 6 1033 100 600 3.6 280 07:18 23.01.2020
3965 Mist 6 1033 100 1200 1.5 0 06:44 23.01.2020
3966 Mist 6 1033 100 4000 1 0 06:18 23.01.2020
3967 Fog 6 1035 100 300 2.1 300 04:25 23.01.2020
3968 Fog 6 1035 100 700 1 0 03:36 23.01.2020
3969 Clouds 7 1036 100 8000 1 0 01:55 23.01.2020
3970 Clouds 7 1036 100 8000 2.1 280 00:46 23.01.2020
3971 Clouds 7 1036 100 8000 1 0 00:24 23.01.2020
3972 Clouds 8 1036 100 8000 1 0 23:46 22.01.2020
3973 Clouds 8 1036 100 8000 1 0 23:28 22.01.2020
3974 Clouds 8 1036 100 8000 2.1 300 22:54 22.01.2020
3975 Clouds 8 1036 100 8000 2.1 300 22:36 22.01.2020
3976 Clouds 8 1036 100 8000 2.1 300 22:18 22.01.2020
3977 Clouds 8 1037 100 8000 2.1 290 21:38 22.01.2020
3978 Clouds 8 1037 100 8000 2.1 290 21:19 22.01.2020
3979 Clouds 8 1037 100 10000 2.1 290 20:55 22.01.2020
3980 Clouds 8 1037 100 10000 1 0 20:36 22.01.2020
3981 Clouds 8 1037 100 10000 1 0 20:18 22.01.2020
3982 Clouds 8 1038 100 10000 1.5 0 19:41 22.01.2020
3983 Clouds 8 1038 100 10000 1.5 0 19:21 22.01.2020
3984 Clouds 8 1038 100 10000 1.5 0 19:21 22.01.2020
3985 Clouds 9 1038 93 10000 2.1 330 18:59 22.01.2020
3986 Clouds 9 1037 93 10000 1 0 18:40 22.01.2020
3987 Clouds 9 1037 93 10000 1 0 18:21 22.01.2020
3988 Clouds 9 1037 87 10000 1.1 16 17:59 22.01.2020
3989 Clouds 10 1038 87 10000 2.1 100 17:39 22.01.2020
3990 Clouds 10 1038 87 10000 2.1 100 17:20 22.01.2020
3991 Clouds 10 1038 87 10000 2.1 100 17:20 22.01.2020
3992 Clouds 10 1038 87 10000 1 0 16:55 22.01.2020
3993 Clouds 10 1038 87 10000 1 0 16:55 22.01.2020
3994 Clouds 10 1038 87 10000 1 0 16:55 22.01.2020
3995 Clouds 10 1038 93 10000 1.5 0 16:37 22.01.2020
3996 Clouds 10 1038 93 10000 1.5 0 16:18 22.01.2020
3997 Clouds 10 1038 93 10000 1.5 0 15:42 22.01.2020
3998 Clouds 10 1038 93 10000 1.5 0 15:23 22.01.2020
3999 Clouds 10 1038 100 10000 2.6 280 14:59 22.01.2020
4000 Clouds 10 1038 100 10000 3.1 270 14:38 22.01.2020
4001 Clouds 9 1038 100 10000 3.1 270 14:19 22.01.2020
4002 Clouds 10 1039 93 10000 3.1 280 13:56 22.01.2020
4003 Clouds 9 1039 93 10000 3.1 280 13:56 22.01.2020
4004 Clouds 10 1039 93 10000 3.1 280 13:56 22.01.2020
4005 Clouds 9 1039 100 10000 4.1 280 13:37 22.01.2020
4006 Clouds 9 1039 100 10000 4.1 280 13:19 22.01.2020
4007 Clouds 9 1039 100 10000 3.6 270 12:56 22.01.2020
4008 Clouds 9 1039 100 10000 2.6 270 12:38 22.01.2020
4009 Clouds 8 1039 100 10000 2.6 270 12:18 22.01.2020
4010 Mist 8 1039 100 4000 2.6 270 11:56 22.01.2020
4011 Mist 8 1039 100 1800 2.1 260 11:38 22.01.2020
4012 Mist 8 1039 100 1800 2.1 260 11:19 22.01.2020
4013 Fog 8 1039 100 900 1.5 0 10:44 22.01.2020
4014 Fog 7 1039 100 700 1.5 0 10:21 22.01.2020
4015 Fog 7 1039 100 700 2.6 260 09:45 22.01.2020
4016 Fog 7 1039 100 900 3.1 270 09:26 22.01.2020
4017 Fog 7 1039 100 700 3.1 270 08:59 22.01.2020
4018 Fog 7 1039 100 700 3.1 270 08:40 22.01.2020
4019 Fog 7 1039 100 600 2.6 260 08:21 22.01.2020
4020 Fog 7 1039 100 600 3.1 270 07:59 22.01.2020
4021 Fog 7 1039 100 500 3.1 270 07:40 22.01.2020
4022 Fog 7 1039 100 500 3.1 270 07:21 22.01.2020
4023 Fog 8 1039 93 500 3.6 270 06:31 22.01.2020
4024 Fog 8 1039 100 600 2.6 250 05:42 22.01.2020
4025 Mist 8 1040 93 1200 3.1 260 04:23 22.01.2020
4026 Mist 8 1040 93 1200 2.6 260 03:26 22.01.2020
4027 Mist 8 1040 100 1500 4.1 270 02:32 22.01.2020
4028 Mist 8 1041 100 4000 3.6 270 00:46 22.01.2020
4029 Mist 8 1041 100 4000 3.6 270 00:27 22.01.2020
4030 Mist 8 1041 100 4000 3.1 250 23:55 21.01.2020
4031 Clouds 8 1041 93 7000 2.6 250 23:36 21.01.2020
4032 Clouds 8 1041 93 7000 2.6 250 23:18 21.01.2020
4033 Clouds 8 1040 100 7000 4.1 270 22:39 21.01.2020
4034 Clouds 8 1040 100 7000 4.1 270 22:20 21.01.2020
4035 Clouds 8 1040 100 7000 4.1 270 22:20 21.01.2020
4036 Drizzle 7 1041 93 5000 3.1 260 21:56 21.01.2020
4037 Clouds 8 1041 93 7000 3.1 250 21:38 21.01.2020
4038 Clouds 7 1041 93 7000 3.1 250 21:19 21.01.2020
4039 Drizzle 7 1041 93 8000 3.1 250 20:56 21.01.2020
4040 Clouds 7 1041 93 10000 3.1 260 20:37 21.01.2020
4041 Clouds 7 1041 93 10000 3.1 260 20:18 21.01.2020
4042 Clouds 7 1041 100 10000 3.6 250 19:56 21.01.2020
4043 Clouds 7 1040 100 10000 3.1 240 19:37 21.01.2020
4044 Clouds 7 1040 100 10000 3.1 240 19:37 21.01.2020
4045 Clouds 7 1040 100 10000 3.1 240 19:19 21.01.2020
4046 Clouds 7 1040 93 10000 2.6 240 18:55 21.01.2020
4047 Clouds 7 1041 93 10000 3.1 250 18:36 21.01.2020
4048 Clouds 7 1041 93 10000 3.1 250 18:18 21.01.2020
4049 Clouds 7 1040 93 10000 3.1 250 17:43 21.01.2020
4050 Clouds 7 1040 93 10000 2.6 240 17:20 21.01.2020
4051 Clouds 8 1041 93 10000 3.6 260 16:58 21.01.2020
4052 Clouds 8 1041 93 10000 4.1 260 16:37 21.01.2020
4053 Clouds 8 1041 93 10000 4.1 260 16:18 21.01.2020
4054 Clouds 8 1041 93 10000 4.1 260 15:41 21.01.2020
4055 Clouds 8 1041 93 10000 4.1 260 15:21 21.01.2020
4056 Clouds 8 1041 93 10000 5.1 270 14:58 21.01.2020
4057 Clouds 8 1042 93 10000 4.1 260 14:37 21.01.2020
4058 Clouds 8 1042 93 10000 4.1 260 14:19 21.01.2020
4059 Rain 8 1042 100 8000 3.1 250 13:39 21.01.2020
4060 Rain 8 1042 100 8000 3.1 250 13:19 21.01.2020
4061 Rain 7 1042 93 8000 3.1 250 12:43 21.01.2020
4062 Clouds 7 1042 100 8000 3.1 250 12:25 21.01.2020
4063 Drizzle 8 1042 93 8000 3.1 250 11:57 21.01.2020
4064 Drizzle 7 1042 100 6000 3.1 250 11:38 21.01.2020
4065 Drizzle 7 1042 100 6000 3.1 250 11:19 21.01.2020
4066 Clouds 7 1042 100 7000 3.1 250 10:44 21.01.2020
4067 Rain 6 1042 100 8000 3.6 250 10:23 21.01.2020
4068 Drizzle 6 1042 93 7000 2.6 250 09:59 21.01.2020
4069 Drizzle 6 1042 93 8000 3.1 250 09:40 21.01.2020
4070 Drizzle 6 1042 93 8000 3.1 250 09:21 21.01.2020
4071 Drizzle 6 1042 93 10000 3.1 250 08:47 21.01.2020
4072 Drizzle 6 1042 93 10000 3.1 250 08:27 21.01.2020
4073 Clouds 6 1042 87 10000 4.1 260 07:56 21.01.2020
4074 Clouds 6 1042 87 10000 5.1 260 07:37 21.01.2020
4075 Clouds 6 1042 87 10000 5.1 260 07:19 21.01.2020
4076 Clouds 6 1042 87 10000 4.6 260 06:44 21.01.2020
4077 Clouds 6 1042 87 10000 4.1 260 06:23 21.01.2020
4078 Clouds 7 1042 75 10000 3.1 260 05:41 21.01.2020
4079 Clouds 6 1042 75 10000 3.1 250 04:39 21.01.2020
4080 Clouds 6 1042 75 10000 3.1 250 04:39 21.01.2020
4081 Clouds 7 1043 75 10000 3.6 250 02:34 21.01.2020
4082 Clouds 6 1044 75 10000 3.1 240 01:47 21.01.2020
4083 Clouds 6 1044 75 10000 2.6 230 00:52 21.01.2020
4084 Clouds 6 1044 75 10000 2.6 250 00:29 21.01.2020
4085 Clouds 6 1044 75 10000 3.1 240 23:57 20.01.2020
4086 Clouds 6 1045 75 10000 3.6 250 23:36 20.01.2020
4087 Clouds 6 1045 75 10000 3.6 250 23:36 20.01.2020
4088 Clouds 5 1045 75 10000 3.6 250 23:18 20.01.2020
4089 Clouds 5 1045 75 10000 3.6 250 22:55 20.01.2020
4090 Clouds 5 1045 81 10000 2.6 240 22:36 20.01.2020
4091 Clouds 5 1045 81 10000 2.6 240 22:18 20.01.2020
4092 Clouds 5 1045 81 10000 3.1 230 21:55 20.01.2020
4093 Clouds 5 1045 81 10000 4.1 250 21:36 20.01.2020
4094 Clouds 5 1045 81 10000 4.1 250 21:18 20.01.2020
4095 Clouds 5 1045 80 10000 4.6 250 20:43 20.01.2020
4096 Clouds 4 1045 80 10000 4.6 250 20:20 20.01.2020
4097 Clouds 4 1045 80 10000 4.1 260 19:59 20.01.2020
4098 Clouds 4 1045 80 10000 4.1 260 19:59 20.01.2020
4099 Clouds 5 1045 75 10000 3.1 250 19:41 20.01.2020
4100 Clouds 5 1045 75 10000 3.1 250 19:19 20.01.2020
4101 Clouds 4 1045 80 10000 3.1 240 18:56 20.01.2020
4102 Clouds 4 1045 80 10000 2.6 240 18:38 20.01.2020
4103 Clouds 4 1045 80 10000 2.6 240 18:19 20.01.2020
4104 Clouds 4 1045 80 10000 2.6 240 18:19 20.01.2020
4105 Clouds 6 1045 70 10000 3.1 240 17:39 20.01.2020
4106 Clouds 6 1045 70 10000 3.1 240 17:19 20.01.2020
4107 Clouds 7 1045 70 10000 4.6 250 16:47 20.01.2020
4108 Clouds 7 1045 70 10000 3.6 240 16:47 20.01.2020
4109 Clouds 7 1045 70 10000 3.6 240 16:26 20.01.2020
4110 Clouds 7 1045 70 10000 3.6 240 15:59 20.01.2020
4111 Clouds 8 1046 70 10000 3.1 230 15:40 20.01.2020
4112 Clouds 8 1046 70 10000 3.1 230 15:22 20.01.2020
4113 Clouds 8 1046 70 10000 3.6 220 14:58 20.01.2020
4114 Clouds 8 1046 70 10000 4.1 220 14:39 20.01.2020
4115 Clouds 8 1046 70 10000 4.1 220 14:20 20.01.2020
4116 Clouds 8 1046 70 10000 4.1 200 13:44 20.01.2020
4117 Clouds 8 1046 70 10000 4.1 200 13:24 20.01.2020
4118 Clouds 7 1047 75 10000 4.1 210 12:58 20.01.2020
4119 Clouds 6 1047 81 10000 3.1 190 12:40 20.01.2020
4120 Clouds 6 1047 81 10000 3.1 190 12:21 20.01.2020
4121 Clouds 5 1047 80 10000 2.6 180 11:55 20.01.2020
4122 Clouds 5 1046 86 10000 2.6 200 11:36 20.01.2020
4123 Clouds 4 1046 86 10000 2.6 200 11:18 20.01.2020
4124 Clouds 3 1046 86 10000 2.1 210 10:41 20.01.2020
4125 Clouds 3 1046 86 10000 2.1 210 10:20 20.01.2020
4126 Clouds 4 1046 86 10000 2.6 220 09:41 20.01.2020
4127 Clouds 3 1046 86 10000 2.6 220 09:22 20.01.2020
4128 Clouds 3 1046 86 10000 2.6 210 08:54 20.01.2020
4129 Clouds 3 1046 86 10000 3.1 230 08:31 20.01.2020
4130 Clouds 3 1046 86 10000 3.6 230 07:55 20.01.2020
4131 Clouds 3 1046 86 10000 2.6 220 07:36 20.01.2020
4132 Clouds 3 1046 86 10000 2.6 220 07:18 20.01.2020
4133 Clouds 3 1046 86 10000 2.6 210 06:36 20.01.2020
4134 Clouds 3 1046 80 10000 3.1 230 05:56 20.01.2020
4135 Clouds 3 1046 86 10000 3.1 210 05:37 20.01.2020
4136 Clouds 3 1046 86 10000 3.1 210 05:18 20.01.2020
4137 Clouds 3 1046 86 10000 2.6 220 03:47 20.01.2020
4138 Clouds 4 1046 80 10000 3.6 230 01:58 20.01.2020
4139 Clouds 4 1046 80 10000 2.6 220 01:39 20.01.2020
4140 Clouds 4 1046 75 10000 3.6 230 00:55 20.01.2020
4141 Clouds 3 1046 80 10000 3.6 220 00:28 20.01.2020
4142 Clouds 4 1047 75 10000 3.6 230 23:56 19.01.2020
4143 Clouds 4 1046 75 10000 3.1 210 23:37 19.01.2020
4144 Clouds 4 1046 75 10000 3.1 210 23:18 19.01.2020
4145 Clouds 4 1046 75 10000 3.1 210 23:18 19.01.2020
4146 Clouds 4 1046 75 10000 3.1 230 22:55 19.01.2020
4147 Clouds 4 1046 80 10000 2.6 200 22:36 19.01.2020
4148 Clouds 4 1046 80 10000 2.6 200 22:18 19.01.2020
4149 Clouds 3 1046 80 10000 2.1 210 21:55 19.01.2020
4150 Clouds 3 1046 80 10000 2.1 210 21:55 19.01.2020
4151 Clouds 3 1047 80 10000 2.1 220 21:37 19.01.2020
4152 Clouds 3 1047 80 10000 2.1 220 21:18 19.01.2020
4153 Clouds 3 1047 86 10000 2.6 210 20:55 19.01.2020
4154 Clouds 3 1046 86 10000 3.1 210 20:37 19.01.2020
4155 Clouds 3 1046 86 10000 3.1 210 20:18 19.01.2020
4156 Clouds 3 1046 86 10000 3.1 210 19:54 19.01.2020
4157 Clouds 3 1046 87 10000 2.6 220 19:36 19.01.2020
4158 Clouds 3 1046 87 10000 2.6 220 19:18 19.01.2020
4159 Clouds 3 1046 87 10000 2.6 220 18:55 19.01.2020
4160 Clouds 3 1046 87 10000 2.6 210 18:36 19.01.2020
4161 Clouds 4 1046 87 10000 2.6 210 18:18 19.01.2020
4162 Clouds 5 1046 87 10000 2.6 200 17:56 19.01.2020
4163 Clouds 5 1046 87 10000 3.6 220 17:38 19.01.2020
4164 Clouds 5 1046 64 10000 3.6 220 17:18 19.01.2020
4165 Clouds 6 1045 64 10000 3.1 230 16:55 19.01.2020
4166 Clouds 6 1045 56 10000 5.1 220 16:36 19.01.2020
4167 Clouds 6 1045 56 10000 5.1 220 16:18 19.01.2020
4168 Clouds 8 1045 64 10000 3.1 220 15:54 19.01.2020
4169 Clouds 8 1045 52 10000 3.1 230 15:36 19.01.2020
4170 Clouds 8 1045 52 10000 3.1 230 15:18 19.01.2020
4171 Clouds 7 1045 56 10000 2.6 240 14:40 19.01.2020
4172 Clouds 7 1045 56 10000 3.1 220 14:20 19.01.2020
4173 Clouds 7 1045 60 10000 3.1 220 13:59 19.01.2020
4174 Clouds 7 1045 60 10000 3.1 220 13:40 19.01.2020
4175 Clouds 7 1045 56 10000 2.6 210 13:21 19.01.2020
4176 Clouds 5 1045 65 10000 2.6 210 12:59 19.01.2020
4177 Clouds 4 1045 64 10000 1 0 12:40 19.01.2020
4178 Clouds 4 1045 64 10000 1 0 12:21 19.01.2020
4179 Clouds 2 1045 74 10000 1.5 0 11:57 19.01.2020
4180 Clouds 2 1045 74 10000 2.1 230 11:37 19.01.2020
4181 Clouds 1 1045 74 10000 2.1 230 11:18 19.01.2020
4182 Clouds 1 1045 69 10000 2.1 240 10:40 19.01.2020
4183 Clouds -1 1044 92 10000 1.5 0 10:20 19.01.2020
4184 Clouds -2 1044 92 10000 3.1 260 09:57 19.01.2020
4185 Clouds -2 1044 86 10000 3.1 270 09:38 19.01.2020
4186 Clouds -2 1044 86 10000 3.1 270 09:19 19.01.2020
4187 Clouds -1 1043 77 10000 3.1 250 08:55 19.01.2020
4188 Clouds -1 1043 80 10000 2.1 260 08:32 19.01.2020
4189 Clouds -2 1043 86 10000 2.6 260 07:54 19.01.2020
4190 Clouds -2 1042 86 10000 2.6 270 07:28 19.01.2020
4191 Clouds -2 1042 92 10000 3.1 270 06:55 19.01.2020
4192 Clouds -2 1042 86 10000 3.1 270 06:22 19.01.2020
4193 Clouds 0 1040 80 10000 2.6 260 03:55 19.01.2020
4194 Clouds -1 1040 87 10000 2.1 240 02:33 19.01.2020
4195 Clouds 0 1039 80 10000 3.1 270 01:42 19.01.2020
4196 Clouds 0 1039 80 10000 3.1 270 01:20 19.01.2020
4197 Clouds 0 1039 86 10000 2.6 260 00:44 19.01.2020
4198 Clouds 0 1038 86 10000 2.6 250 00:21 19.01.2020
4199 Clouds 1 1038 86 10000 2.6 250 23:47 18.01.2020
4200 Clouds 1 1038 86 10000 3.1 270 23:25 18.01.2020
4201 Clouds 1 1037 86 10000 2.6 260 22:59 18.01.2020
4202 Clouds 1 1037 86 10000 2.6 260 22:41 18.01.2020
4203 Clouds 0 1037 90 10000 3.6 260 22:21 18.01.2020
4204 Clouds 1 1037 90 10000 2.6 240 21:58 18.01.2020
4205 Clouds 1 1036 90 10000 3.1 280 21:39 18.01.2020
4206 Clouds 1 1036 90 10000 3.1 280 21:20 18.01.2020
4207 Clouds 2 1036 90 10000 2.6 250 20:56 18.01.2020
4208 Clouds 2 1035 90 10000 2.1 240 20:38 18.01.2020
4209 Clouds 2 1035 90 10000 2.1 240 20:18 18.01.2020
4210 Clouds 2 1035 90 10000 3.6 270 19:43 18.01.2020
4211 Clouds 1 1034 90 10000 4.1 270 19:24 18.01.2020
4212 Clouds 2 1034 90 10000 4.6 280 18:43 18.01.2020
4213 Clouds 2 1034 90 10000 4.6 280 18:24 18.01.2020
4214 Clouds 2 1033 90 10000 4.1 280 17:58 18.01.2020
4215 Clouds 3 1032 86 10000 4.1 280 17:40 18.01.2020
4216 Clouds 3 1032 86 10000 4.1 280 17:20 18.01.2020
4217 Clouds 5 1032 80 10000 4.1 270 16:56 18.01.2020
4218 Clouds 5 1031 75 10000 4.6 280 16:37 18.01.2020
4219 Clouds 5 1031 75 10000 4.6 280 16:19 18.01.2020
4220 Clouds 6 1031 70 10000 3.6 260 15:44 18.01.2020
4221 Clouds 5 1030 75 10000 3.1 250 15:25 18.01.2020
4222 Clouds 5 1030 75 10000 3.1 250 14:59 18.01.2020
4223 Clouds 5 1030 84 10000 3.6 250 14:40 18.01.2020
4224 Clouds 5 1030 81 10000 3.6 250 14:19 18.01.2020
4225 Clouds 5 1030 81 10000 4.1 250 13:55 18.01.2020
4226 Clouds 5 1030 80 10000 3.1 250 13:36 18.01.2020
4227 Clouds 4 1030 80 10000 3.1 250 13:18 18.01.2020
4228 Clouds 4 1029 80 10000 3.1 250 12:40 18.01.2020
4229 Clouds 3 1029 80 10000 3.1 250 12:21 18.01.2020
4230 Clouds 2 1028 80 10000 3.6 270 11:44 18.01.2020
4231 Clouds 1 1028 86 10000 4.6 270 11:24 18.01.2020
4232 Clouds 0 1027 89 10000 3.6 270 10:57 18.01.2020
4233 Clouds 0 1027 92 10000 2.6 270 10:38 18.01.2020
4234 Clouds -1 1027 92 10000 2.6 270 10:20 18.01.2020
4235 Clouds -1 1027 92 10000 2.6 270 10:20 18.01.2020
4236 Clouds -1 1027 92 10000 3.1 260 09:48 18.01.2020
4237 Clouds -1 1026 92 10000 3.1 270 09:30 18.01.2020
4238 Clouds -1 1026 92 10000 3.6 280 08:57 18.01.2020
4239 Clouds 0 1025 89 10000 2.6 260 08:39 18.01.2020
4240 Clouds 0 1025 91 10000 2.6 260 08:19 18.01.2020
4241 Clouds 0 1025 80 10000 2.6 260 07:50 18.01.2020
4242 Clouds 0 1025 80 10000 2.6 260 07:31 18.01.2020
4243 Clouds 1 1024 80 10000 4.1 250 06:47 18.01.2020
4244 Clouds 1 1023 86 10000 3.6 250 05:59 18.01.2020
4245 Clouds 1 1023 86 10000 3.6 250 05:21 18.01.2020
4246 Clouds 1 1022 86 10000 3.6 260 02:55 18.01.2020
4247 Clouds 2 1021 89 10000 5.1 270 01:54 18.01.2020
4248 Clouds 2 1021 89 10000 5.7 270 01:30 18.01.2020
4249 Clouds 2 1020 88 10000 5.1 260 00:37 18.01.2020
4250 Clouds 2 1020 88 10000 5.1 260 00:37 18.01.2020
4251 Clouds 2 1020 88 10000 5.1 260 00:37 18.01.2020
4252 Clouds 2 1020 88 10000 5.1 260 00:18 18.01.2020
4253 Clouds 2 1019 88 10000 4.6 260 23:41 17.01.2020
4254 Clouds 2 1019 89 10000 4.6 260 23:20 17.01.2020
4255 Clear 2 1019 89 10000 5.7 260 22:45 17.01.2020
4256 Clear 2 1018 93 10000 6.2 260 22:22 17.01.2020
4257 Clouds 3 1017 86 10000 5.7 260 21:59 17.01.2020
4258 Clouds 3 1017 86 10000 5.1 260 21:41 17.01.2020
4259 Clouds 3 1017 86 10000 5.1 260 21:22 17.01.2020
4260 Clear 3 1016 86 10000 7.2 270 20:57 17.01.2020
4261 Clear 3 1016 93 10000 5.7 260 20:38 17.01.2020
4262 Rain 3 1016 93 10000 5.7 260 20:20 17.01.2020
4263 Clouds 4 1015 86 10000 6.2 270 19:55 17.01.2020
4264 Clouds 4 1015 86 10000 6.2 270 19:55 17.01.2020
4265 Clouds 4 1015 86 10000 5.7 270 19:37 17.01.2020
4266 Clouds 4 1015 86 10000 5.7 270 19:18 17.01.2020
4267 Clouds 4 1014 86 10000 5.1 270 18:47 17.01.2020
4268 Clouds 4 1014 86 10000 6.2 280 18:28 17.01.2020
4269 Rain 5 1013 80 10000 7.2 290 17:56 17.01.2020
4270 Rain 5 1013 80 10000 7.2 290 17:56 17.01.2020
4271 Rain 5 1012 80 10000 6.7 280 17:38 17.01.2020
4272 Rain 5 1012 80 10000 6.7 280 17:20 17.01.2020
4273 Rain 5 1011 80 10000 6.7 270 16:42 17.01.2020
4274 Rain 6 1010 75 10000 5.1 260 16:20 17.01.2020
4275 Clouds 6 1010 75 10000 5.1 250 15:49 17.01.2020
4276 Clouds 6 1010 70 10000 4.6 240 15:28 17.01.2020
4277 Clouds 6 1010 70 10000 5.1 240 14:59 17.01.2020
4278 Clouds 6 1009 70 10000 4.6 240 14:40 17.01.2020
4279 -273 0 0 0 0 0 14:22 17.01.2020
4280 Clouds 5 1009 75 10000 7.2 250 13:42 17.01.2020
4281 Clouds 6 1009 70 10000 6.7 250 13:22 17.01.2020
4282 Clouds 5 1009 75 10000 5.7 240 12:46 17.01.2020
4283 Clouds 5 1008 75 10000 5.7 250 12:23 17.01.2020
4284 Clouds 4 1008 80 10000 5.1 250 11:41 17.01.2020
4285 Clouds 4 1008 80 10000 5.1 250 11:41 17.01.2020
4286 Clouds 4 1008 80 10000 5.1 250 11:20 17.01.2020
4287 Clouds 4 1007 80 10000 4.6 240 10:56 17.01.2020
4288 Clouds 4 1007 80 10000 4.1 250 10:37 17.01.2020
4289 Clouds 4 1007 80 10000 4.1 250 10:19 17.01.2020
4290 Clouds 4 1007 89 10000 4.6 250 09:43 17.01.2020
4291 Clouds 4 1006 80 10000 3.6 240 09:21 17.01.2020
4292 Clouds 4 1006 80 10000 3.1 240 08:58 17.01.2020
4293 Clouds 4 1005 80 10000 3.6 250 08:40 17.01.2020
4294 Clouds 4 1005 80 10000 3.6 250 08:21 17.01.2020
4295 Clouds 4 1005 80 10000 4.1 250 07:46 17.01.2020
4296 Clouds 4 1005 80 10000 4.1 250 07:28 17.01.2020
4297 Clouds 4 1004 86 10000 3.1 240 06:51 17.01.2020
4298 Clouds 5 1004 80 10000 3.6 250 06:30 17.01.2020
4299 Clouds 5 1004 83 0 3.64 238 04:27 17.01.2020
4300 Clouds 4 1004 86 0 0.45 278 03:19 17.01.2020
4301 Clouds 4 1003 82 0 3.64 238 02:32 17.01.2020
4302 Clouds 5 1003 79 0 3.19 222 01:44 17.01.2020
4303 Clouds 5 1003 87 0 4.18 225 01:22 17.01.2020
4304 Clouds 6 1002 81 10000 3.1 220 00:37 17.01.2020
4305 Clouds 6 1002 81 10000 3.1 220 00:19 17.01.2020
4306 Clouds 6 1002 81 10000 3.1 220 23:41 16.01.2020
4307 Clouds 6 1002 81 10000 3.1 220 23:22 16.01.2020
4308 Clouds 6 1001 81 10000 3.1 210 22:41 16.01.2020
4309 Clouds 6 1001 75 10000 3.6 220 22:21 16.01.2020
4310 Clouds 7 1000 81 10000 4.1 230 21:57 16.01.2020
4311 Clouds 7 1000 81 10000 3.6 230 21:38 16.01.2020
4312 Clouds 7 1000 81 10000 3.6 230 21:19 16.01.2020
4313 Clouds 7 1000 81 10000 5.1 230 20:57 16.01.2020
4314 Clouds 7 999 87 10000 5.7 230 20:38 16.01.2020
4315 Clouds 7 999 87 10000 5.7 230 20:19 16.01.2020
4316 Rain 7 998 75 10000 5.7 240 19:56 16.01.2020
4317 Rain 7 997 75 10000 5.1 230 19:37 16.01.2020
4318 Rain 7 997 75 10000 5.1 230 19:19 16.01.2020
4319 Clouds 7 997 81 10000 5.7 220 18:55 16.01.2020
4320 Clouds 7 996 81 10000 4.6 230 18:37 16.01.2020
4321 Clouds 7 996 81 10000 4.6 230 18:18 16.01.2020
4322 Clouds 8 994 81 10000 6.2 250 17:42 16.01.2020
4323 Rain 8 994 87 10000 7.2 240 17:23 16.01.2020
4324 Rain 8 994 87 10000 6.7 240 16:57 16.01.2020
4325 Rain 10 992 76 10000 8.2 200 16:39 16.01.2020
4326 Rain 11 992 76 10000 8.2 200 16:19 16.01.2020
4327 Clouds 11 992 76 10000 7.2 210 15:44 16.01.2020
4328 Clouds 11 992 81 10000 7.2 200 15:23 16.01.2020
4329 Clouds 11 992 81 10000 6.2 180 14:57 16.01.2020
4330 Rain 11 992 93 9000 7.7 160 14:39 16.01.2020
4331 Rain 11 992 93 9000 7.7 160 14:20 16.01.2020
4332 Rain 10 994 87 9000 9.8 150 13:45 16.01.2020
4333 Rain 10 994 87 9000 9.8 150 13:26 16.01.2020
4334 Rain 10 996 93 9000 7.2 150 12:47 16.01.2020
4335 Rain 10 997 93 4000 7.7 140 12:29 16.01.2020
4336 Rain 10 997 93 4000 7.7 140 12:29 16.01.2020
4337 Rain 9 998 93 4000 9.8 150 11:59 16.01.2020
4338 Rain 9 999 87 8000 9.8 150 11:41 16.01.2020
4339 Rain 9 999 87 8000 9.8 150 11:23 16.01.2020
4340 Rain 9 999 87 8000 9.8 170 10:55 16.01.2020
4341 Rain 9 1000 81 5000 9.8 160 10:36 16.01.2020
4342 Rain 9 1000 81 5000 9.8 160 10:18 16.01.2020
4343 Rain 9 1001 81 10000 11.8 180 09:42 16.01.2020
4344 Rain 9 1001 81 10000 11.8 180 09:24 16.01.2020
4345 Clouds 9 1001 76 10000 11.3 180 08:56 16.01.2020
4346 Clouds 9 1002 76 10000 10.3 180 08:36 16.01.2020
4347 Clouds 9 1002 76 10000 10.3 180 08:18 16.01.2020
4348 Rain 9 1003 81 10000 10.3 180 07:42 16.01.2020
4349 Rain 9 1003 81 10000 9.8 170 07:23 16.01.2020
4350 Rain 9 1004 81 10000 8.7 170 06:48 16.01.2020
4351 Clouds 9 1004 81 10000 7.7 170 06:28 16.01.2020
4352 Clouds 9 1004 76 10000 7.7 170 05:46 16.01.2020
4353 Clouds 9 1005 81 10000 6.2 170 04:46 16.01.2020
4354 Clouds 8 1006 87 10000 4.6 160 03:29 16.01.2020
4355 Rain 8 1007 75 10000 4.6 170 02:45 16.01.2020
4356 Clouds 7 1008 75 10000 4.1 160 01:28 16.01.2020
4357 Clouds 6 1008 75 10000 5.1 200 00:42 16.01.2020
4358 Clouds 6 1008 75 10000 5.1 200 00:22 16.01.2020
4359 Clouds 6 1007 75 10000 3.1 170 23:40 15.01.2020
4360 Clouds 6 1007 75 10000 3.1 170 23:22 15.01.2020
4361 Clouds 6 1007 75 10000 3.1 170 23:21 15.01.2020
4362 Clouds 6 1006 75 10000 5.7 220 22:56 15.01.2020
4363 Clouds 6 1006 75 10000 6.2 230 22:37 15.01.2020
4364 Clouds 6 1006 75 10000 6.2 230 22:18 15.01.2020
4365 Clouds 6 1006 75 10000 6.2 230 22:18 15.01.2020
4366 Clouds 6 1006 75 10000 6.2 230 21:55 15.01.2020
4367 Clouds 6 1006 75 10000 6.2 220 21:36 15.01.2020
4368 Clouds 6 1006 75 10000 6.2 220 21:18 15.01.2020
4369 Clouds 6 1006 70 10000 6.2 220 20:54 15.01.2020
4370 Clouds 6 1005 75 10000 5.7 220 20:36 15.01.2020
4371 Clouds 6 1005 75 10000 5.7 220 20:18 15.01.2020
4372 Clouds 6 1005 75 10000 5.7 220 20:18 15.01.2020
4373 Clouds 6 1005 75 10000 6.2 230 19:54 15.01.2020
4374 Clouds 6 1004 75 10000 6.2 220 19:36 15.01.2020
4375 Clouds 6 1004 75 10000 6.2 220 19:18 15.01.2020
4376 Clouds 6 1004 75 10000 7.2 230 18:55 15.01.2020
4377 Clouds 6 1003 70 10000 6.7 230 18:36 15.01.2020
4378 Clouds 6 1003 70 10000 6.7 230 18:18 15.01.2020
4379 Clouds 6 1002 75 10000 6.2 230 17:40 15.01.2020
4380 Clouds 6 1002 75 10000 6.2 230 17:22 15.01.2020
4381 Clouds 7 1001 65 10000 7.2 230 16:57 15.01.2020
4382 Clouds 7 1000 70 10000 6.7 230 16:38 15.01.2020
4383 Clouds 7 1000 70 10000 6.7 230 16:20 15.01.2020
4384 Clouds 7 1000 70 10000 6.7 230 16:20 15.01.2020
4385 Clouds 7 1000 70 10000 6.7 230 16:20 15.01.2020
4386 Clouds 7 1000 70 10000 6.7 230 16:20 15.01.2020
4387 Clouds 7 1000 65 10000 7.2 230 15:43 15.01.2020
4388 Clouds 7 999 65 10000 8.7 230 15:21 15.01.2020
4389 Clouds 7 999 65 10000 8.2 230 14:56 15.01.2020
4390 Clouds 7 999 65 10000 8.2 230 14:37 15.01.2020
4391 Clouds 7 999 65 10000 8.2 230 14:18 15.01.2020
4392 Clouds 7 998 65 10000 7.2 230 13:44 15.01.2020
4393 Clouds 7 998 65 10000 7.7 220 13:23 15.01.2020
4394 Clouds 6 997 70 10000 7.7 230 12:56 15.01.2020
4395 Clouds 6 997 70 10000 6.7 230 12:37 15.01.2020
4396 Clouds 6 997 70 10000 6.7 230 12:19 15.01.2020
4397 Clouds 6 996 68 10000 7.7 230 11:54 15.01.2020
4398 Clouds 6 996 68 10000 6.7 220 11:36 15.01.2020
4399 Clouds 6 996 76 10000 6.7 220 11:18 15.01.2020
4400 Clouds 5 995 76 10000 7.7 230 10:41 15.01.2020
4401 Clouds 5 994 76 10000 6.7 230 10:21 15.01.2020
4402 Clouds 5 994 76 10000 6.7 230 09:41 15.01.2020
4403 Clouds 4 994 76 10000 6.7 230 09:22 15.01.2020
4404 Clouds 4 993 76 10000 6.2 230 08:45 15.01.2020
4405 Clouds 4 993 76 10000 7.2 220 08:27 15.01.2020
4406 Clouds 4 992 77 10000 6.2 230 07:56 15.01.2020
4407 Clouds 4 992 77 10000 6.7 230 07:35 15.01.2020
4408 Clouds 4 992 77 10000 7.7 230 06:57 15.01.2020
4409 Clouds 4 992 77 10000 7.7 230 06:57 15.01.2020
4410 Clouds 4 991 77 10000 7.7 230 06:38 15.01.2020
4411 Clouds 5 990 77 10000 8.2 230 05:43 15.01.2020
4412 Clouds 4 990 78 10000 7.2 230 03:35 15.01.2020
4413 Clouds 4 989 83 10000 6.7 220 01:49 15.01.2020
4414 Clouds 4 989 81 10000 6.7 220 01:22 15.01.2020
4415 Clouds 4 988 81 10000 6.2 220 00:38 15.01.2020
4416 Clouds 4 988 81 10000 6.2 220 00:20 15.01.2020
4417 Clouds 4 988 81 10000 6.7 220 23:47 14.01.2020
4418 Clouds 4 988 81 10000 5.1 220 23:28 14.01.2020
4419 Clouds 4 987 80 10000 5.7 220 22:58 14.01.2020
4420 Clouds 4 987 80 10000 4.6 230 22:40 14.01.2020
4421 Clouds 4 987 80 10000 4.6 230 22:19 14.01.2020
4422 Clouds 4 987 80 10000 5.1 220 21:57 14.01.2020
4423 Clouds 4 987 80 10000 5.1 220 21:39 14.01.2020
4424 Clouds 4 987 80 10000 5.1 220 21:19 14.01.2020
4425 Rain 4 986 80 10000 4.6 230 20:54 14.01.2020
4426 Rain 4 985 86 10000 4.1 220 20:36 14.01.2020
4427 Rain 4 985 86 10000 4.1 220 20:18 14.01.2020
4428 Rain 4 985 86 10000 4.1 220 20:18 14.01.2020
4429 Rain 4 985 86 10000 4.1 220 19:55 14.01.2020
4430 Rain 4 984 86 10000 5.1 220 19:36 14.01.2020
4431 Clouds 4 984 86 10000 5.1 220 19:18 14.01.2020
4432 Clouds 4 983 93 10000 4.1 240 18:40 14.01.2020
4433 Clouds 4 983 93 10000 4.1 240 18:20 14.01.2020
4434 Clouds 4 983 93 10000 4.1 240 17:56 14.01.2020
4435 Clouds 5 982 86 10000 3.6 240 17:36 14.01.2020
4436 Clouds 5 982 86 10000 3.6 240 17:18 14.01.2020
4437 -273 0 0 0 0 0 16:42 14.01.2020
4438 Clouds 4 981 86 10000 3.1 240 16:22 14.01.2020
4439 Clouds 4 980 93 10000 3.6 250 15:56 14.01.2020
4440 Clouds 5 980 86 10000 3.6 260 15:38 14.01.2020
4441 Rain 4 980 86 10000 3.6 260 15:19 14.01.2020
4442 Rain 4 980 86 10000 3.6 260 15:19 14.01.2020
4443 Rain 4 980 93 10000 1.5 0 14:43 14.01.2020
4444 Rain 4 981 93 10000 1.5 0 14:20 14.01.2020
4445 Rain 4 981 93 10000 2.1 200 13:54 14.01.2020
4446 Rain 4 982 93 10000 2.1 200 13:36 14.01.2020
4447 Rain 4 982 93 10000 2.1 200 13:18 14.01.2020
4448 Rain 4 984 86 9000 3.6 200 12:41 14.01.2020
4449 Rain 5 984 86 9000 3.6 200 12:20 14.01.2020
4450 Rain 5 984 86 10000 6.2 200 11:43 14.01.2020
4451 Rain 5 984 86 10000 6.2 200 11:23 14.01.2020
4452 Rain 5 985 75 10000 5.7 190 10:59 14.01.2020
4453 Rain 5 985 75 10000 5.1 200 10:39 14.01.2020
4454 Clouds 5 985 75 10000 5.1 200 10:20 14.01.2020
4455 Clouds 5 985 75 10000 4.6 200 09:57 14.01.2020
4456 Clouds 5 985 75 10000 4.6 210 09:39 14.01.2020
4457 Clouds 5 985 75 10000 4.6 210 09:20 14.01.2020
4458 Clouds 4 986 80 10000 5.7 210 08:46 14.01.2020
4459 Clouds 4 986 80 10000 5.7 220 08:24 14.01.2020
4460 Clouds 4 986 85 10000 6.2 220 07:53 14.01.2020
4461 Clouds 4 986 85 10000 6.7 220 07:33 14.01.2020
4462 Clouds 4 986 85 10000 5.1 210 06:54 14.01.2020
4463 Clouds 4 987 85 10000 5.1 220 06:33 14.01.2020
4464 Clouds 4 987 85 10000 5.1 210 05:27 14.01.2020
4465 Clouds 5 987 65 10000 6.2 210 03:52 14.01.2020
4466 Clouds 4 987 69 10000 6.2 220 02:43 14.01.2020
4467 Clouds 4 986 69 10000 6.2 230 01:53 14.01.2020
4468 Clouds 4 986 69 10000 7.7 230 00:51 14.01.2020
4469 Clouds 4 986 71 10000 6.7 220 00:32 14.01.2020
4470 Clouds 4 986 71 10000 6.7 220 00:32 14.01.2020
4471 Clouds 5 985 75 10000 6.2 220 23:55 13.01.2020
4472 Clouds 4 985 80 10000 4.6 240 23:37 13.01.2020
4473 Clouds 5 985 80 10000 4.6 240 23:18 13.01.2020
4474 Clouds 5 984 75 10000 6.7 230 22:42 13.01.2020
4475 Clouds 5 984 80 10000 7.7 220 22:21 13.01.2020
4476 Clouds 5 983 80 10000 7.2 220 21:56 13.01.2020
4477 Rain 6 984 86 10000 5.1 240 21:38 13.01.2020
4478 Rain 6 984 86 10000 5.1 240 21:19 13.01.2020
4479 Rain 6 983 81 10000 6.7 220 20:58 13.01.2020
4480 Clouds 6 983 86 10000 7.2 240 20:40 13.01.2020
4481 Clouds 6 983 86 10000 7.2 240 20:22 13.01.2020
4482 Rain 6 982 70 10000 9.3 220 19:58 13.01.2020
4483 Rain 6 982 70 10000 9.8 220 19:39 13.01.2020
4484 Rain 7 982 70 10000 9.8 220 19:20 13.01.2020
4485 Clouds 7 981 70 10000 10.8 220 18:56 13.01.2020
4486 Clouds 7 981 65 10000 9.8 210 18:37 13.01.2020
4487 Clouds 7 981 65 10000 9.8 210 18:18 13.01.2020
4488 Clouds 7 980 75 10000 8.2 220 17:42 13.01.2020
4489 Clouds 7 980 75 10000 9.3 210 17:24 13.01.2020
4490 Clouds 7 980 75 10000 9.3 210 17:24 13.01.2020
4491 Clouds 7 980 75 10000 9.8 220 16:57 13.01.2020
4492 Rain 7 981 83 0 2.24 231 16:38 13.01.2020
4493 Rain 7 981 84 0 2.24 253 16:20 13.01.2020
4494 Rain 6 981 88 0 2.24 293 15:44 13.01.2020
4495 Rain 6 981 84 0 3.13 209 15:23 13.01.2020
4496 Rain 7 981 81 0 4.47 135 14:58 13.01.2020
4497 Rain 8 980 82 0 6.26 179 14:38 13.01.2020
4498 Rain 8 981 87 0 3.58 74 14:20 13.01.2020
4499 Rain 8 982 89 0 4.92 180 13:43 13.01.2020
4500 Rain 8 984 86 0 5.81 141 13:25 13.01.2020
4501 Rain 8 991 81 10000 11.8 170 12:59 13.01.2020
4502 Rain 8 991 81 10000 11.8 170 12:41 13.01.2020
4503 Clouds 8 991 81 10000 11.8 170 12:23 13.01.2020
4504 Clouds 8 991 81 10000 11.8 170 11:57 13.01.2020
4505 Rain 8 992 70 10000 10.3 170 11:37 13.01.2020
4506 Rain 8 992 70 10000 10.3 170 11:37 13.01.2020
4507 Rain 8 992 70 10000 10.3 170 11:19 13.01.2020
4508 Rain 8 993 75 10000 12.9 180 10:56 13.01.2020
4509 Rain 8 995 75 10000 9.8 180 10:37 13.01.2020
4510 Rain 8 995 75 10000 9.8 180 10:37 13.01.2020
4511 Rain 8 995 75 10000 9.8 180 10:19 13.01.2020
4512 Clouds 7 998 75 10000 7.2 170 09:43 13.01.2020
4513 Clouds 7 998 75 10000 7.2 170 09:24 13.01.2020
4514 Rain 7 999 75 10000 8.7 180 08:56 13.01.2020
4515 Rain 7 1000 70 10000 7.2 180 08:36 13.01.2020
4516 Rain 7 1000 70 10000 7.2 180 08:18 13.01.2020
4517 Clouds 7 1002 70 10000 4.6 160 07:42 13.01.2020
4518 Clouds 7 1002 70 10000 4.6 160 07:21 13.01.2020
4519 Clouds 6 1004 70 10000 5.7 180 06:37 13.01.2020
4520 Clouds 6 1006 75 10000 5.1 210 05:37 13.01.2020
4521 Clouds 5 1006 75 10000 6.2 210 04:56 13.01.2020
4522 Clouds 5 1009 75 10000 5.1 210 03:38 13.01.2020
4523 Clouds 5 1009 75 10000 5.1 200 02:49 13.01.2020
4524 Clouds 4 1010 80 10000 4.1 200 02:30 13.01.2020
4525 Clouds 4 1010 80 10000 4.1 200 02:30 13.01.2020
4526 Clouds 4 1011 80 10000 4.1 210 01:33 13.01.2020
4527 Clouds 4 1011 80 10000 4.1 190 00:46 13.01.2020
4528 Clouds 4 1011 80 10000 4.1 200 00:26 13.01.2020
4529 Clouds 4 1012 80 10000 4.1 200 23:58 12.01.2020
4530 Clouds 5 1012 80 10000 3.6 210 23:40 12.01.2020
4531 Clouds 5 1012 80 10000 3.6 210 23:21 12.01.2020
4532 Clouds 5 1013 80 10000 3.6 190 22:56 12.01.2020
4533 Clouds 5 1013 86 10000 2.6 200 22:37 12.01.2020
4534 Clouds 4 1013 86 10000 2.6 200 22:18 12.01.2020
4535 Clouds 5 1013 86 10000 3.6 220 21:42 12.01.2020
4536 Rain 5 1014 86 10000 4.1 210 21:20 12.01.2020
4537 Clouds 5 1014 93 10000 3.1 200 20:59 12.01.2020
4538 Clouds 5 1014 93 10000 3.1 190 20:39 12.01.2020
4539 Clouds 5 1014 93 10000 3.1 190 20:21 12.01.2020
4540 Clouds 5 1014 93 10000 3.1 200 19:56 12.01.2020
4541 Clouds 5 1014 86 10000 3.6 190 19:38 12.01.2020
4542 Clouds 5 1014 86 10000 3.6 190 19:38 12.01.2020
4543 Clouds 5 1014 86 10000 3.6 190 19:19 12.01.2020
4544 Clouds 5 1015 86 10000 3.6 200 18:58 12.01.2020
4545 Clouds 5 1015 86 10000 3.1 200 18:40 12.01.2020
4546 Clouds 5 1015 86 10000 3.1 200 18:21 12.01.2020
4547 Clouds 5 1015 81 10000 3.1 210 17:58 12.01.2020
4548 Clouds 5 1015 81 10000 4.1 220 17:38 12.01.2020
4549 Clouds 6 1015 81 10000 4.1 220 17:19 12.01.2020
4550 Clouds 6 1015 81 10000 3.6 230 16:56 12.01.2020
4551 Clouds 6 1015 81 10000 3.6 220 16:37 12.01.2020
4552 Clouds 6 1015 81 10000 3.6 220 16:37 12.01.2020
4553 Clouds 7 1015 81 10000 3.6 220 16:19 12.01.2020
4554 Clouds 7 1015 81 10000 3.6 230 15:42 12.01.2020
4555 Clouds 7 1015 81 10000 3.6 230 15:24 12.01.2020
4556 Clouds 7 1016 81 10000 4.1 240 14:57 12.01.2020
4557 Clouds 7 1016 81 10000 3.6 240 14:38 12.01.2020
4558 Clouds 7 1016 81 10000 3.6 240 14:19 12.01.2020
4559 Clouds 7 1015 87 10000 4.1 230 13:44 12.01.2020
4560 Clouds 7 1015 87 10000 4.1 230 13:44 12.01.2020
4561 Clouds 6 1015 87 10000 3.6 250 13:25 12.01.2020
4562 Clouds 6 1015 87 10000 4.6 240 12:59 12.01.2020
4563 Clouds 6 1015 93 10000 6.7 230 12:39 12.01.2020
4564 Clouds 6 1015 93 10000 4.6 250 12:20 12.01.2020
4565 Clouds 5 1014 93 10000 6.2 250 11:58 12.01.2020
4566 Clouds 5 1014 93 10000 4.6 250 11:39 12.01.2020
4567 Clouds 5 1014 93 10000 4.6 250 11:20 12.01.2020
4568 Clouds 5 1013 93 10000 5.7 250 10:41 12.01.2020
4569 Clouds 4 1013 93 10000 5.7 250 10:22 12.01.2020
4570 Clouds 4 1012 93 10000 5.1 250 09:57 12.01.2020
4571 Clouds 4 1012 93 10000 4.6 250 09:38 12.01.2020
4572 Clouds 4 1012 93 10000 4.6 250 09:19 12.01.2020
4573 Clouds 5 1012 86 10000 4.1 250 08:45 12.01.2020
4574 Clouds 5 1011 86 10000 3.6 240 08:20 12.01.2020
4575 Rain 5 1011 93 10000 3.1 230 07:41 12.01.2020
4576 Rain 5 1011 93 10000 4.1 250 07:41 12.01.2020
4577 Rain 5 1011 93 10000 3.1 230 07:23 12.01.2020
4578 Rain 5 1011 93 10000 4.1 250 06:48 12.01.2020
4579 Rain 5 1011 87 10000 3.6 240 06:30 12.01.2020
4580 Rain 6 1011 87 10000 3.1 240 05:32 12.01.2020
4581 Rain 6 1011 87 10000 3.1 240 05:32 12.01.2020
4582 Rain 6 1011 93 10000 1.5 0 04:30 12.01.2020
4583 Clouds 6 1011 93 10000 2.6 180 03:25 12.01.2020
4584 Clouds 5 1011 93 10000 2.6 220 02:34 12.01.2020
4585 Clouds 6 1011 93 10000 2.1 210 01:51 12.01.2020
4586 Clouds 6 1011 93 10000 2.1 210 01:29 12.01.2020
4587 Clouds 7 1012 93 10000 2.1 210 00:41 12.01.2020
4588 Clouds 7 1012 93 10000 2.1 210 00:20 12.01.2020
4589 Clouds 7 1012 93 10000 2.1 210 23:42 11.01.2020
4590 Clouds 6 1012 87 10000 3.1 230 23:42 11.01.2020
4591 Clouds 7 1012 93 10000 2.1 210 23:42 11.01.2020
4592 Clouds 7 1012 87 10000 3.1 230 23:20 11.01.2020
4593 Clouds 7 1012 87 10000 3.1 240 22:59 11.01.2020
4594 Clouds 8 1011 81 10000 4.1 240 22:41 11.01.2020
4595 Clouds 8 1011 81 10000 4.1 240 22:20 11.01.2020
4596 Clouds 8 1011 87 10000 3.6 240 21:58 11.01.2020
4597 Clouds 8 1011 93 10000 4.6 240 21:40 11.01.2020
4598 Clouds 8 1011 93 10000 4.6 240 21:18 11.01.2020
4599 Rain 8 1011 87 10000 4.1 240 20:41 11.01.2020
4600 Rain 9 1011 87 10000 4.1 240 20:22 11.01.2020
4601 Rain 9 1011 87 10000 5.1 240 19:58 11.01.2020
4602 Clouds 9 1010 93 10000 5.1 240 19:39 11.01.2020
4603 Clouds 9 1010 93 10000 5.1 240 19:21 11.01.2020
4604 Rain 9 1010 93 10000 5.1 240 18:59 11.01.2020
4605 Rain 9 1010 93 10000 5.7 250 18:39 11.01.2020
4606 Rain 9 1010 93 10000 5.7 250 18:20 11.01.2020
4607 Clouds 9 1010 93 10000 6.2 240 17:57 11.01.2020
4608 Rain 9 1009 93 10000 5.7 250 17:39 11.01.2020
4609 Rain 9 1009 93 10000 5.7 250 17:19 11.01.2020
4610 Rain 9 1009 93 10000 5.7 230 16:45 11.01.2020
4611 Rain 9 1009 93 9000 5.7 250 16:27 11.01.2020
4612 Rain 9 1010 93 8000 5.1 240 15:59 11.01.2020
4613 Rain 9 1009 93 7000 4.6 240 15:40 11.01.2020
4614 Rain 9 1009 93 7000 4.6 240 15:22 11.01.2020
4615 Drizzle 9 1009 93 4000 5.7 250 14:57 11.01.2020
4616 Drizzle 9 1009 93 3500 7.2 260 14:38 11.01.2020
4617 Drizzle 9 1009 93 3500 7.2 260 14:20 11.01.2020
4618 Drizzle 11 1008 93 4000 10.3 230 13:40 11.01.2020
4619 Drizzle 11 1008 93 4000 10.3 230 13:20 11.01.2020
4620 Clouds 12 1007 82 10000 11.8 230 12:58 11.01.2020
4621 Clouds 12 1007 76 10000 12.3 220 12:39 11.01.2020
4622 Clouds 12 1007 76 10000 12.3 220 12:21 11.01.2020
4623 Rain 13 1007 76 10000 12.3 220 11:47 11.01.2020
4624 Rain 13 1007 76 10000 10.8 220 11:26 11.01.2020
4625 Rain 12 1007 76 10000 10.8 220 10:51 11.01.2020
4626 Rain 12 1007 81 10000 11.3 220 10:30 11.01.2020
4627 Rain 12 1007 81 10000 10.3 220 09:57 11.01.2020
4628 Rain 12 1008 81 10000 11.3 210 09:37 11.01.2020
4629 Rain 12 1008 81 10000 11.3 210 09:37 11.01.2020
4630 Rain 12 1008 81 10000 11.3 210 09:19 11.01.2020
4631 Rain 12 1009 81 10000 10.8 210 08:42 11.01.2020
4632 Clouds 12 1009 81 10000 10.8 210 08:21 11.01.2020
4633 Clouds 12 1009 81 10000 10.8 210 07:44 11.01.2020
4634 Clouds 12 1010 81 10000 9.8 210 07:25 11.01.2020
4635 Clouds 12 1010 81 10000 8.2 200 06:50 11.01.2020
4636 Clouds 11 1011 81 10000 8.2 210 05:40 11.01.2020
4637 Clouds 11 1012 81 10000 10.3 200 04:46 11.01.2020
4638 Clouds 11 1012 81 10000 8.2 200 04:27 11.01.2020
4639 Clouds 10 1012 81 10000 8.7 200 02:49 11.01.2020
4640 Clouds 10 1013 81 10000 9.3 200 02:20 11.01.2020
4641 Clouds 10 1014 87 10000 9.8 200 01:42 11.01.2020
4642 Clouds 10 1014 87 10000 9.8 200 01:18 11.01.2020
4643 Clouds 10 1014 81 10000 10.3 200 00:38 11.01.2020
4644 Clouds 10 1015 81 10000 8.7 210 23:59 10.01.2020
4645 Clouds 10 1015 81 10000 8.7 210 23:40 10.01.2020
4646 Clouds 10 1015 81 10000 10.8 210 23:21 10.01.2020
4647 Clouds 10 1015 81 10000 8.7 210 22:57 10.01.2020
4648 Clouds 10 1015 87 10000 9.8 200 22:39 10.01.2020
4649 Clouds 9 1015 87 10000 9.8 200 22:20 10.01.2020
4650 Clouds 9 1016 87 10000 9.3 200 21:56 10.01.2020
4651 Clouds 9 1016 81 10000 9.3 200 21:36 10.01.2020
4652 Clouds 9 1016 81 10000 9.3 200 21:18 10.01.2020
4653 Clouds 9 1016 81 10000 8.7 200 20:43 10.01.2020
4654 Clouds 9 1016 81 10000 8.7 200 20:43 10.01.2020
4655 Clouds 9 1016 81 10000 8.7 200 20:24 10.01.2020
4656 Rain 8 1017 87 10000 8.7 200 19:56 10.01.2020
4657 Rain 8 1017 81 10000 8.2 200 19:37 10.01.2020
4658 Rain 8 1017 81 10000 8.2 200 19:19 10.01.2020
4659 Rain 8 1017 81 10000 8.2 200 19:19 10.01.2020
4660 Rain 8 1017 81 10000 8.2 190 18:42 10.01.2020
4661 Clouds 8 1018 75 10000 8.2 210 18:19 10.01.2020
4662 Clouds 8 1019 70 10000 8.2 210 17:57 10.01.2020
4663 Clouds 8 1019 70 10000 8.2 210 17:39 10.01.2020
4664 Clouds 8 1019 70 10000 8.2 200 17:20 10.01.2020
4665 Clouds 8 1019 70 10000 8.2 200 16:56 10.01.2020
4666 Clouds 8 1019 70 10000 6.7 190 16:37 10.01.2020
4667 Clouds 8 1019 70 10000 6.7 190 16:19 10.01.2020
4668 Clouds 8 1020 65 10000 6.7 200 15:56 10.01.2020
4669 Clouds 8 1020 65 10000 7.2 200 15:36 10.01.2020
4670 Clouds 8 1020 65 10000 7.2 200 15:18 10.01.2020
4671 Clouds 7 1020 65 10000 6.2 200 14:54 10.01.2020
4672 Clouds 7 1021 61 10000 5.1 200 14:36 10.01.2020
4673 Clouds 7 1021 61 10000 5.1 200 14:18 10.01.2020
4674 Clouds 7 1022 70 10000 5.1 200 13:42 10.01.2020
4675 Clouds 7 1022 70 10000 5.1 200 13:23 10.01.2020
4676 Clouds 6 1022 75 10000 3.6 210 12:58 10.01.2020
4677 Clouds 6 1022 75 10000 3.6 190 12:39 10.01.2020
4678 Clouds 6 1022 75 10000 3.6 190 12:19 10.01.2020
4679 Clouds 5 1022 86 10000 3.1 170 11:55 10.01.2020
4680 Clouds 4 1023 80 10000 3.1 200 11:37 10.01.2020
4681 Clouds 4 1023 80 10000 3.1 200 11:18 10.01.2020
4682 Clouds 4 1023 80 10000 3.1 200 11:18 10.01.2020
4683 Clouds 3 1022 93 10000 3.1 220 10:43 10.01.2020
4684 Clouds 2 1022 93 10000 3.1 220 10:24 10.01.2020
4685 Clouds 2 1022 93 10000 2.1 210 09:59 10.01.2020
4686 Clouds 2 1022 93 10000 2.1 210 09:40 10.01.2020
4687 Clouds 2 1022 93 10000 2.6 230 09:22 10.01.2020
4688 Clouds 2 1021 92 10000 3.1 250 08:43 10.01.2020
4689 Clouds 2 1022 93 10000 3.1 250 08:24 10.01.2020
4690 Clouds 2 1022 91 10000 4.6 260 07:46 10.01.2020
4691 Clouds 2 1021 91 10000 3.6 250 07:28 10.01.2020
4692 Clouds 2 1021 91 10000 4.1 260 06:50 10.01.2020
4693 Clouds 2 1021 93 10000 4.1 250 06:26 10.01.2020
4694 Clouds 2 1020 93 10000 4.1 250 05:51 10.01.2020
4695 Clouds 3 1018 93 10000 4.1 260 03:45 10.01.2020
4696 Clouds 2 1018 100 10000 5.1 260 03:22 10.01.2020
4697 Clouds 3 1017 100 10000 5.7 270 02:50 10.01.2020
4698 Clouds 3 1016 93 10000 6.7 270 01:47 10.01.2020
4699 Clouds 3 1016 93 10000 6.7 270 01:47 10.01.2020
4700 Clouds 3 1015 100 10000 5.1 270 01:28 10.01.2020
4701 Clouds 3 1015 93 10000 4.6 270 00:44 10.01.2020
4702 Clouds 2 1014 100 8000 5.7 270 23:58 09.01.2020
4703 Clouds 1 1014 100 4000 5.7 270 23:39 09.01.2020
4704 Clouds 1 1014 100 4000 5.7 270 23:39 09.01.2020
4705 Clouds 1 1014 100 4000 5.7 270 23:20 09.01.2020
4706 Fog 1 1013 94 800 5.7 280 22:58 09.01.2020
4707 Clouds 1 1012 94 10000 5.1 270 22:39 09.01.2020
4708 Clouds 1 1012 94 10000 5.1 270 22:39 09.01.2020
4709 Clouds 1 1012 94 10000 5.1 270 22:19 09.01.2020
4710 Clouds 1 1012 94 10000 5.1 270 22:19 09.01.2020
4711 Clouds 2 1012 94 10000 4.1 280 21:57 09.01.2020
4712 Clouds 1 1011 94 10000 4.6 290 21:38 09.01.2020
4713 Clouds 2 1011 94 10000 4.6 290 21:19 09.01.2020
4714 Clouds 2 1010 94 10000 5.1 280 20:58 09.01.2020
4715 Clouds 2 1010 94 10000 5.1 280 20:39 09.01.2020
4716 Clouds 2 1010 95 10000 4.6 280 20:20 09.01.2020
4717 Clouds 2 1009 95 10000 4.1 280 19:57 09.01.2020
4718 Clouds 2 1009 95 10000 4.1 280 19:38 09.01.2020
4719 Clouds 2 1009 93 10000 4.1 290 19:19 09.01.2020
4720 Clouds 2 1008 93 10000 4.6 290 18:55 09.01.2020
4721 Clouds 2 1008 93 10000 4.6 290 18:36 09.01.2020
4722 Clouds 3 1008 93 10000 5.1 300 18:18 09.01.2020
4723 Clouds 3 1007 86 10000 5.1 310 17:41 09.01.2020
4724 Clouds 3 1007 93 10000 4.6 310 17:18 09.01.2020
4725 Clouds 4 1006 86 10000 6.2 330 16:49 09.01.2020
4726 Clouds 5 1006 86 10000 4.6 320 16:24 09.01.2020
4727 Clouds 5 1005 81 10000 2.1 330 15:59 09.01.2020
4728 Clouds 5 1004 75 10000 2.1 350 15:40 09.01.2020
4729 Clouds 5 1004 75 10000 2.1 350 15:19 09.01.2020
4730 Clouds 5 1004 80 10000 2.6 320 14:43 09.01.2020
4731 Clouds 5 1004 86 10000 3.1 340 14:22 09.01.2020
4732 Clouds 4 1004 93 10000 3.6 350 13:57 09.01.2020
4733 Clouds 4 1004 93 10000 3.6 350 13:39 09.01.2020
4734 Clouds 4 1005 93 10000 2.6 330 13:20 09.01.2020
4735 Clouds 4 1005 93 10000 2.1 300 12:59 09.01.2020
4736 Clouds 4 1005 93 10000 2.1 300 12:40 09.01.2020
4737 Clouds 4 1005 93 10000 2.1 300 12:40 09.01.2020
4738 Clouds 4 1006 86 10000 2.6 280 12:20 09.01.2020
4739 Clouds 3 1006 93 10000 2.6 260 11:57 09.01.2020
4740 Rain 3 1006 93 10000 2.6 260 11:38 09.01.2020
4741 Rain 3 1005 93 10000 2.6 260 11:20 09.01.2020
4742 Clouds 3 1005 93 10000 3.6 280 10:43 09.01.2020
4743 Clouds 2 1005 93 10000 3.6 280 10:22 09.01.2020
4744 -273 0 0 0 0 0 09:58 09.01.2020
4745 Clouds 2 1004 93 10000 3.6 270 09:38 09.01.2020
4746 Rain 2 1004 93 10000 4.6 300 09:19 09.01.2020
4747 Rain 2 1004 93 8000 5.1 300 08:55 09.01.2020
4748 Rain 2 1004 93 8000 5.1 300 08:37 09.01.2020
4749 Rain 3 1003 93 8000 5.1 310 08:19 09.01.2020
4750 Rain 3 1002 100 8000 4.6 330 07:42 09.01.2020
4751 Rain 3 1002 93 8000 5.1 340 07:23 09.01.2020
4752 Rain 3 1001 93 8000 5.1 350 06:38 09.01.2020
4753 Rain 3 1002 93 8000 5.7 340 06:20 09.01.2020
4754 Rain 3 1001 93 8000 6.7 20 05:48 09.01.2020
4755 Rain 4 1003 93 6000 6.2 10 04:43 09.01.2020
4756 Rain 4 1003 100 6000 8.7 60 03:31 09.01.2020
4757 Rain 4 1005 96 0 1.79 68 02:52 09.01.2020
4758 Rain 4 1007 93 8000 6.7 100 02:24 09.01.2020
4759 Rain 4 1007 93 8000 6.7 100 01:38 09.01.2020
4760 Rain 4 1010 86 10000 3.1 130 00:42 09.01.2020
4761 Rain 4 1010 86 10000 3.1 130 00:42 09.01.2020
4762 Rain 5 1010 86 10000 3.1 130 00:21 09.01.2020
4763 Rain 5 1011 86 10000 4.6 160 23:42 08.01.2020
4764 Rain 5 1011 86 10000 4.6 160 23:42 08.01.2020
4765 Rain 5 1011 93 10000 4.1 90 23:24 08.01.2020
4766 Rain 5 1013 86 10000 2.6 100 22:58 08.01.2020
4767 Rain 5 1013 86 10000 2.6 100 22:38 08.01.2020
4768 Rain 5 1013 86 10000 2.6 100 22:20 08.01.2020
4769 Rain 5 1014 75 10000 2.1 120 21:57 08.01.2020
4770 Rain 6 1014 75 10000 2.1 120 21:38 08.01.2020
4771 Rain 6 1015 75 10000 2.1 140 21:19 08.01.2020
4772 Rain 5 1016 75 10000 1.5 0 20:57 08.01.2020
4773 Rain 5 1016 75 10000 1.5 0 20:38 08.01.2020
4774 Clouds 5 1017 75 10000 2.1 160 20:19 08.01.2020
4775 Clouds 5 1017 81 10000 2.1 140 19:55 08.01.2020
4776 Clouds 5 1017 81 10000 2.1 140 19:55 08.01.2020
4777 Clouds 5 1017 81 10000 2.1 140 19:36 08.01.2020
4778 Clouds 5 1018 81 10000 1 150 19:18 08.01.2020
4779 Clouds 5 1018 81 10000 1.5 140 18:54 08.01.2020
4780 Clouds 5 1018 81 10000 1.5 140 18:54 08.01.2020
4781 Clouds 5 1018 81 10000 1.5 140 18:36 08.01.2020
4782 Clouds 5 1018 80 10000 1 0 18:18 08.01.2020
4783 Clouds 5 1018 80 10000 1 0 18:18 08.01.2020
4784 Clouds 6 1019 81 10000 1.5 0 17:42 08.01.2020
4785 Clouds 6 1019 81 10000 2.6 230 17:23 08.01.2020
4786 Clouds 6 1019 75 10000 2.1 220 16:57 08.01.2020
4787 Clouds 7 1019 75 10000 2.1 220 16:39 08.01.2020
4788 Clouds 7 1020 75 10000 3.1 220 16:19 08.01.2020
4789 Clouds 7 1020 75 10000 3.1 220 16:19 08.01.2020
4790 Clouds 7 1020 75 10000 3.1 230 15:57 08.01.2020
4791 Clouds 7 1020 75 10000 3.1 230 15:39 08.01.2020
4792 Clouds 7 1020 75 10000 2.6 240 15:18 08.01.2020
4793 Clouds 7 1020 75 10000 3.1 240 14:55 08.01.2020
4794 Clouds 7 1020 75 10000 3.1 240 14:36 08.01.2020
4795 Clouds 7 1020 75 10000 4.1 250 14:18 08.01.2020
4796 Clouds 7 1020 70 10000 3.6 240 13:38 08.01.2020
4797 Clouds 7 1020 81 10000 3.6 230 13:18 08.01.2020
4798 Clouds 7 1020 81 10000 3.1 230 12:40 08.01.2020
4799 Rain 7 1021 81 10000 2.6 240 12:18 08.01.2020
4800 Rain 7 1020 75 8000 5.1 240 11:49 08.01.2020
4801 Clouds 7 1020 81 10000 3.6 240 11:20 08.01.2020
4802 Clouds 7 1020 81 10000 4.1 220 10:59 08.01.2020
4803 Clouds 7 1020 81 10000 4.1 220 10:41 08.01.2020
4804 Clouds 7 1020 81 10000 4.1 230 10:22 08.01.2020
4805 Clouds 7 1019 81 10000 4.6 230 09:58 08.01.2020
4806 Clouds 7 1019 81 10000 4.6 230 09:38 08.01.2020
4807 Clouds 7 1019 81 10000 3.6 230 09:18 08.01.2020
4808 Clouds 7 1019 81 10000 3.1 240 08:42 08.01.2020
4809 Clouds 7 1018 75 10000 3.6 240 08:23 08.01.2020
4810 Clouds 7 1018 75 10000 3.6 240 07:59 08.01.2020
4811 Clouds 7 1018 75 10000 3.6 240 07:59 08.01.2020
4812 Clouds 7 1018 75 10000 3.6 240 07:59 08.01.2020
4813 Clouds 7 1018 75 10000 3.6 240 07:41 08.01.2020
4814 Clouds 7 1018 75 10000 4.6 240 07:20 08.01.2020
4815 Clouds 8 1017 70 10000 4.1 240 06:42 08.01.2020
4816 Clouds 7 1017 75 10000 4.1 240 05:57 08.01.2020
4817 Clouds 8 1016 75 10000 4.6 250 05:27 08.01.2020
4818 Clouds 8 1016 75 10000 5.1 260 04:37 08.01.2020
4819 Clouds 9 1014 76 10000 8.7 270 02:48 08.01.2020
4820 Clouds 9 1014 76 10000 8.7 270 02:30 08.01.2020
4821 Clouds 10 1012 76 10000 9.3 260 01:58 08.01.2020
4822 Clouds 10 1012 76 10000 9.3 260 01:32 08.01.2020
4823 Clouds 11 1011 76 10000 10.3 260 00:51 08.01.2020
4824 Rain 11 1010 71 10000 9.8 260 00:23 08.01.2020
4825 Clouds 11 1010 71 10000 9.8 250 23:46 07.01.2020
4826 Clouds 11 1009 71 10000 9.3 250 23:21 07.01.2020
4827 Clouds 11 1009 71 10000 9.3 250 22:56 07.01.2020
4828 Clouds 11 1009 71 10000 9.3 250 22:37 07.01.2020
4829 Clouds 11 1008 76 10000 10.3 260 22:18 07.01.2020
4830 Clouds 12 1008 66 10000 11.3 260 21:42 07.01.2020
4831 Clouds 12 1007 71 10000 11.8 260 21:22 07.01.2020
4832 Clouds 12 1007 66 10000 11.3 250 20:58 07.01.2020
4833 Clouds 13 1007 66 10000 11.3 250 20:40 07.01.2020
4834 Clouds 13 1006 71 10000 9.8 250 20:21 07.01.2020
4835 Clouds 13 1006 76 10000 7.7 250 19:57 07.01.2020
4836 Clouds 14 1006 76 10000 7.7 250 19:37 07.01.2020
4837 Clouds 13 1005 82 10000 8.2 250 19:19 07.01.2020
4838 Clouds 13 1005 87 10000 8.7 240 18:56 07.01.2020
4839 Clouds 13 1005 87 10000 8.7 240 18:38 07.01.2020
4840 Clouds 13 1005 87 10000 8.7 240 18:18 07.01.2020
4841 Clouds 13 1004 87 10000 9.3 230 17:54 07.01.2020
4842 Clouds 13 1004 87 10000 9.3 230 17:36 07.01.2020
4843 Rain 13 1005 87 10000 7.7 240 17:18 07.01.2020
4844 Rain 13 1005 87 10000 7.7 230 16:54 07.01.2020
4845 Rain 13 1005 87 10000 7.7 230 16:36 07.01.2020
4846 Rain 13 1004 87 10000 10.8 220 16:18 07.01.2020
4847 Rain 14 1005 82 10000 8.7 230 15:42 07.01.2020
4848 Rain 14 1005 82 10000 8.7 230 15:23 07.01.2020
4849 Clouds 14 1005 82 10000 9.3 220 14:58 07.01.2020
4850 Clouds 14 1005 82 10000 9.3 220 14:38 07.01.2020
4851 Clouds 13 1006 87 10000 8.2 210 14:19 07.01.2020
4852 Clouds 13 1006 87 10000 8.2 210 14:19 07.01.2020
4853 Rain 13 1007 93 10000 9.8 210 13:44 07.01.2020
4854 Clouds 13 1008 82 10000 8.2 210 13:20 07.01.2020
4855 Clouds 12 1008 87 10000 8.2 200 12:55 07.01.2020
4856 Clouds 12 1008 87 10000 8.2 200 12:36 07.01.2020
4857 Clouds 12 1008 82 10000 7.2 210 12:18 07.01.2020
4858 Clouds 12 1009 82 10000 7.2 210 11:41 07.01.2020
4859 Clouds 13 1009 82 10000 6.7 210 11:22 07.01.2020
4860 Clouds 13 1010 82 10000 6.2 200 10:55 07.01.2020
4861 Clouds 13 1010 82 10000 6.2 200 10:37 07.01.2020
4862 Clouds 12 1010 87 10000 5.7 190 10:19 07.01.2020
4863 Clouds 11 1010 87 10000 6.2 190 09:38 07.01.2020
4864 Clouds 11 1010 87 10000 9.3 200 09:20 07.01.2020
4865 Rain 11 1010 87 10000 7.2 210 08:47 07.01.2020
4866 Clouds 11 1011 76 10000 8.7 210 08:28 07.01.2020
4867 Clouds 10 1011 76 10000 6.7 200 07:55 07.01.2020
4868 Clouds 11 1011 76 10000 6.7 200 07:34 07.01.2020
4869 Clouds 10 1012 71 10000 5.7 200 06:54 07.01.2020
4870 Clouds 10 1012 71 10000 5.7 200 06:35 07.01.2020
4871 Clouds 9 1013 71 10000 6.2 200 05:58 07.01.2020
4872 Clouds 9 1013 71 10000 6.2 200 05:39 07.01.2020
4873 Clouds 8 1015 75 10000 5.7 200 03:44 07.01.2020
4874 Clouds 7 1016 75 10000 4.1 200 02:38 07.01.2020
4875 Clouds 7 1016 75 10000 3.6 210 01:59 07.01.2020
4876 Clouds 7 1016 81 10000 4.1 210 01:35 07.01.2020
4877 Clouds 6 1017 87 10000 4.1 210 00:51 07.01.2020
4878 Clouds 6 1018 81 10000 3.6 220 00:20 07.01.2020
4879 Clouds 6 1017 81 10000 3.6 220 23:56 06.01.2020
4880 Clouds 6 1017 81 10000 3.6 220 23:37 06.01.2020
4881 Clouds 6 1018 81 10000 4.1 230 23:18 06.01.2020
4882 Clouds 6 1017 81 10000 3.6 230 22:43 06.01.2020
4883 Clouds 6 1016 81 10000 4.1 230 22:24 06.01.2020
4884 Clouds 6 1016 81 10000 4.1 220 21:58 06.01.2020
4885 Clouds 6 1016 81 10000 4.1 220 21:39 06.01.2020
4886 Clouds 5 1016 81 10000 3.6 230 21:20 06.01.2020
4887 Clouds 5 1016 81 10000 3.6 230 21:20 06.01.2020
4888 Clouds 5 1016 81 10000 3.6 230 21:20 06.01.2020
4889 Clouds 6 1016 81 10000 4.1 240 20:57 06.01.2020
4890 Clouds 6 1016 81 10000 4.1 240 20:38 06.01.2020
4891 Clouds 6 1016 81 10000 3.6 240 20:20 06.01.2020
4892 Clouds 6 1015 81 10000 4.1 240 19:56 06.01.2020
4893 Clouds 7 1015 81 10000 4.1 240 19:38 06.01.2020
4894 Clouds 7 1014 81 10000 5.1 250 19:19 06.01.2020
4895 Clouds 7 1014 81 10000 5.1 250 18:47 06.01.2020
4896 Clouds 7 1014 81 10000 5.1 250 18:47 06.01.2020
4897 Clouds 8 1013 81 10000 6.7 250 18:21 06.01.2020
4898 Clouds 8 1012 75 10000 7.7 260 17:58 06.01.2020
4899 Clouds 8 1012 75 10000 7.7 260 17:37 06.01.2020
4900 Clouds 8 1012 76 10000 6.2 260 17:18 06.01.2020
4901 Clouds 9 1011 76 10000 7.7 250 16:44 06.01.2020
4902 Clouds 9 1010 76 10000 7.2 260 16:25 06.01.2020
4903 Clouds 9 1010 76 10000 8.2 260 15:59 06.01.2020
4904 Clouds 9 1010 76 10000 8.2 260 15:38 06.01.2020
4905 Clouds 9 1009 71 10000 8.7 250 15:18 06.01.2020
4906 Clouds 10 1008 71 10000 9.3 260 14:56 06.01.2020
4907 Clouds 10 1008 71 10000 9.3 260 14:37 06.01.2020
4908 Clouds 10 1007 81 10000 7.7 260 14:18 06.01.2020
4909 Clouds 10 1006 81 10000 8.7 260 13:41 06.01.2020
4910 Rain 10 1006 87 10000 8.2 260 13:22 06.01.2020
4911 Drizzle 10 1006 87 9000 7.7 240 12:59 06.01.2020
4912 Drizzle 10 1006 87 9000 7.7 240 12:41 06.01.2020
4913 Rain 10 1005 87 10000 7.7 210 12:20 06.01.2020
4914 Rain 10 1005 87 10000 6.2 200 11:55 06.01.2020
4915 Rain 9 1005 87 10000 6.2 200 11:37 06.01.2020
4916 Rain 9 1006 93 9000 7.2 200 11:18 06.01.2020
4917 Rain 9 1006 87 9000 7.2 190 10:41 06.01.2020
4918 Rain 9 1007 87 9000 7.7 180 10:21 06.01.2020
4919 Rain 9 1007 87 9000 7.7 180 10:21 06.01.2020
4920 Rain 9 1007 87 9000 6.7 180 09:42 06.01.2020
4921 Clouds 9 1008 76 10000 7.7 170 09:24 06.01.2020
4922 Clouds 9 1009 71 10000 7.7 170 08:57 06.01.2020
4923 Clouds 9 1009 71 10000 7.7 170 08:38 06.01.2020
4924 Clouds 9 1009 71 10000 7.7 170 08:38 06.01.2020
4925 Clouds 9 1009 66 10000 10.3 170 07:58 06.01.2020
4926 Clouds 9 1009 66 10000 10.3 170 07:39 06.01.2020
4927 Clouds 9 1011 76 10000 11.8 200 06:53 06.01.2020
4928 Clouds 9 1011 76 10000 11.8 200 06:35 06.01.2020
4929 Rain 9 1012 76 10000 10.8 200 05:48 06.01.2020
4930 Clouds 9 1013 70 10000 9.8 200 05:23 06.01.2020
4931 Rain 8 1015 76 10000 4.6 190 04:23 06.01.2020
4932 Clouds 8 1015 76 10000 6.7 200 03:30 06.01.2020
4933 Clouds 8 1017 76 10000 7.2 200 02:27 06.01.2020
4934 Clouds 8 1018 70 10000 8.7 210 01:53 06.01.2020
4935 Clouds 8 1018 70 10000 8.7 210 01:30 06.01.2020
4936 Clouds 8 1019 70 10000 5.7 210 00:45 06.01.2020
4937 Clouds 8 1019 70 10000 3.6 190 00:26 06.01.2020
4938 Clouds 8 1020 70 10000 5.7 210 23:57 05.01.2020
4939 Clouds 8 1020 70 10000 5.7 210 23:38 05.01.2020
4940 Clouds 8 1021 75 10000 4.1 200 23:19 05.01.2020
4941 Clouds 9 1021 70 10000 6.2 220 22:40 05.01.2020
4942 Clouds 9 1021 81 10000 5.7 200 22:20 05.01.2020
4943 Clouds 9 1021 81 10000 5.7 200 22:20 05.01.2020
4944 Clouds 9 1022 81 10000 5.7 210 21:57 05.01.2020
4945 Clouds 9 1022 81 10000 5.7 210 21:39 05.01.2020
4946 Clouds 9 1023 81 10000 6.7 200 21:20 05.01.2020
4947 Clouds 9 1023 81 10000 5.1 200 20:56 05.01.2020
4948 Clouds 9 1023 81 10000 5.1 200 20:38 05.01.2020
4949 Clouds 9 1023 81 10000 6.7 200 20:19 05.01.2020
4950 Clouds 9 1023 81 10000 6.7 200 20:19 05.01.2020
4951 Clouds 9 1023 87 10000 7.2 210 19:58 05.01.2020
4952 Clouds 9 1024 87 10000 5.1 220 19:38 05.01.2020
4953 Clouds 9 1024 87 10000 5.1 220 19:19 05.01.2020
4954 Clouds 10 1024 81 10000 6.2 210 18:55 05.01.2020
4955 Clouds 10 1024 81 10000 6.2 210 18:37 05.01.2020
4956 Clouds 10 1024 81 10000 6.2 210 18:37 05.01.2020
4957 Clouds 10 1024 81 10000 6.2 210 18:19 05.01.2020
4958 Clouds 10 1024 81 10000 6.2 210 17:57 05.01.2020
4959 Clouds 10 1024 81 10000 6.2 210 17:38 05.01.2020
4960 Clouds 10 1024 81 10000 6.2 210 17:19 05.01.2020
4961 Clouds 10 1024 81 10000 6.2 220 16:55 05.01.2020
4962 Clouds 10 1024 81 10000 6.2 220 16:37 05.01.2020
4963 Clouds 10 1025 81 10000 5.7 220 16:19 05.01.2020
4964 Clouds 11 1025 81 10000 6.7 210 15:37 05.01.2020
4965 Clouds 10 1025 81 10000 5.1 210 15:18 05.01.2020
4966 Clouds 10 1025 81 10000 6.2 210 14:55 05.01.2020
4967 Clouds 10 1025 81 10000 6.2 210 14:37 05.01.2020
4968 Clouds 10 1025 87 10000 6.2 210 14:18 05.01.2020
4969 Rain 10 1025 87 10000 6.2 210 13:40 05.01.2020
4970 Rain 10 1025 87 10000 6.2 210 13:40 05.01.2020
4971 Rain 10 1026 87 10000 4.6 220 13:21 05.01.2020
4972 Rain 10 1026 87 10000 5.7 230 12:58 05.01.2020
4973 Rain 10 1026 87 10000 5.7 230 12:39 05.01.2020
4974 Clouds 10 1026 81 10000 4.6 210 12:21 05.01.2020
4975 Clouds 10 1027 81 10000 4.6 210 11:59 05.01.2020
4976 Clouds 10 1027 81 10000 4.6 210 11:40 05.01.2020
4977 Clouds 10 1027 81 10000 4.6 210 11:40 05.01.2020
4978 Clouds 9 1027 87 10000 4.1 210 11:19 05.01.2020
4979 Clouds 9 1027 87 10000 4.1 210 11:19 05.01.2020
4980 Drizzle 9 1027 87 10000 3.6 210 10:56 05.01.2020
4981 Drizzle 9 1027 87 10000 3.6 210 10:36 05.01.2020
4982 Clouds 9 1027 87 10000 4.1 210 10:18 05.01.2020
4983 Clouds 9 1027 81 10000 4.6 200 09:41 05.01.2020
4984 Clouds 8 1027 87 10000 3.6 200 09:21 05.01.2020
4985 Clouds 8 1027 87 10000 4.6 210 08:46 05.01.2020
4986 Clouds 8 1027 87 10000 3.6 200 08:27 05.01.2020
4987 Clouds 8 1027 87 10000 2.6 210 07:55 05.01.2020
4988 Clouds 8 1027 87 10000 2.6 210 07:36 05.01.2020
4989 Clouds 8 1027 87 10000 4.6 210 06:59 05.01.2020
4990 Clouds 8 1028 87 10000 4.6 210 05:58 05.01.2020
4991 Clouds 8 1028 87 10000 4.6 210 05:30 05.01.2020
4992 Clouds 8 1028 87 10000 4.1 220 04:43 05.01.2020
4993 Clouds 8 1029 87 10000 4.6 220 03:47 05.01.2020
4994 Clouds 8 1029 87 10000 4.1 210 02:45 05.01.2020
4995 Clouds 8 1030 93 10000 4.1 220 02:20 05.01.2020
4996 Clouds 8 1030 93 10000 3.6 200 01:46 05.01.2020
4997 Clouds 8 1030 87 10000 4.1 210 01:18 05.01.2020
4998 Clouds 8 1030 81 10000 3.1 210 00:41 05.01.2020
4999 Clouds 8 1030 87 10000 5.1 220 00:22 05.01.2020
5000 Clouds 8 1030 87 10000 5.1 220 23:59 04.01.2020
5001 Clouds 8 1030 87 10000 4.6 210 23:39 04.01.2020
5002 Clouds 8 1031 81 10000 3.6 210 23:19 04.01.2020
5003 Clouds 8 1031 81 10000 3.6 200 22:39 04.01.2020
5004 Clouds 8 1031 81 10000 3.6 180 22:21 04.01.2020
5005 Clouds 8 1031 81 10000 3.1 200 21:57 04.01.2020
5006 Clouds 8 1031 81 10000 3.1 200 21:38 04.01.2020
5007 Clouds 7 1031 87 10000 3.6 190 21:19 04.01.2020
5008 Clouds 7 1031 87 10000 2.6 200 20:57 04.01.2020
5009 Clouds 7 1031 87 10000 2.6 200 20:38 04.01.2020
5010 Clouds 7 1031 87 10000 3.6 220 20:20 04.01.2020
5011 Clouds 7 1031 81 10000 4.1 210 19:42 04.01.2020
5012 Clouds 7 1031 81 10000 4.1 210 19:42 04.01.2020
5013 Clouds 7 1032 87 10000 4.6 220 19:24 04.01.2020
5014 Clouds 8 1032 87 10000 4.6 210 18:59 04.01.2020
5015 Clouds 8 1032 87 10000 4.6 210 18:40 04.01.2020
5016 Clouds 8 1032 87 10000 4.1 220 18:22 04.01.2020
5017 Clouds 8 1032 87 10000 4.1 210 17:59 04.01.2020
5018 Clouds 8 1032 87 10000 4.1 210 17:40 04.01.2020
5019 Clouds 8 1031 87 10000 3.6 220 17:22 04.01.2020
5020 Clouds 8 1032 87 10000 3.6 230 16:54 04.01.2020
5021 Clouds 8 1032 87 10000 3.1 240 16:36 04.01.2020
5022 Clouds 8 1032 87 10000 3.1 240 16:18 04.01.2020
5023 Clouds 8 1032 87 10000 4.6 240 15:42 04.01.2020
5024 Clouds 8 1032 87 10000 4.6 240 15:42 04.01.2020
5025 Clouds 8 1032 87 10000 4.1 240 15:20 04.01.2020
5026 Clouds 8 1032 87 10000 4.1 230 14:58 04.01.2020
5027 Clouds 8 1032 87 10000 4.1 230 14:58 04.01.2020
5028 Clouds 8 1032 87 10000 4.1 230 14:40 04.01.2020
5029 Clouds 8 1032 87 10000 4.6 230 14:20 04.01.2020
5030 Drizzle 8 1032 87 10000 4.6 230 13:56 04.01.2020
5031 Drizzle 8 1032 87 10000 4.6 230 13:37 04.01.2020
5032 Drizzle 8 1032 87 10000 4.6 230 13:37 04.01.2020
5033 Clouds 8 1033 93 10000 4.1 230 13:18 04.01.2020
5034 Clouds 7 1033 93 10000 3.6 220 12:42 04.01.2020
5035 Clouds 7 1033 93 10000 2.6 230 12:20 04.01.2020
5036 Clouds 7 1033 93 10000 2.6 230 11:59 04.01.2020
5037 Clouds 7 1033 93 10000 3.6 230 11:40 04.01.2020
5038 Clouds 6 1033 93 10000 3.1 230 11:19 04.01.2020
5039 Drizzle 6 1033 93 3500 3.1 230 10:55 04.01.2020
5040 Drizzle 6 1033 93 3500 3.1 230 10:55 04.01.2020
5041 Drizzle 6 1033 93 3500 3.1 230 10:37 04.01.2020
5042 Clouds 6 1032 93 10000 3.1 240 10:19 04.01.2020
5043 Clouds 6 1032 93 10000 3.6 240 09:42 04.01.2020
5044 Clouds 6 1032 87 10000 4.1 250 09:23 04.01.2020
5045 Clouds 6 1032 87 10000 4.6 250 08:42 04.01.2020
5046 Clouds 6 1032 87 10000 4.1 250 08:21 04.01.2020
5047 Clouds 6 1031 87 10000 4.6 250 07:44 04.01.2020
5048 Clouds 6 1031 87 10000 5.1 240 07:26 04.01.2020
5049 Clouds 6 1031 87 10000 4.6 250 06:36 04.01.2020
5050 Clouds 6 1031 87 10000 4.6 250 05:45 04.01.2020
5051 Clouds 5 1031 93 10000 4.6 240 04:44 04.01.2020
5052 Drizzle 6 1031 93 10000 4.1 240 04:26 04.01.2020
5053 Clouds 6 1032 87 10000 3.6 240 03:19 04.01.2020
5054 Clouds 6 1031 87 10000 4.6 240 02:23 04.01.2020
5055 Clouds 6 1031 87 10000 4.6 240 02:23 04.01.2020
5056 Clouds 6 1031 87 10000 4.6 240 01:57 04.01.2020
5057 Clouds 6 1031 87 10000 4.6 240 01:32 04.01.2020
5058 Clouds 6 1031 87 10000 4.1 240 00:50 04.01.2020
5059 Clouds 6 1031 87 10000 3.6 240 00:28 04.01.2020
5060 Clouds 6 1031 87 10000 3.6 250 23:52 03.01.2020
5061 Clouds 6 1031 87 10000 4.1 250 23:27 03.01.2020
5062 Clouds 5 1031 87 10000 4.6 250 22:55 03.01.2020
5063 Clouds 5 1031 87 10000 4.6 250 22:55 03.01.2020
5064 Clouds 6 1031 87 10000 4.6 250 22:36 03.01.2020
5065 Clouds 5 1030 93 10000 4.6 250 22:18 03.01.2020
5066 Clouds 6 1030 87 10000 4.1 240 21:55 03.01.2020
5067 Clouds 5 1030 87 10000 4.1 240 21:37 03.01.2020
5068 Clouds 5 1030 93 10000 4.1 250 21:18 03.01.2020
5069 Clouds 5 1030 93 10000 5.1 250 20:43 03.01.2020
5070 Clouds 6 1030 87 10000 4.6 250 20:19 03.01.2020
5071 Clouds 6 1029 81 10000 5.1 250 19:59 03.01.2020
5072 Clouds 5 1029 81 10000 5.1 250 19:40 03.01.2020
5073 Clouds 6 1029 81 10000 4.1 250 19:22 03.01.2020
5074 Clouds 6 1029 81 10000 4.6 250 18:46 03.01.2020
5075 Clouds 6 1029 81 10000 5.1 250 18:26 03.01.2020
5076 Clouds 6 1029 81 10000 5.1 250 18:26 03.01.2020
5077 Clouds 6 1029 81 10000 5.7 260 17:57 03.01.2020
5078 Clouds 6 1029 81 10000 5.7 260 17:39 03.01.2020
5079 Clouds 6 1029 81 10000 6.7 270 17:19 03.01.2020
5080 Clouds 7 1028 75 10000 5.1 260 16:43 03.01.2020
5081 Clouds 7 1028 75 10000 5.7 270 16:24 03.01.2020
5082 Clouds 7 1028 75 10000 5.7 270 15:58 03.01.2020
5083 Clouds 7 1027 75 10000 5.7 270 15:40 03.01.2020
5084 Clouds 7 1027 75 10000 6.2 270 15:18 03.01.2020
5085 Clouds 7 1026 70 10000 6.2 270 14:39 03.01.2020
5086 Clouds 7 1026 75 10000 7.7 270 14:20 03.01.2020
5087 Clouds 6 1026 75 10000 5.7 270 13:56 03.01.2020
5088 Clouds 6 1026 75 10000 5.7 270 13:37 03.01.2020
5089 Clouds 6 1026 81 10000 5.7 270 13:19 03.01.2020
5090 Clouds 5 1026 80 10000 6.2 270 12:40 03.01.2020
5091 Clouds 5 1026 80 10000 6.2 270 12:21 03.01.2020
5092 Clouds 5 1025 86 10000 5.1 260 11:49 03.01.2020
5093 Clouds 4 1025 86 10000 5.7 270 11:30 03.01.2020
5094 Clouds 4 1024 86 10000 6.2 270 10:48 03.01.2020
5095 Clouds 4 1024 86 10000 6.2 270 10:28 03.01.2020
5096 Clouds 4 1022 86 10000 6.2 280 09:59 03.01.2020
5097 Clouds 4 1022 86 10000 6.2 280 09:41 03.01.2020
5098 Clouds 4 1022 86 10000 5.1 270 09:22 03.01.2020
5099 Clouds 4 1021 86 10000 4.6 270 08:57 03.01.2020
5100 Clouds 4 1021 86 10000 4.6 270 08:39 03.01.2020
5101 Clouds 4 1021 86 10000 5.1 270 08:20 03.01.2020
5102 Clouds 5 1020 86 10000 6.7 280 07:41 03.01.2020
5103 Clouds 5 1019 80 10000 6.7 290 07:19 03.01.2020
5104 Clouds 4 1018 93 10000 5.1 280 06:54 03.01.2020
5105 Clouds 5 1017 86 10000 5.1 280 06:35 03.01.2020
5106 Clouds 5 1017 86 10000 5.7 290 05:48 03.01.2020
5107 Clouds 5 1015 80 10000 6.2 300 04:31 03.01.2020
5108 Clouds 6 1014 86 10000 6.7 310 03:34 03.01.2020
5109 Clouds 6 1012 81 10000 6.7 330 02:47 03.01.2020
5110 Clouds 7 1010 93 10000 8.7 340 01:47 03.01.2020
5111 Drizzle 9 1008 100 7000 4.6 250 00:57 03.01.2020
5112 Drizzle 9 1008 100 7000 4.6 250 00:33 03.01.2020
5113 Drizzle 10 1007 93 10000 4.1 240 23:58 02.01.2020
5114 Drizzle 10 1007 93 10000 4.1 240 23:39 02.01.2020
5115 Rain 10 1007 93 5000 4.1 240 23:19 02.01.2020
5116 Rain 10 1006 93 7000 4.6 230 22:58 02.01.2020
5117 Rain 10 1007 93 5000 4.1 240 22:58 02.01.2020
5118 Rain 10 1006 93 7000 4.6 230 22:39 02.01.2020
5119 Clouds 10 1006 87 10000 5.1 230 22:19 02.01.2020
5120 Clouds 10 1006 87 10000 4.6 230 21:54 02.01.2020
5121 Clouds 10 1006 87 10000 4.6 230 21:36 02.01.2020
5122 Rain 10 1005 87 10000 4.6 230 21:18 02.01.2020
5123 Rain 10 1005 87 10000 5.7 230 20:40 02.01.2020
5124 Rain 10 1005 87 10000 4.1 240 20:21 02.01.2020
5125 Rain 11 1005 87 7000 5.1 230 19:56 02.01.2020
5126 Rain 11 1005 87 7000 5.1 230 19:56 02.01.2020
5127 Rain 11 1005 87 7000 5.1 230 19:38 02.01.2020
5128 Clouds 11 1004 81 10000 6.7 210 19:19 02.01.2020
5129 Clouds 11 1004 81 10000 6.7 210 18:59 02.01.2020
5130 Clouds 11 1004 81 10000 6.2 200 18:40 02.01.2020
5131 Clouds 11 1004 81 10000 5.7 210 18:22 02.01.2020
5132 Clouds 11 1004 81 10000 5.7 210 18:22 02.01.2020
5133 Clouds 11 1004 81 10000 6.2 210 17:57 02.01.2020
5134 Clouds 11 1004 81 10000 6.2 210 17:38 02.01.2020
5135 Clouds 11 1004 81 10000 6.2 220 17:19 02.01.2020
5136 Clouds 11 1004 87 10000 7.2 210 16:57 02.01.2020
5137 Clouds 11 1004 87 10000 7.2 210 16:38 02.01.2020
5138 Clouds 11 1004 87 10000 7.2 210 16:38 02.01.2020
5139 Clouds 11 1004 87 10000 6.2 210 16:20 02.01.2020
5140 Rain 11 1004 87 10000 7.2 200 15:56 02.01.2020
5141 Rain 11 1005 87 10000 6.7 200 15:37 02.01.2020
5142 Rain 11 1005 87 10000 6.7 200 15:19 02.01.2020
5143 Rain 11 1006 87 8000 4.6 190 14:54 02.01.2020
5144 Rain 11 1006 87 8000 4.6 190 14:36 02.01.2020
5145 Rain 11 1006 93 8000 6.7 190 14:18 02.01.2020
5146 Rain 11 1007 87 8000 6.7 190 13:47 02.01.2020
5147 Rain 11 1008 87 10000 6.2 180 13:29 02.01.2020
5148 Rain 11 1008 81 10000 4.6 180 12:44 02.01.2020
5149 Clouds 10 1009 81 10000 8.7 200 12:24 02.01.2020
5150 Clouds 10 1009 81 10000 8.7 200 12:24 02.01.2020
5151 Clouds 10 1009 81 10000 8.7 200 11:43 02.01.2020
5152 Clouds 10 1009 76 10000 6.2 190 11:24 02.01.2020
5153 Clouds 10 1009 81 10000 7.2 190 10:56 02.01.2020
5154 Clouds 10 1009 81 10000 7.2 190 10:37 02.01.2020
5155 Clouds 10 1010 81 10000 8.7 190 10:18 02.01.2020
5156 Clouds 10 1010 81 10000 7.2 220 09:41 02.01.2020
5157 Clouds 9 1010 81 10000 8.2 200 09:22 02.01.2020
5158 Clouds 9 1011 81 10000 8.2 210 08:44 02.01.2020
5159 Clouds 9 1011 81 10000 8.7 210 08:25 02.01.2020
5160 Clouds 8 1012 81 10000 2.6 190 07:48 02.01.2020
5161 Clouds 8 1012 81 10000 2.1 180 07:28 02.01.2020
5162 Clouds 8 1012 81 10000 2.6 240 06:43 02.01.2020
5163 Clouds 8 1013 81 10000 1.5 0 05:58 02.01.2020
5164 Clouds 8 1014 75 10000 2.1 180 04:38 02.01.2020
5165 Clouds 7 1015 81 10000 2.6 180 04:19 02.01.2020
5166 Clouds 8 1016 75 10000 3.1 210 02:25 02.01.2020
5167 Clouds 8 1016 75 10000 2.6 180 01:57 02.01.2020
5168 Clouds 8 1017 75 10000 3.6 200 01:30 02.01.2020
5169 Clouds 7 1018 81 10000 1.5 0 00:52 02.01.2020
5170 Clouds 7 1018 81 10000 1.5 0 00:28 02.01.2020
5171 Clouds 7 1018 86 10000 1 310 23:47 01.01.2020
5172 Clouds 6 1019 93 10000 0.5 360 23:24 01.01.2020
5173 Clouds 6 1019 93 10000 1.5 80 22:39 01.01.2020
5174 Clouds 5 1020 93 10000 1 0 22:21 01.01.2020
5175 Clouds 6 1020 93 10000 1 0 21:59 01.01.2020
5176 Clouds 6 1020 93 10000 1 0 21:41 01.01.2020
5177 Clouds 5 1020 93 10000 1 0 21:21 01.01.2020
5178 Clouds 5 1020 93 10000 1 0 20:58 01.01.2020
5179 Clouds 5 1021 93 10000 1 0 20:39 01.01.2020
5180 Clouds 5 1021 93 10000 1 0 20:20 01.01.2020
5181 Clouds 6 1022 80 10000 2.1 180 19:57 01.01.2020
5182 Clouds 6 1022 80 10000 2.1 180 19:39 01.01.2020
5183 Clouds 5 1022 80 10000 2.1 140 19:20 01.01.2020
5184 Clouds 6 1022 75 10000 2.1 150 18:57 01.01.2020
5185 Clouds 5 1022 75 10000 2.1 150 18:38 01.01.2020
5186 Clouds 6 1023 81 10000 2.6 170 18:20 01.01.2020
5187 Clouds 6 1023 75 10000 4.1 190 17:58 01.01.2020
5188 Clouds 6 1023 75 10000 4.1 190 17:40 01.01.2020
5189 Clouds 7 1023 75 10000 4.1 180 17:19 01.01.2020
5190 Clouds 7 1024 75 10000 4.1 220 16:57 01.01.2020
5191 Clouds 7 1024 75 10000 4.1 220 16:38 01.01.2020
5192 Clouds 7 1024 70 10000 4.1 210 16:19 01.01.2020
5193 Clouds 7 1024 70 10000 3.1 210 15:56 01.01.2020
5194 Clouds 7 1024 70 10000 3.1 210 15:37 01.01.2020
5195 Clouds 7 1024 81 10000 2.6 210 15:19 01.01.2020
5196 Clouds 7 1025 81 10000 3.6 220 14:42 01.01.2020
5197 Clouds 7 1025 75 10000 4.1 220 14:24 01.01.2020
5198 Clouds 7 1026 75 10000 1.5 0 13:57 01.01.2020
5199 Clouds 7 1026 75 10000 1.5 0 13:38 01.01.2020
5200 Clouds 7 1026 75 10000 1.5 0 13:20 01.01.2020
5201 Clouds 6 1026 81 10000 2.1 180 12:58 01.01.2020
5202 Clouds 6 1026 81 10000 2.1 180 12:40 01.01.2020
5203 Clouds 5 1026 81 10000 1.5 0 12:19 01.01.2020
5204 Clouds 5 1026 81 10000 1.5 0 12:19 01.01.2020
5205 Clouds 4 1027 86 10000 1.5 0 11:56 01.01.2020
5206 Clouds 4 1027 86 10000 1.5 0 11:38 01.01.2020
5207 Clouds 3 1027 93 10000 1.5 0 11:19 01.01.2020
5208 Clouds 2 1027 93 9000 1.5 160 10:54 01.01.2020
5209 Clouds 2 1027 93 9000 1.5 160 10:36 01.01.2020
5210 Clouds 2 1027 93 8000 1.5 0 10:18 01.01.2020
5211 Clouds 2 1027 93 8000 2.1 240 09:39 01.01.2020
5212 Clouds 2 1027 93 10000 2.1 240 09:20 01.01.2020
5213 Clouds 1 1028 95 10000 2.6 260 08:57 01.01.2020
5214 Clouds 2 1028 95 10000 2.6 260 08:37 01.01.2020
5215 Clouds 2 1028 95 10000 2.6 260 08:37 01.01.2020
5216 Clouds 2 1027 92 10000 3.6 270 08:19 01.01.2020
5217 Clouds 1 1027 92 10000 3.1 250 07:56 01.01.2020
5218 Clouds 2 1027 92 10000 3.1 250 07:38 01.01.2020
5219 Clouds 1 1027 92 10000 0.5 360 06:46 01.01.2020
5220 Clouds 2 1026 92 10000 2.1 130 06:22 01.01.2020
5221 Clouds 2 1027 92 10000 1 0 05:46 01.01.2020
5222 Clouds 5 1028 75 10000 2.1 200 03:48 01.01.2020
5223 Clouds 5 1029 70 10000 3.1 230 03:28 01.01.2020
5224 Clouds 6 1029 75 10000 3.1 220 02:59 01.01.2020
5225 Clouds 6 1029 75 10000 3.1 220 02:41 01.01.2020
5226 Clouds 6 1029 81 10000 2.6 220 02:21 01.01.2020
5227 Clouds 7 1029 81 10000 2.1 230 01:39 01.01.2020
5228 Clouds 7 1029 81 10000 2.1 220 01:21 01.01.2020
5229 Clouds 7 1029 81 10000 1.5 200 00:44 01.01.2020
5230 Clouds 7 1029 81 10000 1.5 200 00:44 01.01.2020
5231 Clouds 7 1029 75 10000 2.1 210 00:26 01.01.2020
5232 Clouds 7 1029 75 10000 1.5 0 23:43 31.12.2019
5233 Clouds 7 1029 75 10000 2.1 150 23:24 31.12.2019
5234 Clouds 7 1030 81 10000 3.1 150 22:59 31.12.2019
5235 Clouds 7 1030 81 10000 3.1 150 22:39 31.12.2019
5236 Clouds 8 1030 81 10000 2.6 140 22:20 31.12.2019
5237 Clouds 8 1030 81 10000 2.6 120 21:59 31.12.2019
5238 Clouds 8 1030 81 10000 2.6 120 21:41 31.12.2019
5239 Clouds 8 1030 81 10000 3.1 130 21:23 31.12.2019
5240 Clouds 8 1030 93 10000 3.6 120 20:57 31.12.2019
5241 Clouds 8 1030 81 10000 2.1 120 20:37 31.12.2019
5242 Clouds 8 1030 81 10000 2.1 120 20:19 31.12.2019
5243 Clouds 8 1030 81 10000 2.6 120 19:55 31.12.2019
5244 Clouds 8 1030 76 10000 1.5 120 19:37 31.12.2019
5245 Clouds 8 1030 76 10000 1.5 120 19:18 31.12.2019
5246 Clouds 8 1030 81 10000 2.1 150 18:54 31.12.2019
5247 Clouds 8 1030 81 10000 2.1 150 18:54 31.12.2019
5248 Clouds 8 1030 81 10000 2.1 150 18:36 31.12.2019
5249 Clouds 8 1030 93 10000 1 0 18:18 31.12.2019
5250 Clouds 8 1030 87 10000 1.5 0 17:55 31.12.2019
5251 Clouds 8 1030 87 10000 1.5 0 17:36 31.12.2019
5252 Clouds 8 1030 87 10000 2.6 120 17:18 31.12.2019
5253 Clouds 8 1030 87 10000 2.6 120 17:18 31.12.2019
5254 Clouds 8 1030 87 10000 2.1 110 16:55 31.12.2019
5255 Clouds 8 1030 87 10000 2.1 110 16:36 31.12.2019
5256 Clouds 8 1030 87 10000 2.1 110 16:18 31.12.2019
5257 Clouds 9 1030 87 10000 2.6 110 15:55 31.12.2019
5258 Clouds 8 1030 87 10000 1 0 15:37 31.12.2019
5259 Clouds 9 1030 87 10000 1 0 15:18 31.12.2019
5260 Clouds 9 1030 87 10000 1 0 15:18 31.12.2019
5261 Clouds 8 1030 93 10000 2.1 120 14:55 31.12.2019
5262 Clouds 8 1030 93 10000 2.1 120 14:36 31.12.2019
5263 Clouds 8 1031 93 10000 2.1 140 14:18 31.12.2019
5264 Clouds 8 1031 93 10000 2.1 120 13:54 31.12.2019
5265 Clouds 7 1032 87 10000 2.6 100 13:36 31.12.2019
5266 Clouds 7 1032 87 10000 2.6 100 13:18 31.12.2019
5267 Clouds 7 1032 93 10000 3.6 80 12:40 31.12.2019
5268 Clouds 7 1032 93 10000 3.6 80 12:40 31.12.2019
5269 Clouds 7 1032 87 10000 4.1 60 12:21 31.12.2019
5270 Clouds 7 1032 87 10000 4.1 60 12:21 31.12.2019
5271 Clouds 7 1032 87 10000 4.6 50 11:57 31.12.2019
5272 Clouds 7 1032 87 10000 4.6 50 11:39 31.12.2019
5273 Clouds 7 1032 87 10000 5.1 50 11:21 31.12.2019
5274 Clouds 7 1032 87 10000 5.1 50 10:58 31.12.2019
5275 Clouds 7 1032 87 10000 5.1 50 10:39 31.12.2019
5276 Clouds 7 1031 87 10000 4.1 60 10:20 31.12.2019
5277 Clouds 7 1031 87 10000 4.1 60 09:59 31.12.2019
5278 Clouds 7 1031 81 10000 4.6 70 09:40 31.12.2019
5279 Clouds 7 1030 87 10000 5.1 70 09:21 31.12.2019
5280 Clouds 6 1030 87 10000 4.6 80 08:58 31.12.2019
5281 Clouds 6 1030 87 10000 4.6 80 08:39 31.12.2019
5282 Clouds 6 1030 87 10000 5.1 70 08:20 31.12.2019
5283 Clouds 6 1030 86 10000 4.6 70 07:43 31.12.2019
5284 Clouds 6 1030 86 10000 4.6 70 07:22 31.12.2019
5285 Clouds 7 1030 81 10000 4.1 70 06:50 31.12.2019
5286 Clouds 7 1030 87 10000 3.1 80 05:58 31.12.2019
5287 Clouds 7 1031 93 10000 4.6 50 04:30 31.12.2019
5288 Clouds 7 1031 93 10000 4.1 70 03:38 31.12.2019
5289 Clouds 7 1030 87 10000 4.1 50 02:56 31.12.2019
5290 Clouds 7 1030 87 10000 4.6 50 02:19 31.12.2019
5291 Clouds 7 1031 87 10000 3.6 50 01:48 31.12.2019
5292 Clouds 7 1031 93 10000 3.6 50 01:27 31.12.2019
5293 Clouds 7 1031 100 10000 3.6 60 00:46 31.12.2019
5294 Clouds 7 1031 87 10000 3.6 60 00:22 31.12.2019
5295 Clouds 7 1030 93 10000 4.1 30 23:56 30.12.2019
5296 Clouds 7 1030 93 10000 4.1 30 23:38 30.12.2019
5297 Clouds 8 1029 93 10000 5.1 40 23:20 30.12.2019
5298 Clouds 8 1029 93 10000 4.6 40 22:58 30.12.2019
5299 Clouds 8 1029 93 10000 4.6 40 22:39 30.12.2019
5300 Clouds 8 1029 93 10000 3.6 50 22:20 30.12.2019
5301 Clouds 8 1029 93 10000 3.6 40 21:57 30.12.2019
5302 Clouds 8 1029 93 10000 3.6 40 21:38 30.12.2019
5303 Clouds 8 1029 93 10000 3.6 40 21:38 30.12.2019
5304 Clouds 8 1028 93 10000 4.6 30 21:19 30.12.2019
5305 Clouds 8 1029 93 10000 4.1 20 20:56 30.12.2019
5306 Clouds 8 1029 93 10000 4.1 20 20:38 30.12.2019
5307 Rain 9 1029 93 10000 3.6 20 20:20 30.12.2019
5308 Rain 9 1029 93 9000 3.1 10 19:57 30.12.2019
5309 Rain 9 1028 100 9000 4.6 20 19:38 30.12.2019
5310 Rain 10 1028 100 9000 4.6 20 19:19 30.12.2019
5311 Drizzle 10 1027 100 9000 2.1 340 18:56 30.12.2019
5312 Drizzle 10 1027 100 9000 2.1 340 18:38 30.12.2019
5313 Drizzle 10 1027 100 7000 2.1 270 18:20 30.12.2019
5314 Drizzle 10 1027 93 6000 3.1 270 17:55 30.12.2019
5315 Drizzle 10 1027 93 6000 3.1 270 17:37 30.12.2019
5316 Clouds 10 1027 93 10000 3.6 250 17:18 30.12.2019
5317 Clouds 10 1026 87 10000 4.1 250 16:57 30.12.2019
5318 Clouds 10 1026 87 10000 4.1 250 16:36 30.12.2019
5319 Clouds 10 1026 87 10000 4.1 250 16:36 30.12.2019
5320 Clouds 11 1026 87 10000 4.6 250 16:18 30.12.2019
5321 Clouds 11 1025 87 10000 4.1 240 15:55 30.12.2019
5322 Clouds 11 1025 87 10000 4.1 240 15:36 30.12.2019
5323 Clouds 11 1025 87 10000 4.6 240 15:18 30.12.2019
5324 Clouds 11 1025 87 10000 5.1 240 14:42 30.12.2019
5325 Clouds 11 1025 87 10000 6.2 230 14:19 30.12.2019
5326 Clouds 10 1024 81 10000 5.7 230 13:56 30.12.2019
5327 Clouds 10 1024 81 10000 5.7 230 13:37 30.12.2019
5328 Clouds 10 1024 81 10000 4.6 220 13:19 30.12.2019
5329 Clouds 10 1025 87 10000 5.7 230 12:43 30.12.2019
5330 Clouds 10 1025 87 10000 5.7 240 12:20 30.12.2019
5331 Clouds 10 1024 87 10000 4.6 220 11:59 30.12.2019
5332 Clouds 10 1024 87 10000 4.6 220 11:40 30.12.2019
5333 Clouds 10 1024 87 10000 6.2 230 11:19 30.12.2019
5334 Clouds 9 1024 81 10000 6.2 240 10:44 30.12.2019
5335 Clouds 9 1023 81 10000 5.7 250 10:22 30.12.2019
5336 Clouds 10 1023 81 10000 5.7 250 09:58 30.12.2019
5337 Clouds 10 1023 76 10000 3.1 260 09:40 30.12.2019
5338 Clouds 10 1022 66 10000 2.6 210 09:20 30.12.2019
5339 Clouds 10 1022 66 10000 4.1 210 08:50 30.12.2019
5340 Clouds 10 1022 66 10000 3.6 220 08:23 30.12.2019
5341 Clouds 10 1022 71 10000 2.6 210 07:56 30.12.2019
5342 Clouds 10 1022 71 10000 2.6 210 07:37 30.12.2019
5343 Clouds 9 1022 71 10000 1 0 06:52 30.12.2019
5344 Clouds 7 1022 93 10000 1.5 0 04:58 30.12.2019
5345 Clouds 8 1023 93 10000 1 0 03:57 30.12.2019
5346 Clouds 7 1023 87 10000 1 0 02:58 30.12.2019
5347 Clouds 8 1023 87 10000 1 0 02:40 30.12.2019
5348 Clouds 8 1023 93 10000 2.1 10 01:50 30.12.2019
5349 Clouds 8 1023 93 10000 2.1 340 01:21 30.12.2019
5350 Clouds 8 1023 93 10000 1 0 00:44 30.12.2019
5351 Clouds 8 1023 87 10000 2.6 130 00:19 30.12.2019
5352 Clouds 8 1023 87 10000 2.1 90 23:39 29.12.2019
5353 Clouds 8 1023 87 10000 2.1 90 23:39 29.12.2019
5354 Clouds 9 1023 75 10000 3.6 130 23:21 29.12.2019
5355 Clouds 9 1023 81 10000 3.1 180 22:43 29.12.2019
5356 Clouds 10 1023 66 10000 2.1 140 22:24 29.12.2019
5357 Clouds 10 1023 66 10000 2.1 140 21:59 29.12.2019
5358 Clouds 9 1023 76 10000 2.1 130 21:41 29.12.2019
5359 Clouds 10 1023 66 10000 3.1 140 21:21 29.12.2019
5360 Clouds 11 1024 62 10000 2.6 120 20:57 29.12.2019
5361 Clouds 11 1024 62 10000 2.6 120 20:39 29.12.2019
5362 Clouds 11 1023 54 10000 3.1 190 20:20 29.12.2019
5363 Clouds 11 1023 54 10000 3.1 190 20:20 29.12.2019
5364 Clouds 11 1023 54 10000 3.1 190 20:20 29.12.2019
5365 Clouds 10 1024 62 10000 4.1 200 19:59 29.12.2019
5366 Clouds 11 1024 62 10000 4.1 200 19:40 29.12.2019
5367 Clouds 11 1024 66 10000 4.6 190 19:21 29.12.2019
5368 Clouds 10 1024 71 10000 4.1 200 18:57 29.12.2019
5369 Clouds 10 1024 71 10000 4.1 200 18:38 29.12.2019
5370 Clouds 11 1024 76 10000 2.6 210 18:19 29.12.2019
5371 Clouds 11 1024 76 10000 3.1 220 17:58 29.12.2019
5372 Clouds 11 1024 76 10000 3.1 220 17:39 29.12.2019
5373 Clouds 11 1024 76 10000 3.1 250 17:20 29.12.2019
5374 Clouds 11 1024 76 10000 3.1 240 16:56 29.12.2019
5375 Clouds 11 1024 76 10000 3.1 240 16:37 29.12.2019
5376 Clouds 11 1024 76 10000 5.1 250 16:19 29.12.2019
5377 Clouds 11 1023 66 10000 6.2 240 15:57 29.12.2019
5378 Clouds 12 1023 66 10000 6.2 240 15:38 29.12.2019
5379 Clouds 12 1023 66 10000 2.6 30 15:19 29.12.2019
5380 Clouds 11 1023 54 10000 1 0 14:56 29.12.2019
5381 Clouds 11 1023 54 10000 1 0 14:38 29.12.2019
5382 Clouds 11 1023 54 10000 1.5 0 14:18 29.12.2019
5383 Clouds 11 1024 62 10000 2.6 120 13:57 29.12.2019
5384 Clouds 11 1024 62 10000 2.6 120 13:37 29.12.2019
5385 Clouds 11 1024 62 10000 2.6 120 13:37 29.12.2019
5386 Clouds 11 1024 66 10000 5.1 210 13:19 29.12.2019
5387 Clouds 11 1024 66 10000 1 0 12:45 29.12.2019
5388 Clouds 11 1024 71 10000 1.5 0 12:26 29.12.2019
5389 Clouds 11 1024 81 10000 1.5 0 11:57 29.12.2019
5390 Clouds 11 1024 81 10000 1.5 0 11:38 29.12.2019
5391 Clouds 11 1024 81 10000 1.5 0 11:20 29.12.2019
5392 Clouds 11 1024 71 10000 0.5 360 10:43 29.12.2019
5393 Clouds 11 1024 71 10000 1 0 10:24 29.12.2019
5394 Clouds 11 1024 71 10000 1.5 0 09:58 29.12.2019
5395 Clouds 10 1024 71 10000 1.5 0 09:39 29.12.2019
5396 Clouds 10 1025 76 10000 3.6 200 09:21 29.12.2019
5397 Clouds 10 1025 76 10000 2.1 230 08:47 29.12.2019
5398 Clouds 10 1024 76 10000 1.5 0 08:27 29.12.2019
5399 Clouds 10 1024 76 10000 1 0 07:55 29.12.2019
5400 Clouds 11 1025 76 10000 3.1 220 07:28 29.12.2019
5401 Clouds 11 1025 76 10000 4.6 220 06:56 29.12.2019
5402 Clouds 11 1024 76 10000 3.6 240 06:26 29.12.2019
5403 Clouds 11 1024 76 10000 2.1 210 05:52 29.12.2019
5404 Clouds 11 1025 81 10000 6.2 210 04:36 29.12.2019
5405 Clouds 11 1025 81 10000 7.7 220 03:54 29.12.2019
5406 Clouds 10 1025 81 10000 6.2 220 03:20 29.12.2019
5407 Clouds 11 1025 76 10000 4.1 210 02:20 29.12.2019
5408 Clouds 11 1025 66 10000 4.6 160 01:31 29.12.2019
5409 Clouds 11 1026 76 10000 1.5 0 00:58 29.12.2019
5410 Clouds 11 1026 76 10000 1.5 0 00:40 29.12.2019
5411 Clouds 11 1026 71 10000 1.5 0 00:21 29.12.2019
5412 Clouds 10 1026 66 10000 1 0 23:43 28.12.2019
5413 Clouds 11 1026 71 10000 2.6 110 23:18 28.12.2019
5414 Clouds 11 1026 71 10000 6.2 220 22:39 28.12.2019
5415 Clouds 11 1026 66 10000 4.6 220 22:21 28.12.2019
5416 Clouds 11 1026 54 10000 4.6 200 21:58 28.12.2019
5417 Clouds 11 1026 54 10000 4.6 200 21:39 28.12.2019
5418 Clouds 11 1026 43 10000 3.6 180 21:21 28.12.2019
5419 Clouds 11 1025 50 10000 2.1 200 20:57 28.12.2019
5420 Clouds 11 1025 50 10000 2.1 200 20:37 28.12.2019
5421 Clouds 10 1026 50 10000 4.1 170 20:19 28.12.2019
5422 Clouds 10 1026 66 10000 5.1 180 19:56 28.12.2019
5423 Clouds 10 1026 66 10000 5.1 180 19:38 28.12.2019
5424 Clouds 10 1025 76 10000 3.6 190 19:19 28.12.2019
5425 Clouds 10 1025 66 10000 2.1 90 18:56 28.12.2019
5426 Clouds 10 1025 66 10000 2.1 90 18:56 28.12.2019
5427 Clouds 10 1025 66 10000 2.1 90 18:38 28.12.2019
5428 Clouds 10 1026 66 10000 1 0 18:18 28.12.2019
5429 Clouds 11 1026 71 10000 3.6 230 17:43 28.12.2019
5430 Clouds 11 1026 71 10000 3.6 250 17:22 28.12.2019
5431 Clouds 11 1026 71 10000 3.6 250 16:59 28.12.2019
5432 Clouds 12 1026 62 10000 2.6 90 16:41 28.12.2019
5433 Clouds 11 1026 62 10000 3.1 360 16:23 28.12.2019
5434 Clouds 12 1025 54 10000 2.1 110 15:43 28.12.2019
5435 Clouds 11 1026 62 10000 3.6 250 15:23 28.12.2019
5436 Clouds 11 1026 62 10000 2.6 240 14:56 28.12.2019
5437 Clouds 11 1026 62 10000 2.6 240 14:37 28.12.2019
5438 Clouds 11 1026 66 10000 5.1 210 14:19 28.12.2019
5439 Clouds 11 1026 76 10000 7.7 220 13:42 28.12.2019
5440 Clouds 11 1026 62 10000 2.6 240 13:21 28.12.2019
5441 Clouds 11 1026 62 10000 2.6 240 13:21 28.12.2019
5442 Clouds 10 1026 71 10000 2.1 190 12:58 28.12.2019
5443 Clouds 10 1026 71 10000 2.1 190 12:40 28.12.2019
5444 Clouds 10 1026 81 10000 2.1 100 12:21 28.12.2019
5445 Clouds 10 1026 62 10000 1.5 0 11:40 28.12.2019
5446 Clouds 10 1026 62 10000 2.1 170 11:22 28.12.2019
5447 Clouds 10 1026 66 10000 2.1 150 10:59 28.12.2019
5448 Clouds 10 1026 66 10000 2.1 150 10:41 28.12.2019
5449 Clouds 10 1027 71 10000 1 0 10:20 28.12.2019
5450 Clouds 10 1026 71 10000 4.6 200 09:55 28.12.2019
5451 Clouds 10 1026 71 10000 4.6 200 09:36 28.12.2019
5452 Clouds 10 1026 76 10000 1.5 0 09:18 28.12.2019
5453 Clouds 10 1027 76 10000 3.1 190 08:43 28.12.2019
5454 Clouds 10 1027 76 10000 4.6 250 08:24 28.12.2019
5455 Clouds 10 1027 76 10000 2.6 310 07:48 28.12.2019
5456 Clouds 10 1027 76 10000 1.5 0 07:23 28.12.2019
5457 Clouds 10 1026 76 10000 5.7 220 05:51 28.12.2019
5458 Clouds 10 1026 87 10000 1 0 03:48 28.12.2019
5459 Clouds 10 1026 93 10000 3.1 130 02:51 28.12.2019
5460 Clouds 10 1027 100 10000 3.6 130 02:20 28.12.2019
5461 Clouds 10 1027 93 10000 1 0 01:56 28.12.2019
5462 Clouds 10 1027 93 10000 1.5 0 01:23 28.12.2019
5463 Clouds 11 1027 93 10000 1.5 0 00:48 28.12.2019
5464 Clouds 10 1026 93 10000 2.1 170 00:30 28.12.2019
5465 Clouds 11 1026 87 10000 3.1 100 23:58 27.12.2019
5466 Clouds 11 1026 87 10000 3.1 100 23:39 27.12.2019
5467 Clouds 11 1026 87 10000 1.5 0 23:19 27.12.2019
5468 Clouds 11 1027 87 10000 4.1 210 22:56 27.12.2019
5469 Clouds 11 1027 87 10000 4.1 210 22:37 27.12.2019
5470 Clouds 11 1026 87 10000 4.6 200 22:19 27.12.2019
5471 Clouds 11 1026 93 10000 4.6 220 21:43 27.12.2019
5472 Clouds 11 1026 93 10000 2.1 230 21:25 27.12.2019
5473 Clouds 11 1026 93 10000 3.1 210 20:57 27.12.2019
5474 Clouds 11 1026 93 10000 3.1 210 20:38 27.12.2019
5475 Clouds 12 1025 93 10000 2.1 190 20:20 27.12.2019
5476 Clouds 11 1025 93 10000 2.6 230 19:41 27.12.2019
5477 Clouds 11 1025 93 10000 3.1 230 19:20 27.12.2019
5478 Clouds 11 1025 93 10000 3.1 230 19:20 27.12.2019
5479 Clouds 11 1025 93 10000 3.6 220 18:57 27.12.2019
5480 Clouds 11 1025 93 10000 3.6 220 18:37 27.12.2019
5481 Clouds 11 1025 93 10000 3.1 210 18:19 27.12.2019
5482 Clouds 11 1025 93 10000 3.6 210 17:55 27.12.2019
5483 Clouds 11 1025 93 10000 3.6 210 17:37 27.12.2019
5484 Clouds 12 1024 93 10000 4.6 220 17:18 27.12.2019
5485 Clouds 12 1024 87 10000 5.1 210 16:43 27.12.2019
5486 Clouds 12 1024 87 10000 5.1 230 16:23 27.12.2019
5487 Clouds 12 1023 87 10000 4.6 230 15:58 27.12.2019
5488 Clouds 12 1023 87 10000 4.6 230 15:40 27.12.2019
5489 Clouds 12 1023 82 10000 4.6 230 15:19 27.12.2019
5490 Clouds 12 1023 82 10000 3.6 200 14:56 27.12.2019
5491 Clouds 12 1023 82 10000 3.6 200 14:38 27.12.2019
5492 Clouds 12 1023 82 10000 5.1 200 14:20 27.12.2019
5493 Clouds 12 1023 87 10000 5.1 220 13:47 27.12.2019
5494 Clouds 11 1023 93 10000 4.6 220 13:24 27.12.2019
5495 Clouds 11 1023 93 10000 0.5 360 12:56 27.12.2019
5496 Clouds 11 1023 93 10000 0.5 360 12:37 27.12.2019
5497 Clouds 11 1022 93 10000 1 0 12:18 27.12.2019
5498 Clouds 10 1022 93 10000 1.5 0 11:42 27.12.2019
5499 Clouds 9 1021 100 10000 1.5 0 11:22 27.12.2019
5500 Clouds 9 1022 93 10000 0.5 0 10:54 27.12.2019
5501 Clouds 9 1022 93 10000 0.5 0 10:36 27.12.2019
5502 Clouds 9 1021 100 10000 1.5 0 10:18 27.12.2019
5503 Clouds 9 1021 100 10000 2.1 150 09:40 27.12.2019
5504 Clouds 9 1021 100 10000 2.1 170 09:21 27.12.2019
5505 Clouds 9 1020 100 10000 2.6 140 08:54 27.12.2019
5506 Clouds 9 1020 100 10000 2.6 140 08:34 27.12.2019
5507 Mist 10 1020 93 1500 3.1 130 07:49 27.12.2019
5508 Fog 10 1020 93 800 3.6 130 07:28 27.12.2019
5509 Fog 9 1020 93 800 3.1 140 06:36 27.12.2019
5510 Clouds 9 1020 100 10000 2.6 140 04:58 27.12.2019
5511 Drizzle 8 1019 100 5000 3.1 140 02:53 27.12.2019
5512 Drizzle 8 1019 100 5000 3.1 140 01:59 27.12.2019
5513 Drizzle 8 1019 93 8000 2.1 150 01:24 27.12.2019
5514 Drizzle 8 1019 100 8000 2.1 150 00:54 27.12.2019
5515 Drizzle 8 1019 100 8000 2.1 150 00:34 27.12.2019
5516 Drizzle 8 1018 93 8000 3.1 200 23:59 26.12.2019
5517 Rain 8 1017 87 10000 2.6 190 23:41 26.12.2019
5518 Clouds 8 1017 87 10000 1.5 0 23:21 26.12.2019
5519 Clouds 8 1016 87 10000 2.1 220 22:45 26.12.2019
5520 -273 0 0 0 0 0 22:22 26.12.2019
5521 Clouds 9 1015 87 10000 2.6 260 21:58 26.12.2019
5522 Clouds 9 1015 87 10000 2.6 260 21:38 26.12.2019
5523 Clouds 9 1015 87 10000 3.1 250 21:20 26.12.2019
5524 Clouds 9 1014 87 10000 2.6 240 20:45 26.12.2019
5525 Clouds 9 1014 87 10000 2.6 240 20:45 26.12.2019
5526 Clouds 9 1014 87 10000 2.6 240 20:23 26.12.2019
5527 Clouds 9 1013 87 10000 3.1 240 19:59 26.12.2019
5528 Clouds 9 1013 87 10000 3.1 240 19:39 26.12.2019
5529 Clouds 9 1013 87 10000 3.1 240 19:39 26.12.2019
5530 Clouds 9 1013 87 10000 2.6 230 19:20 26.12.2019
5531 Clouds 9 1012 87 10000 3.1 230 18:57 26.12.2019
5532 Clouds 9 1012 87 10000 3.1 230 18:38 26.12.2019
5533 Clouds 8 1012 87 10000 2.6 240 18:19 26.12.2019
5534 Clouds 8 1011 87 10000 2.6 230 17:43 26.12.2019
5535 Clouds 8 1011 87 10000 2.6 230 17:43 26.12.2019
5536 Clouds 9 1011 87 10000 2.1 230 17:22 26.12.2019
5537 Rain 9 1010 93 10000 2.1 260 16:58 26.12.2019
5538 Rain 9 1010 93 10000 2.1 260 16:40 26.12.2019
5539 Rain 9 1010 93 5000 3.1 230 16:21 26.12.2019
5540 Clouds 9 1009 87 10000 3.1 220 15:41 26.12.2019
5541 Clouds 9 1009 87 10000 3.1 230 15:21 26.12.2019
5542 Clouds 9 1009 87 10000 2.6 200 14:58 26.12.2019
5543 Clouds 9 1009 87 10000 2.6 200 14:38 26.12.2019
5544 Clouds 10 1009 93 10000 2.1 150 14:20 26.12.2019
5545 Clouds 9 1008 93 10000 1.5 0 13:43 26.12.2019
5546 Clouds 9 1008 100 10000 2.6 150 13:21 26.12.2019
5547 Rain 8 1008 93 8000 4.1 130 12:56 26.12.2019
5548 Rain 8 1008 93 8000 4.1 130 12:37 26.12.2019
5549 Rain 8 1008 93 8000 5.7 140 12:19 26.12.2019
5550 Rain 8 1008 93 8000 5.1 140 11:56 26.12.2019
5551 Rain 8 1008 93 8000 5.1 140 11:37 26.12.2019
5552 Rain 7 1008 100 8000 6.2 140 11:19 26.12.2019
5553 Rain 7 1008 93 8000 5.1 130 10:41 26.12.2019
5554 Rain 7 1008 93 8000 6.2 130 10:18 26.12.2019
5555 Rain 7 1008 93 10000 5.7 130 09:45 26.12.2019
5556 Rain 7 1008 87 10000 5.1 100 09:26 26.12.2019
5557 Rain 7 1008 87 10000 6.2 110 08:42 26.12.2019
5558 Rain 7 1008 87 10000 6.2 110 08:24 26.12.2019
5559 Rain 7 1009 87 10000 6.7 110 07:53 26.12.2019
5560 Rain 7 1009 87 10000 6.7 110 07:26 26.12.2019
5561 Rain 7 1009 87 10000 5.7 120 06:53 26.12.2019
5562 Rain 7 1009 87 10000 5.7 120 06:32 26.12.2019
5563 Rain 7 1010 81 10000 7.7 130 05:45 26.12.2019
5564 Rain 7 1011 75 10000 8.2 130 04:55 26.12.2019
5565 Rain 7 1011 75 10000 8.2 130 04:29 26.12.2019
5566 Clouds 7 1013 75 10000 7.7 130 02:54 26.12.2019
5567 Clouds 7 1013 75 10000 7.7 130 02:34 26.12.2019
5568 Clouds 7 1014 75 10000 7.7 130 01:46 26.12.2019
5569 Clouds 7 1014 81 10000 8.7 130 01:28 26.12.2019
5570 Clouds 7 1016 81 10000 7.7 130 00:49 26.12.2019
5571 Clouds 7 1016 81 10000 7.2 130 00:25 26.12.2019
5572 Clouds 7 1017 75 10000 7.7 140 23:58 25.12.2019
5573 Clouds 7 1017 75 10000 7.7 140 23:39 25.12.2019
5574 Clouds 6 1017 81 10000 7.2 130 23:21 25.12.2019
5575 Clouds 7 1017 81 10000 7.7 140 22:58 25.12.2019
5576 Clouds 7 1017 81 10000 7.7 140 22:39 25.12.2019
5577 Clouds 7 1018 87 10000 7.2 130 22:20 25.12.2019
5578 Clouds 6 1018 87 10000 4.6 130 21:57 25.12.2019
5579 Clouds 6 1018 87 10000 4.6 130 21:39 25.12.2019
5580 Clouds 6 1019 87 10000 5.1 120 21:19 25.12.2019
5581 Clouds 6 1019 87 10000 5.1 120 20:54 25.12.2019
5582 Clouds 6 1019 87 10000 5.1 120 20:36 25.12.2019
5583 Clouds 6 1020 81 10000 4.6 130 20:18 25.12.2019
5584 Clouds 6 1020 87 10000 4.6 130 19:42 25.12.2019
5585 Clouds 5 1020 93 10000 2.6 120 19:22 25.12.2019
5586 Clouds 5 1021 93 10000 3.1 120 18:56 25.12.2019
5587 Clouds 5 1021 93 10000 3.1 120 18:36 25.12.2019
5588 Clouds 4 1021 100 10000 2.6 120 18:18 25.12.2019
5589 Clouds 4 1021 93 10000 3.6 100 17:40 25.12.2019
5590 Clouds 4 1022 86 10000 3.1 100 17:19 25.12.2019
5591 Clouds 4 1022 93 10000 3.1 90 16:56 25.12.2019
5592 Clouds 5 1022 93 10000 3.1 90 16:37 25.12.2019
5593 Clouds 5 1022 93 10000 2.6 110 16:18 25.12.2019
5594 Clouds 5 1023 86 10000 2.6 90 15:56 25.12.2019
5595 Clouds 5 1023 86 10000 2.6 90 15:37 25.12.2019
5596 Clouds 5 1023 86 10000 1.5 0 15:18 25.12.2019
5597 Clouds 5 1023 81 10000 1 60 14:56 25.12.2019
5598 Clouds 5 1023 81 10000 1 60 14:37 25.12.2019
5599 Clear 5 1024 75 10000 1 0 14:18 25.12.2019
5600 Clear 5 1024 75 10000 1.5 0 13:42 25.12.2019
5601 Clear 4 1024 80 10000 1.5 0 13:21 25.12.2019
5602 Clear 4 1024 80 10000 2.1 250 12:56 25.12.2019
5603 Clear 4 1024 80 10000 2.1 250 12:38 25.12.2019
5604 Clear 3 1024 86 10000 2.1 250 12:18 25.12.2019
5605 Clear 2 1024 86 10000 2.1 270 11:42 25.12.2019
5606 Clear 1 1024 93 10000 2.6 270 11:22 25.12.2019
5607 Clear 1 1024 93 10000 3.1 260 10:58 25.12.2019
5608 Clear 1 1024 93 10000 3.1 260 10:36 25.12.2019
5609 Clear 1 1024 95 10000 2.1 250 10:18 25.12.2019
5610 Clear 2 1023 93 10000 4.1 240 09:43 25.12.2019
5611 Clear 1 1023 93 10000 4.1 250 09:25 25.12.2019
5612 Clear 2 1023 93 10000 3.1 250 08:45 25.12.2019
5613 Clear 2 1023 93 10000 3.1 250 08:25 25.12.2019
5614 Clear 2 1022 86 10000 4.1 260 07:45 25.12.2019
5615 Clear 2 1022 93 10000 3.6 250 07:23 25.12.2019
5616 Clear 2 1022 100 10000 2.1 230 06:41 25.12.2019
5617 Clear 3 1021 93 10000 2.1 240 06:21 25.12.2019
5618 Clear 3 1021 93 10000 4.6 270 04:47 25.12.2019
5619 Clear 3 1020 93 10000 5.7 270 04:25 25.12.2019
5620 Clear 3 1020 86 10000 6.7 270 03:52 25.12.2019
5621 Clear 3 1020 86 10000 6.7 270 03:32 25.12.2019
5622 Clear 3 1020 86 10000 5.1 260 02:32 25.12.2019
5623 Clear 3 1019 86 10000 4.6 260 01:54 25.12.2019
5624 Clear 3 1019 86 10000 5.1 260 01:24 25.12.2019
5625 Clear 3 1018 93 10000 5.7 260 00:46 25.12.2019
5626 Clear 3 1018 93 10000 6.2 270 00:27 25.12.2019
5627 Clear 3 1018 93 10000 3.6 260 23:42 24.12.2019
5628 Clear 4 1017 86 10000 4.6 260 23:21 24.12.2019
5629 Clear 4 1017 86 10000 4.6 260 22:58 24.12.2019
5630 Clear 4 1016 93 10000 5.1 260 22:37 24.12.2019
5631 Clear 4 1016 86 10000 5.1 260 22:19 24.12.2019
5632 Clear 4 1015 93 10000 6.2 270 21:41 24.12.2019
5633 Clear 5 1015 93 10000 5.7 260 21:22 24.12.2019
5634 Clouds 5 1014 86 10000 5.7 260 20:45 24.12.2019
5635 Clouds 5 1014 86 10000 5.1 260 20:24 24.12.2019
5636 Clouds 5 1013 86 10000 5.1 260 19:57 24.12.2019
5637 Clouds 5 1013 86 10000 5.1 260 19:38 24.12.2019
5638 Clouds 5 1012 93 10000 4.1 260 19:18 24.12.2019
5639 Clouds 5 1012 93 10000 4.6 260 18:42 24.12.2019
5640 Clouds 5 1011 93 10000 5.7 280 18:20 24.12.2019
5641 Clouds 6 1010 93 10000 6.2 280 17:45 24.12.2019
5642 Clouds 6 1009 93 10000 6.7 290 17:24 24.12.2019
5643 Clouds 6 1008 87 10000 6.7 290 16:59 24.12.2019
5644 Clouds 6 1008 87 10000 6.7 290 16:40 24.12.2019
5645 Clouds 6 1008 87 10000 6.7 300 16:22 24.12.2019
5646 Clouds 6 1007 87 10000 6.7 290 15:58 24.12.2019
5647 Clouds 6 1007 87 10000 6.7 290 15:58 24.12.2019
5648 Clouds 6 1007 87 10000 6.7 290 15:38 24.12.2019
5649 Clouds 6 1006 87 10000 7.2 300 15:20 24.12.2019
5650 Clouds 6 1006 87 10000 6.2 300 14:59 24.12.2019
5651 Clouds 6 1006 87 10000 6.2 300 14:40 24.12.2019
5652 Clouds 7 1005 87 10000 7.7 300 14:22 24.12.2019
5653 Clouds 7 1004 93 10000 6.2 300 13:56 24.12.2019
5654 Clouds 7 1004 93 10000 6.2 300 13:38 24.12.2019
5655 Drizzle 7 1004 87 9000 6.2 300 13:20 24.12.2019
5656 Drizzle 7 1003 93 8000 6.2 270 12:57 24.12.2019
5657 Drizzle 7 1003 93 8000 6.2 270 12:38 24.12.2019
5658 Clouds 8 1002 93 10000 5.1 260 12:19 24.12.2019
5659 Drizzle 8 1002 93 4500 5.7 260 11:57 24.12.2019
5660 Drizzle 8 1002 93 4500 5.7 260 11:38 24.12.2019
5661 Clouds 7 1001 93 10000 5.1 250 11:20 24.12.2019
5662 Clouds 7 1000 87 10000 5.7 250 10:57 24.12.2019
5663 Clouds 7 1000 87 10000 5.7 250 10:57 24.12.2019
5664 Clouds 7 1000 87 10000 5.7 250 10:38 24.12.2019
5665 Clouds 7 1000 81 10000 5.7 250 10:20 24.12.2019
5666 Clouds 7 999 81 10000 6.2 240 09:56 24.12.2019
5667 Clouds 7 999 81 10000 6.2 240 09:38 24.12.2019
5668 Clouds 7 999 81 10000 5.1 240 09:20 24.12.2019
5669 Clouds 7 999 87 10000 5.1 230 08:47 24.12.2019
5670 Clouds 7 999 87 10000 5.1 230 08:24 24.12.2019
5671 Clouds 7 999 87 10000 4.1 230 07:56 24.12.2019
5672 Clouds 7 999 87 10000 4.1 230 07:38 24.12.2019
5673 Clouds 7 999 87 10000 4.6 220 07:20 24.12.2019
5674 Clouds 7 999 87 10000 5.7 220 06:39 24.12.2019
5675 Clouds 7 999 81 10000 5.7 230 06:19 24.12.2019
5676 Clouds 7 999 87 10000 4.1 220 05:50 24.12.2019
5677 Clouds 7 999 93 10000 1.5 0 05:19 24.12.2019
5678 Rain 5 1000 93 10000 3.1 140 04:21 24.12.2019
5679 Rain 5 1000 93 10000 3.6 150 03:45 24.12.2019
5680 Rain 5 1001 100 10000 3.6 130 02:28 24.12.2019
5681 Rain 6 1002 93 5000 2.1 150 01:54 24.12.2019
5682 Drizzle 6 1003 93 9000 2.1 140 01:25 24.12.2019
5683 Drizzle 6 1003 93 9000 2.1 130 00:56 24.12.2019
5684 Drizzle 6 1003 93 9000 2.1 130 00:37 24.12.2019
5685 Rain 6 1004 87 7000 2.1 140 00:19 24.12.2019
5686 Rain 6 1004 87 10000 1.5 160 23:42 23.12.2019
5687 Rain 6 1004 86 10000 1.5 140 23:23 23.12.2019
5688 Clouds 6 1004 86 10000 1.5 160 22:57 23.12.2019
5689 Clouds 6 1004 86 10000 1.5 160 22:38 23.12.2019
5690 Clouds 5 1005 86 10000 1.5 0 22:19 23.12.2019
5691 Clouds 5 1005 86 10000 2.1 210 21:56 23.12.2019
5692 Clouds 5 1005 86 10000 2.1 210 21:36 23.12.2019
5693 Clouds 5 1005 86 10000 2.1 210 21:36 23.12.2019
5694 Clouds 5 1005 86 10000 2.6 210 21:18 23.12.2019
5695 Clouds 5 1006 93 10000 2.6 220 20:58 23.12.2019
5696 Clouds 5 1006 93 10000 2.6 220 20:40 23.12.2019
5697 Clouds 5 1006 93 10000 3.1 220 20:18 23.12.2019
5698 Clouds 5 1006 86 10000 3.6 220 19:56 23.12.2019
5699 Clouds 6 1006 86 10000 3.6 220 19:38 23.12.2019
5700 Clouds 6 1006 87 10000 2.6 220 19:20 23.12.2019
5701 Clouds 6 1006 87 10000 2.6 220 18:58 23.12.2019
5702 Clouds 6 1007 87 10000 2.6 210 18:39 23.12.2019
5703 Clouds 6 1006 87 10000 4.1 220 18:20 23.12.2019
5704 Clouds 6 1007 87 10000 4.1 220 17:57 23.12.2019
5705 Clouds 6 1007 87 10000 4.1 220 17:39 23.12.2019
5706 Clouds 6 1007 81 10000 4.6 220 17:19 23.12.2019
5707 Clouds 7 1007 81 10000 4.6 220 16:55 23.12.2019
5708 Clouds 7 1007 81 10000 4.6 220 16:37 23.12.2019
5709 Clouds 7 1006 75 10000 3.6 230 16:18 23.12.2019
5710 Clouds 7 1006 75 10000 4.1 230 15:55 23.12.2019
5711 Clouds 7 1006 75 10000 4.1 230 15:36 23.12.2019
5712 Clouds 7 1006 75 10000 4.1 240 15:18 23.12.2019
5713 Clouds 8 1006 75 10000 5.1 250 14:45 23.12.2019
5714 Clouds 8 1006 75 10000 5.1 240 14:26 23.12.2019
5715 Clouds 7 1006 75 10000 5.7 240 13:59 23.12.2019
5716 Clouds 8 1006 75 10000 5.7 240 13:41 23.12.2019
5717 Clouds 8 1005 75 10000 7.2 250 13:22 23.12.2019
5718 Clouds 8 1005 75 10000 7.2 250 13:22 23.12.2019
5719 Clouds 7 1005 81 10000 7.7 260 12:59 23.12.2019
5720 Clouds 7 1005 81 10000 7.7 260 12:40 23.12.2019
5721 Clouds 7 1005 81 10000 7.2 250 12:21 23.12.2019
5722 Clouds 7 1005 81 10000 7.2 250 12:21 23.12.2019
5723 Clouds 7 1004 81 10000 7.2 250 11:55 23.12.2019
5724 Clouds 7 1004 81 10000 7.2 250 11:37 23.12.2019
5725 Clouds 6 1004 87 10000 6.7 250 11:18 23.12.2019
5726 Clouds 6 1004 87 10000 7.2 250 10:54 23.12.2019
5727 Clouds 6 1004 87 10000 7.2 250 10:36 23.12.2019
5728 Clouds 6 1003 87 10000 7.2 250 10:18 23.12.2019
5729 Clouds 6 1003 81 10000 6.7 250 09:40 23.12.2019
5730 Clouds 6 1002 87 10000 7.2 250 09:22 23.12.2019
5731 Clouds 6 1002 81 10000 6.7 250 08:59 23.12.2019
5732 Clouds 6 1002 81 10000 6.7 250 08:40 23.12.2019
5733 Clouds 6 1002 81 10000 6.2 260 08:22 23.12.2019
5734 Clouds 5 1001 86 10000 6.7 260 07:48 23.12.2019
5735 Clouds 6 1001 81 10000 5.7 250 07:21 23.12.2019
5736 Clouds 6 1000 81 10000 4.1 240 06:57 23.12.2019
5737 Clouds 6 1000 81 10000 4.1 240 06:30 23.12.2019
5738 Clouds 6 999 81 10000 5.1 250 05:56 23.12.2019
5739 Clouds 6 999 87 10000 4.6 250 05:30 23.12.2019
5740 Clouds 6 998 87 10000 5.7 250 04:39 23.12.2019
5741 Clouds 6 997 87 10000 4.6 250 03:28 23.12.2019
5742 Clouds 6 997 93 10000 5.7 250 02:43 23.12.2019
5743 Clouds 6 996 87 10000 6.2 250 02:19 23.12.2019
5744 Clouds 6 995 87 10000 7.7 260 01:44 23.12.2019
5745 Clouds 6 995 87 10000 6.7 260 01:26 23.12.2019
5746 Clouds 6 994 93 10000 5.7 260 00:44 23.12.2019
5747 Clouds 7 994 87 10000 7.2 260 00:24 23.12.2019
5748 Clouds 7 993 87 10000 7.2 270 23:40 22.12.2019
5749 Clouds 7 992 93 10000 5.7 260 23:22 22.12.2019
5750 Drizzle 7 991 93 10000 4.6 250 22:58 22.12.2019
5751 Drizzle 7 991 93 10000 4.6 250 22:40 22.12.2019
5752 Drizzle 7 990 93 10000 4.6 250 22:22 22.12.2019
5753 Clouds 7 990 87 10000 3.6 240 21:59 22.12.2019
5754 Clouds 7 990 87 10000 3.6 240 21:40 22.12.2019
5755 Clouds 7 989 87 10000 4.1 230 21:21 22.12.2019
5756 Clouds 6 989 87 10000 4.1 230 20:59 22.12.2019
5757 Clouds 6 989 87 10000 4.1 230 20:39 22.12.2019
5758 Clouds 7 989 87 10000 4.6 240 20:19 22.12.2019
5759 Clouds 7 988 81 10000 4.1 230 19:57 22.12.2019
5760 Clouds 7 988 81 10000 4.1 230 19:39 22.12.2019
5761 Clouds 6 988 93 10000 4.1 230 19:20 22.12.2019
5762 Clouds 7 987 87 10000 4.1 240 18:42 22.12.2019
5763 Clouds 7 987 87 10000 3.6 230 18:24 22.12.2019
5764 Clouds 7 986 87 10000 4.6 250 17:56 22.12.2019
5765 Clouds 7 986 87 10000 4.6 250 17:56 22.12.2019
5766 Clouds 7 986 87 10000 4.6 250 17:38 22.12.2019
5767 Clouds 7 986 87 10000 5.1 250 17:19 22.12.2019
5768 Clouds 7 986 87 10000 5.1 250 17:19 22.12.2019
5769 Clouds 7 985 87 10000 5.1 250 16:57 22.12.2019
5770 Clouds 7 985 87 10000 5.1 250 16:57 22.12.2019
5771 Clouds 7 985 87 10000 5.1 250 16:39 22.12.2019
5772 Clouds 7 985 87 10000 5.1 260 16:21 22.12.2019
5773 Clouds 7 985 87 10000 4.6 250 15:56 22.12.2019
5774 Clouds 7 985 87 10000 4.6 250 15:38 22.12.2019
5775 Clouds 7 984 87 10000 5.1 260 15:20 22.12.2019
5776 Clouds 7 984 87 10000 4.1 250 14:55 22.12.2019
5777 Clouds 7 984 87 10000 4.1 250 14:55 22.12.2019
5778 Clouds 7 984 87 10000 4.1 250 14:37 22.12.2019
5779 Clouds 7 984 87 10000 6.7 270 14:18 22.12.2019
5780 Clouds 7 983 81 10000 3.6 250 13:55 22.12.2019
5781 Clouds 7 983 81 10000 3.6 250 13:36 22.12.2019
5782 Clouds 7 983 81 10000 3.6 250 13:36 22.12.2019
5783 Clouds 7 983 87 10000 3.1 230 13:18 22.12.2019
5784 Clouds 6 983 87 10000 4.1 230 12:55 22.12.2019
5785 Clouds 7 983 87 10000 4.1 230 12:55 22.12.2019
5786 Clouds 6 983 87 10000 4.1 230 12:37 22.12.2019
5787 Clouds 6 982 87 10000 4.1 240 12:18 22.12.2019
5788 Clouds 6 982 87 10000 4.1 240 11:55 22.12.2019
5789 Clouds 6 982 87 10000 4.1 240 11:36 22.12.2019
5790 Clouds 6 982 93 10000 4.1 230 11:18 22.12.2019
5791 Clouds 5 981 86 10000 4.1 230 10:54 22.12.2019
5792 Clouds 5 981 86 10000 4.1 230 10:36 22.12.2019
5793 Clouds 5 981 86 10000 4.1 230 10:18 22.12.2019
5794 Clouds 5 981 86 10000 4.1 230 09:41 22.12.2019
5795 Clouds 5 980 87 10000 4.1 230 09:22 22.12.2019
5796 Clouds 6 980 87 10000 4.1 230 08:59 22.12.2019
5797 Clouds 5 980 87 10000 4.1 230 08:39 22.12.2019
5798 Clouds 5 980 93 10000 4.6 230 08:21 22.12.2019
5799 Clouds 5 980 87 10000 4.1 230 07:39 22.12.2019
5800 Clouds 5 979 93 10000 4.1 230 07:20 22.12.2019
5801 Clouds 5 979 93 10000 3.6 220 06:41 22.12.2019
5802 Clouds 5 979 86 10000 2.1 190 05:56 22.12.2019
5803 Rain 5 979 80 10000 2.6 200 05:24 22.12.2019
5804 Clouds 4 978 86 10000 1 170 04:30 22.12.2019
5805 Clouds 4 978 80 10000 1.5 0 03:56 22.12.2019
5806 Clouds 4 978 93 10000 2.1 250 02:42 22.12.2019
5807 Clouds 4 978 93 10000 2.1 250 02:42 22.12.2019
5808 Clouds 4 977 100 8000 3.1 260 01:51 22.12.2019
5809 Clouds 4 977 100 7000 3.6 270 01:30 22.12.2019
5810 Clouds 4 977 100 7000 3.6 270 01:30 22.12.2019
5811 Drizzle 4 976 100 5000 4.1 270 00:47 22.12.2019
5812 Mist 4 976 100 5000 4.6 270 00:24 22.12.2019
5813 Mist 4 975 100 5000 4.6 280 23:57 21.12.2019
5814 Mist 4 975 100 5000 4.6 280 23:38 21.12.2019
5815 Mist 4 975 93 5000 3.6 270 23:19 21.12.2019
5816 Clouds 4 974 100 6000 3.1 270 22:41 21.12.2019
5817 Mist 3 974 100 4000 2.6 270 22:20 21.12.2019
5818 Mist 3 973 100 5000 2.6 270 21:57 21.12.2019
5819 Mist 3 973 100 5000 2.6 270 21:38 21.12.2019
5820 Mist 3 973 93 4000 3.1 270 21:20 21.12.2019
5821 Fog 3 973 93 900 3.1 300 20:59 21.12.2019
5822 Fog 3 973 93 900 3.1 300 20:39 21.12.2019
5823 Clouds 3 973 93 6000 2.6 280 20:21 21.12.2019
5824 Clouds 3 972 93 8000 2.1 270 19:58 21.12.2019
5825 Clouds 3 972 93 8000 2.1 270 19:40 21.12.2019
5826 Clouds 4 972 100 8000 2.6 290 19:19 21.12.2019
5827 Clouds 4 972 100 8000 1.5 0 18:45 21.12.2019
5828 Clouds 4 972 93 8000 2.6 320 18:24 21.12.2019
5829 Clouds 4 972 93 8000 2.6 310 17:57 21.12.2019
5830 Clouds 4 972 93 8000 2.6 310 17:57 21.12.2019
5831 Clouds 4 972 93 8000 2.6 310 17:39 21.12.2019
5832 Clouds 5 972 93 8000 1 300 17:21 21.12.2019
5833 Clouds 5 972 93 8000 1 300 16:59 21.12.2019
5834 Clouds 5 971 93 8000 2.1 330 16:41 21.12.2019
5835 Clouds 5 971 100 8000 1 280 16:19 21.12.2019
5836 Clouds 5 971 93 8000 1 0 15:57 21.12.2019
5837 Clouds 5 971 93 8000 1 0 15:38 21.12.2019
5838 Clouds 5 971 93 6000 1.5 0 15:19 21.12.2019
5839 Clouds 5 972 100 6000 3.1 280 14:56 21.12.2019
5840 Clouds 5 972 100 6000 3.1 280 14:37 21.12.2019
5841 Clouds 5 972 93 8000 3.6 280 14:18 21.12.2019
5842 Clouds 5 972 100 8000 3.1 270 13:55 21.12.2019
5843 Clouds 5 972 100 8000 3.1 270 13:37 21.12.2019
5844 Clouds 5 973 93 8000 3.1 280 13:18 21.12.2019
5845 Clouds 5 973 93 2000 4.1 280 12:54 21.12.2019
5846 Clouds 5 973 93 2000 4.1 280 12:36 21.12.2019
5847 Fog 4 973 100 800 3.6 270 12:18 21.12.2019
5848 Mist 3 973 100 4000 2.6 320 11:41 21.12.2019
5849 Clouds 3 973 100 10000 2.6 290 11:23 21.12.2019
5850 Rain 3 974 100 10000 1.5 0 10:56 21.12.2019
5851 Rain 3 974 100 10000 1.5 0 10:37 21.12.2019
5852 Rain 2 974 100 900 2.6 260 10:19 21.12.2019
5853 Fog 2 974 100 800 2.6 290 09:42 21.12.2019
5854 Fog 2 974 100 900 2.6 360 09:21 21.12.2019
5855 Clouds 2 974 93 10000 1.5 0 08:57 21.12.2019
5856 Clouds 2 974 93 10000 1.5 0 08:37 21.12.2019
5857 Clouds 3 974 100 10000 1.5 0 08:18 21.12.2019
5858 Clouds 2 974 100 10000 1.5 360 07:41 21.12.2019
5859 Clouds 3 974 100 10000 1 0 07:22 21.12.2019
5860 Rain 3 974 100 10000 0.5 0 06:44 21.12.2019
5861 Clouds 3 975 100 10000 1.5 0 06:25 21.12.2019
5862 Clouds 2 975 89 10000 1 0 05:47 21.12.2019
5863 Clouds 3 975 100 10000 2.6 110 04:58 21.12.2019
5864 Clouds 2 976 90 10000 2.1 110 03:57 21.12.2019
5865 Clouds 3 976 90 10000 1.5 150 02:51 21.12.2019
5866 Clouds 4 976 93 10000 2.1 130 01:57 21.12.2019
5867 Clouds 3 977 91 10000 2.6 110 01:27 21.12.2019
5868 Clouds 3 977 93 10000 2.6 130 00:52 21.12.2019
5869 Clouds 2 977 93 10000 2.6 130 00:32 21.12.2019
5870 Clouds 2 977 91 10000 1.5 0 23:57 20.12.2019
5871 Clouds 2 977 91 10000 1.5 0 23:37 20.12.2019
5872 Clear 2 977 90 10000 1.5 0 23:18 20.12.2019
5873 Clear 2 977 100 10000 1 170 22:40 20.12.2019
5874 Clear 1 977 90 10000 1 210 22:21 20.12.2019
5875 Clear 1 977 90 10000 1 210 21:58 20.12.2019
5876 Clear 1 977 90 10000 1 0 21:39 20.12.2019
5877 Clear 2 977 90 10000 1.5 190 21:19 20.12.2019
5878 Clear 2 978 90 10000 1.5 190 20:41 20.12.2019
5879 Clouds 2 978 92 10000 1.5 0 20:20 20.12.2019
5880 Clouds 3 978 86 10000 1.5 0 19:59 20.12.2019
5881 Clouds 3 978 86 10000 1.5 0 19:40 20.12.2019
5882 Clouds 3 978 86 10000 1.5 0 19:19 20.12.2019
5883 Clouds 3 978 93 10000 1 180 18:54 20.12.2019
5884 Clouds 3 978 93 10000 1 180 18:36 20.12.2019
5885 Clouds 4 978 93 10000 1.5 0 18:18 20.12.2019
5886 Clouds 4 977 87 10000 2.1 240 17:42 20.12.2019
5887 Clouds 5 977 87 10000 2.1 240 17:21 20.12.2019
5888 Clouds 5 977 87 10000 2.6 240 16:59 20.12.2019
5889 Clouds 5 977 87 10000 2.1 240 16:39 20.12.2019
5890 Clouds 6 977 87 10000 2.1 240 16:20 20.12.2019
5891 Clouds 6 977 87 10000 3.1 240 15:56 20.12.2019
5892 Clouds 6 977 87 10000 3.1 250 15:38 20.12.2019
5893 Clouds 6 977 87 10000 3.1 250 15:19 20.12.2019
5894 Clouds 6 977 87 10000 3.1 250 15:19 20.12.2019
5895 Clouds 7 977 87 10000 4.1 250 14:54 20.12.2019
5896 Clouds 6 977 87 10000 4.1 250 14:54 20.12.2019
5897 Clouds 6 977 93 10000 4.1 270 14:36 20.12.2019
5898 Clouds 6 977 93 10000 4.1 270 14:18 20.12.2019
5899 Clouds 6 978 93 10000 3.6 260 13:41 20.12.2019
5900 Clouds 6 978 93 10000 4.1 250 13:20 20.12.2019
5901 Clouds 6 978 93 10000 4.6 250 12:57 20.12.2019
5902 Clouds 5 978 93 10000 4.6 260 12:38 20.12.2019
5903 Clouds 5 978 93 10000 4.6 260 12:19 20.12.2019
5904 Mist 5 978 93 5000 4.6 260 11:58 20.12.2019
5905 Mist 4 978 93 5000 4.1 260 11:39 20.12.2019
5906 Mist 5 978 93 5000 4.1 260 11:19 20.12.2019
5907 Clouds 4 978 100 10000 4.1 250 10:57 20.12.2019
5908 Clouds 5 978 100 10000 3.1 240 10:39 20.12.2019
5909 Clouds 5 978 100 10000 3.1 240 10:20 20.12.2019
5910 Clouds 5 978 100 10000 2.6 250 09:44 20.12.2019
5911 Clouds 5 978 100 10000 2.6 250 09:44 20.12.2019
5912 Clouds 5 978 93 10000 3.1 250 09:22 20.12.2019
5913 Clouds 5 978 93 10000 3.1 250 08:59 20.12.2019
5914 Clouds 4 978 93 10000 3.1 250 08:41 20.12.2019
5915 Clouds 4 977 93 10000 4.6 260 08:22 20.12.2019
5916 Clouds 5 977 93 10000 4.1 260 07:58 20.12.2019
5917 Clouds 5 977 93 10000 4.1 250 07:39 20.12.2019
5918 Drizzle 5 977 93 10000 4.1 250 07:18 20.12.2019
5919 Drizzle 5 977 93 10000 4.1 250 06:48 20.12.2019
5920 Drizzle 5 977 93 10000 4.1 250 06:48 20.12.2019
5921 Drizzle 5 977 100 10000 3.6 240 06:30 20.12.2019
5922 Drizzle 5 977 100 10000 3.1 240 05:49 20.12.2019
5923 Drizzle 5 977 93 10000 3.6 250 05:21 20.12.2019
5924 Clouds 6 977 93 10000 5.7 270 03:50 20.12.2019
5925 Drizzle 6 977 93 7000 4.1 280 03:28 20.12.2019
5926 Fog 6 977 100 900 0.5 0 02:33 20.12.2019
5927 Drizzle 6 977 93 5000 0.5 360 01:36 20.12.2019
5928 Drizzle 6 977 93 5000 0.5 360 01:36 20.12.2019
5929 Rain 7 977 100 5000 4.85 236 00:58 20.12.2019
5930 Rain 7 977 93 10000 0.5 360 00:39 20.12.2019
5931 Clouds 7 977 100 10000 1.5 0 23:59 19.12.2019
5932 Clouds 7 977 100 10000 2.1 220 23:40 19.12.2019
5933 Clouds 7 977 100 10000 1.5 0 23:40 19.12.2019
5934 Clouds 7 977 100 10000 2.1 220 23:22 19.12.2019
5935 Clouds 7 977 100 9000 2.1 210 22:41 19.12.2019
5936 Clouds 7 977 100 9000 1 0 22:23 19.12.2019
5937 Rain 7 977 93 9000 0.5 220 21:59 19.12.2019
5938 Rain 7 977 93 9000 0.5 220 21:59 19.12.2019
5939 Rain 7 978 100 9000 1.5 0 21:41 19.12.2019
5940 Rain 7 978 100 9000 1.5 0 21:20 19.12.2019
5941 Rain 7 978 93 7000 0.5 0 20:58 19.12.2019
5942 Rain 7 978 93 5000 1 0 20:38 19.12.2019
5943 Rain 7 978 93 5000 1 0 20:20 19.12.2019
5944 Rain 7 978 93 5000 1 0 20:20 19.12.2019
5945 Rain 7 979 93 9000 2.1 230 19:59 19.12.2019
5946 Rain 7 979 93 9000 2.1 230 19:59 19.12.2019
5947 Rain 7 979 93 8000 4.6 280 19:40 19.12.2019
5948 Rain 7 979 93 8000 4.6 280 19:20 19.12.2019
5949 Rain 8 979 93 8000 3.1 300 18:59 19.12.2019
5950 Rain 8 980 93 8000 2.6 60 18:40 19.12.2019
5951 Rain 8 980 93 8000 2.6 60 18:20 19.12.2019
5952 Rain 8 981 93 8000 3.1 90 17:56 19.12.2019
5953 Rain 8 982 93 7000 4.6 120 17:38 19.12.2019
5954 Rain 8 982 93 7000 4.6 120 17:18 19.12.2019
5955 Rain 9 983 93 7000 6.2 130 16:56 19.12.2019
5956 Rain 9 983 93 7000 6.2 130 16:56 19.12.2019
5957 Rain 9 983 93 7000 6.2 130 16:56 19.12.2019
5958 Rain 9 983 100 7000 5.7 120 16:38 19.12.2019
5959 Rain 9 983 100 7000 5.7 120 16:19 19.12.2019
5960 Rain 9 984 93 6000 4.6 120 15:58 19.12.2019
5961 Rain 9 985 93 6000 3.6 130 15:38 19.12.2019
5962 Rain 9 985 93 6000 3.6 130 15:38 19.12.2019
5963 Rain 9 985 93 6000 3.6 130 15:19 19.12.2019
5964 Rain 9 986 93 10000 4.1 140 14:57 19.12.2019
5965 Clouds 9 986 93 10000 5.7 120 14:39 19.12.2019
5966 Clouds 9 986 93 10000 5.7 120 14:18 19.12.2019
5967 Clouds 9 988 87 10000 4.6 130 13:39 19.12.2019
5968 Clouds 9 988 87 10000 4.6 130 13:20 19.12.2019
5969 Rain 9 988 87 10000 4.6 140 12:58 19.12.2019
5970 Rain 9 989 87 10000 3.1 140 12:40 19.12.2019
5971 Rain 9 989 87 10000 3.1 140 12:19 19.12.2019
5972 Rain 9 989 87 10000 3.6 120 11:59 19.12.2019
5973 Clouds 8 989 93 10000 1.5 0 11:41 19.12.2019
5974 Clouds 8 989 93 10000 1.5 0 11:19 19.12.2019
5975 Clouds 8 989 87 10000 1 0 10:59 19.12.2019
5976 Clouds 8 989 87 10000 1.5 0 10:38 19.12.2019
5977 Clouds 8 989 87 10000 1.5 0 10:38 19.12.2019
5978 Clouds 8 989 87 10000 1.5 0 10:20 19.12.2019
5979 Rain 8 989 87 10000 2.1 140 09:56 19.12.2019
5980 Clouds 8 989 87 10000 3.6 150 09:37 19.12.2019
5981 Clouds 8 989 87 10000 3.6 150 09:37 19.12.2019
5982 Clouds 8 989 87 10000 3.6 150 09:19 19.12.2019
5983 Clouds 8 989 87 10000 4.6 150 08:55 19.12.2019
5984 Clouds 8 989 87 10000 4.6 150 08:55 19.12.2019
5985 Clouds 8 989 87 10000 5.7 160 08:36 19.12.2019
5986 Clouds 8 989 87 10000 5.7 160 08:18 19.12.2019
5987 Clouds 7 989 87 10000 3.6 150 07:41 19.12.2019
5988 Clouds 7 989 87 10000 3.6 150 07:23 19.12.2019
5989 Clouds 8 989 87 10000 3.6 150 06:58 19.12.2019
5990 Clouds 8 989 81 10000 4.1 160 06:39 19.12.2019
5991 Clouds 8 989 76 10000 2.1 140 06:21 19.12.2019
5992 Clouds 9 989 76 10000 1 0 05:42 19.12.2019
5993 Clouds 9 989 76 10000 1 0 05:18 19.12.2019
5994 Clouds 9 989 76 10000 6.7 190 03:51 19.12.2019
5995 Clouds 9 989 76 10000 3.6 200 02:25 19.12.2019
5996 Clouds 9 988 71 10000 8.7 200 01:24 19.12.2019
5997 Clouds 10 987 71 10000 9.3 200 00:55 19.12.2019
5998 Clouds 10 987 71 10000 9.3 180 00:36 19.12.2019
5999 Clouds 10 986 71 10000 11.3 190 00:18 19.12.2019
6000 Clouds 10 985 71 10000 11.8 200 23:43 18.12.2019
6001 Clouds 10 985 71 10000 11.8 200 23:43 18.12.2019
6002 Clouds 10 985 71 10000 11.8 200 23:19 18.12.2019
6003 Rain 10 984 71 10000 10.3 200 22:56 18.12.2019
6004 Rain 10 984 76 10000 10.3 180 22:38 18.12.2019
6005 Rain 11 984 76 10000 10.3 180 22:20 18.12.2019
6006 Rain 11 983 81 10000 11.3 160 21:58 18.12.2019
6007 Drizzle 11 983 87 8000 8.2 150 21:39 18.12.2019
6008 Drizzle 11 983 87 8000 8.2 150 21:20 18.12.2019
6009 Drizzle 11 984 93 8000 10.8 150 20:56 18.12.2019
6010 Drizzle 10 984 93 5000 12.3 150 20:38 18.12.2019
6011 Drizzle 10 984 93 5000 12.3 150 20:19 18.12.2019
6012 Drizzle 10 985 93 4000 11.3 150 19:56 18.12.2019
6013 Drizzle 9 986 93 4000 11.8 140 19:37 18.12.2019
6014 Drizzle 9 986 93 4000 11.8 140 19:18 18.12.2019
6015 Drizzle 9 987 100 4500 9.8 140 18:45 18.12.2019
6016 Drizzle 8 987 100 4500 9.8 140 18:25 18.12.2019
6017 Drizzle 8 988 93 4000 9.8 140 17:58 18.12.2019
6018 Drizzle 9 989 87 4000 9.8 140 17:39 18.12.2019
6019 Drizzle 9 989 87 4000 9.8 140 17:39 18.12.2019
6020 Drizzle 9 989 87 4000 9.8 140 17:20 18.12.2019
6021 Drizzle 9 990 87 3000 10.3 140 16:58 18.12.2019
6022 Drizzle 9 990 87 3000 10.3 140 16:40 18.12.2019
6023 Drizzle 9 990 87 3000 10.3 140 16:40 18.12.2019
6024 Drizzle 8 991 100 3000 9.8 140 16:21 18.12.2019
6025 Drizzle 8 991 100 3500 11.8 150 15:56 18.12.2019
6026 Drizzle 8 991 100 3500 11.8 150 15:38 18.12.2019
6027 Drizzle 9 992 93 4000 11.3 150 15:20 18.12.2019
6028 Drizzle 8 993 93 4000 12.3 150 14:43 18.12.2019
6029 Rain 8 994 93 4500 10.3 150 14:22 18.12.2019
6030 Rain 8 995 93 6000 10.8 150 13:58 18.12.2019
6031 Rain 8 995 93 6000 10.8 150 13:39 18.12.2019
6032 Rain 8 995 93 5000 10.8 150 13:20 18.12.2019
6033 Rain 8 996 93 6000 9.8 140 12:59 18.12.2019
6034 Rain 8 996 93 6000 9.8 140 12:39 18.12.2019
6035 Rain 8 997 93 6000 10.8 140 12:20 18.12.2019
6036 Rain 8 997 93 6000 10.3 140 11:56 18.12.2019
6037 Rain 8 997 93 6000 10.3 140 11:38 18.12.2019
6038 Rain 8 997 93 6000 10.3 140 11:38 18.12.2019
6039 Rain 8 998 93 7000 8.2 140 11:19 18.12.2019
6040 Drizzle 8 998 87 9000 8.2 140 10:57 18.12.2019
6041 Drizzle 8 998 87 9000 8.2 140 10:57 18.12.2019
6042 Drizzle 7 998 87 9000 8.2 140 10:38 18.12.2019
6043 Rain 7 998 81 10000 7.2 140 10:20 18.12.2019
6044 Clouds 7 999 81 10000 7.7 140 09:50 18.12.2019
6045 Clouds 7 999 81 10000 7.7 140 09:50 18.12.2019
6046 Clouds 7 999 81 10000 7.2 140 09:19 18.12.2019
6047 Rain 6 999 87 10000 8.2 160 08:41 18.12.2019
6048 Rain 6 1000 87 10000 5.7 140 08:23 18.12.2019
6049 Rain 6 1000 87 10000 6.2 160 07:55 18.12.2019
6050 Clouds 5 1000 87 10000 6.2 160 07:36 18.12.2019
6051 Clouds 5 1000 93 10000 4.6 140 07:18 18.12.2019
6052 Clouds 3 1001 100 10000 2.6 130 06:49 18.12.2019
6053 Clouds 2 1001 88 10000 3.1 90 06:22 18.12.2019
6054 Clouds 1 1002 92 10000 2.1 130 05:27 18.12.2019
6055 Clouds 1 1002 93 10000 2.1 150 03:31 18.12.2019
6056 Clouds 1 1002 89 10000 1.5 0 02:41 18.12.2019
6057 Clouds 1 1002 100 10000 2.1 160 02:23 18.12.2019
6058 Clouds 0 1003 100 10000 1.5 150 01:42 18.12.2019
6059 Clouds 0 1002 100 10000 1.5 120 01:23 18.12.2019
6060 Clouds -1 1002 100 10000 1.5 160 00:42 18.12.2019
6061 Clouds 0 1002 100 10000 1.5 140 00:23 18.12.2019
6062 Clouds 0 1002 100 10000 1 180 23:57 17.12.2019
6063 Clouds 0 1002 100 10000 1 180 23:39 17.12.2019
6064 Clear -1 1002 100 10000 1 190 23:19 17.12.2019
6065 Fog -1 1002 100 10000 0.5 140 22:56 17.12.2019
6066 Fog -1 1002 100 10000 0.5 140 22:38 17.12.2019
6067 Fog -1 1002 100 5000 0.5 140 22:19 17.12.2019
6068 Clouds 0 1001 92 6000 1.5 270 21:55 17.12.2019
6069 Clouds 0 1001 92 6000 1.5 270 21:37 17.12.2019
6070 Clouds 0 1001 92 7000 2.6 290 21:19 17.12.2019
6071 Clouds 0 1001 100 9000 2.6 290 20:57 17.12.2019
6072 Clouds 1 1001 100 9000 2.6 290 20:38 17.12.2019
6073 Clouds 1 1001 93 9000 2.6 270 20:18 17.12.2019
6074 Clouds 1 1001 93 9000 2.6 270 19:56 17.12.2019
6075 Clouds 1 1001 93 9000 2.6 270 19:37 17.12.2019
6076 Clouds 1 1000 93 10000 3.1 270 19:18 17.12.2019
6077 Clouds 1 1000 93 10000 2.6 250 18:43 17.12.2019
6078 Clouds 1 1000 93 10000 2.6 250 18:43 17.12.2019
6079 Clouds 2 1000 93 10000 2.1 250 18:23 17.12.2019
6080 Clouds 2 1000 93 10000 3.1 250 17:59 17.12.2019
6081 Clouds 2 1000 93 10000 3.1 250 17:41 17.12.2019
6082 Clouds 2 1000 93 10000 3.1 250 17:41 17.12.2019
6083 Clouds 3 1000 86 10000 2.6 250 17:19 17.12.2019
6084 Clouds 3 999 86 10000 3.1 250 16:56 17.12.2019
6085 Clouds 4 999 86 10000 3.1 250 16:37 17.12.2019
6086 Clouds 4 999 86 10000 3.1 260 16:19 17.12.2019
6087 Clouds 4 999 93 10000 2.6 240 15:56 17.12.2019
6088 Clouds 4 999 93 10000 2.6 240 15:37 17.12.2019
6089 Clouds 4 999 93 10000 3.6 250 15:19 17.12.2019
6090 Clouds 4 999 100 9000 4.1 250 14:55 17.12.2019
6091 Clouds 4 999 100 9000 4.1 250 14:37 17.12.2019
6092 Clouds 4 999 100 9000 3.6 260 14:18 17.12.2019
6093 Clouds 4 999 100 9000 3.6 260 14:18 17.12.2019
6094 Clouds 4 998 93 9000 3.6 260 13:55 17.12.2019
6095 Clouds 4 998 93 9000 3.6 260 13:37 17.12.2019
6096 Clouds 4 998 100 7000 3.6 260 13:18 17.12.2019
6097 Mist 4 998 100 3000 4.1 260 12:41 17.12.2019
6098 Clouds 4 999 100 7000 3.6 260 12:19 17.12.2019
6099 Clouds 3 999 93 7000 4.1 250 11:59 17.12.2019
6100 Clouds 3 999 93 7000 4.1 250 11:59 17.12.2019
6101 Clouds 3 999 93 7000 4.1 250 11:38 17.12.2019
6102 Clouds 3 998 93 7000 3.6 260 11:19 17.12.2019
6103 Clouds 3 998 100 9000 3.6 260 10:59 17.12.2019
6104 Clouds 3 998 100 9000 3.6 260 10:41 17.12.2019
6105 Clouds 3 998 100 9000 3.6 260 10:41 17.12.2019
6106 Clouds 3 997 93 9000 4.1 260 10:22 17.12.2019
6107 Drizzle 3 997 93 10000 4.6 260 09:59 17.12.2019
6108 Drizzle 3 997 93 10000 4.6 260 09:41 17.12.2019
6109 Drizzle 3 997 93 10000 3.1 250 09:20 17.12.2019
6110 Drizzle 3 997 93 10000 4.1 250 08:56 17.12.2019
6111 Drizzle 3 997 93 10000 4.1 250 08:38 17.12.2019
6112 Clouds 3 996 93 10000 3.6 240 08:19 17.12.2019
6113 Clouds 3 996 93 10000 3.1 240 07:47 17.12.2019
6114 Clouds 3 996 86 10000 3.6 250 07:27 17.12.2019
6115 Clouds 3 996 86 10000 3.1 240 06:59 17.12.2019
6116 Clouds 3 996 86 10000 3.1 240 06:35 17.12.2019
6117 Clouds 3 996 80 10000 3.6 240 05:53 17.12.2019
6118 Clouds 3 996 80 10000 3.6 230 05:35 17.12.2019
6119 Clouds 3 996 80 10000 3.1 220 04:31 17.12.2019
6120 Clear 3 996 91 10000 4.1 220 02:34 17.12.2019
6121 Clear 3 996 89 10000 4.1 220 01:55 17.12.2019
6122 Clear 3 996 88 10000 4.6 220 00:59 17.12.2019
6123 Clear 3 996 88 10000 4.6 220 00:38 17.12.2019
6124 Clear 3 996 88 10000 3.6 220 00:19 17.12.2019
6125 Clear 3 995 88 10000 4.1 230 23:41 16.12.2019
6126 Clear 3 996 88 10000 3.6 220 23:19 16.12.2019
6127 Clear 3 996 88 10000 3.6 220 23:19 16.12.2019
6128 Clear 3 996 88 10000 3.6 220 23:19 16.12.2019
6129 Clear 3 996 88 10000 3.6 220 23:19 16.12.2019
6130 Clear 3 996 88 10000 4.6 230 22:56 16.12.2019
6131 Clear 3 996 88 10000 4.6 230 22:37 16.12.2019
6132 Clouds 2 996 88 10000 4.1 220 22:19 16.12.2019
6133 Clouds 2 996 88 10000 4.1 220 22:19 16.12.2019
6134 Clouds 2 996 88 10000 3.1 200 21:55 16.12.2019
6135 Clouds 2 996 88 10000 3.1 200 21:55 16.12.2019
6136 Clouds 2 996 88 10000 3.1 200 21:37 16.12.2019
6137 Clouds 2 996 88 10000 3.1 210 21:19 16.12.2019
6138 Clouds 2 996 88 10000 3.6 210 20:57 16.12.2019
6139 Clouds 2 996 88 10000 3.6 210 20:37 16.12.2019
6140 Clouds 2 996 88 10000 4.1 220 20:19 16.12.2019
6141 Clouds 2 996 88 10000 4.1 210 19:56 16.12.2019
6142 Clouds 2 996 88 10000 4.1 210 19:56 16.12.2019
6143 Clouds 2 996 88 10000 4.1 210 19:37 16.12.2019
6144 Clouds 2 996 88 10000 4.1 210 19:18 16.12.2019
6145 Clouds 3 996 88 10000 4.1 210 18:56 16.12.2019
6146 Clouds 3 996 88 10000 3.6 210 18:37 16.12.2019
6147 Clouds 3 996 88 10000 3.6 210 18:19 16.12.2019
6148 Clouds 4 996 88 10000 3.6 210 17:57 16.12.2019
6149 Clouds 3 996 88 10000 3.6 210 17:38 16.12.2019
6150 Clouds 4 996 88 10000 3.6 210 17:38 16.12.2019
6151 Clouds 4 996 83 10000 4.1 210 17:19 16.12.2019
6152 Clouds 4 996 75 10000 5.1 220 16:55 16.12.2019
6153 Clouds 5 996 75 10000 5.1 220 16:37 16.12.2019
6154 Clouds 5 996 70 10000 4.6 210 16:18 16.12.2019
6155 Clouds 5 996 70 10000 5.1 210 15:57 16.12.2019
6156 Clouds 5 996 70 10000 5.1 220 15:38 16.12.2019
6157 Clouds 5 996 70 10000 5.1 220 15:19 16.12.2019
6158 Clouds 6 996 70 10000 4.1 230 14:54 16.12.2019
6159 Clouds 6 996 70 10000 4.1 230 14:36 16.12.2019
6160 Clouds 6 996 70 10000 4.1 240 14:18 16.12.2019
6161 Clouds 5 996 70 10000 5.1 220 13:55 16.12.2019
6162 Clouds 5 996 70 10000 5.1 220 13:36 16.12.2019
6163 Clouds 5 996 70 10000 4.6 220 13:18 16.12.2019
6164 Clouds 5 996 70 10000 4.6 220 13:18 16.12.2019
6165 Clouds 5 996 75 10000 4.1 220 12:54 16.12.2019
6166 Clouds 5 996 75 10000 4.1 220 12:36 16.12.2019
6167 Clouds 5 996 75 10000 4.6 220 12:18 16.12.2019
6168 Clouds 4 996 80 10000 4.1 230 11:55 16.12.2019
6169 Clouds 4 996 80 10000 4.1 230 11:37 16.12.2019
6170 Clouds 3 996 91 10000 4.1 230 11:19 16.12.2019
6171 Clouds 3 995 89 10000 4.6 210 10:40 16.12.2019
6172 Clouds 3 995 89 10000 4.6 210 10:40 16.12.2019
6173 Clouds 3 995 89 10000 4.1 230 10:21 16.12.2019
6174 Clouds 2 995 89 10000 4.1 230 09:59 16.12.2019
6175 Clouds 3 995 91 10000 4.1 220 09:41 16.12.2019
6176 Clouds 3 994 91 10000 4.6 230 09:23 16.12.2019
6177 Clouds 3 993 86 10000 5.1 250 08:40 16.12.2019
6178 Clouds 3 993 86 10000 4.6 230 08:19 16.12.2019
6179 Clouds 2 993 89 10000 4.6 230 07:53 16.12.2019
6180 Clouds 2 993 89 10000 4.6 230 07:31 16.12.2019
6181 Clouds 3 992 86 10000 4.6 230 06:57 16.12.2019
6182 Clouds 3 992 86 10000 4.6 230 06:39 16.12.2019
6183 Clouds 3 992 86 10000 4.1 230 06:18 16.12.2019
6184 Clouds 3 991 86 10000 5.7 250 05:41 16.12.2019
6185 Clouds 3 991 86 10000 7.2 260 05:22 16.12.2019
6186 Rain 4 988 86 10000 5.7 230 03:28 16.12.2019
6187 Clouds 5 987 75 10000 6.7 230 01:46 16.12.2019
6188 Clouds 5 987 75 10000 6.2 220 01:21 16.12.2019
6189 Clouds 5 986 75 10000 6.7 220 00:39 16.12.2019
6190 Clouds 5 986 83 10000 6.7 220 00:19 16.12.2019
6191 Clouds 5 986 83 10000 7.7 220 23:44 15.12.2019
6192 Clouds 5 986 76 10000 7.2 220 23:25 15.12.2019
6193 Clouds 5 986 76 10000 6.7 220 22:57 15.12.2019
6194 Clouds 5 986 76 10000 6.7 220 22:39 15.12.2019
6195 Clouds 5 986 76 10000 7.7 220 22:19 15.12.2019
6196 Clouds 5 987 76 10000 4.6 200 21:58 15.12.2019
6197 Clouds 5 987 76 10000 4.6 200 21:39 15.12.2019
6198 Clouds 5 987 80 10000 4.1 180 21:20 15.12.2019
6199 Clouds 5 987 80 10000 4.1 180 21:20 15.12.2019
6200 Clouds 5 987 80 10000 4.6 180 20:58 15.12.2019
6201 Clouds 5 987 80 10000 4.6 180 20:58 15.12.2019
6202 Clouds 5 987 80 10000 4.6 180 20:40 15.12.2019
6203 Clouds 4 987 75 10000 4.6 190 20:22 15.12.2019
6204 Clouds 4 987 75 10000 5.7 190 19:58 15.12.2019
6205 Clouds 4 987 81 10000 6.2 190 19:40 15.12.2019
6206 Clouds 4 987 82 10000 6.2 190 19:20 15.12.2019
6207 Clouds 4 987 81 10000 2.6 180 18:58 15.12.2019
6208 Clouds 4 987 81 10000 2.6 180 18:58 15.12.2019
6209 Clouds 4 987 82 10000 2.6 180 18:39 15.12.2019
6210 Clouds 4 987 80 10000 2.1 200 18:19 15.12.2019
6211 Clouds 4 987 80 10000 2.6 190 17:57 15.12.2019
6212 Clouds 4 987 80 10000 3.6 180 17:38 15.12.2019
6213 Clouds 4 987 80 10000 3.6 180 17:19 15.12.2019
6214 Clouds 4 987 80 10000 4.1 210 16:59 15.12.2019
6215 Clouds 4 987 80 10000 4.1 210 16:41 15.12.2019
6216 Clouds 4 987 80 10000 3.6 220 16:21 15.12.2019
6217 Clouds 5 987 80 10000 4.1 210 15:56 15.12.2019
6218 Clouds 5 987 80 10000 4.1 210 15:56 15.12.2019
6219 Clouds 4 987 80 10000 4.1 210 15:38 15.12.2019
6220 Clouds 4 987 75 10000 2.6 150 15:19 15.12.2019
6221 Clouds 4 987 75 10000 2.6 150 15:19 15.12.2019
6222 Rain 4 988 80 10000 3.1 150 14:56 15.12.2019
6223 Rain 4 988 80 10000 3.1 150 14:37 15.12.2019
6224 Rain 3 988 76 10000 4.1 160 14:18 15.12.2019
6225 Rain 4 988 69 10000 2.1 140 13:58 15.12.2019
6226 Rain 4 988 69 10000 2.1 140 13:37 15.12.2019
6227 Rain 3 988 69 10000 2.1 150 13:19 15.12.2019
6228 Clouds 3 989 69 10000 2.1 170 12:57 15.12.2019
6229 Clouds 3 989 69 10000 2.1 170 12:39 15.12.2019
6230 Clouds 3 989 76 10000 1.5 0 12:20 15.12.2019
6231 Clouds 2 989 76 10000 2.1 190 11:56 15.12.2019
6232 Clouds 1 989 86 10000 3.1 210 11:36 15.12.2019
6233 Clouds 1 989 86 10000 3.1 210 11:18 15.12.2019
6234 Clouds 1 989 86 10000 3.6 200 10:55 15.12.2019
6235 Clouds 1 988 86 10000 3.6 170 10:36 15.12.2019
6236 Clouds 1 988 86 10000 3.6 170 10:18 15.12.2019
6237 Clouds 1 987 91 10000 5.7 250 09:40 15.12.2019
6238 Clouds 1 987 86 10000 5.1 250 09:20 15.12.2019
6239 Clouds 1 987 91 10000 5.1 250 08:58 15.12.2019
6240 Clouds 1 987 91 10000 5.1 250 08:39 15.12.2019
6241 Clouds 1 987 88 10000 4.6 250 08:20 15.12.2019
6242 Clouds 1 986 88 10000 5.1 250 07:56 15.12.2019
6243 Clouds 1 985 88 10000 7.2 260 07:34 15.12.2019
6244 Clouds 2 985 88 10000 6.2 250 06:44 15.12.2019
6245 Clouds 2 984 93 10000 4.6 250 06:19 15.12.2019
6246 Rain 2 983 88 10000 6.7 260 05:26 15.12.2019
6247 Clouds 2 982 95 10000 7.7 250 04:47 15.12.2019
6248 Clouds 2 981 95 10000 5.7 240 03:22 15.12.2019
6249 Clouds 2 981 95 10000 5.7 240 02:33 15.12.2019
6250 Clouds 2 980 92 10000 5.1 240 01:46 15.12.2019
6251 Clouds 2 981 94 10000 6.2 240 01:28 15.12.2019
6252 Clouds 2 981 94 10000 3.6 240 00:54 15.12.2019
6253 Clouds 2 981 94 10000 3.6 240 00:35 15.12.2019
6254 Clouds 3 980 86 10000 3.1 230 23:58 14.12.2019
6255 Clouds 3 980 86 10000 3.1 230 23:58 14.12.2019
6256 Clouds 2 980 86 10000 3.1 230 23:39 14.12.2019
6257 Clouds 2 980 86 10000 4.6 220 23:19 14.12.2019
6258 Clouds 3 980 86 10000 4.6 240 22:57 14.12.2019
6259 Clouds 3 980 86 10000 4.6 240 22:39 14.12.2019
6260 Clouds 3 981 80 10000 2.6 230 22:20 14.12.2019
6261 Clouds 3 981 93 10000 3.1 220 21:55 14.12.2019
6262 Clouds 3 981 93 10000 3.1 220 21:55 14.12.2019
6263 Clouds 3 981 93 10000 3.1 220 21:37 14.12.2019
6264 Clouds 4 982 93 10000 3.1 230 21:18 14.12.2019
6265 Clouds 4 982 69 10000 3.1 210 20:55 14.12.2019
6266 Clouds 3 982 69 10000 3.1 210 20:37 14.12.2019
6267 Clouds 3 983 64 10000 2.6 190 20:18 14.12.2019
6268 Clouds 3 983 64 10000 2.6 190 20:18 14.12.2019
6269 Clouds 3 983 64 10000 3.1 190 19:40 14.12.2019
6270 Clouds 2 983 69 10000 3.6 190 19:21 14.12.2019
6271 Clouds 3 984 64 10000 4.1 220 18:57 14.12.2019
6272 Clouds 3 984 64 10000 4.1 220 18:39 14.12.2019
6273 Clouds 3 984 69 10000 4.6 220 18:21 14.12.2019
6274 Clouds 3 984 64 10000 6.2 220 17:59 14.12.2019
6275 Clouds 3 984 64 10000 6.2 220 17:41 14.12.2019
6276 Clouds 4 985 64 10000 6.7 220 17:22 14.12.2019
6277 Clouds 5 985 65 10000 7.2 220 16:41 14.12.2019
6278 Clouds 5 985 73 10000 7.7 220 16:19 14.12.2019
6279 Clouds 5 985 73 10000 6.7 230 15:56 14.12.2019
6280 Clouds 5 985 73 10000 6.7 230 15:38 14.12.2019
6281 Clouds 4 985 73 10000 7.2 220 15:19 14.12.2019
6282 Clouds 4 985 73 10000 6.2 230 14:56 14.12.2019
6283 Clouds 4 985 73 10000 6.2 230 14:37 14.12.2019
6284 Clouds 4 985 73 10000 6.2 230 14:37 14.12.2019
6285 Clouds 5 985 75 10000 6.7 230 14:18 14.12.2019
6286 Clouds 4 985 71 10000 7.2 240 13:44 14.12.2019
6287 Clouds 4 985 69 10000 7.7 240 13:19 14.12.2019
6288 Clouds 3 985 71 10000 6.7 230 12:58 14.12.2019
6289 Clouds 3 985 71 10000 6.7 230 12:39 14.12.2019
6290 Clouds 3 985 69 10000 7.7 240 12:20 14.12.2019
6291 Clouds 2 985 69 10000 7.2 240 11:58 14.12.2019
6292 Clouds 2 985 71 10000 7.2 240 11:39 14.12.2019
6293 Clouds 2 984 83 10000 6.7 240 11:19 14.12.2019
6294 Clouds 2 984 83 10000 5.7 240 10:56 14.12.2019
6295 Clouds 2 984 83 10000 5.7 240 10:38 14.12.2019
6296 Clouds 2 984 83 10000 7.2 240 10:20 14.12.2019
6297 Clouds 2 983 83 10000 6.2 240 09:43 14.12.2019
6298 Clouds 2 983 93 10000 6.2 240 09:23 14.12.2019
6299 Rain 2 983 86 8000 6.7 240 08:59 14.12.2019
6300 Rain 2 983 86 8000 6.7 240 08:59 14.12.2019
6301 Rain 2 983 86 8000 6.7 240 08:40 14.12.2019
6302 Rain 3 982 68 10000 5.7 230 08:19 14.12.2019
6303 Clouds 3 982 68 10000 7.2 240 07:40 14.12.2019
6304 Clouds 3 982 68 10000 6.7 230 07:21 14.12.2019
6305 Clouds 3 982 68 10000 5.7 230 06:55 14.12.2019
6306 Clouds 3 982 68 10000 6.7 230 06:36 14.12.2019
6307 Clouds 3 982 68 10000 5.7 230 05:52 14.12.2019
6308 Clouds 3 981 71 10000 7.2 250 04:29 14.12.2019
6309 Clouds 3 981 80 10000 6.7 240 02:24 14.12.2019
6310 Clouds 3 980 86 10000 5.7 240 01:44 14.12.2019
6311 Clouds 3 980 77 10000 6.2 250 01:20 14.12.2019
6312 Clouds 4 980 80 10000 6.7 260 00:43 14.12.2019
6313 Clouds 4 980 86 10000 5.7 250 00:22 14.12.2019
6314 Clouds 4 980 86 10000 4.6 250 23:42 13.12.2019
6315 Clouds 4 979 86 10000 5.1 240 23:20 13.12.2019
6316 Clouds 4 979 86 10000 5.7 240 22:59 13.12.2019
6317 Clouds 4 979 86 10000 5.7 240 22:40 13.12.2019
6318 Clouds 4 979 80 10000 5.1 250 22:18 13.12.2019
6319 Clouds 4 979 86 10000 4.6 240 21:46 13.12.2019
6320 Clouds 5 979 80 10000 5.7 250 21:22 13.12.2019
6321 Clouds 5 979 80 10000 5.7 240 20:59 13.12.2019
6322 Clouds 5 979 80 10000 5.7 240 20:40 13.12.2019
6323 Clouds 5 979 80 10000 4.6 250 20:21 13.12.2019
6324 Clouds 5 979 80 10000 4.6 250 19:57 13.12.2019
6325 Clouds 5 979 75 10000 5.1 240 19:39 13.12.2019
6326 Clouds 5 979 75 10000 5.1 240 19:20 13.12.2019
6327 Clouds 5 979 80 10000 4.1 240 18:56 13.12.2019
6328 Clouds 5 979 80 10000 4.6 240 18:38 13.12.2019
6329 Clouds 5 979 80 10000 4.6 240 18:38 13.12.2019
6330 Clouds 5 979 80 10000 4.6 240 18:18 13.12.2019
6331 Clouds 5 979 80 10000 4.6 240 18:18 13.12.2019
6332 Clouds 5 980 70 10000 5.7 250 17:41 13.12.2019
6333 Clouds 5 980 70 10000 5.7 250 17:19 13.12.2019
6334 Clouds 5 980 70 10000 5.7 250 17:19 13.12.2019
6335 Clouds 6 980 70 10000 6.7 250 16:58 13.12.2019
6336 Clouds 6 980 70 10000 6.7 260 16:39 13.12.2019
6337 Clouds 6 980 70 10000 6.7 260 16:20 13.12.2019
6338 Rain 6 980 65 10000 10.3 260 15:43 13.12.2019
6339 Rain 7 980 65 10000 10.3 260 15:22 13.12.2019
6340 Rain 6 980 70 10000 10.8 260 14:57 13.12.2019
6341 Rain 7 980 70 10000 11.3 270 14:39 13.12.2019
6342 Rain 7 980 70 10000 11.3 270 14:20 13.12.2019
6343 Rain 7 980 70 10000 10.8 260 13:45 13.12.2019
6344 Rain 7 980 70 10000 9.8 260 13:27 13.12.2019
6345 Clouds 7 980 70 10000 10.3 260 12:59 13.12.2019
6346 Clouds 6 980 75 10000 9.8 260 12:41 13.12.2019
6347 Clouds 6 980 75 10000 9.8 260 12:19 13.12.2019
6348 Rain 6 979 75 10000 9.3 250 11:45 13.12.2019
6349 Clouds 6 979 75 10000 9.3 260 11:27 13.12.2019
6350 Clouds 6 978 75 10000 8.7 250 10:58 13.12.2019
6351 Clouds 5 978 80 10000 8.7 250 10:40 13.12.2019
6352 Clouds 5 978 80 10000 8.7 250 10:21 13.12.2019
6353 Clouds 5 978 80 10000 8.7 250 09:43 13.12.2019
6354 Clouds 5 978 80 10000 9.3 260 09:22 13.12.2019
6355 Clouds 5 977 80 10000 8.2 260 08:55 13.12.2019
6356 Clouds 5 977 80 10000 9.3 260 08:37 13.12.2019
6357 Clouds 5 977 80 10000 9.3 260 08:19 13.12.2019
6358 Clouds 5 976 80 10000 10.3 260 07:43 13.12.2019
6359 Clouds 5 976 80 10000 10.3 260 07:19 13.12.2019
6360 Clouds 5 976 80 10000 9.3 260 06:46 13.12.2019
6361 Clouds 5 975 80 10000 11.3 270 06:27 13.12.2019
6362 Rain 5 975 86 10000 10.8 260 05:41 13.12.2019
6363 Rain 5 975 86 10000 10.8 260 05:20 13.12.2019
6364 Clouds 5 974 86 10000 8.2 250 04:29 13.12.2019
6365 Clouds 5 974 86 10000 7.2 250 03:29 13.12.2019
6366 Clouds 5 973 86 10000 8.7 260 02:31 13.12.2019
6367 Clouds 5 973 86 10000 9.3 260 01:39 13.12.2019
6368 Clouds 5 973 86 10000 8.2 270 00:51 13.12.2019
6369 Clouds 5 973 93 10000 8.7 270 00:29 13.12.2019
6370 Clouds 5 973 93 10000 8.2 270 23:46 12.12.2019
6371 Rain 5 973 93 10000 7.7 270 23:27 12.12.2019
6372 Rain 5 972 93 9000 9.8 290 22:57 12.12.2019
6373 Rain 4 972 93 8000 11.3 270 22:39 12.12.2019
6374 Rain 5 972 93 8000 11.3 270 22:21 12.12.2019
6375 Rain 5 972 93 8000 6.7 270 21:56 12.12.2019
6376 Rain 6 972 93 8000 4.6 250 21:37 12.12.2019
6377 Rain 6 972 93 8000 4.6 250 21:19 12.12.2019
6378 Rain 6 972 93 8000 4.6 250 21:19 12.12.2019
6379 Rain 6 972 93 7000 4.1 230 20:59 12.12.2019
6380 Rain 6 973 93 10000 3.1 230 20:40 12.12.2019
6381 Rain 7 973 93 10000 3.1 230 20:22 12.12.2019
6382 Rain 7 974 93 10000 3.1 230 19:56 12.12.2019
6383 Rain 7 974 93 10000 3.1 230 19:37 12.12.2019
6384 Rain 7 974 93 10000 3.1 230 19:19 12.12.2019
6385 Rain 7 975 93 10000 2.1 240 18:56 12.12.2019
6386 Clouds 7 975 87 10000 3.6 240 18:38 12.12.2019
6387 Clouds 7 975 87 10000 3.6 240 18:19 12.12.2019
6388 Clouds 7 976 93 10000 5.1 250 17:57 12.12.2019
6389 Clouds 7 976 93 10000 4.6 260 17:38 12.12.2019
6390 Clouds 7 976 93 10000 4.6 260 17:19 12.12.2019
6391 Clouds 8 976 87 10000 7.2 270 16:55 12.12.2019
6392 Clouds 8 977 87 10000 7.2 270 16:36 12.12.2019
6393 Clouds 8 977 87 10000 7.2 270 16:18 12.12.2019
6394 Clouds 8 978 87 10000 8.7 270 15:42 12.12.2019
6395 Clouds 8 978 87 10000 8.7 270 15:20 12.12.2019
6396 Clouds 8 978 93 10000 8.2 270 14:59 12.12.2019
6397 Clouds 8 979 93 10000 7.7 270 14:38 12.12.2019
6398 Clouds 8 979 93 10000 7.7 270 14:19 12.12.2019
6399 Drizzle 8 979 93 10000 5.1 260 13:56 12.12.2019
6400 Clouds 8 979 100 10000 3.1 250 13:38 12.12.2019
6401 Clouds 7 979 100 10000 3.1 250 13:20 12.12.2019
6402 Drizzle 7 980 100 10000 3.1 240 12:56 12.12.2019
6403 Drizzle 7 980 93 10000 3.6 240 12:38 12.12.2019
6404 Clouds 7 981 100 10000 2.1 210 12:19 12.12.2019
6405 Rain 7 981 100 10000 2.1 210 11:54 12.12.2019
6406 Rain 6 981 100 10000 1.5 180 11:36 12.12.2019
6407 Rain 6 982 100 10000 1 0 11:18 12.12.2019
6408 Rain 6 982 100 10000 1 0 10:41 12.12.2019
6409 Rain 6 982 100 10000 1 0 10:23 12.12.2019
6410 Rain 6 982 100 10000 1 0 10:23 12.12.2019
6411 Rain 6 983 100 10000 2.1 150 09:59 12.12.2019
6412 Rain 6 983 93 10000 1.5 0 09:41 12.12.2019
6413 Rain 6 983 93 10000 1.5 0 09:23 12.12.2019
6414 Rain 5 984 100 10000 2.1 140 08:55 12.12.2019
6415 Rain 5 985 93 10000 2.6 150 08:37 12.12.2019
6416 Rain 5 985 93 10000 2.6 150 08:18 12.12.2019
6417 Rain 5 986 93 10000 2.6 150 07:41 12.12.2019
6418 Rain 5 986 93 10000 2.6 150 07:23 12.12.2019
6419 Rain 5 987 93 10000 3.1 150 06:44 12.12.2019
6420 Clouds 5 988 86 10000 4.1 140 06:24 12.12.2019
6421 Rain 4 990 93 10000 4.1 140 05:36 12.12.2019
6422 Rain 4 991 86 10000 3.1 120 04:51 12.12.2019
6423 Rain 3 995 80 10000 5.1 200 02:57 12.12.2019
6424 Clouds 3 996 80 10000 4.6 200 02:37 12.12.2019
6425 Clouds 3 996 80 10000 4.6 200 02:18 12.12.2019
6426 Clouds 3 997 82 10000 4.1 220 01:36 12.12.2019
6427 Clouds 3 998 82 10000 4.6 220 00:58 12.12.2019
6428 Clouds 3 998 82 10000 5.1 220 00:38 12.12.2019
6429 Clouds 3 998 82 10000 5.1 220 00:18 12.12.2019
6430 Clouds 3 999 82 10000 5.1 220 23:40 11.12.2019
6431 Clouds 3 999 82 10000 5.1 220 23:19 11.12.2019
6432 Clouds 3 999 82 10000 4.1 220 22:57 11.12.2019
6433 Clouds 3 999 82 10000 4.6 230 22:38 11.12.2019
6434 Clouds 3 999 82 10000 4.6 230 22:19 11.12.2019
6435 Clouds 2 999 82 10000 4.6 240 21:55 11.12.2019
6436 Clouds 2 1000 82 10000 4.1 240 21:37 11.12.2019
6437 Clouds 2 1000 82 10000 4.1 240 21:19 11.12.2019
6438 Clouds 2 1000 82 10000 5.1 240 20:55 11.12.2019
6439 Clouds 2 1000 82 10000 6.2 250 20:37 11.12.2019
6440 Clear 3 1000 79 10000 6.2 250 20:18 11.12.2019
6441 Clouds 3 1000 86 10000 6.2 250 19:43 11.12.2019
6442 Clouds 3 1000 86 10000 6.2 250 19:23 11.12.2019
6443 Clouds 3 999 86 10000 6.2 250 19:00 11.12.2019
6444 Clouds 3 999 86 10000 6.7 250 18:40 11.12.2019
6445 Clouds 3 999 86 10000 6.7 250 18:20 11.12.2019
6446 Clouds 4 999 80 10000 6.2 250 17:57 11.12.2019
6447 Clouds 4 999 80 10000 6.7 250 17:38 11.12.2019
6448 Clouds 4 999 80 10000 6.7 250 17:18 11.12.2019
6449 Clouds 4 999 80 10000 6.7 250 16:56 11.12.2019
6450 Clouds 4 998 75 10000 7.2 260 16:37 11.12.2019
6451 Clouds 4 998 75 10000 7.2 260 16:37 11.12.2019
6452 Clouds 4 998 75 10000 7.2 260 16:19 11.12.2019
6453 Clouds 4 998 75 10000 6.2 260 15:57 11.12.2019
6454 Clouds 5 998 75 10000 7.7 260 15:37 11.12.2019
6455 Clouds 5 998 75 10000 7.7 260 15:19 11.12.2019
6456 Clouds 5 998 75 10000 7.7 250 14:55 11.12.2019
6457 Clouds 5 998 75 10000 6.7 250 14:36 11.12.2019
6458 Clouds 5 998 75 10000 6.7 250 14:18 11.12.2019
6459 Clouds 4 998 80 10000 7.2 250 13:43 11.12.2019
6460 Clouds 4 998 80 10000 7.2 250 13:23 11.12.2019
6461 Clouds 4 998 80 10000 6.7 260 12:58 11.12.2019
6462 Clouds 4 998 80 10000 7.7 250 12:39 11.12.2019
6463 Clouds 4 998 80 10000 7.7 250 12:21 11.12.2019
6464 Clouds 4 998 80 10000 6.2 250 11:58 11.12.2019
6465 Clouds 4 998 86 10000 5.7 240 11:39 11.12.2019
6466 Clouds 3 998 86 10000 5.7 240 11:19 11.12.2019
6467 Clouds 3 998 86 10000 5.7 240 11:19 11.12.2019
6468 Clouds 3 998 86 10000 6.2 250 10:59 11.12.2019
6469 Clouds 3 998 86 10000 5.7 240 10:39 11.12.2019
6470 Clouds 3 998 86 10000 5.7 240 10:21 11.12.2019
6471 Clouds 3 998 86 10000 5.7 230 09:55 11.12.2019
6472 Clouds 3 998 88 10000 5.1 240 09:37 11.12.2019
6473 Clouds 3 998 88 10000 5.1 240 09:19 11.12.2019
6474 Clouds 4 998 80 10000 5.1 230 08:55 11.12.2019
6475 Clouds 3 998 86 10000 5.1 230 08:36 11.12.2019
6476 Clouds 3 998 86 10000 5.1 230 08:18 11.12.2019
6477 Clouds 4 998 80 10000 5.7 230 07:42 11.12.2019
6478 Clouds 4 999 80 10000 5.7 230 07:42 11.12.2019
6479 Clouds 4 999 80 10000 5.7 230 07:22 11.12.2019
6480 Clouds 4 999 80 10000 6.7 230 06:45 11.12.2019
6481 Clouds 4 999 80 10000 7.2 230 06:24 11.12.2019
6482 Clouds 4 1000 80 10000 6.7 230 05:52 11.12.2019
6483 Clouds 4 1000 80 10000 6.2 230 05:28 11.12.2019
6484 Clouds 4 1000 75 10000 6.7 230 04:48 11.12.2019
6485 Clouds 4 1001 80 10000 6.7 240 03:18 11.12.2019
6486 Clouds 4 1002 80 10000 6.7 240 01:56 11.12.2019
6487 Clouds 4 1002 80 10000 7.2 240 01:21 11.12.2019
6488 Clouds 4 1001 80 10000 7.7 250 00:36 11.12.2019
6489 Clouds 5 1001 80 10000 7.7 250 00:18 11.12.2019
6490 Clouds 5 1001 80 10000 7.7 250 23:41 10.12.2019
6491 Clouds 5 1001 80 10000 7.7 250 23:21 10.12.2019
6492 Clouds 5 1001 80 10000 6.7 240 22:42 10.12.2019
6493 Clouds 5 1001 86 10000 5.7 240 22:24 10.12.2019
6494 Clouds 5 1001 86 10000 5.7 240 22:24 10.12.2019
6495 Clouds 4 1000 86 10000 5.1 240 21:58 10.12.2019
6496 Clouds 4 1000 80 10000 6.2 250 21:39 10.12.2019
6497 Clouds 4 1000 80 10000 6.2 250 21:21 10.12.2019
6498 Clouds 5 1000 80 10000 6.2 240 20:58 10.12.2019
6499 Clouds 5 999 80 10000 6.2 240 20:38 10.12.2019
6500 Clouds 5 999 80 10000 6.2 240 20:19 10.12.2019
6501 Clouds 5 999 80 10000 6.2 240 20:19 10.12.2019
6502 Clouds 5 999 80 10000 6.2 240 20:19 10.12.2019
6503 Clouds 5 999 80 10000 6.7 250 19:56 10.12.2019
6504 Clouds 5 998 80 10000 6.7 240 19:37 10.12.2019
6505 Clouds 5 998 80 10000 6.7 240 19:19 10.12.2019
6506 Clouds 5 997 81 10000 5.7 240 18:42 10.12.2019
6507 Clouds 5 996 81 10000 5.7 250 18:21 10.12.2019
6508 Rain 6 996 87 10000 7.7 260 17:59 10.12.2019
6509 Rain 6 995 87 10000 9.8 270 17:41 10.12.2019
6510 Rain 6 995 87 10000 9.8 270 17:22 10.12.2019
6511 Rain 6 993 87 8000 8.7 270 16:57 10.12.2019
6512 Rain 7 993 93 8000 7.7 270 16:39 10.12.2019
6513 Rain 7 993 93 8000 7.7 270 16:19 10.12.2019
6514 Rain 7 993 93 8000 7.7 270 16:19 10.12.2019
6515 Rain 7 992 93 8000 12.9 270 15:39 10.12.2019
6516 Rain 8 992 93 8000 12.9 270 15:18 10.12.2019
6517 Rain 9 989 81 8000 9.3 230 14:56 10.12.2019
6518 Rain 11 989 87 8000 10.3 210 14:38 10.12.2019
6519 Rain 13 989 87 8000 10.3 210 14:20 10.12.2019
6520 Rain 13 989 87 8000 10.3 210 14:20 10.12.2019
6521 Rain 13 990 82 10000 9.3 200 13:58 10.12.2019
6522 Rain 13 991 87 10000 9.3 200 13:40 10.12.2019
6523 Rain 13 991 87 10000 9.3 200 13:20 10.12.2019
6524 Clouds 13 992 82 10000 10.8 200 12:48 10.12.2019
6525 Clouds 13 993 87 10000 11.3 200 12:28 10.12.2019
6526 Clouds 13 994 87 10000 10.3 200 11:56 10.12.2019
6527 Clouds 13 995 82 10000 9.8 200 11:38 10.12.2019
6528 Clouds 13 995 82 10000 9.8 200 11:19 10.12.2019
6529 Clouds 13 995 82 10000 9.8 200 11:19 10.12.2019
6530 Clouds 13 996 87 10000 9.8 200 10:43 10.12.2019
6531 Clouds 13 996 87 10000 9.3 200 10:24 10.12.2019
6532 Rain 13 997 87 10000 8.7 190 09:57 10.12.2019
6533 Rain 13 998 87 9000 9.8 190 09:39 10.12.2019
6534 Rain 12 999 87 10000 8.7 190 09:20 10.12.2019
6535 Rain 12 999 87 10000 8.7 190 08:58 10.12.2019
6536 Rain 12 1001 81 10000 9.8 190 08:39 10.12.2019
6537 Rain 11 1001 81 10000 9.8 190 08:20 10.12.2019
6538 Rain 11 1002 81 10000 10.8 190 07:45 10.12.2019
6539 Rain 11 1002 76 10000 8.7 200 07:27 10.12.2019
6540 Clouds 10 1003 81 10000 8.7 190 06:50 10.12.2019
6541 Rain 10 1004 76 10000 10.8 190 06:25 10.12.2019
6542 Clouds 10 1006 76 10000 8.2 190 05:57 10.12.2019
6543 Rain 10 1007 76 10000 10.8 190 05:38 10.12.2019
6544 Clouds 9 1011 81 10000 6.2 200 03:55 10.12.2019
6545 Clouds 9 1011 76 10000 5.1 170 03:24 10.12.2019
6546 Clouds 8 1015 75 10000 3.6 180 01:56 10.12.2019
6547 Clouds 8 1015 75 10000 3.1 190 01:28 10.12.2019
6548 Clouds 8 1015 75 10000 3.1 190 01:28 10.12.2019
6549 Clouds 7 1016 70 10000 3.1 170 00:58 10.12.2019
6550 Clouds 6 1017 75 10000 3.1 170 00:26 10.12.2019
6551 Clouds 6 1017 75 10000 2.6 180 23:58 09.12.2019
6552 Clouds 6 1018 81 10000 4.6 180 23:39 09.12.2019
6553 Clouds 6 1018 81 10000 4.6 180 23:20 09.12.2019
6554 Clouds 6 1019 81 10000 4.1 200 22:55 09.12.2019
6555 Clear 5 1020 81 10000 3.6 210 22:37 09.12.2019
6556 Clear 6 1020 81 10000 3.6 210 22:18 09.12.2019
6557 Clear 5 1020 86 10000 3.6 190 21:55 09.12.2019
6558 Clear 5 1020 86 10000 3.1 200 21:37 09.12.2019
6559 Clear 5 1020 86 10000 3.1 200 21:18 09.12.2019
6560 Clear 5 1020 81 10000 3.6 220 20:55 09.12.2019
6561 Clear 5 1020 81 10000 2.6 230 20:37 09.12.2019
6562 Clear 5 1020 81 10000 2.6 230 20:18 09.12.2019
6563 Clouds 5 1020 86 10000 2.6 220 19:54 09.12.2019
6564 Clouds 5 1021 86 10000 2.1 210 19:36 09.12.2019
6565 Clouds 5 1021 86 10000 2.1 210 19:18 09.12.2019
6566 Clouds 5 1021 87 10000 2.6 220 18:40 09.12.2019
6567 Clouds 5 1021 87 10000 2.6 220 18:20 09.12.2019
6568 Clouds 6 1021 81 10000 2.6 230 17:59 09.12.2019
6569 Clouds 6 1021 81 10000 2.6 230 17:41 09.12.2019
6570 Clouds 6 1021 81 10000 2.6 220 17:21 09.12.2019
6571 Clouds 6 1021 81 10000 2.6 250 16:58 09.12.2019
6572 Clouds 7 1021 75 10000 2.6 250 16:40 09.12.2019
6573 Clouds 7 1021 75 10000 2.6 250 16:21 09.12.2019
6574 Clouds 8 1021 75 10000 3.1 240 15:57 09.12.2019
6575 Clouds 8 1020 70 10000 4.1 270 15:38 09.12.2019
6576 Clouds 8 1020 70 10000 4.1 270 15:38 09.12.2019
6577 Clouds 8 1020 70 10000 4.1 270 15:19 09.12.2019
6578 Clouds 8 1020 70 10000 5.1 270 14:59 09.12.2019
6579 Clouds 8 1020 70 10000 5.1 270 14:41 09.12.2019
6580 Clouds 8 1020 70 10000 5.1 270 14:41 09.12.2019
6581 Clouds 8 1020 70 10000 6.7 280 14:18 09.12.2019
6582 Clouds 8 1019 70 10000 5.7 280 13:56 09.12.2019
6583 Clouds 8 1019 75 10000 6.2 290 13:37 09.12.2019
6584 Clouds 7 1019 75 10000 6.2 290 13:19 09.12.2019
6585 Clouds 7 1018 75 10000 7.7 290 12:55 09.12.2019
6586 Clouds 6 1018 81 10000 7.2 280 12:36 09.12.2019
6587 Clouds 6 1018 81 10000 7.2 280 12:18 09.12.2019
6588 Clouds 6 1017 86 10000 5.7 270 11:40 09.12.2019
6589 Clouds 6 1017 86 10000 5.7 270 11:22 09.12.2019
6590 Clouds 6 1016 86 10000 5.1 260 10:59 09.12.2019
6591 Clouds 6 1016 80 10000 4.6 270 10:39 09.12.2019
6592 Clouds 6 1016 80 10000 4.6 270 10:39 09.12.2019
6593 Clouds 5 1016 80 10000 4.6 270 10:19 09.12.2019
6594 Clouds 5 1015 80 10000 5.1 270 09:45 09.12.2019
6595 Clouds 5 1014 86 10000 5.1 280 09:25 09.12.2019
6596 Clouds 5 1013 86 10000 6.2 280 08:57 09.12.2019
6597 Clouds 6 1011 81 10000 8.2 290 08:39 09.12.2019
6598 Clouds 6 1011 81 10000 8.2 290 08:20 09.12.2019
6599 Clouds 6 1010 81 10000 7.7 290 07:52 09.12.2019
6600 Clouds 6 1009 81 10000 9.3 300 07:33 09.12.2019
6601 Clouds 6 1008 81 10000 9.3 300 06:58 09.12.2019
6602 Clouds 6 1007 81 10000 7.7 300 06:30 09.12.2019
6603 Clouds 7 1004 75 10000 9.3 300 05:42 09.12.2019
6604 Clouds 7 1004 75 10000 9.3 300 05:20 09.12.2019
6605 Clouds 8 1001 75 10000 10.8 310 04:27 09.12.2019
6606 Clouds 8 1001 75 10000 10.8 310 04:27 09.12.2019
6607 Clouds 8 994 75 10000 13.4 310 02:29 09.12.2019
6608 Rain 8 992 81 10000 14.9 300 01:46 09.12.2019
6609 Rain 7 988 93 10000 15.9 270 00:58 09.12.2019
6610 Rain 7 987 87 5000 12.9 270 00:33 09.12.2019
6611 Rain 6 987 87 10000 9.3 260 23:55 08.12.2019
6612 Rain 6 987 87 10000 9.3 260 23:55 08.12.2019
6613 Rain 6 987 87 10000 8.2 260 23:37 08.12.2019
6614 Rain 6 987 87 10000 8.2 260 23:18 08.12.2019
6615 Rain 6 987 87 10000 9.8 260 22:56 08.12.2019
6616 Rain 6 987 87 10000 7.2 260 22:38 08.12.2019
6617 Rain 6 987 87 10000 7.2 260 22:38 08.12.2019
6618 Rain 6 987 87 10000 7.2 260 22:18 08.12.2019
6619 Rain 6 987 87 10000 7.2 260 22:18 08.12.2019
6620 Clouds 6 987 87 10000 7.2 250 21:55 08.12.2019
6621 Drizzle 6 987 87 10000 7.2 250 21:37 08.12.2019
6622 Drizzle 6 987 87 10000 7.2 250 21:19 08.12.2019
6623 Drizzle 6 986 87 10000 6.2 240 20:55 08.12.2019
6624 Rain 5 986 87 10000 6.7 230 20:37 08.12.2019
6625 Rain 5 986 87 10000 6.7 230 20:18 08.12.2019
6626 Rain 5 986 93 10000 8.2 230 19:55 08.12.2019
6627 Rain 6 986 81 10000 9.3 220 19:36 08.12.2019
6628 Rain 5 986 81 10000 9.3 220 19:18 08.12.2019
6629 Rain 5 986 81 10000 9.3 220 19:18 08.12.2019
6630 Rain 5 986 81 10000 9.3 220 19:18 08.12.2019
6631 Rain 6 986 81 10000 8.2 230 18:54 08.12.2019
6632 Rain 6 987 81 10000 8.2 230 18:36 08.12.2019
6633 Rain 6 987 81 10000 8.2 230 18:18 08.12.2019
6634 Clouds 5 988 80 10000 7.7 230 17:54 08.12.2019
6635 Rain 5 988 81 10000 8.2 230 17:36 08.12.2019
6636 Rain 5 988 81 10000 8.2 230 17:18 08.12.2019
6637 Rain 5 989 86 10000 8.7 240 16:42 08.12.2019
6638 Rain 5 989 86 10000 8.2 230 16:24 08.12.2019
6639 Clouds 6 990 75 10000 7.7 230 15:59 08.12.2019
6640 Clouds 6 990 81 10000 7.2 240 15:37 08.12.2019
6641 Rain 6 991 81 10000 8.2 230 15:18 08.12.2019
6642 Rain 6 991 81 10000 8.2 230 14:46 08.12.2019
6643 Clouds 6 991 81 10000 7.7 230 14:25 08.12.2019
6644 Rain 6 992 87 10000 6.7 230 13:59 08.12.2019
6645 Rain 5 992 86 10000 9.3 250 13:41 08.12.2019
6646 Rain 6 992 86 10000 9.3 250 13:22 08.12.2019
6647 Rain 6 993 87 6000 6.2 250 12:59 08.12.2019
6648 Rain 6 993 87 6000 7.2 230 12:40 08.12.2019
6649 Rain 6 993 87 6000 7.2 230 12:19 08.12.2019
6650 Rain 6 993 87 6000 7.2 230 12:19 08.12.2019
6651 Rain 6 993 86 10000 7.7 230 11:58 08.12.2019
6652 Clouds 6 993 75 10000 7.2 230 11:37 08.12.2019
6653 Clouds 6 993 75 10000 7.2 230 11:19 08.12.2019
6654 Rain 5 993 86 10000 7.2 240 10:55 08.12.2019
6655 Rain 5 994 86 10000 7.2 240 10:37 08.12.2019
6656 Rain 5 994 86 10000 7.2 240 10:18 08.12.2019
6657 Rain 6 994 81 10000 7.7 240 09:55 08.12.2019
6658 Rain 6 994 81 9000 6.7 240 09:36 08.12.2019
6659 Rain 6 994 81 9000 6.7 240 09:18 08.12.2019
6660 Clouds 6 994 75 10000 6.7 240 08:41 08.12.2019
6661 Clouds 6 994 75 10000 6.7 240 08:23 08.12.2019
6662 Rain 7 994 81 10000 6.7 240 07:55 08.12.2019
6663 Drizzle 7 994 81 10000 10.3 240 07:36 08.12.2019
6664 Rain 7 994 81 8000 10.8 250 07:18 08.12.2019
6665 Rain 7 994 81 10000 7.2 250 06:40 08.12.2019
6666 Rain 7 994 81 10000 7.2 250 06:20 08.12.2019
6667 Rain 7 994 81 10000 7.2 250 05:23 08.12.2019
6668 Rain 7 994 87 10000 8.7 260 04:46 08.12.2019
6669 Rain 8 993 87 9000 15.4 270 03:39 08.12.2019
6670 Clouds 9 992 87 10000 12.9 260 02:42 08.12.2019
6671 Rain 10 992 81 10000 11.8 260 02:20 08.12.2019
6672 Drizzle 11 991 81 10000 13.4 260 01:35 08.12.2019
6673 Drizzle 12 991 93 9000 10.8 250 00:53 08.12.2019
6674 Drizzle 12 991 93 8000 8.7 230 00:24 08.12.2019
6675 Rain 12 991 93 10000 9.3 230 23:57 07.12.2019
6676 Rain 12 991 87 10000 10.3 220 23:37 07.12.2019
6677 Rain 12 992 93 10000 9.8 210 23:18 07.12.2019
6678 Rain 12 992 93 10000 9.8 210 22:55 07.12.2019
6679 Rain 11 993 87 10000 10.3 210 22:37 07.12.2019
6680 Rain 11 993 87 10000 10.3 210 22:18 07.12.2019
6681 Rain 11 994 93 10000 9.3 200 21:55 07.12.2019
6682 Rain 11 995 87 10000 8.2 200 21:37 07.12.2019
6683 Rain 11 995 87 10000 8.2 200 21:18 07.12.2019
6684 Rain 11 998 81 10000 7.2 210 20:38 07.12.2019
6685 Rain 11 998 81 10000 7.2 210 20:38 07.12.2019
6686 Rain 11 998 81 10000 7.2 210 20:20 07.12.2019
6687 Clouds 11 999 81 10000 7.7 200 19:58 07.12.2019
6688 Clouds 11 1000 81 10000 7.7 210 19:39 07.12.2019
6689 Clouds 11 1000 81 10000 7.7 210 19:21 07.12.2019
6690 Clouds 11 1000 81 10000 7.7 210 18:58 07.12.2019
6691 Clouds 11 1001 81 10000 8.7 220 18:40 07.12.2019
6692 Clouds 11 1001 81 10000 8.7 220 18:18 07.12.2019
6693 Clouds 10 1002 87 10000 6.7 220 17:56 07.12.2019
6694 Clouds 10 1003 87 10000 7.2 220 17:37 07.12.2019
6695 Clouds 10 1003 87 10000 7.2 220 17:19 07.12.2019
6696 Clouds 11 1004 81 10000 5.7 220 16:56 07.12.2019
6697 Clouds 11 1004 81 10000 5.1 230 16:36 07.12.2019
6698 Clouds 11 1004 81 10000 5.1 230 16:18 07.12.2019
6699 Clouds 11 1004 81 10000 5.1 230 16:18 07.12.2019
6700 Clouds 12 1005 76 10000 6.7 230 15:41 07.12.2019
6701 Clouds 12 1005 76 10000 6.7 230 15:23 07.12.2019
6702 Clouds 12 1005 76 10000 6.7 230 15:23 07.12.2019
6703 Clouds 12 1005 76 10000 6.2 230 14:56 07.12.2019
6704 Clouds 12 1006 81 10000 6.2 230 14:38 07.12.2019
6705 Clouds 12 1006 81 10000 6.2 230 14:18 07.12.2019
6706 Clouds 11 1007 87 10000 5.7 230 13:40 07.12.2019
6707 Clouds 11 1007 87 10000 5.7 230 13:20 07.12.2019
6708 Clouds 11 1008 87 10000 5.1 230 12:55 07.12.2019
6709 Clouds 11 1008 93